<?xml version='1.0' encoding='UTF-8'?><gpx version="1.1" creator="JPX - https://github.com/jenetics/jpx" xmlns="http://www.topografix.com/GPX/1/1"><trk><trkseg><trkpt lat="45.2205985" lon="8.5076432"><ele>109.99999999999999</ele><time>2026-05-03T06:19:18.962Z</time></trkpt><trkpt lat="45.2206659" lon="8.5076605"><ele>110.0</ele><time>2026-05-03T06:19:21.962Z</time></trkpt><trkpt lat="45.2207369" lon="8.5076582"><ele>110.0</ele><time>2026-05-03T06:19:25.962Z</time></trkpt><trkpt lat="45.2207274" lon="8.5075562"><ele>110.0</ele><time>2026-05-03T06:19:30.962Z</time></trkpt><trkpt lat="45.2207204" lon="8.5074659"><ele>110.0</ele><time>2026-05-03T06:19:46.963Z</time></trkpt><trkpt lat="45.2206342" lon="8.5074146"><ele>109.99999999999999</ele><time>2026-05-03T06:19:50.963Z</time></trkpt><trkpt lat="45.2205559" lon="8.5074022"><ele>110.0</ele><time>2026-05-03T06:19:52.963Z</time></trkpt><trkpt lat="45.2204823" lon="8.5074083"><ele>110.0</ele><time>2026-05-03T06:19:54.963Z</time></trkpt><trkpt lat="45.2204021" lon="8.5074057"><ele>110.0</ele><time>2026-05-03T06:19:56.963Z</time></trkpt><trkpt lat="45.2203031" lon="8.5074013"><ele>110.0</ele><time>2026-05-03T06:19:58.964Z</time></trkpt><trkpt lat="45.2201986" lon="8.5074031"><ele>110.0</ele><time>2026-05-03T06:20:00.963Z</time></trkpt><trkpt lat="45.2200918" lon="8.5074187"><ele>110.0</ele><time>2026-05-03T06:20:02.964Z</time></trkpt><trkpt lat="45.2200027" lon="8.5073824"><ele>109.99999999999999</ele><time>2026-05-03T06:20:05.963Z</time></trkpt><trkpt lat="45.219995" lon="8.5072465"><ele>110.0</ele><time>2026-05-03T06:20:07.963Z</time></trkpt><trkpt lat="45.2199974" lon="8.5071418"><ele>110.0</ele><time>2026-05-03T06:20:08.963Z</time></trkpt><trkpt lat="45.2200072" lon="8.5070394"><ele>110.0</ele><time>2026-05-03T06:20:09.963Z</time></trkpt><trkpt lat="45.2200111" lon="8.5069298"><ele>109.99999999999999</ele><time>2026-05-03T06:20:10.963Z</time></trkpt><trkpt lat="45.2200096" lon="8.5068285"><ele>110.0</ele><time>2026-05-03T06:20:11.963Z</time></trkpt><trkpt lat="45.2200049" lon="8.5067313"><ele>110.16666666666666</ele><time>2026-05-03T06:20:12.964Z</time></trkpt><trkpt lat="45.2200111" lon="8.5066299"><ele>110.33333333333333</ele><time>2026-05-03T06:20:13.964Z</time></trkpt><trkpt lat="45.220001" lon="8.5064785"><ele>110.5</ele><time>2026-05-03T06:20:15.963Z</time></trkpt><trkpt lat="45.2200045" lon="8.5063886"><ele>110.66666666666666</ele><time>2026-05-03T06:20:17.964Z</time></trkpt><trkpt lat="45.2199297" lon="8.5063397"><ele>110.83333333333333</ele><time>2026-05-03T06:20:22.964Z</time></trkpt><trkpt lat="45.2198663" lon="8.5063254"><ele>111.0</ele><time>2026-05-03T06:20:23.964Z</time></trkpt><trkpt lat="45.219794" lon="8.5063188"><ele>111.0</ele><time>2026-05-03T06:20:24.964Z</time></trkpt><trkpt lat="45.2197238" lon="8.5063137"><ele>111.0</ele><time>2026-05-03T06:20:25.965Z</time></trkpt><trkpt lat="45.2196506" lon="8.5063092"><ele>111.0</ele><time>2026-05-03T06:20:26.964Z</time></trkpt><trkpt lat="45.2195839" lon="8.5063054"><ele>111.0</ele><time>2026-05-03T06:20:27.964Z</time></trkpt><trkpt lat="45.219458" lon="8.506315"><ele>111.0</ele><time>2026-05-03T06:20:29.964Z</time></trkpt><trkpt lat="45.2193361" lon="8.5063235"><ele>111.0</ele><time>2026-05-03T06:20:31.964Z</time></trkpt><trkpt lat="45.2192728" lon="8.5063093"><ele>111.0</ele><time>2026-05-03T06:20:32.965Z</time></trkpt><trkpt lat="45.2192055" lon="8.5063082"><ele>111.0</ele><time>2026-05-03T06:20:33.965Z</time></trkpt><trkpt lat="45.2191378" lon="8.506302"><ele>111.0</ele><time>2026-05-03T06:20:34.964Z</time></trkpt><trkpt lat="45.2190695" lon="8.5062965"><ele>111.0</ele><time>2026-05-03T06:20:35.964Z</time></trkpt><trkpt lat="45.2190012" lon="8.50629"><ele>111.0</ele><time>2026-05-03T06:20:36.964Z</time></trkpt><trkpt lat="45.2189322" lon="8.5062891"><ele>111.0</ele><time>2026-05-03T06:20:37.964Z</time></trkpt><trkpt lat="45.2188538" lon="8.5062906"><ele>111.0</ele><time>2026-05-03T06:20:38.964Z</time></trkpt><trkpt lat="45.2187348" lon="8.5062736"><ele>111.0</ele><time>2026-05-03T06:20:40.964Z</time></trkpt><trkpt lat="45.2186261" lon="8.5062623"><ele>111.0</ele><time>2026-05-03T06:20:42.964Z</time></trkpt><trkpt lat="45.2185213" lon="8.5062679"><ele>111.0</ele><time>2026-05-03T06:20:44.965Z</time></trkpt><trkpt lat="45.2183941" lon="8.5062643"><ele>111.0</ele><time>2026-05-03T06:20:46.964Z</time></trkpt><trkpt lat="45.2182615" lon="8.5062572"><ele>111.0</ele><time>2026-05-03T06:20:48.964Z</time></trkpt><trkpt lat="45.2181919" lon="8.5062584"><ele>111.0</ele><time>2026-05-03T06:20:49.964Z</time></trkpt><trkpt lat="45.2181169" lon="8.5062612"><ele>111.0</ele><time>2026-05-03T06:20:50.964Z</time></trkpt><trkpt lat="45.2180388" lon="8.5062615"><ele>111.0</ele><time>2026-05-03T06:20:51.965Z</time></trkpt><trkpt lat="45.217962" lon="8.506258"><ele>111.0</ele><time>2026-05-03T06:20:52.964Z</time></trkpt><trkpt lat="45.217886" lon="8.5062538"><ele>111.0</ele><time>2026-05-03T06:20:53.965Z</time></trkpt><trkpt lat="45.2178063" lon="8.5062501"><ele>111.0</ele><time>2026-05-03T06:20:54.965Z</time></trkpt><trkpt lat="45.2177216" lon="8.506249"><ele>111.0</ele><time>2026-05-03T06:20:55.964Z</time></trkpt><trkpt lat="45.2176394" lon="8.5062512"><ele>111.0</ele><time>2026-05-03T06:20:56.964Z</time></trkpt><trkpt lat="45.217557" lon="8.506249"><ele>111.0</ele><time>2026-05-03T06:20:57.964Z</time></trkpt><trkpt lat="45.2174771" lon="8.5062431"><ele>111.0</ele><time>2026-05-03T06:20:58.964Z</time></trkpt><trkpt lat="45.2173996" lon="8.5062424"><ele>111.16666666666667</ele><time>2026-05-03T06:20:59.964Z</time></trkpt><trkpt lat="45.2173211" lon="8.5062402"><ele>111.33333333333334</ele><time>2026-05-03T06:21:00.964Z</time></trkpt><trkpt lat="45.2172456" lon="8.5062346"><ele>111.5</ele><time>2026-05-03T06:21:01.964Z</time></trkpt><trkpt lat="45.2171689" lon="8.5062302"><ele>111.66666666666667</ele><time>2026-05-03T06:21:02.965Z</time></trkpt><trkpt lat="45.2170917" lon="8.5062234"><ele>111.83333333333334</ele><time>2026-05-03T06:21:03.965Z</time></trkpt><trkpt lat="45.2170131" lon="8.5062167"><ele>112.0</ele><time>2026-05-03T06:21:04.965Z</time></trkpt><trkpt lat="45.216933" lon="8.5062124"><ele>112.00000000000001</ele><time>2026-05-03T06:21:05.965Z</time></trkpt><trkpt lat="45.2168516" lon="8.5062118"><ele>112.0</ele><time>2026-05-03T06:21:06.966Z</time></trkpt><trkpt lat="45.2167696" lon="8.5062161"><ele>112.0</ele><time>2026-05-03T06:21:07.965Z</time></trkpt><trkpt lat="45.2166898" lon="8.5062196"><ele>112.0</ele><time>2026-05-03T06:21:08.966Z</time></trkpt><trkpt lat="45.2166103" lon="8.5062185"><ele>112.00000000000001</ele><time>2026-05-03T06:21:09.965Z</time></trkpt><trkpt lat="45.21653" lon="8.5062147"><ele>112.0</ele><time>2026-05-03T06:21:10.966Z</time></trkpt><trkpt lat="45.216451" lon="8.5062066"><ele>111.83333333333334</ele><time>2026-05-03T06:21:11.965Z</time></trkpt><trkpt lat="45.2163712" lon="8.5061974"><ele>111.66666666666667</ele><time>2026-05-03T06:21:12.965Z</time></trkpt><trkpt lat="45.2162945" lon="8.5061877"><ele>111.5</ele><time>2026-05-03T06:21:13.965Z</time></trkpt><trkpt lat="45.2162251" lon="8.5061664"><ele>111.33333333333334</ele><time>2026-05-03T06:21:14.966Z</time></trkpt><trkpt lat="45.2161637" lon="8.5061368"><ele>111.16666666666667</ele><time>2026-05-03T06:21:15.965Z</time></trkpt><trkpt lat="45.2160407" lon="8.5060551"><ele>111.0</ele><time>2026-05-03T06:21:17.966Z</time></trkpt><trkpt lat="45.2159767" lon="8.5060081"><ele>111.0</ele><time>2026-05-03T06:21:18.965Z</time></trkpt><trkpt lat="45.2159098" lon="8.5059659"><ele>111.0</ele><time>2026-05-03T06:21:19.965Z</time></trkpt><trkpt lat="45.2158423" lon="8.5059346"><ele>111.0</ele><time>2026-05-03T06:21:20.965Z</time></trkpt><trkpt lat="45.2157733" lon="8.5059093"><ele>111.0</ele><time>2026-05-03T06:21:21.965Z</time></trkpt><trkpt lat="45.2157022" lon="8.5058833"><ele>111.0</ele><time>2026-05-03T06:21:22.966Z</time></trkpt><trkpt lat="45.215629" lon="8.505854"><ele>111.0</ele><time>2026-05-03T06:21:23.965Z</time></trkpt><trkpt lat="45.2155547" lon="8.5058223"><ele>111.0</ele><time>2026-05-03T06:21:24.965Z</time></trkpt><trkpt lat="45.2154781" lon="8.5057943"><ele>111.16666666666667</ele><time>2026-05-03T06:21:25.966Z</time></trkpt><trkpt lat="45.2153986" lon="8.5057718"><ele>111.33333333333334</ele><time>2026-05-03T06:21:26.965Z</time></trkpt><trkpt lat="45.2153209" lon="8.505747"><ele>111.5</ele><time>2026-05-03T06:21:27.965Z</time></trkpt><trkpt lat="45.2152434" lon="8.5057095"><ele>111.66666666666667</ele><time>2026-05-03T06:21:28.965Z</time></trkpt><trkpt lat="45.2151647" lon="8.5056599"><ele>111.83333333333334</ele><time>2026-05-03T06:21:29.965Z</time></trkpt><trkpt lat="45.2150876" lon="8.5055982"><ele>112.0</ele><time>2026-05-03T06:21:30.966Z</time></trkpt><trkpt lat="45.21501" lon="8.5055282"><ele>112.0</ele><time>2026-05-03T06:21:31.965Z</time></trkpt><trkpt lat="45.2149312" lon="8.5054578"><ele>111.99999999999999</ele><time>2026-05-03T06:21:32.965Z</time></trkpt><trkpt lat="45.214851" lon="8.5053939"><ele>111.99999999999999</ele><time>2026-05-03T06:21:33.965Z</time></trkpt><trkpt lat="45.2147674" lon="8.5053363"><ele>112.0</ele><time>2026-05-03T06:21:34.965Z</time></trkpt><trkpt lat="45.2146841" lon="8.5052802"><ele>112.0</ele><time>2026-05-03T06:21:35.965Z</time></trkpt><trkpt lat="45.2146018" lon="8.5052227"><ele>111.8</ele><time>2026-05-03T06:21:36.965Z</time></trkpt><trkpt lat="45.2145202" lon="8.5051648"><ele>111.6</ele><time>2026-05-03T06:21:37.966Z</time></trkpt><trkpt lat="45.2144379" lon="8.5051022"><ele>111.39999999999999</ele><time>2026-05-03T06:21:38.965Z</time></trkpt><trkpt lat="45.2143561" lon="8.5050322"><ele>111.19999999999999</ele><time>2026-05-03T06:21:39.965Z</time></trkpt><trkpt lat="45.2142737" lon="8.5049621"><ele>111.0</ele><time>2026-05-03T06:21:40.965Z</time></trkpt><trkpt lat="45.21419" lon="8.5048925"><ele>111.0</ele><time>2026-05-03T06:21:41.965Z</time></trkpt><trkpt lat="45.2141031" lon="8.5048224"><ele>111.0</ele><time>2026-05-03T06:21:42.965Z</time></trkpt><trkpt lat="45.2140173" lon="8.5047541"><ele>111.0</ele><time>2026-05-03T06:21:43.965Z</time></trkpt><trkpt lat="45.2139338" lon="8.5046849"><ele>111.0</ele><time>2026-05-03T06:21:44.965Z</time></trkpt><trkpt lat="45.2138495" lon="8.5046161"><ele>111.0</ele><time>2026-05-03T06:21:45.966Z</time></trkpt><trkpt lat="45.2137641" lon="8.5045496"><ele>110.8</ele><time>2026-05-03T06:21:46.967Z</time></trkpt><trkpt lat="45.2136798" lon="8.5044822"><ele>110.6</ele><time>2026-05-03T06:21:47.966Z</time></trkpt><trkpt lat="45.2135955" lon="8.504414"><ele>110.4</ele><time>2026-05-03T06:21:48.967Z</time></trkpt><trkpt lat="45.213513" lon="8.5043458"><ele>110.2</ele><time>2026-05-03T06:21:49.966Z</time></trkpt><trkpt lat="45.2134324" lon="8.5042772"><ele>110.0</ele><time>2026-05-03T06:21:50.966Z</time></trkpt><trkpt lat="45.2133505" lon="8.5042089"><ele>110.0</ele><time>2026-05-03T06:21:51.966Z</time></trkpt><trkpt lat="45.2132706" lon="8.5041446"><ele>110.0</ele><time>2026-05-03T06:21:52.966Z</time></trkpt><trkpt lat="45.2131904" lon="8.5040816"><ele>110.0</ele><time>2026-05-03T06:21:53.966Z</time></trkpt><trkpt lat="45.2131096" lon="8.5040178"><ele>110.0</ele><time>2026-05-03T06:21:54.966Z</time></trkpt><trkpt lat="45.2130291" lon="8.5039496"><ele>110.0</ele><time>2026-05-03T06:21:55.966Z</time></trkpt><trkpt lat="45.2129505" lon="8.5038789"><ele>109.8</ele><time>2026-05-03T06:21:56.967Z</time></trkpt><trkpt lat="45.2128716" lon="8.5038104"><ele>109.6</ele><time>2026-05-03T06:21:57.967Z</time></trkpt><trkpt lat="45.2127931" lon="8.5037439"><ele>109.4</ele><time>2026-05-03T06:21:58.966Z</time></trkpt><trkpt lat="45.2127151" lon="8.5036791"><ele>109.2</ele><time>2026-05-03T06:21:59.967Z</time></trkpt><trkpt lat="45.2126358" lon="8.5036148"><ele>109.0</ele><time>2026-05-03T06:22:00.967Z</time></trkpt><trkpt lat="45.2125562" lon="8.5035515"><ele>109.0</ele><time>2026-05-03T06:22:01.966Z</time></trkpt><trkpt lat="45.2124765" lon="8.5034885"><ele>109.0</ele><time>2026-05-03T06:22:02.967Z</time></trkpt><trkpt lat="45.2123969" lon="8.5034258"><ele>109.0</ele><time>2026-05-03T06:22:03.967Z</time></trkpt><trkpt lat="45.212319" lon="8.5033618"><ele>109.0</ele><time>2026-05-03T06:22:04.966Z</time></trkpt><trkpt lat="45.212241" lon="8.5032967"><ele>109.0</ele><time>2026-05-03T06:22:05.966Z</time></trkpt><trkpt lat="45.21216" lon="8.5032294"><ele>109.0</ele><time>2026-05-03T06:22:06.967Z</time></trkpt><trkpt lat="45.2120772" lon="8.5031628"><ele>109.0</ele><time>2026-05-03T06:22:07.966Z</time></trkpt><trkpt lat="45.2119965" lon="8.5030963"><ele>109.0</ele><time>2026-05-03T06:22:08.967Z</time></trkpt><trkpt lat="45.2119164" lon="8.5030303"><ele>109.0</ele><time>2026-05-03T06:22:09.967Z</time></trkpt><trkpt lat="45.211836" lon="8.5029646"><ele>109.0</ele><time>2026-05-03T06:22:10.967Z</time></trkpt><trkpt lat="45.211757" lon="8.5028976"><ele>109.0</ele><time>2026-05-03T06:22:11.967Z</time></trkpt><trkpt lat="45.2116782" lon="8.5028283"><ele>109.0</ele><time>2026-05-03T06:22:12.966Z</time></trkpt><trkpt lat="45.2115994" lon="8.5027566"><ele>109.0</ele><time>2026-05-03T06:22:13.966Z</time></trkpt><trkpt lat="45.2115217" lon="8.5026804"><ele>109.0</ele><time>2026-05-03T06:22:14.966Z</time></trkpt><trkpt lat="45.2114412" lon="8.5025967"><ele>109.0</ele><time>2026-05-03T06:22:15.966Z</time></trkpt><trkpt lat="45.2113615" lon="8.5025066"><ele>109.0</ele><time>2026-05-03T06:22:16.967Z</time></trkpt><trkpt lat="45.2112833" lon="8.502411"><ele>109.0</ele><time>2026-05-03T06:22:17.967Z</time></trkpt><trkpt lat="45.2112088" lon="8.5023185"><ele>109.0</ele><time>2026-05-03T06:22:18.967Z</time></trkpt><trkpt lat="45.2111334" lon="8.5022299"><ele>109.0</ele><time>2026-05-03T06:22:19.967Z</time></trkpt><trkpt lat="45.2110587" lon="8.5021413"><ele>109.0</ele><time>2026-05-03T06:22:20.966Z</time></trkpt><trkpt lat="45.2109847" lon="8.5020499"><ele>109.0</ele><time>2026-05-03T06:22:21.966Z</time></trkpt><trkpt lat="45.2109095" lon="8.5019542"><ele>109.0</ele><time>2026-05-03T06:22:22.966Z</time></trkpt><trkpt lat="45.2108355" lon="8.5018567"><ele>109.0</ele><time>2026-05-03T06:22:23.966Z</time></trkpt><trkpt lat="45.2107617" lon="8.5017604"><ele>109.0</ele><time>2026-05-03T06:22:24.966Z</time></trkpt><trkpt lat="45.2106862" lon="8.5016659"><ele>109.0</ele><time>2026-05-03T06:22:25.966Z</time></trkpt><trkpt lat="45.2106107" lon="8.5015754"><ele>109.2</ele><time>2026-05-03T06:22:26.967Z</time></trkpt><trkpt lat="45.210534" lon="8.5014869"><ele>109.4</ele><time>2026-05-03T06:22:27.967Z</time></trkpt><trkpt lat="45.2104577" lon="8.5014011"><ele>109.6</ele><time>2026-05-03T06:22:28.966Z</time></trkpt><trkpt lat="45.2103814" lon="8.5013171"><ele>109.8</ele><time>2026-05-03T06:22:29.967Z</time></trkpt><trkpt lat="45.2103053" lon="8.5012328"><ele>110.0</ele><time>2026-05-03T06:22:30.967Z</time></trkpt><trkpt lat="45.2102295" lon="8.5011492"><ele>109.6</ele><time>2026-05-03T06:22:31.967Z</time></trkpt><trkpt lat="45.2101533" lon="8.5010664"><ele>109.2</ele><time>2026-05-03T06:22:32.967Z</time></trkpt><trkpt lat="45.2100788" lon="8.500981"><ele>108.80000000000001</ele><time>2026-05-03T06:22:33.967Z</time></trkpt><trkpt lat="45.2100071" lon="8.5008934"><ele>108.4</ele><time>2026-05-03T06:22:34.967Z</time></trkpt><trkpt lat="45.2099354" lon="8.5008065"><ele>108.0</ele><time>2026-05-03T06:22:35.967Z</time></trkpt><trkpt lat="45.2098636" lon="8.5007219"><ele>108.2</ele><time>2026-05-03T06:22:36.967Z</time></trkpt><trkpt lat="45.2097909" lon="8.500639"><ele>108.4</ele><time>2026-05-03T06:22:37.967Z</time></trkpt><trkpt lat="45.2097166" lon="8.5005591"><ele>108.60000000000001</ele><time>2026-05-03T06:22:38.967Z</time></trkpt><trkpt lat="45.2096363" lon="8.500484"><ele>108.80000000000001</ele><time>2026-05-03T06:22:39.968Z</time></trkpt><trkpt lat="45.2095508" lon="8.5004232"><ele>109.0</ele><time>2026-05-03T06:22:40.967Z</time></trkpt><trkpt lat="45.2094591" lon="8.5003712"><ele>109.2</ele><time>2026-05-03T06:22:41.968Z</time></trkpt><trkpt lat="45.2093634" lon="8.5003303"><ele>109.4</ele><time>2026-05-03T06:22:42.968Z</time></trkpt><trkpt lat="45.2092671" lon="8.5002943"><ele>109.6</ele><time>2026-05-03T06:22:43.968Z</time></trkpt><trkpt lat="45.2091731" lon="8.5002609"><ele>109.8</ele><time>2026-05-03T06:22:44.967Z</time></trkpt><trkpt lat="45.20908" lon="8.500228"><ele>110.0</ele><time>2026-05-03T06:22:45.967Z</time></trkpt><trkpt lat="45.208987" lon="8.5001938"><ele>110.0</ele><time>2026-05-03T06:22:46.967Z</time></trkpt><trkpt lat="45.2088936" lon="8.500153"><ele>110.0</ele><time>2026-05-03T06:22:47.967Z</time></trkpt><trkpt lat="45.2088033" lon="8.5001015"><ele>110.0</ele><time>2026-05-03T06:22:48.967Z</time></trkpt><trkpt lat="45.2087183" lon="8.5000385"><ele>110.0</ele><time>2026-05-03T06:22:49.967Z</time></trkpt><trkpt lat="45.2086407" lon="8.4999615"><ele>110.0</ele><time>2026-05-03T06:22:50.967Z</time></trkpt><trkpt lat="45.2085674" lon="8.4998748"><ele>110.0</ele><time>2026-05-03T06:22:51.967Z</time></trkpt><trkpt lat="45.208494" lon="8.4997859"><ele>110.0</ele><time>2026-05-03T06:22:52.968Z</time></trkpt><trkpt lat="45.2084185" lon="8.4997008"><ele>110.0</ele><time>2026-05-03T06:22:53.967Z</time></trkpt><trkpt lat="45.2083384" lon="8.4996193"><ele>110.0</ele><time>2026-05-03T06:22:54.968Z</time></trkpt><trkpt lat="45.208255" lon="8.4995401"><ele>110.0</ele><time>2026-05-03T06:22:55.967Z</time></trkpt><trkpt lat="45.2081692" lon="8.4994686"><ele>110.2</ele><time>2026-05-03T06:22:56.967Z</time></trkpt><trkpt lat="45.20808" lon="8.4994059"><ele>110.4</ele><time>2026-05-03T06:22:57.967Z</time></trkpt><trkpt lat="45.2079874" lon="8.4993502"><ele>110.6</ele><time>2026-05-03T06:22:58.968Z</time></trkpt><trkpt lat="45.2078909" lon="8.499306"><ele>110.8</ele><time>2026-05-03T06:22:59.968Z</time></trkpt><trkpt lat="45.2077913" lon="8.4992715"><ele>111.0</ele><time>2026-05-03T06:23:00.968Z</time></trkpt><trkpt lat="45.2076917" lon="8.4992416"><ele>111.0</ele><time>2026-05-03T06:23:01.967Z</time></trkpt><trkpt lat="45.2075923" lon="8.4992088"><ele>111.0</ele><time>2026-05-03T06:23:02.967Z</time></trkpt><trkpt lat="45.2074928" lon="8.4991729"><ele>111.0</ele><time>2026-05-03T06:23:03.968Z</time></trkpt><trkpt lat="45.207394" lon="8.4991356"><ele>111.0</ele><time>2026-05-03T06:23:04.968Z</time></trkpt><trkpt lat="45.207296" lon="8.4990971"><ele>111.0</ele><time>2026-05-03T06:23:05.967Z</time></trkpt><trkpt lat="45.2071978" lon="8.49906"><ele>111.0</ele><time>2026-05-03T06:23:06.967Z</time></trkpt><trkpt lat="45.2070986" lon="8.4990253"><ele>111.0</ele><time>2026-05-03T06:23:07.967Z</time></trkpt><trkpt lat="45.2070001" lon="8.4989901"><ele>111.0</ele><time>2026-05-03T06:23:08.968Z</time></trkpt><trkpt lat="45.2069018" lon="8.4989531"><ele>111.0</ele><time>2026-05-03T06:23:09.968Z</time></trkpt><trkpt lat="45.2068035" lon="8.4989179"><ele>111.0</ele><time>2026-05-03T06:23:10.968Z</time></trkpt><trkpt lat="45.2067042" lon="8.4988859"><ele>111.0</ele><time>2026-05-03T06:23:11.969Z</time></trkpt><trkpt lat="45.206605" lon="8.4988511"><ele>111.0</ele><time>2026-05-03T06:23:12.968Z</time></trkpt><trkpt lat="45.2065057" lon="8.4988102"><ele>111.0</ele><time>2026-05-03T06:23:13.968Z</time></trkpt><trkpt lat="45.206407" lon="8.4987687"><ele>111.0</ele><time>2026-05-03T06:23:14.969Z</time></trkpt><trkpt lat="45.2063101" lon="8.4987301"><ele>111.0</ele><time>2026-05-03T06:23:15.969Z</time></trkpt><trkpt lat="45.2062126" lon="8.4986934"><ele>111.0</ele><time>2026-05-03T06:23:16.969Z</time></trkpt><trkpt lat="45.2061147" lon="8.4986539"><ele>111.0</ele><time>2026-05-03T06:23:17.968Z</time></trkpt><trkpt lat="45.2060184" lon="8.4986051"><ele>111.0</ele><time>2026-05-03T06:23:18.968Z</time></trkpt><trkpt lat="45.2059261" lon="8.4985462"><ele>111.0</ele><time>2026-05-03T06:23:19.968Z</time></trkpt><trkpt lat="45.2058349" lon="8.4984799"><ele>111.0</ele><time>2026-05-03T06:23:20.969Z</time></trkpt><trkpt lat="45.2057437" lon="8.4984108"><ele>110.8</ele><time>2026-05-03T06:23:21.968Z</time></trkpt><trkpt lat="45.2056519" lon="8.4983431"><ele>110.6</ele><time>2026-05-03T06:23:22.968Z</time></trkpt><trkpt lat="45.2055584" lon="8.4982794"><ele>110.4</ele><time>2026-05-03T06:23:23.969Z</time></trkpt><trkpt lat="45.2054633" lon="8.4982222"><ele>110.2</ele><time>2026-05-03T06:23:24.968Z</time></trkpt><trkpt lat="45.2053662" lon="8.498172"><ele>110.0</ele><time>2026-05-03T06:23:25.969Z</time></trkpt><trkpt lat="45.2052679" lon="8.4981291"><ele>110.0</ele><time>2026-05-03T06:23:26.968Z</time></trkpt><trkpt lat="45.2051675" lon="8.4980906"><ele>110.0</ele><time>2026-05-03T06:23:27.968Z</time></trkpt><trkpt lat="45.2050661" lon="8.498054"><ele>110.0</ele><time>2026-05-03T06:23:28.969Z</time></trkpt><trkpt lat="45.2049645" lon="8.4980169"><ele>110.0</ele><time>2026-05-03T06:23:29.968Z</time></trkpt><trkpt lat="45.2048621" lon="8.497979"><ele>110.0</ele><time>2026-05-03T06:23:30.969Z</time></trkpt><trkpt lat="45.2047585" lon="8.4979381"><ele>109.6</ele><time>2026-05-03T06:23:31.968Z</time></trkpt><trkpt lat="45.2046558" lon="8.4978928"><ele>109.2</ele><time>2026-05-03T06:23:32.969Z</time></trkpt><trkpt lat="45.2045534" lon="8.4978442"><ele>108.80000000000001</ele><time>2026-05-03T06:23:33.968Z</time></trkpt><trkpt lat="45.2044531" lon="8.4977923"><ele>108.4</ele><time>2026-05-03T06:23:34.968Z</time></trkpt><trkpt lat="45.204353" lon="8.4977394"><ele>108.0</ele><time>2026-05-03T06:23:35.968Z</time></trkpt><trkpt lat="45.2042527" lon="8.4976864"><ele>108.0</ele><time>2026-05-03T06:23:36.968Z</time></trkpt><trkpt lat="45.2041515" lon="8.497635"><ele>108.00000000000001</ele><time>2026-05-03T06:23:37.969Z</time></trkpt><trkpt lat="45.2040504" lon="8.4975852"><ele>108.00000000000001</ele><time>2026-05-03T06:23:38.968Z</time></trkpt><trkpt lat="45.2039507" lon="8.4975372"><ele>108.0</ele><time>2026-05-03T06:23:39.968Z</time></trkpt><trkpt lat="45.2038504" lon="8.4974881"><ele>108.0</ele><time>2026-05-03T06:23:40.969Z</time></trkpt><trkpt lat="45.2037501" lon="8.4974373"><ele>108.0</ele><time>2026-05-03T06:23:41.968Z</time></trkpt><trkpt lat="45.2036501" lon="8.4973878"><ele>108.00000000000001</ele><time>2026-05-03T06:23:42.968Z</time></trkpt><trkpt lat="45.2035516" lon="8.4973443"><ele>108.00000000000001</ele><time>2026-05-03T06:23:43.969Z</time></trkpt><trkpt lat="45.2034521" lon="8.4973086"><ele>108.0</ele><time>2026-05-03T06:23:44.968Z</time></trkpt><trkpt lat="45.203351" lon="8.4972834"><ele>108.0</ele><time>2026-05-03T06:23:45.968Z</time></trkpt><trkpt lat="45.2032486" lon="8.4972686"><ele>108.0</ele><time>2026-05-03T06:23:46.968Z</time></trkpt><trkpt lat="45.203147" lon="8.4972646"><ele>108.00000000000001</ele><time>2026-05-03T06:23:47.969Z</time></trkpt><trkpt lat="45.2030424" lon="8.4972634"><ele>108.00000000000001</ele><time>2026-05-03T06:23:48.968Z</time></trkpt><trkpt lat="45.2029381" lon="8.4972668"><ele>108.0</ele><time>2026-05-03T06:23:49.969Z</time></trkpt><trkpt lat="45.2028389" lon="8.4972731"><ele>108.0</ele><time>2026-05-03T06:23:50.968Z</time></trkpt><trkpt lat="45.2027399" lon="8.4972778"><ele>108.0</ele><time>2026-05-03T06:23:51.968Z</time></trkpt><trkpt lat="45.202643" lon="8.4972822"><ele>108.00000000000001</ele><time>2026-05-03T06:23:52.968Z</time></trkpt><trkpt lat="45.2025418" lon="8.4972831"><ele>108.00000000000001</ele><time>2026-05-03T06:23:53.968Z</time></trkpt><trkpt lat="45.2024431" lon="8.4972867"><ele>108.0</ele><time>2026-05-03T06:23:54.97Z</time></trkpt><trkpt lat="45.2023435" lon="8.4972922"><ele>108.0</ele><time>2026-05-03T06:23:55.97Z</time></trkpt><trkpt lat="45.2022432" lon="8.4972925"><ele>107.80000000000001</ele><time>2026-05-03T06:23:56.969Z</time></trkpt><trkpt lat="45.2021416" lon="8.4972731"><ele>107.60000000000001</ele><time>2026-05-03T06:23:57.969Z</time></trkpt><trkpt lat="45.2020396" lon="8.4972288"><ele>107.39999999999999</ele><time>2026-05-03T06:23:58.969Z</time></trkpt><trkpt lat="45.2019437" lon="8.4971718"><ele>107.19999999999999</ele><time>2026-05-03T06:23:59.97Z</time></trkpt><trkpt lat="45.2018494" lon="8.497114"><ele>107.0</ele><time>2026-05-03T06:24:00.969Z</time></trkpt><trkpt lat="45.2017531" lon="8.4970602"><ele>107.0</ele><time>2026-05-03T06:24:01.969Z</time></trkpt><trkpt lat="45.2016532" lon="8.4970087"><ele>106.99999999999999</ele><time>2026-05-03T06:24:02.97Z</time></trkpt><trkpt lat="45.2015533" lon="8.4969603"><ele>106.99999999999999</ele><time>2026-05-03T06:24:03.969Z</time></trkpt><trkpt lat="45.2014535" lon="8.4969137"><ele>107.0</ele><time>2026-05-03T06:24:04.969Z</time></trkpt><trkpt lat="45.2013526" lon="8.4968662"><ele>107.0</ele><time>2026-05-03T06:24:05.969Z</time></trkpt><trkpt lat="45.2012528" lon="8.4968207"><ele>107.0</ele><time>2026-05-03T06:24:06.969Z</time></trkpt><trkpt lat="45.2011535" lon="8.4967812"><ele>106.99999999999999</ele><time>2026-05-03T06:24:07.969Z</time></trkpt><trkpt lat="45.2010515" lon="8.4967526"><ele>106.99999999999999</ele><time>2026-05-03T06:24:08.969Z</time></trkpt><trkpt lat="45.2009456" lon="8.4967369"><ele>107.0</ele><time>2026-05-03T06:24:09.969Z</time></trkpt><trkpt lat="45.2008382" lon="8.4967283"><ele>107.0</ele><time>2026-05-03T06:24:10.97Z</time></trkpt><trkpt lat="45.2007329" lon="8.4967223"><ele>107.0</ele><time>2026-05-03T06:24:11.97Z</time></trkpt><trkpt lat="45.2006282" lon="8.4967165"><ele>106.99999999999999</ele><time>2026-05-03T06:24:12.969Z</time></trkpt><trkpt lat="45.200522" lon="8.4967098"><ele>106.99999999999999</ele><time>2026-05-03T06:24:13.969Z</time></trkpt><trkpt lat="45.200415" lon="8.4966997"><ele>107.0</ele><time>2026-05-03T06:24:14.969Z</time></trkpt><trkpt lat="45.200308" lon="8.4966871"><ele>107.0</ele><time>2026-05-03T06:24:15.969Z</time></trkpt><trkpt lat="45.2002002" lon="8.4966747"><ele>107.0</ele><time>2026-05-03T06:24:16.969Z</time></trkpt><trkpt lat="45.2000925" lon="8.4966642"><ele>106.99999999999999</ele><time>2026-05-03T06:24:17.969Z</time></trkpt><trkpt lat="45.1999867" lon="8.4966538"><ele>106.99999999999999</ele><time>2026-05-03T06:24:18.969Z</time></trkpt><trkpt lat="45.1998811" lon="8.496643"><ele>107.0</ele><time>2026-05-03T06:24:19.969Z</time></trkpt><trkpt lat="45.1997753" lon="8.4966296"><ele>107.0</ele><time>2026-05-03T06:24:20.97Z</time></trkpt><trkpt lat="45.1996686" lon="8.4966122"><ele>106.8</ele><time>2026-05-03T06:24:21.969Z</time></trkpt><trkpt lat="45.1995615" lon="8.4965917"><ele>106.6</ele><time>2026-05-03T06:24:22.969Z</time></trkpt><trkpt lat="45.1994553" lon="8.4965666"><ele>106.39999999999999</ele><time>2026-05-03T06:24:23.969Z</time></trkpt><trkpt lat="45.1993509" lon="8.4965401"><ele>106.19999999999999</ele><time>2026-05-03T06:24:24.97Z</time></trkpt><trkpt lat="45.1992479" lon="8.496512"><ele>106.0</ele><time>2026-05-03T06:24:25.969Z</time></trkpt><trkpt lat="45.1991457" lon="8.4964836"><ele>106.0</ele><time>2026-05-03T06:24:26.969Z</time></trkpt><trkpt lat="45.1990442" lon="8.4964544"><ele>106.0</ele><time>2026-05-03T06:24:27.969Z</time></trkpt><trkpt lat="45.1989413" lon="8.4964247"><ele>106.0</ele><time>2026-05-03T06:24:28.97Z</time></trkpt><trkpt lat="45.1988373" lon="8.4963961"><ele>106.0</ele><time>2026-05-03T06:24:29.97Z</time></trkpt><trkpt lat="45.1987313" lon="8.4963681"><ele>106.0</ele><time>2026-05-03T06:24:30.969Z</time></trkpt><trkpt lat="45.198623" lon="8.4963456"><ele>106.19999999999999</ele><time>2026-05-03T06:24:31.969Z</time></trkpt><trkpt lat="45.1985131" lon="8.4963289"><ele>106.39999999999999</ele><time>2026-05-03T06:24:32.97Z</time></trkpt><trkpt lat="45.1984035" lon="8.4963122"><ele>106.6</ele><time>2026-05-03T06:24:33.969Z</time></trkpt><trkpt lat="45.1982944" lon="8.4962956"><ele>106.8</ele><time>2026-05-03T06:24:34.969Z</time></trkpt><trkpt lat="45.1981858" lon="8.4962826"><ele>107.0</ele><time>2026-05-03T06:24:35.97Z</time></trkpt><trkpt lat="45.1980767" lon="8.4962728"><ele>107.0</ele><time>2026-05-03T06:24:36.97Z</time></trkpt><trkpt lat="45.1979688" lon="8.4962623"><ele>106.99999999999999</ele><time>2026-05-03T06:24:37.97Z</time></trkpt><trkpt lat="45.1978624" lon="8.49625"><ele>106.99999999999999</ele><time>2026-05-03T06:24:38.97Z</time></trkpt><trkpt lat="45.1977592" lon="8.496235"><ele>107.0</ele><time>2026-05-03T06:24:39.97Z</time></trkpt><trkpt lat="45.1976575" lon="8.49622"><ele>107.0</ele><time>2026-05-03T06:24:40.97Z</time></trkpt><trkpt lat="45.1975554" lon="8.4962084"><ele>107.0</ele><time>2026-05-03T06:24:41.97Z</time></trkpt><trkpt lat="45.1974523" lon="8.4962022"><ele>106.99999999999999</ele><time>2026-05-03T06:24:42.97Z</time></trkpt><trkpt lat="45.1973479" lon="8.4962006"><ele>106.99999999999999</ele><time>2026-05-03T06:24:43.97Z</time></trkpt><trkpt lat="45.1972437" lon="8.4962025"><ele>107.0</ele><time>2026-05-03T06:24:44.97Z</time></trkpt><trkpt lat="45.19714" lon="8.4962027"><ele>107.0</ele><time>2026-05-03T06:24:45.97Z</time></trkpt><trkpt lat="45.1970361" lon="8.4961962"><ele>107.19999999999999</ele><time>2026-05-03T06:24:46.971Z</time></trkpt><trkpt lat="45.1969309" lon="8.496185"><ele>107.39999999999999</ele><time>2026-05-03T06:24:47.971Z</time></trkpt><trkpt lat="45.1968253" lon="8.4961741"><ele>107.60000000000001</ele><time>2026-05-03T06:24:48.97Z</time></trkpt><trkpt lat="45.1967197" lon="8.4961629"><ele>107.80000000000001</ele><time>2026-05-03T06:24:49.97Z</time></trkpt><trkpt lat="45.1966149" lon="8.4961494"><ele>108.0</ele><time>2026-05-03T06:24:50.97Z</time></trkpt><trkpt lat="45.1965103" lon="8.4961321"><ele>107.60000000000001</ele><time>2026-05-03T06:24:51.971Z</time></trkpt><trkpt lat="45.1964057" lon="8.4961105"><ele>107.20000000000002</ele><time>2026-05-03T06:24:52.97Z</time></trkpt><trkpt lat="45.1963009" lon="8.4960805"><ele>106.8</ele><time>2026-05-03T06:24:53.971Z</time></trkpt><trkpt lat="45.1961976" lon="8.4960375"><ele>106.4</ele><time>2026-05-03T06:24:54.97Z</time></trkpt><trkpt lat="45.1960941" lon="8.4959878"><ele>106.0</ele><time>2026-05-03T06:24:55.97Z</time></trkpt><trkpt lat="45.1959911" lon="8.495938"><ele>106.0</ele><time>2026-05-03T06:24:56.97Z</time></trkpt><trkpt lat="45.1958881" lon="8.4958932"><ele>106.0</ele><time>2026-05-03T06:24:57.97Z</time></trkpt><trkpt lat="45.1957848" lon="8.4958517"><ele>106.0</ele><time>2026-05-03T06:24:58.97Z</time></trkpt><trkpt lat="45.1956827" lon="8.4958116"><ele>106.0</ele><time>2026-05-03T06:24:59.97Z</time></trkpt><trkpt lat="45.1955819" lon="8.4957677"><ele>106.0</ele><time>2026-05-03T06:25:00.97Z</time></trkpt><trkpt lat="45.1954829" lon="8.4957149"><ele>106.4</ele><time>2026-05-03T06:25:01.97Z</time></trkpt><trkpt lat="45.195385" lon="8.4956534"><ele>106.8</ele><time>2026-05-03T06:25:02.971Z</time></trkpt><trkpt lat="45.1952882" lon="8.4955919"><ele>107.20000000000002</ele><time>2026-05-03T06:25:03.971Z</time></trkpt><trkpt lat="45.1951909" lon="8.495535"><ele>107.60000000000001</ele><time>2026-05-03T06:25:04.971Z</time></trkpt><trkpt lat="45.1950914" lon="8.4954807"><ele>108.0</ele><time>2026-05-03T06:25:05.971Z</time></trkpt><trkpt lat="45.194991" lon="8.4954282"><ele>108.2</ele><time>2026-05-03T06:25:06.971Z</time></trkpt><trkpt lat="45.1948924" lon="8.4953749"><ele>108.4</ele><time>2026-05-03T06:25:07.971Z</time></trkpt><trkpt lat="45.194793" lon="8.4953212"><ele>108.60000000000001</ele><time>2026-05-03T06:25:08.97Z</time></trkpt><trkpt lat="45.1946955" lon="8.4952707"><ele>108.80000000000001</ele><time>2026-05-03T06:25:09.97Z</time></trkpt><trkpt lat="45.1945964" lon="8.4952244"><ele>109.0</ele><time>2026-05-03T06:25:10.971Z</time></trkpt><trkpt lat="45.1944944" lon="8.495183"><ele>109.0</ele><time>2026-05-03T06:25:11.97Z</time></trkpt><trkpt lat="45.1943921" lon="8.4951451"><ele>109.0</ele><time>2026-05-03T06:25:12.97Z</time></trkpt><trkpt lat="45.194289" lon="8.4951124"><ele>109.0</ele><time>2026-05-03T06:25:13.97Z</time></trkpt><trkpt lat="45.1941865" lon="8.4950836"><ele>109.0</ele><time>2026-05-03T06:25:14.97Z</time></trkpt><trkpt lat="45.1940821" lon="8.4950562"><ele>109.0</ele><time>2026-05-03T06:25:15.971Z</time></trkpt><trkpt lat="45.1939823" lon="8.4950304"><ele>109.0</ele><time>2026-05-03T06:25:16.971Z</time></trkpt><trkpt lat="45.1938824" lon="8.4950131"><ele>109.0</ele><time>2026-05-03T06:25:17.971Z</time></trkpt><trkpt lat="45.1937859" lon="8.495008"><ele>109.0</ele><time>2026-05-03T06:25:18.971Z</time></trkpt><trkpt lat="45.1936914" lon="8.4950122"><ele>109.0</ele><time>2026-05-03T06:25:19.971Z</time></trkpt><trkpt lat="45.1935905" lon="8.4950171"><ele>109.0</ele><time>2026-05-03T06:25:20.972Z</time></trkpt><trkpt lat="45.1934881" lon="8.4950211"><ele>109.0</ele><time>2026-05-03T06:25:21.972Z</time></trkpt><trkpt lat="45.1933912" lon="8.4950272"><ele>109.0</ele><time>2026-05-03T06:25:22.971Z</time></trkpt><trkpt lat="45.1932962" lon="8.495033"><ele>109.0</ele><time>2026-05-03T06:25:23.972Z</time></trkpt><trkpt lat="45.1932025" lon="8.4950381"><ele>109.0</ele><time>2026-05-03T06:25:24.971Z</time></trkpt><trkpt lat="45.1931077" lon="8.4950432"><ele>109.0</ele><time>2026-05-03T06:25:25.971Z</time></trkpt><trkpt lat="45.1930116" lon="8.4950464"><ele>109.2</ele><time>2026-05-03T06:25:26.971Z</time></trkpt><trkpt lat="45.1929175" lon="8.4950486"><ele>109.4</ele><time>2026-05-03T06:25:27.972Z</time></trkpt><trkpt lat="45.1928249" lon="8.4950454"><ele>109.6</ele><time>2026-05-03T06:25:28.971Z</time></trkpt><trkpt lat="45.1927335" lon="8.4950317"><ele>109.8</ele><time>2026-05-03T06:25:29.971Z</time></trkpt><trkpt lat="45.1926422" lon="8.4950067"><ele>110.0</ele><time>2026-05-03T06:25:30.972Z</time></trkpt><trkpt lat="45.1925506" lon="8.4949717"><ele>110.0</ele><time>2026-05-03T06:25:31.971Z</time></trkpt><trkpt lat="45.1924606" lon="8.4949303"><ele>110.0</ele><time>2026-05-03T06:25:32.971Z</time></trkpt><trkpt lat="45.1923729" lon="8.4948816"><ele>110.0</ele><time>2026-05-03T06:25:33.972Z</time></trkpt><trkpt lat="45.1922869" lon="8.4948273"><ele>110.0</ele><time>2026-05-03T06:25:34.971Z</time></trkpt><trkpt lat="45.1922041" lon="8.4947645"><ele>110.0</ele><time>2026-05-03T06:25:35.972Z</time></trkpt><trkpt lat="45.1921225" lon="8.4946893"><ele>110.0</ele><time>2026-05-03T06:25:36.971Z</time></trkpt><trkpt lat="45.1920484" lon="8.4946084"><ele>110.0</ele><time>2026-05-03T06:25:37.972Z</time></trkpt><trkpt lat="45.191973" lon="8.4945248"><ele>110.0</ele><time>2026-05-03T06:25:38.971Z</time></trkpt><trkpt lat="45.1918987" lon="8.4944343"><ele>110.0</ele><time>2026-05-03T06:25:39.971Z</time></trkpt><trkpt lat="45.1918268" lon="8.4943431"><ele>110.0</ele><time>2026-05-03T06:25:40.972Z</time></trkpt><trkpt lat="45.1917554" lon="8.4942536"><ele>110.0</ele><time>2026-05-03T06:25:41.971Z</time></trkpt><trkpt lat="45.1916812" lon="8.4941621"><ele>110.0</ele><time>2026-05-03T06:25:42.971Z</time></trkpt><trkpt lat="45.1916098" lon="8.4940743"><ele>110.0</ele><time>2026-05-03T06:25:43.971Z</time></trkpt><trkpt lat="45.1915392" lon="8.4939897"><ele>110.0</ele><time>2026-05-03T06:25:44.972Z</time></trkpt><trkpt lat="45.191469" lon="8.4939066"><ele>110.0</ele><time>2026-05-03T06:25:45.972Z</time></trkpt><trkpt lat="45.1913971" lon="8.4938241"><ele>110.2</ele><time>2026-05-03T06:25:46.971Z</time></trkpt><trkpt lat="45.1913232" lon="8.4937389"><ele>110.4</ele><time>2026-05-03T06:25:47.971Z</time></trkpt><trkpt lat="45.1912466" lon="8.4936539"><ele>110.6</ele><time>2026-05-03T06:25:48.972Z</time></trkpt><trkpt lat="45.1911676" lon="8.4935719"><ele>110.8</ele><time>2026-05-03T06:25:49.972Z</time></trkpt><trkpt lat="45.1910875" lon="8.4934924"><ele>111.0</ele><time>2026-05-03T06:25:50.972Z</time></trkpt><trkpt lat="45.1910064" lon="8.4934183"><ele>111.0</ele><time>2026-05-03T06:25:51.971Z</time></trkpt><trkpt lat="45.1909239" lon="8.4933422"><ele>111.0</ele><time>2026-05-03T06:25:52.971Z</time></trkpt><trkpt lat="45.1908346" lon="8.4932631"><ele>111.0</ele><time>2026-05-03T06:25:53.972Z</time></trkpt><trkpt lat="45.1907447" lon="8.4931878"><ele>111.0</ele><time>2026-05-03T06:25:54.971Z</time></trkpt><trkpt lat="45.1906552" lon="8.4931153"><ele>111.0</ele><time>2026-05-03T06:25:55.972Z</time></trkpt><trkpt lat="45.1905592" lon="8.4930411"><ele>110.8</ele><time>2026-05-03T06:25:56.971Z</time></trkpt><trkpt lat="45.1904631" lon="8.4929664"><ele>110.6</ele><time>2026-05-03T06:25:57.972Z</time></trkpt><trkpt lat="45.1903721" lon="8.492892"><ele>110.4</ele><time>2026-05-03T06:25:58.972Z</time></trkpt><trkpt lat="45.19029" lon="8.4928241"><ele>110.2</ele><time>2026-05-03T06:25:59.973Z</time></trkpt><trkpt lat="45.1902077" lon="8.4927553"><ele>110.0</ele><time>2026-05-03T06:26:00.972Z</time></trkpt><trkpt lat="45.1901196" lon="8.4926851"><ele>109.8</ele><time>2026-05-03T06:26:01.972Z</time></trkpt><trkpt lat="45.1900319" lon="8.4926129"><ele>109.6</ele><time>2026-05-03T06:26:02.972Z</time></trkpt><trkpt lat="45.1899457" lon="8.4925437"><ele>109.4</ele><time>2026-05-03T06:26:03.972Z</time></trkpt><trkpt lat="45.1898566" lon="8.4924684"><ele>109.2</ele><time>2026-05-03T06:26:04.973Z</time></trkpt><trkpt lat="45.1897713" lon="8.4923907"><ele>109.0</ele><time>2026-05-03T06:26:05.972Z</time></trkpt><trkpt lat="45.1896845" lon="8.4923124"><ele>108.80000000000001</ele><time>2026-05-03T06:26:06.972Z</time></trkpt><trkpt lat="45.1895944" lon="8.4922349"><ele>108.60000000000001</ele><time>2026-05-03T06:26:07.973Z</time></trkpt><trkpt lat="45.1895096" lon="8.4921633"><ele>108.4</ele><time>2026-05-03T06:26:08.972Z</time></trkpt><trkpt lat="45.1894243" lon="8.492091"><ele>108.2</ele><time>2026-05-03T06:26:09.972Z</time></trkpt><trkpt lat="45.1893369" lon="8.4920126"><ele>108.0</ele><time>2026-05-03T06:26:10.973Z</time></trkpt><trkpt lat="45.1892544" lon="8.491936"><ele>108.0</ele><time>2026-05-03T06:26:11.972Z</time></trkpt><trkpt lat="45.1891742" lon="8.4918565"><ele>108.00000000000001</ele><time>2026-05-03T06:26:12.973Z</time></trkpt><trkpt lat="45.1890997" lon="8.4917728"><ele>108.00000000000001</ele><time>2026-05-03T06:26:13.972Z</time></trkpt><trkpt lat="45.1890302" lon="8.4916834"><ele>108.0</ele><time>2026-05-03T06:26:14.973Z</time></trkpt><trkpt lat="45.1889632" lon="8.4915872"><ele>108.0</ele><time>2026-05-03T06:26:15.973Z</time></trkpt><trkpt lat="45.1888984" lon="8.4914903"><ele>108.0</ele><time>2026-05-03T06:26:16.972Z</time></trkpt><trkpt lat="45.1888329" lon="8.4913962"><ele>108.00000000000001</ele><time>2026-05-03T06:26:17.973Z</time></trkpt><trkpt lat="45.1887647" lon="8.4913032"><ele>108.00000000000001</ele><time>2026-05-03T06:26:18.972Z</time></trkpt><trkpt lat="45.1886961" lon="8.491211"><ele>108.0</ele><time>2026-05-03T06:26:19.972Z</time></trkpt><trkpt lat="45.1886299" lon="8.4911182"><ele>108.0</ele><time>2026-05-03T06:26:20.973Z</time></trkpt><trkpt lat="45.1885655" lon="8.4910261"><ele>108.0</ele><time>2026-05-03T06:26:21.973Z</time></trkpt><trkpt lat="45.1884995" lon="8.4909352"><ele>108.00000000000001</ele><time>2026-05-03T06:26:22.972Z</time></trkpt><trkpt lat="45.1884321" lon="8.4908475"><ele>108.00000000000001</ele><time>2026-05-03T06:26:23.972Z</time></trkpt><trkpt lat="45.1883651" lon="8.4907604"><ele>108.0</ele><time>2026-05-03T06:26:24.972Z</time></trkpt><trkpt lat="45.1882986" lon="8.4906699"><ele>108.0</ele><time>2026-05-03T06:26:25.972Z</time></trkpt><trkpt lat="45.1882312" lon="8.4905762"><ele>107.80000000000001</ele><time>2026-05-03T06:26:26.972Z</time></trkpt><trkpt lat="45.1881628" lon="8.4904826"><ele>107.60000000000001</ele><time>2026-05-03T06:26:27.973Z</time></trkpt><trkpt lat="45.1880949" lon="8.4903911"><ele>107.39999999999999</ele><time>2026-05-03T06:26:28.972Z</time></trkpt><trkpt lat="45.1880299" lon="8.4903027"><ele>107.19999999999999</ele><time>2026-05-03T06:26:29.972Z</time></trkpt><trkpt lat="45.1879641" lon="8.4902113"><ele>107.0</ele><time>2026-05-03T06:26:30.973Z</time></trkpt><trkpt lat="45.1878993" lon="8.4901195"><ele>107.0</ele><time>2026-05-03T06:26:31.972Z</time></trkpt><trkpt lat="45.1878326" lon="8.4900262"><ele>106.99999999999999</ele><time>2026-05-03T06:26:32.972Z</time></trkpt><trkpt lat="45.1877661" lon="8.4899329"><ele>106.99999999999999</ele><time>2026-05-03T06:26:33.972Z</time></trkpt><trkpt lat="45.1876975" lon="8.4898374"><ele>107.0</ele><time>2026-05-03T06:26:34.972Z</time></trkpt><trkpt lat="45.1876332" lon="8.4897438"><ele>107.0</ele><time>2026-05-03T06:26:35.973Z</time></trkpt><trkpt lat="45.1875745" lon="8.4896452"><ele>107.0</ele><time>2026-05-03T06:26:36.972Z</time></trkpt><trkpt lat="45.1875231" lon="8.4895413"><ele>106.99999999999999</ele><time>2026-05-03T06:26:37.972Z</time></trkpt><trkpt lat="45.1874756" lon="8.4894312"><ele>106.99999999999999</ele><time>2026-05-03T06:26:38.973Z</time></trkpt><trkpt lat="45.1874297" lon="8.4893195"><ele>107.0</ele><time>2026-05-03T06:26:39.973Z</time></trkpt><trkpt lat="45.1873843" lon="8.4892102"><ele>107.0</ele><time>2026-05-03T06:26:40.974Z</time></trkpt><trkpt lat="45.1873372" lon="8.4891008"><ele>107.0</ele><time>2026-05-03T06:26:41.973Z</time></trkpt><trkpt lat="45.187289" lon="8.4889895"><ele>106.99999999999999</ele><time>2026-05-03T06:26:42.973Z</time></trkpt><trkpt lat="45.1872392" lon="8.4888762"><ele>106.99999999999999</ele><time>2026-05-03T06:26:43.973Z</time></trkpt><trkpt lat="45.1871872" lon="8.4887625"><ele>107.0</ele><time>2026-05-03T06:26:44.973Z</time></trkpt><trkpt lat="45.1871348" lon="8.4886488"><ele>107.0</ele><time>2026-05-03T06:26:45.973Z</time></trkpt><trkpt lat="45.1870832" lon="8.4885341"><ele>107.0</ele><time>2026-05-03T06:26:46.974Z</time></trkpt><trkpt lat="45.1870325" lon="8.4884175"><ele>106.99999999999999</ele><time>2026-05-03T06:26:47.973Z</time></trkpt><trkpt lat="45.1869831" lon="8.4883026"><ele>106.99999999999999</ele><time>2026-05-03T06:26:48.973Z</time></trkpt><trkpt lat="45.1869291" lon="8.4881965"><ele>107.0</ele><time>2026-05-03T06:26:49.973Z</time></trkpt><trkpt lat="45.1868668" lon="8.4880982"><ele>107.0</ele><time>2026-05-03T06:26:50.974Z</time></trkpt><trkpt lat="45.1867917" lon="8.4880129"><ele>107.0</ele><time>2026-05-03T06:26:51.973Z</time></trkpt><trkpt lat="45.1866962" lon="8.4879419"><ele>106.99999999999999</ele><time>2026-05-03T06:26:52.973Z</time></trkpt><trkpt lat="45.1865919" lon="8.4878932"><ele>106.99999999999999</ele><time>2026-05-03T06:26:53.973Z</time></trkpt><trkpt lat="45.1864855" lon="8.4878585"><ele>107.0</ele><time>2026-05-03T06:26:54.973Z</time></trkpt><trkpt lat="45.1863868" lon="8.4878241"><ele>107.0</ele><time>2026-05-03T06:26:55.974Z</time></trkpt><trkpt lat="45.1862909" lon="8.48778"><ele>107.19999999999999</ele><time>2026-05-03T06:26:56.973Z</time></trkpt><trkpt lat="45.1861967" lon="8.4877269"><ele>107.39999999999999</ele><time>2026-05-03T06:26:57.974Z</time></trkpt><trkpt lat="45.1861018" lon="8.4876714"><ele>107.60000000000001</ele><time>2026-05-03T06:26:58.973Z</time></trkpt><trkpt lat="45.1860064" lon="8.4876202"><ele>107.80000000000001</ele><time>2026-05-03T06:26:59.974Z</time></trkpt><trkpt lat="45.1859113" lon="8.4875771"><ele>108.0</ele><time>2026-05-03T06:27:00.973Z</time></trkpt><trkpt lat="45.1858134" lon="8.4875332"><ele>108.0</ele><time>2026-05-03T06:27:01.973Z</time></trkpt><trkpt lat="45.1857163" lon="8.4874872"><ele>108.00000000000001</ele><time>2026-05-03T06:27:02.973Z</time></trkpt><trkpt lat="45.1856217" lon="8.4874386"><ele>108.00000000000001</ele><time>2026-05-03T06:27:03.973Z</time></trkpt><trkpt lat="45.1855279" lon="8.4873913"><ele>108.0</ele><time>2026-05-03T06:27:04.974Z</time></trkpt><trkpt lat="45.185436" lon="8.4873484"><ele>108.0</ele><time>2026-05-03T06:27:05.973Z</time></trkpt><trkpt lat="45.1853463" lon="8.4873063"><ele>108.0</ele><time>2026-05-03T06:27:06.973Z</time></trkpt><trkpt lat="45.1852577" lon="8.4872643"><ele>108.00000000000001</ele><time>2026-05-03T06:27:07.973Z</time></trkpt><trkpt lat="45.1851706" lon="8.4872218"><ele>108.00000000000001</ele><time>2026-05-03T06:27:08.974Z</time></trkpt><trkpt lat="45.1850855" lon="8.487179"><ele>108.0</ele><time>2026-05-03T06:27:09.973Z</time></trkpt><trkpt lat="45.1849979" lon="8.4871337"><ele>108.0</ele><time>2026-05-03T06:27:10.973Z</time></trkpt><trkpt lat="45.184909" lon="8.4870885"><ele>108.4</ele><time>2026-05-03T06:27:11.973Z</time></trkpt><trkpt lat="45.1848179" lon="8.4870446"><ele>108.80000000000001</ele><time>2026-05-03T06:27:12.974Z</time></trkpt><trkpt lat="45.1847298" lon="8.4870017"><ele>109.2</ele><time>2026-05-03T06:27:13.973Z</time></trkpt><trkpt lat="45.184639" lon="8.4869569"><ele>109.6</ele><time>2026-05-03T06:27:14.973Z</time></trkpt><trkpt lat="45.1845466" lon="8.486911"><ele>110.0</ele><time>2026-05-03T06:27:15.974Z</time></trkpt><trkpt lat="45.1844546" lon="8.4868661"><ele>110.0</ele><time>2026-05-03T06:27:16.973Z</time></trkpt><trkpt lat="45.1843615" lon="8.4868171"><ele>110.0</ele><time>2026-05-03T06:27:17.973Z</time></trkpt><trkpt lat="45.1842721" lon="8.4867701"><ele>110.0</ele><time>2026-05-03T06:27:18.973Z</time></trkpt><trkpt lat="45.1841796" lon="8.4867221"><ele>110.0</ele><time>2026-05-03T06:27:19.974Z</time></trkpt><trkpt lat="45.1840877" lon="8.4866723"><ele>110.0</ele><time>2026-05-03T06:27:20.974Z</time></trkpt><trkpt lat="45.1839988" lon="8.4866258"><ele>109.66666666666666</ele><time>2026-05-03T06:27:21.974Z</time></trkpt><trkpt lat="45.1839141" lon="8.4865811"><ele>109.33333333333333</ele><time>2026-05-03T06:27:22.974Z</time></trkpt><trkpt lat="45.1838375" lon="8.486532"><ele>109.0</ele><time>2026-05-03T06:27:23.974Z</time></trkpt><trkpt lat="45.1837717" lon="8.4864786"><ele>108.66666666666666</ele><time>2026-05-03T06:27:24.975Z</time></trkpt><trkpt lat="45.1837156" lon="8.4864213"><ele>108.33333333333333</ele><time>2026-05-03T06:27:25.975Z</time></trkpt><trkpt lat="45.1836668" lon="8.4863648"><ele>108.0</ele><time>2026-05-03T06:27:26.975Z</time></trkpt><trkpt lat="45.1835797" lon="8.4862496"><ele>108.0</ele><time>2026-05-03T06:27:28.974Z</time></trkpt><trkpt lat="45.1835015" lon="8.4861009"><ele>108.00000000000001</ele><time>2026-05-03T06:27:30.974Z</time></trkpt><trkpt lat="45.1834702" lon="8.4860056"><ele>108.00000000000001</ele><time>2026-05-03T06:27:31.974Z</time></trkpt><trkpt lat="45.1834501" lon="8.4858989"><ele>108.0</ele><time>2026-05-03T06:27:32.974Z</time></trkpt><trkpt lat="45.1834395" lon="8.48577"><ele>108.0</ele><time>2026-05-03T06:27:33.974Z</time></trkpt><trkpt lat="45.1834255" lon="8.4856478"><ele>108.0</ele><time>2026-05-03T06:27:34.974Z</time></trkpt><trkpt lat="45.1834107" lon="8.485522"><ele>108.00000000000001</ele><time>2026-05-03T06:27:35.974Z</time></trkpt><trkpt lat="45.183394" lon="8.485398"><ele>108.00000000000001</ele><time>2026-05-03T06:27:36.974Z</time></trkpt><trkpt lat="45.1833758" lon="8.485274"><ele>108.0</ele><time>2026-05-03T06:27:37.974Z</time></trkpt><trkpt lat="45.1833555" lon="8.4851444"><ele>108.0</ele><time>2026-05-03T06:27:38.975Z</time></trkpt><trkpt lat="45.1833325" lon="8.4850118"><ele>108.4</ele><time>2026-05-03T06:27:39.975Z</time></trkpt><trkpt lat="45.1833073" lon="8.4848751"><ele>108.80000000000001</ele><time>2026-05-03T06:27:40.974Z</time></trkpt><trkpt lat="45.183282" lon="8.4847381"><ele>109.2</ele><time>2026-05-03T06:27:41.975Z</time></trkpt><trkpt lat="45.1832581" lon="8.484602"><ele>109.6</ele><time>2026-05-03T06:27:42.974Z</time></trkpt><trkpt lat="45.1832329" lon="8.4844657"><ele>110.0</ele><time>2026-05-03T06:27:43.974Z</time></trkpt><trkpt lat="45.1832092" lon="8.4843335"><ele>110.0</ele><time>2026-05-03T06:27:44.974Z</time></trkpt><trkpt lat="45.1831874" lon="8.4842031"><ele>110.0</ele><time>2026-05-03T06:27:45.975Z</time></trkpt><trkpt lat="45.1831662" lon="8.4840756"><ele>110.0</ele><time>2026-05-03T06:27:46.974Z</time></trkpt><trkpt lat="45.1831458" lon="8.4839482"><ele>110.0</ele><time>2026-05-03T06:27:47.975Z</time></trkpt><trkpt lat="45.183124" lon="8.4838245"><ele>110.0</ele><time>2026-05-03T06:27:48.974Z</time></trkpt><trkpt lat="45.1831015" lon="8.4836988"><ele>110.0</ele><time>2026-05-03T06:27:49.975Z</time></trkpt><trkpt lat="45.1830772" lon="8.4835732"><ele>110.0</ele><time>2026-05-03T06:27:50.974Z</time></trkpt><trkpt lat="45.1830542" lon="8.4834459"><ele>110.0</ele><time>2026-05-03T06:27:51.974Z</time></trkpt><trkpt lat="45.1830314" lon="8.4833199"><ele>110.0</ele><time>2026-05-03T06:27:52.975Z</time></trkpt><trkpt lat="45.183013" lon="8.483194"><ele>110.0</ele><time>2026-05-03T06:27:53.974Z</time></trkpt><trkpt lat="45.1829898" lon="8.4830656"><ele>109.99999999999999</ele><time>2026-05-03T06:27:54.974Z</time></trkpt><trkpt lat="45.1829658" lon="8.4829443"><ele>110.0</ele><time>2026-05-03T06:27:55.974Z</time></trkpt><trkpt lat="45.1829374" lon="8.4828245"><ele>110.0</ele><time>2026-05-03T06:27:56.975Z</time></trkpt><trkpt lat="45.1829081" lon="8.4826989"><ele>110.0</ele><time>2026-05-03T06:27:57.974Z</time></trkpt><trkpt lat="45.1828818" lon="8.4825774"><ele>109.99999999999999</ele><time>2026-05-03T06:27:58.974Z</time></trkpt><trkpt lat="45.1828604" lon="8.4824579"><ele>110.0</ele><time>2026-05-03T06:27:59.975Z</time></trkpt><trkpt lat="45.182842" lon="8.4823381"><ele>109.99999999999999</ele><time>2026-05-03T06:28:00.974Z</time></trkpt><trkpt lat="45.1828211" lon="8.482217"><ele>110.0</ele><time>2026-05-03T06:28:01.975Z</time></trkpt><trkpt lat="45.1828024" lon="8.4820978"><ele>110.0</ele><time>2026-05-03T06:28:02.976Z</time></trkpt><trkpt lat="45.1827888" lon="8.4819779"><ele>110.0</ele><time>2026-05-03T06:28:03.975Z</time></trkpt><trkpt lat="45.1827741" lon="8.4818549"><ele>109.99999999999999</ele><time>2026-05-03T06:28:04.975Z</time></trkpt><trkpt lat="45.1827595" lon="8.4817291"><ele>110.0</ele><time>2026-05-03T06:28:05.976Z</time></trkpt><trkpt lat="45.1827458" lon="8.4815987"><ele>110.2</ele><time>2026-05-03T06:28:06.976Z</time></trkpt><trkpt lat="45.1827276" lon="8.4814671"><ele>110.4</ele><time>2026-05-03T06:28:07.975Z</time></trkpt><trkpt lat="45.1827096" lon="8.4813308"><ele>110.6</ele><time>2026-05-03T06:28:08.976Z</time></trkpt><trkpt lat="45.1826951" lon="8.4812041"><ele>110.8</ele><time>2026-05-03T06:28:09.976Z</time></trkpt><trkpt lat="45.1826801" lon="8.4810727"><ele>111.0</ele><time>2026-05-03T06:28:10.975Z</time></trkpt><trkpt lat="45.1826612" lon="8.4809399"><ele>111.0</ele><time>2026-05-03T06:28:11.975Z</time></trkpt><trkpt lat="45.1826425" lon="8.4808102"><ele>111.0</ele><time>2026-05-03T06:28:12.975Z</time></trkpt><trkpt lat="45.1826179" lon="8.4806853"><ele>111.0</ele><time>2026-05-03T06:28:13.976Z</time></trkpt><trkpt lat="45.1825823" lon="8.4805591"><ele>111.0</ele><time>2026-05-03T06:28:14.975Z</time></trkpt><trkpt lat="45.182555" lon="8.4804431"><ele>111.0</ele><time>2026-05-03T06:28:15.975Z</time></trkpt><trkpt lat="45.1825333" lon="8.4803251"><ele>111.33333333333333</ele><time>2026-05-03T06:28:16.975Z</time></trkpt><trkpt lat="45.1825129" lon="8.4802078"><ele>111.66666666666666</ele><time>2026-05-03T06:28:17.976Z</time></trkpt><trkpt lat="45.1824936" lon="8.480093"><ele>112.0</ele><time>2026-05-03T06:28:18.975Z</time></trkpt><trkpt lat="45.1824727" lon="8.4799775"><ele>112.33333333333333</ele><time>2026-05-03T06:28:19.976Z</time></trkpt><trkpt lat="45.1824515" lon="8.4798604"><ele>112.66666666666666</ele><time>2026-05-03T06:28:20.976Z</time></trkpt><trkpt lat="45.1824316" lon="8.4797415"><ele>113.0</ele><time>2026-05-03T06:28:21.975Z</time></trkpt><trkpt lat="45.1824114" lon="8.4796248"><ele>113.16666666666666</ele><time>2026-05-03T06:28:22.975Z</time></trkpt><trkpt lat="45.1823896" lon="8.4795088"><ele>113.33333333333333</ele><time>2026-05-03T06:28:23.975Z</time></trkpt><trkpt lat="45.1823651" lon="8.4793961"><ele>113.5</ele><time>2026-05-03T06:28:24.976Z</time></trkpt><trkpt lat="45.1823402" lon="8.4792844"><ele>113.66666666666666</ele><time>2026-05-03T06:28:25.975Z</time></trkpt><trkpt lat="45.182314" lon="8.4791699"><ele>113.83333333333333</ele><time>2026-05-03T06:28:26.975Z</time></trkpt><trkpt lat="45.1822897" lon="8.4790558"><ele>114.0</ele><time>2026-05-03T06:28:27.975Z</time></trkpt><trkpt lat="45.1822634" lon="8.4789469"><ele>114.0</ele><time>2026-05-03T06:28:28.975Z</time></trkpt><trkpt lat="45.1822386" lon="8.4788347"><ele>114.0</ele><time>2026-05-03T06:28:29.975Z</time></trkpt><trkpt lat="45.1822129" lon="8.4787224"><ele>114.0</ele><time>2026-05-03T06:28:30.975Z</time></trkpt><trkpt lat="45.1821916" lon="8.4786118"><ele>114.0</ele><time>2026-05-03T06:28:31.975Z</time></trkpt><trkpt lat="45.1821729" lon="8.478505"><ele>114.0</ele><time>2026-05-03T06:28:32.975Z</time></trkpt><trkpt lat="45.182157" lon="8.4783942"><ele>114.0</ele><time>2026-05-03T06:28:33.976Z</time></trkpt><trkpt lat="45.1821382" lon="8.4782817"><ele>114.0</ele><time>2026-05-03T06:28:34.976Z</time></trkpt><trkpt lat="45.1821135" lon="8.4781634"><ele>114.0</ele><time>2026-05-03T06:28:35.975Z</time></trkpt><trkpt lat="45.1820867" lon="8.4780407"><ele>114.0</ele><time>2026-05-03T06:28:36.976Z</time></trkpt><trkpt lat="45.1820576" lon="8.4779176"><ele>114.0</ele><time>2026-05-03T06:28:37.975Z</time></trkpt><trkpt lat="45.1820319" lon="8.4777997"><ele>114.0</ele><time>2026-05-03T06:28:38.975Z</time></trkpt><trkpt lat="45.1820105" lon="8.4776813"><ele>114.0</ele><time>2026-05-03T06:28:39.975Z</time></trkpt><trkpt lat="45.1819899" lon="8.4775652"><ele>113.83333333333333</ele><time>2026-05-03T06:28:40.975Z</time></trkpt><trkpt lat="45.1819707" lon="8.4774496"><ele>113.66666666666666</ele><time>2026-05-03T06:28:41.975Z</time></trkpt><trkpt lat="45.181947" lon="8.4773347"><ele>113.5</ele><time>2026-05-03T06:28:42.975Z</time></trkpt><trkpt lat="45.1819215" lon="8.477222"><ele>113.33333333333333</ele><time>2026-05-03T06:28:43.976Z</time></trkpt><trkpt lat="45.1818995" lon="8.4771061"><ele>113.16666666666666</ele><time>2026-05-03T06:28:44.976Z</time></trkpt><trkpt lat="45.1818762" lon="8.4769881"><ele>113.0</ele><time>2026-05-03T06:28:45.977Z</time></trkpt><trkpt lat="45.1818539" lon="8.476869"><ele>113.0</ele><time>2026-05-03T06:28:46.976Z</time></trkpt><trkpt lat="45.1818304" lon="8.4767472"><ele>113.00000000000001</ele><time>2026-05-03T06:28:47.976Z</time></trkpt><trkpt lat="45.1818082" lon="8.4766216"><ele>113.00000000000001</ele><time>2026-05-03T06:28:48.977Z</time></trkpt><trkpt lat="45.1817835" lon="8.4764942"><ele>113.0</ele><time>2026-05-03T06:28:49.976Z</time></trkpt><trkpt lat="45.181761" lon="8.4763632"><ele>113.0</ele><time>2026-05-03T06:28:50.976Z</time></trkpt><trkpt lat="45.1817371" lon="8.4762299"><ele>112.99999999999999</ele><time>2026-05-03T06:28:51.977Z</time></trkpt><trkpt lat="45.1817144" lon="8.4761017"><ele>113.0</ele><time>2026-05-03T06:28:52.977Z</time></trkpt><trkpt lat="45.1816944" lon="8.4759737"><ele>113.0</ele><time>2026-05-03T06:28:53.976Z</time></trkpt><trkpt lat="45.1816786" lon="8.4758613"><ele>113.0</ele><time>2026-05-03T06:28:54.977Z</time></trkpt><trkpt lat="45.181668" lon="8.4757455"><ele>112.99999999999999</ele><time>2026-05-03T06:28:55.976Z</time></trkpt><trkpt lat="45.1816565" lon="8.4756358"><ele>113.0</ele><time>2026-05-03T06:28:56.976Z</time></trkpt><trkpt lat="45.1816458" lon="8.4755295"><ele>112.83333333333333</ele><time>2026-05-03T06:28:57.976Z</time></trkpt><trkpt lat="45.1816328" lon="8.4754196"><ele>112.66666666666666</ele><time>2026-05-03T06:28:58.976Z</time></trkpt><trkpt lat="45.1816169" lon="8.4753031"><ele>112.5</ele><time>2026-05-03T06:28:59.976Z</time></trkpt><trkpt lat="45.1815997" lon="8.4751837"><ele>112.33333333333334</ele><time>2026-05-03T06:29:00.977Z</time></trkpt><trkpt lat="45.1815817" lon="8.4750605"><ele>112.16666666666667</ele><time>2026-05-03T06:29:01.977Z</time></trkpt><trkpt lat="45.1815678" lon="8.4749356"><ele>112.0</ele><time>2026-05-03T06:29:02.976Z</time></trkpt><trkpt lat="45.1815513" lon="8.4748081"><ele>112.0</ele><time>2026-05-03T06:29:03.976Z</time></trkpt><trkpt lat="45.1815337" lon="8.4746799"><ele>111.99999999999999</ele><time>2026-05-03T06:29:04.977Z</time></trkpt><trkpt lat="45.1815175" lon="8.4745558"><ele>111.99999999999999</ele><time>2026-05-03T06:29:05.976Z</time></trkpt><trkpt lat="45.1814998" lon="8.4744273"><ele>112.0</ele><time>2026-05-03T06:29:06.976Z</time></trkpt><trkpt lat="45.1814772" lon="8.4743005"><ele>112.0</ele><time>2026-05-03T06:29:07.976Z</time></trkpt><trkpt lat="45.181453" lon="8.4741758"><ele>111.39999999999999</ele><time>2026-05-03T06:29:08.977Z</time></trkpt><trkpt lat="45.1814295" lon="8.4740497"><ele>110.79999999999998</ele><time>2026-05-03T06:29:09.977Z</time></trkpt><trkpt lat="45.1814035" lon="8.4739215"><ele>110.2</ele><time>2026-05-03T06:29:10.977Z</time></trkpt><trkpt lat="45.1813804" lon="8.473797"><ele>109.6</ele><time>2026-05-03T06:29:11.977Z</time></trkpt><trkpt lat="45.1813583" lon="8.4736664"><ele>109.0</ele><time>2026-05-03T06:29:12.976Z</time></trkpt><trkpt lat="45.1813366" lon="8.4735373"><ele>108.66666666666667</ele><time>2026-05-03T06:29:13.977Z</time></trkpt><trkpt lat="45.181315" lon="8.4734126"><ele>108.33333333333334</ele><time>2026-05-03T06:29:14.977Z</time></trkpt><trkpt lat="45.1812922" lon="8.4732898"><ele>108.0</ele><time>2026-05-03T06:29:15.976Z</time></trkpt><trkpt lat="45.1812631" lon="8.4731751"><ele>107.66666666666666</ele><time>2026-05-03T06:29:16.976Z</time></trkpt><trkpt lat="45.181228" lon="8.473077"><ele>107.33333333333333</ele><time>2026-05-03T06:29:17.976Z</time></trkpt><trkpt lat="45.1811905" lon="8.4729998"><ele>107.0</ele><time>2026-05-03T06:29:18.977Z</time></trkpt><trkpt lat="45.1811524" lon="8.4728473"><ele>106.99999999999999</ele><time>2026-05-03T06:29:20.976Z</time></trkpt><trkpt lat="45.181156" lon="8.4726671"><ele>107.0</ele><time>2026-05-03T06:29:22.976Z</time></trkpt><trkpt lat="45.1811384" lon="8.4725753"><ele>107.0</ele><time>2026-05-03T06:29:23.976Z</time></trkpt><trkpt lat="45.1810931" lon="8.4724983"><ele>107.0</ele><time>2026-05-03T06:29:24.977Z</time></trkpt><trkpt lat="45.1810215" lon="8.4724597"><ele>106.99999999999999</ele><time>2026-05-03T06:29:25.978Z</time></trkpt><trkpt lat="45.18093" lon="8.4724613"><ele>107.0</ele><time>2026-05-03T06:29:26.978Z</time></trkpt><trkpt lat="45.1808435" lon="8.4724814"><ele>107.0</ele><time>2026-05-03T06:29:27.977Z</time></trkpt><trkpt lat="45.1807525" lon="8.4725254"><ele>106.99999999999999</ele><time>2026-05-03T06:29:28.978Z</time></trkpt><trkpt lat="45.1806603" lon="8.4725549"><ele>106.99999999999999</ele><time>2026-05-03T06:29:29.978Z</time></trkpt><trkpt lat="45.1805705" lon="8.4725679"><ele>107.0</ele><time>2026-05-03T06:29:30.977Z</time></trkpt><trkpt lat="45.1804815" lon="8.472564"><ele>107.0</ele><time>2026-05-03T06:29:31.977Z</time></trkpt><trkpt lat="45.1803947" lon="8.4725498"><ele>107.19999999999999</ele><time>2026-05-03T06:29:32.977Z</time></trkpt><trkpt lat="45.1803072" lon="8.4725292"><ele>107.39999999999999</ele><time>2026-05-03T06:29:33.978Z</time></trkpt><trkpt lat="45.1802194" lon="8.4725059"><ele>107.60000000000001</ele><time>2026-05-03T06:29:34.977Z</time></trkpt><trkpt lat="45.1801291" lon="8.4724832"><ele>107.80000000000001</ele><time>2026-05-03T06:29:35.977Z</time></trkpt><trkpt lat="45.1800366" lon="8.4724614"><ele>108.0</ele><time>2026-05-03T06:29:36.977Z</time></trkpt><trkpt lat="45.1799418" lon="8.4724411"><ele>108.4</ele><time>2026-05-03T06:29:37.977Z</time></trkpt><trkpt lat="45.1798459" lon="8.4724217"><ele>108.80000000000001</ele><time>2026-05-03T06:29:38.978Z</time></trkpt><trkpt lat="45.1797502" lon="8.4724026"><ele>109.2</ele><time>2026-05-03T06:29:39.978Z</time></trkpt><trkpt lat="45.179654" lon="8.4723817"><ele>109.6</ele><time>2026-05-03T06:29:40.977Z</time></trkpt><trkpt lat="45.1795563" lon="8.4723583"><ele>110.0</ele><time>2026-05-03T06:29:41.977Z</time></trkpt><trkpt lat="45.1794576" lon="8.4723368"><ele>110.0</ele><time>2026-05-03T06:29:42.977Z</time></trkpt><trkpt lat="45.1793584" lon="8.4723175"><ele>110.0</ele><time>2026-05-03T06:29:43.978Z</time></trkpt><trkpt lat="45.1792595" lon="8.4722999"><ele>110.0</ele><time>2026-05-03T06:29:44.977Z</time></trkpt><trkpt lat="45.1791585" lon="8.4722826"><ele>110.0</ele><time>2026-05-03T06:29:45.977Z</time></trkpt><trkpt lat="45.1790567" lon="8.4722646"><ele>110.0</ele><time>2026-05-03T06:29:46.978Z</time></trkpt><trkpt lat="45.1789546" lon="8.4722466"><ele>109.8</ele><time>2026-05-03T06:29:47.977Z</time></trkpt><trkpt lat="45.1788532" lon="8.4722279"><ele>109.6</ele><time>2026-05-03T06:29:48.977Z</time></trkpt><trkpt lat="45.1787529" lon="8.4722099"><ele>109.4</ele><time>2026-05-03T06:29:49.977Z</time></trkpt><trkpt lat="45.1786532" lon="8.4721913"><ele>109.2</ele><time>2026-05-03T06:29:50.977Z</time></trkpt><trkpt lat="45.1785519" lon="8.4721711"><ele>109.0</ele><time>2026-05-03T06:29:51.978Z</time></trkpt><trkpt lat="45.1784496" lon="8.4721501"><ele>109.0</ele><time>2026-05-03T06:29:52.978Z</time></trkpt><trkpt lat="45.1783478" lon="8.4721317"><ele>109.0</ele><time>2026-05-03T06:29:53.977Z</time></trkpt><trkpt lat="45.1782472" lon="8.4721134"><ele>109.0</ele><time>2026-05-03T06:29:54.978Z</time></trkpt><trkpt lat="45.1781468" lon="8.4720933"><ele>109.0</ele><time>2026-05-03T06:29:55.977Z</time></trkpt><trkpt lat="45.1780459" lon="8.4720747"><ele>109.0</ele><time>2026-05-03T06:29:56.978Z</time></trkpt><trkpt lat="45.1779451" lon="8.4720568"><ele>109.0</ele><time>2026-05-03T06:29:57.977Z</time></trkpt><trkpt lat="45.1778448" lon="8.4720386"><ele>109.0</ele><time>2026-05-03T06:29:58.978Z</time></trkpt><trkpt lat="45.1777446" lon="8.472017"><ele>109.0</ele><time>2026-05-03T06:29:59.977Z</time></trkpt><trkpt lat="45.1776444" lon="8.4719956"><ele>109.0</ele><time>2026-05-03T06:30:00.977Z</time></trkpt><trkpt lat="45.1775444" lon="8.4719756"><ele>109.0</ele><time>2026-05-03T06:30:01.977Z</time></trkpt><trkpt lat="45.1774447" lon="8.4719577"><ele>108.80000000000001</ele><time>2026-05-03T06:30:02.977Z</time></trkpt><trkpt lat="45.1773445" lon="8.47194"><ele>108.60000000000001</ele><time>2026-05-03T06:30:03.977Z</time></trkpt><trkpt lat="45.1772446" lon="8.4719218"><ele>108.4</ele><time>2026-05-03T06:30:04.977Z</time></trkpt><trkpt lat="45.1771456" lon="8.4719023"><ele>108.2</ele><time>2026-05-03T06:30:05.977Z</time></trkpt><trkpt lat="45.1770465" lon="8.4718834"><ele>108.0</ele><time>2026-05-03T06:30:06.978Z</time></trkpt><trkpt lat="45.1769453" lon="8.4718654"><ele>108.0</ele><time>2026-05-03T06:30:07.978Z</time></trkpt><trkpt lat="45.1768434" lon="8.4718483"><ele>108.00000000000001</ele><time>2026-05-03T06:30:08.978Z</time></trkpt><trkpt lat="45.1767429" lon="8.4718283"><ele>108.00000000000001</ele><time>2026-05-03T06:30:09.978Z</time></trkpt><trkpt lat="45.176642" lon="8.4718087"><ele>108.0</ele><time>2026-05-03T06:30:10.979Z</time></trkpt><trkpt lat="45.1765427" lon="8.4717899"><ele>108.0</ele><time>2026-05-03T06:30:11.979Z</time></trkpt><trkpt lat="45.1764408" lon="8.4717706"><ele>107.80000000000001</ele><time>2026-05-03T06:30:12.978Z</time></trkpt><trkpt lat="45.176338" lon="8.4717516"><ele>107.60000000000001</ele><time>2026-05-03T06:30:13.978Z</time></trkpt><trkpt lat="45.1762365" lon="8.471732"><ele>107.39999999999999</ele><time>2026-05-03T06:30:14.978Z</time></trkpt><trkpt lat="45.1761363" lon="8.4717126"><ele>107.19999999999999</ele><time>2026-05-03T06:30:15.978Z</time></trkpt><trkpt lat="45.1760365" lon="8.4716933"><ele>107.0</ele><time>2026-05-03T06:30:16.978Z</time></trkpt><trkpt lat="45.1759371" lon="8.4716744"><ele>107.0</ele><time>2026-05-03T06:30:17.979Z</time></trkpt><trkpt lat="45.1758394" lon="8.4716562"><ele>106.99999999999999</ele><time>2026-05-03T06:30:18.978Z</time></trkpt><trkpt lat="45.175744" lon="8.4716385"><ele>106.99999999999999</ele><time>2026-05-03T06:30:19.978Z</time></trkpt><trkpt lat="45.1756493" lon="8.4716207"><ele>107.0</ele><time>2026-05-03T06:30:20.978Z</time></trkpt><trkpt lat="45.1755554" lon="8.4716003"><ele>107.0</ele><time>2026-05-03T06:30:21.978Z</time></trkpt><trkpt lat="45.1754618" lon="8.4715794"><ele>107.19999999999999</ele><time>2026-05-03T06:30:22.979Z</time></trkpt><trkpt lat="45.175366" lon="8.4715608"><ele>107.39999999999999</ele><time>2026-05-03T06:30:23.979Z</time></trkpt><trkpt lat="45.1752675" lon="8.4715424"><ele>107.60000000000001</ele><time>2026-05-03T06:30:24.979Z</time></trkpt><trkpt lat="45.1751666" lon="8.4715225"><ele>107.80000000000001</ele><time>2026-05-03T06:30:25.978Z</time></trkpt><trkpt lat="45.175065" lon="8.4715025"><ele>108.0</ele><time>2026-05-03T06:30:26.978Z</time></trkpt><trkpt lat="45.174962" lon="8.4714818"><ele>108.0</ele><time>2026-05-03T06:30:27.978Z</time></trkpt><trkpt lat="45.1748597" lon="8.4714619"><ele>108.00000000000001</ele><time>2026-05-03T06:30:28.979Z</time></trkpt><trkpt lat="45.1747599" lon="8.4714429"><ele>108.00000000000001</ele><time>2026-05-03T06:30:29.978Z</time></trkpt><trkpt lat="45.1746595" lon="8.4714237"><ele>108.0</ele><time>2026-05-03T06:30:30.978Z</time></trkpt><trkpt lat="45.1745603" lon="8.4714043"><ele>108.0</ele><time>2026-05-03T06:30:31.978Z</time></trkpt><trkpt lat="45.1744601" lon="8.4713859"><ele>108.2</ele><time>2026-05-03T06:30:32.978Z</time></trkpt><trkpt lat="45.174362" lon="8.4713676"><ele>108.4</ele><time>2026-05-03T06:30:33.978Z</time></trkpt><trkpt lat="45.1742672" lon="8.4713508"><ele>108.60000000000001</ele><time>2026-05-03T06:30:34.978Z</time></trkpt><trkpt lat="45.1741725" lon="8.4713347"><ele>108.80000000000001</ele><time>2026-05-03T06:30:35.978Z</time></trkpt><trkpt lat="45.174075" lon="8.4713178"><ele>109.0</ele><time>2026-05-03T06:30:36.979Z</time></trkpt><trkpt lat="45.1739773" lon="8.4713009"><ele>108.6</ele><time>2026-05-03T06:30:37.978Z</time></trkpt><trkpt lat="45.1738795" lon="8.4712829"><ele>108.2</ele><time>2026-05-03T06:30:38.978Z</time></trkpt><trkpt lat="45.1737816" lon="8.4712647"><ele>107.79999999999998</ele><time>2026-05-03T06:30:39.979Z</time></trkpt><trkpt lat="45.1736835" lon="8.4712432"><ele>107.39999999999999</ele><time>2026-05-03T06:30:40.978Z</time></trkpt><trkpt lat="45.1735875" lon="8.471221"><ele>107.0</ele><time>2026-05-03T06:30:41.978Z</time></trkpt><trkpt lat="45.1734923" lon="8.4712015"><ele>107.0</ele><time>2026-05-03T06:30:42.978Z</time></trkpt><trkpt lat="45.1733952" lon="8.4711844"><ele>106.99999999999999</ele><time>2026-05-03T06:30:43.979Z</time></trkpt><trkpt lat="45.1732981" lon="8.4711677"><ele>106.99999999999999</ele><time>2026-05-03T06:30:44.978Z</time></trkpt><trkpt lat="45.1732009" lon="8.4711516"><ele>107.0</ele><time>2026-05-03T06:30:45.978Z</time></trkpt><trkpt lat="45.1731043" lon="8.471135"><ele>107.0</ele><time>2026-05-03T06:30:46.979Z</time></trkpt><trkpt lat="45.1730083" lon="8.4711169"><ele>107.39999999999999</ele><time>2026-05-03T06:30:47.979Z</time></trkpt><trkpt lat="45.1729128" lon="8.4710959"><ele>107.79999999999998</ele><time>2026-05-03T06:30:48.979Z</time></trkpt><trkpt lat="45.1728177" lon="8.4710705"><ele>108.2</ele><time>2026-05-03T06:30:49.979Z</time></trkpt><trkpt lat="45.1727234" lon="8.4710406"><ele>108.6</ele><time>2026-05-03T06:30:50.979Z</time></trkpt><trkpt lat="45.1726306" lon="8.4710039"><ele>109.0</ele><time>2026-05-03T06:30:51.979Z</time></trkpt><trkpt lat="45.1725381" lon="8.4709596"><ele>109.0</ele><time>2026-05-03T06:30:52.98Z</time></trkpt><trkpt lat="45.1724454" lon="8.4709099"><ele>109.0</ele><time>2026-05-03T06:30:53.979Z</time></trkpt><trkpt lat="45.1723528" lon="8.4708581"><ele>109.0</ele><time>2026-05-03T06:30:54.98Z</time></trkpt><trkpt lat="45.1722625" lon="8.4708035"><ele>109.0</ele><time>2026-05-03T06:30:55.979Z</time></trkpt><trkpt lat="45.1721731" lon="8.4707422"><ele>109.0</ele><time>2026-05-03T06:30:56.979Z</time></trkpt><trkpt lat="45.1720855" lon="8.4706769"><ele>109.0</ele><time>2026-05-03T06:30:57.98Z</time></trkpt><trkpt lat="45.172" lon="8.4706093"><ele>109.0</ele><time>2026-05-03T06:30:58.98Z</time></trkpt><trkpt lat="45.1719163" lon="8.4705371"><ele>109.0</ele><time>2026-05-03T06:30:59.979Z</time></trkpt><trkpt lat="45.1718385" lon="8.4704631"><ele>109.0</ele><time>2026-05-03T06:31:00.979Z</time></trkpt><trkpt lat="45.1717588" lon="8.4703838"><ele>109.0</ele><time>2026-05-03T06:31:01.979Z</time></trkpt><trkpt lat="45.1716803" lon="8.4702962"><ele>109.0</ele><time>2026-05-03T06:31:02.98Z</time></trkpt><trkpt lat="45.1716061" lon="8.4702019"><ele>109.0</ele><time>2026-05-03T06:31:03.98Z</time></trkpt><trkpt lat="45.1715354" lon="8.4701075"><ele>109.0</ele><time>2026-05-03T06:31:04.979Z</time></trkpt><trkpt lat="45.1714621" lon="8.47001"><ele>109.0</ele><time>2026-05-03T06:31:05.979Z</time></trkpt><trkpt lat="45.1713898" lon="8.4699046"><ele>109.0</ele><time>2026-05-03T06:31:06.979Z</time></trkpt><trkpt lat="45.1713211" lon="8.4698007"><ele>108.6</ele><time>2026-05-03T06:31:07.979Z</time></trkpt><trkpt lat="45.1712524" lon="8.469696"><ele>108.2</ele><time>2026-05-03T06:31:08.979Z</time></trkpt><trkpt lat="45.1711856" lon="8.4695927"><ele>107.79999999999998</ele><time>2026-05-03T06:31:09.98Z</time></trkpt><trkpt lat="45.1711175" lon="8.4694875"><ele>107.39999999999999</ele><time>2026-05-03T06:31:10.979Z</time></trkpt><trkpt lat="45.1710489" lon="8.4693825"><ele>107.0</ele><time>2026-05-03T06:31:11.98Z</time></trkpt><trkpt lat="45.1709801" lon="8.4692773"><ele>107.0</ele><time>2026-05-03T06:31:12.979Z</time></trkpt><trkpt lat="45.1709113" lon="8.4691728"><ele>106.99999999999999</ele><time>2026-05-03T06:31:13.979Z</time></trkpt><trkpt lat="45.170842" lon="8.4690669"><ele>106.99999999999999</ele><time>2026-05-03T06:31:14.98Z</time></trkpt><trkpt lat="45.1707731" lon="8.4689612"><ele>107.0</ele><time>2026-05-03T06:31:15.979Z</time></trkpt><trkpt lat="45.1707037" lon="8.4688553"><ele>107.0</ele><time>2026-05-03T06:31:16.98Z</time></trkpt><trkpt lat="45.1706355" lon="8.468751"><ele>107.6</ele><time>2026-05-03T06:31:17.979Z</time></trkpt><trkpt lat="45.1705669" lon="8.4686451"><ele>108.19999999999999</ele><time>2026-05-03T06:31:18.98Z</time></trkpt><trkpt lat="45.1704995" lon="8.4685394"><ele>108.8</ele><time>2026-05-03T06:31:19.979Z</time></trkpt><trkpt lat="45.1704311" lon="8.4684328"><ele>109.4</ele><time>2026-05-03T06:31:20.98Z</time></trkpt><trkpt lat="45.1703622" lon="8.468329"><ele>110.0</ele><time>2026-05-03T06:31:21.979Z</time></trkpt><trkpt lat="45.1702923" lon="8.4682256"><ele>110.0</ele><time>2026-05-03T06:31:22.98Z</time></trkpt><trkpt lat="45.1702229" lon="8.4681213"><ele>110.0</ele><time>2026-05-03T06:31:23.98Z</time></trkpt><trkpt lat="45.1701559" lon="8.4680199"><ele>110.0</ele><time>2026-05-03T06:31:24.98Z</time></trkpt><trkpt lat="45.170091" lon="8.4679204"><ele>110.0</ele><time>2026-05-03T06:31:25.979Z</time></trkpt><trkpt lat="45.1700263" lon="8.4678189"><ele>110.0</ele><time>2026-05-03T06:31:26.98Z</time></trkpt><trkpt lat="45.1699616" lon="8.4677171"><ele>110.0</ele><time>2026-05-03T06:31:27.98Z</time></trkpt><trkpt lat="45.1698966" lon="8.4676145"><ele>110.0</ele><time>2026-05-03T06:31:28.98Z</time></trkpt><trkpt lat="45.1698318" lon="8.4675132"><ele>110.0</ele><time>2026-05-03T06:31:29.98Z</time></trkpt><trkpt lat="45.1697666" lon="8.4674129"><ele>110.0</ele><time>2026-05-03T06:31:30.98Z</time></trkpt><trkpt lat="45.1697007" lon="8.4673119"><ele>110.0</ele><time>2026-05-03T06:31:31.981Z</time></trkpt><trkpt lat="45.1696329" lon="8.4672119"><ele>110.0</ele><time>2026-05-03T06:31:32.981Z</time></trkpt><trkpt lat="45.169565" lon="8.4671099"><ele>110.0</ele><time>2026-05-03T06:31:33.98Z</time></trkpt><trkpt lat="45.1694957" lon="8.4670041"><ele>110.0</ele><time>2026-05-03T06:31:34.981Z</time></trkpt><trkpt lat="45.1694251" lon="8.4668975"><ele>110.0</ele><time>2026-05-03T06:31:35.98Z</time></trkpt><trkpt lat="45.1693502" lon="8.4667891"><ele>110.0</ele><time>2026-05-03T06:31:36.98Z</time></trkpt><trkpt lat="45.1692767" lon="8.4666829"><ele>110.0</ele><time>2026-05-03T06:31:37.98Z</time></trkpt><trkpt lat="45.1692041" lon="8.4665742"><ele>110.0</ele><time>2026-05-03T06:31:38.98Z</time></trkpt><trkpt lat="45.1691328" lon="8.4664647"><ele>110.0</ele><time>2026-05-03T06:31:39.98Z</time></trkpt><trkpt lat="45.1690632" lon="8.466357"><ele>110.0</ele><time>2026-05-03T06:31:40.98Z</time></trkpt><trkpt lat="45.1689955" lon="8.4662504"><ele>110.0</ele><time>2026-05-03T06:31:41.981Z</time></trkpt><trkpt lat="45.1689268" lon="8.466145"><ele>110.2</ele><time>2026-05-03T06:31:42.981Z</time></trkpt><trkpt lat="45.1688576" lon="8.4660404"><ele>110.4</ele><time>2026-05-03T06:31:43.98Z</time></trkpt><trkpt lat="45.1687897" lon="8.4659374"><ele>110.6</ele><time>2026-05-03T06:31:44.98Z</time></trkpt><trkpt lat="45.1687207" lon="8.4658325"><ele>110.8</ele><time>2026-05-03T06:31:45.981Z</time></trkpt><trkpt lat="45.1686511" lon="8.4657271"><ele>111.0</ele><time>2026-05-03T06:31:46.98Z</time></trkpt><trkpt lat="45.1685815" lon="8.4656196"><ele>111.0</ele><time>2026-05-03T06:31:47.98Z</time></trkpt><trkpt lat="45.168515" lon="8.4655156"><ele>111.0</ele><time>2026-05-03T06:31:48.98Z</time></trkpt><trkpt lat="45.1684487" lon="8.4654163"><ele>111.0</ele><time>2026-05-03T06:31:49.981Z</time></trkpt><trkpt lat="45.1683805" lon="8.4653178"><ele>111.0</ele><time>2026-05-03T06:31:50.981Z</time></trkpt><trkpt lat="45.1683132" lon="8.4652196"><ele>111.0</ele><time>2026-05-03T06:31:51.98Z</time></trkpt><trkpt lat="45.1682448" lon="8.4651177"><ele>110.8</ele><time>2026-05-03T06:31:52.981Z</time></trkpt><trkpt lat="45.1681801" lon="8.4650168"><ele>110.6</ele><time>2026-05-03T06:31:53.98Z</time></trkpt><trkpt lat="45.1681171" lon="8.464917"><ele>110.4</ele><time>2026-05-03T06:31:54.98Z</time></trkpt><trkpt lat="45.1680555" lon="8.4648143"><ele>110.2</ele><time>2026-05-03T06:31:55.98Z</time></trkpt><trkpt lat="45.1679984" lon="8.4647108"><ele>110.0</ele><time>2026-05-03T06:31:56.981Z</time></trkpt><trkpt lat="45.1679446" lon="8.4646091"><ele>109.71428571428571</ele><time>2026-05-03T06:31:57.98Z</time></trkpt><trkpt lat="45.1678997" lon="8.4645147"><ele>109.42857142857143</ele><time>2026-05-03T06:31:58.981Z</time></trkpt><trkpt lat="45.1678661" lon="8.4644222"><ele>109.14285714285714</ele><time>2026-05-03T06:31:59.981Z</time></trkpt><trkpt lat="45.1678456" lon="8.4643305"><ele>108.85714285714286</ele><time>2026-05-03T06:32:00.98Z</time></trkpt><trkpt lat="45.1678195" lon="8.4642421"><ele>108.57142857142857</ele><time>2026-05-03T06:32:01.981Z</time></trkpt><trkpt lat="45.1677717" lon="8.4641652"><ele>108.28571428571428</ele><time>2026-05-03T06:32:02.981Z</time></trkpt><trkpt lat="45.1677049" lon="8.4641099"><ele>108.0</ele><time>2026-05-03T06:32:03.981Z</time></trkpt><trkpt lat="45.1676275" lon="8.4640631"><ele>108.0</ele><time>2026-05-03T06:32:04.981Z</time></trkpt><trkpt lat="45.1675555" lon="8.4640173"><ele>108.0</ele><time>2026-05-03T06:32:05.98Z</time></trkpt><trkpt lat="45.1674871" lon="8.4639549"><ele>108.0</ele><time>2026-05-03T06:32:06.981Z</time></trkpt><trkpt lat="45.1674249" lon="8.4638725"><ele>108.0</ele><time>2026-05-03T06:32:07.98Z</time></trkpt><trkpt lat="45.1673686" lon="8.4637794"><ele>108.0</ele><time>2026-05-03T06:32:08.981Z</time></trkpt><trkpt lat="45.1673114" lon="8.4636826"><ele>108.0</ele><time>2026-05-03T06:32:09.981Z</time></trkpt><trkpt lat="45.1672466" lon="8.4635818"><ele>108.80000000000001</ele><time>2026-05-03T06:32:10.982Z</time></trkpt><trkpt lat="45.1671796" lon="8.4634835"><ele>109.60000000000001</ele><time>2026-05-03T06:32:11.981Z</time></trkpt><trkpt lat="45.1671144" lon="8.4633891"><ele>110.39999999999999</ele><time>2026-05-03T06:32:12.981Z</time></trkpt><trkpt lat="45.1670484" lon="8.4632904"><ele>111.19999999999999</ele><time>2026-05-03T06:32:13.981Z</time></trkpt><trkpt lat="45.1669808" lon="8.4631871"><ele>112.0</ele><time>2026-05-03T06:32:14.982Z</time></trkpt><trkpt lat="45.1669125" lon="8.4630837"><ele>112.0</ele><time>2026-05-03T06:32:15.981Z</time></trkpt><trkpt lat="45.1668435" lon="8.4629807"><ele>111.99999999999999</ele><time>2026-05-03T06:32:16.981Z</time></trkpt><trkpt lat="45.1667712" lon="8.462879"><ele>111.99999999999999</ele><time>2026-05-03T06:32:17.981Z</time></trkpt><trkpt lat="45.1666967" lon="8.462779"><ele>112.0</ele><time>2026-05-03T06:32:18.981Z</time></trkpt><trkpt lat="45.1666185" lon="8.4626827"><ele>112.0</ele><time>2026-05-03T06:32:19.981Z</time></trkpt><trkpt lat="45.1665376" lon="8.462594"><ele>111.6</ele><time>2026-05-03T06:32:20.981Z</time></trkpt><trkpt lat="45.1664523" lon="8.4625099"><ele>111.19999999999999</ele><time>2026-05-03T06:32:21.981Z</time></trkpt><trkpt lat="45.1663629" lon="8.4624274"><ele>110.8</ele><time>2026-05-03T06:32:22.982Z</time></trkpt><trkpt lat="45.166272" lon="8.4623513"><ele>110.4</ele><time>2026-05-03T06:32:23.982Z</time></trkpt><trkpt lat="45.1661792" lon="8.4622813"><ele>110.0</ele><time>2026-05-03T06:32:24.981Z</time></trkpt><trkpt lat="45.166085" lon="8.4622147"><ele>110.0</ele><time>2026-05-03T06:32:25.981Z</time></trkpt><trkpt lat="45.1659881" lon="8.462149"><ele>110.0</ele><time>2026-05-03T06:32:26.981Z</time></trkpt><trkpt lat="45.165892" lon="8.4620858"><ele>110.0</ele><time>2026-05-03T06:32:27.981Z</time></trkpt><trkpt lat="45.1657951" lon="8.4620225"><ele>110.0</ele><time>2026-05-03T06:32:28.982Z</time></trkpt><trkpt lat="45.1656983" lon="8.4619599"><ele>110.0</ele><time>2026-05-03T06:32:29.982Z</time></trkpt><trkpt lat="45.1656005" lon="8.4618969"><ele>109.8</ele><time>2026-05-03T06:32:30.981Z</time></trkpt><trkpt lat="45.1655038" lon="8.4618338"><ele>109.6</ele><time>2026-05-03T06:32:31.981Z</time></trkpt><trkpt lat="45.1654085" lon="8.4617705"><ele>109.4</ele><time>2026-05-03T06:32:32.981Z</time></trkpt><trkpt lat="45.1653123" lon="8.4617073"><ele>109.2</ele><time>2026-05-03T06:32:33.981Z</time></trkpt><trkpt lat="45.1652164" lon="8.461645"><ele>109.0</ele><time>2026-05-03T06:32:34.981Z</time></trkpt><trkpt lat="45.1651227" lon="8.4615844"><ele>109.0</ele><time>2026-05-03T06:32:35.982Z</time></trkpt><trkpt lat="45.1650296" lon="8.4615234"><ele>109.0</ele><time>2026-05-03T06:32:36.982Z</time></trkpt><trkpt lat="45.1649371" lon="8.4614608"><ele>109.0</ele><time>2026-05-03T06:32:37.981Z</time></trkpt><trkpt lat="45.1648452" lon="8.4613975"><ele>109.0</ele><time>2026-05-03T06:32:38.981Z</time></trkpt><trkpt lat="45.1647524" lon="8.4613354"><ele>109.0</ele><time>2026-05-03T06:32:39.981Z</time></trkpt><trkpt lat="45.1646589" lon="8.4612731"><ele>108.80000000000001</ele><time>2026-05-03T06:32:40.982Z</time></trkpt><trkpt lat="45.1645656" lon="8.4612119"><ele>108.60000000000001</ele><time>2026-05-03T06:32:41.981Z</time></trkpt><trkpt lat="45.1644727" lon="8.4611506"><ele>108.4</ele><time>2026-05-03T06:32:42.981Z</time></trkpt><trkpt lat="45.1643799" lon="8.4610901"><ele>108.2</ele><time>2026-05-03T06:32:43.981Z</time></trkpt><trkpt lat="45.1642883" lon="8.4610306"><ele>108.0</ele><time>2026-05-03T06:32:44.981Z</time></trkpt><trkpt lat="45.1641973" lon="8.4609703"><ele>108.0</ele><time>2026-05-03T06:32:45.981Z</time></trkpt><trkpt lat="45.1641057" lon="8.4609109"><ele>108.00000000000001</ele><time>2026-05-03T06:32:46.981Z</time></trkpt><trkpt lat="45.164013" lon="8.4608505"><ele>108.00000000000001</ele><time>2026-05-03T06:32:47.982Z</time></trkpt><trkpt lat="45.1639199" lon="8.4607869"><ele>108.0</ele><time>2026-05-03T06:32:48.981Z</time></trkpt><trkpt lat="45.1638272" lon="8.4607227"><ele>108.0</ele><time>2026-05-03T06:32:49.981Z</time></trkpt><trkpt lat="45.1637338" lon="8.4606601"><ele>108.0</ele><time>2026-05-03T06:32:50.983Z</time></trkpt><trkpt lat="45.1636402" lon="8.4605995"><ele>108.00000000000001</ele><time>2026-05-03T06:32:51.982Z</time></trkpt><trkpt lat="45.1635459" lon="8.4605392"><ele>108.00000000000001</ele><time>2026-05-03T06:32:52.982Z</time></trkpt><trkpt lat="45.1634524" lon="8.4604784"><ele>108.0</ele><time>2026-05-03T06:32:53.982Z</time></trkpt><trkpt lat="45.1633582" lon="8.4604162"><ele>108.0</ele><time>2026-05-03T06:32:54.982Z</time></trkpt><trkpt lat="45.1632657" lon="8.4603558"><ele>107.80000000000001</ele><time>2026-05-03T06:32:55.982Z</time></trkpt><trkpt lat="45.1631732" lon="8.4602941"><ele>107.60000000000001</ele><time>2026-05-03T06:32:56.982Z</time></trkpt><trkpt lat="45.1630806" lon="8.4602316"><ele>107.39999999999999</ele><time>2026-05-03T06:32:57.982Z</time></trkpt><trkpt lat="45.1629885" lon="8.46017"><ele>107.19999999999999</ele><time>2026-05-03T06:32:58.982Z</time></trkpt><trkpt lat="45.1628964" lon="8.4601083"><ele>107.0</ele><time>2026-05-03T06:32:59.982Z</time></trkpt><trkpt lat="45.1628046" lon="8.4600467"><ele>107.0</ele><time>2026-05-03T06:33:00.982Z</time></trkpt><trkpt lat="45.1627128" lon="8.4599856"><ele>106.99999999999999</ele><time>2026-05-03T06:33:01.983Z</time></trkpt><trkpt lat="45.1626204" lon="8.4599249"><ele>106.99999999999999</ele><time>2026-05-03T06:33:02.982Z</time></trkpt><trkpt lat="45.162528" lon="8.459865"><ele>107.0</ele><time>2026-05-03T06:33:03.982Z</time></trkpt><trkpt lat="45.1624374" lon="8.4598067"><ele>107.0</ele><time>2026-05-03T06:33:04.983Z</time></trkpt><trkpt lat="45.1623467" lon="8.4597466"><ele>107.6</ele><time>2026-05-03T06:33:05.983Z</time></trkpt><trkpt lat="45.1622558" lon="8.4596849"><ele>108.19999999999999</ele><time>2026-05-03T06:33:06.982Z</time></trkpt><trkpt lat="45.1621646" lon="8.4596223"><ele>108.8</ele><time>2026-05-03T06:33:07.982Z</time></trkpt><trkpt lat="45.1620742" lon="8.4595579"><ele>109.4</ele><time>2026-05-03T06:33:08.983Z</time></trkpt><trkpt lat="45.1619829" lon="8.459497"><ele>110.0</ele><time>2026-05-03T06:33:09.982Z</time></trkpt><trkpt lat="45.1618928" lon="8.4594353"><ele>110.0</ele><time>2026-05-03T06:33:10.982Z</time></trkpt><trkpt lat="45.1617981" lon="8.4593747"><ele>110.0</ele><time>2026-05-03T06:33:11.982Z</time></trkpt><trkpt lat="45.161703" lon="8.4593128"><ele>110.0</ele><time>2026-05-03T06:33:12.982Z</time></trkpt><trkpt lat="45.1616108" lon="8.4592513"><ele>110.0</ele><time>2026-05-03T06:33:13.982Z</time></trkpt><trkpt lat="45.1615162" lon="8.4591987"><ele>110.0</ele><time>2026-05-03T06:33:14.983Z</time></trkpt><trkpt lat="45.161424" lon="8.4591434"><ele>110.0</ele><time>2026-05-03T06:33:15.983Z</time></trkpt><trkpt lat="45.1613252" lon="8.4590865"><ele>110.0</ele><time>2026-05-03T06:33:16.983Z</time></trkpt><trkpt lat="45.1612328" lon="8.4590248"><ele>110.0</ele><time>2026-05-03T06:33:17.983Z</time></trkpt><trkpt lat="45.1611412" lon="8.458958"><ele>110.0</ele><time>2026-05-03T06:33:18.983Z</time></trkpt><trkpt lat="45.1610501" lon="8.4588936"><ele>110.0</ele><time>2026-05-03T06:33:19.983Z</time></trkpt><trkpt lat="45.1609596" lon="8.4588314"><ele>110.0</ele><time>2026-05-03T06:33:20.982Z</time></trkpt><trkpt lat="45.1608663" lon="8.4587692"><ele>110.0</ele><time>2026-05-03T06:33:21.983Z</time></trkpt><trkpt lat="45.160773" lon="8.4587063"><ele>110.0</ele><time>2026-05-03T06:33:22.982Z</time></trkpt><trkpt lat="45.1606802" lon="8.4586452"><ele>110.0</ele><time>2026-05-03T06:33:23.982Z</time></trkpt><trkpt lat="45.1605881" lon="8.458587"><ele>110.0</ele><time>2026-05-03T06:33:24.982Z</time></trkpt><trkpt lat="45.1604951" lon="8.4585272"><ele>109.8</ele><time>2026-05-03T06:33:25.982Z</time></trkpt><trkpt lat="45.1604025" lon="8.4584661"><ele>109.6</ele><time>2026-05-03T06:33:26.983Z</time></trkpt><trkpt lat="45.1603111" lon="8.4584051"><ele>109.4</ele><time>2026-05-03T06:33:27.982Z</time></trkpt><trkpt lat="45.1602197" lon="8.4583424"><ele>109.2</ele><time>2026-05-03T06:33:28.983Z</time></trkpt><trkpt lat="45.1601282" lon="8.4582788"><ele>109.0</ele><time>2026-05-03T06:33:29.982Z</time></trkpt><trkpt lat="45.1600357" lon="8.4582142"><ele>109.0</ele><time>2026-05-03T06:33:30.982Z</time></trkpt><trkpt lat="45.159943" lon="8.4581524"><ele>109.0</ele><time>2026-05-03T06:33:31.983Z</time></trkpt><trkpt lat="45.1598498" lon="8.4580933"><ele>109.0</ele><time>2026-05-03T06:33:32.983Z</time></trkpt><trkpt lat="45.1597557" lon="8.4580349"><ele>109.0</ele><time>2026-05-03T06:33:33.983Z</time></trkpt><trkpt lat="45.1596607" lon="8.4579749"><ele>109.0</ele><time>2026-05-03T06:33:34.983Z</time></trkpt><trkpt lat="45.1595665" lon="8.4579135"><ele>109.0</ele><time>2026-05-03T06:33:35.983Z</time></trkpt><trkpt lat="45.159473" lon="8.4578526"><ele>109.0</ele><time>2026-05-03T06:33:36.983Z</time></trkpt><trkpt lat="45.1592851" lon="8.4577281"><ele>109.0</ele><time>2026-05-03T06:33:38.983Z</time></trkpt><trkpt lat="45.1591923" lon="8.4576634"><ele>109.0</ele><time>2026-05-03T06:33:39.984Z</time></trkpt><trkpt lat="45.1591013" lon="8.4575963"><ele>109.4</ele><time>2026-05-03T06:33:40.984Z</time></trkpt><trkpt lat="45.1590133" lon="8.4575259"><ele>109.80000000000001</ele><time>2026-05-03T06:33:41.983Z</time></trkpt><trkpt lat="45.1589263" lon="8.4574531"><ele>110.19999999999999</ele><time>2026-05-03T06:33:42.983Z</time></trkpt><trkpt lat="45.1588399" lon="8.4573777"><ele>110.6</ele><time>2026-05-03T06:33:43.984Z</time></trkpt><trkpt lat="45.1587574" lon="8.4573026"><ele>111.0</ele><time>2026-05-03T06:33:44.983Z</time></trkpt><trkpt lat="45.1586789" lon="8.4572264"><ele>111.0</ele><time>2026-05-03T06:33:45.983Z</time></trkpt><trkpt lat="45.1586039" lon="8.4571543"><ele>111.0</ele><time>2026-05-03T06:33:46.983Z</time></trkpt><trkpt lat="45.1585329" lon="8.4570949"><ele>111.0</ele><time>2026-05-03T06:33:47.983Z</time></trkpt><trkpt lat="45.1584645" lon="8.4570566"><ele>111.0</ele><time>2026-05-03T06:33:48.983Z</time></trkpt><trkpt lat="45.1583988" lon="8.4570338"><ele>111.0</ele><time>2026-05-03T06:33:49.983Z</time></trkpt><trkpt lat="45.1583362" lon="8.4570195"><ele>111.0</ele><time>2026-05-03T06:33:50.983Z</time></trkpt><trkpt lat="45.158212" lon="8.4569926"><ele>111.0</ele><time>2026-05-03T06:33:52.983Z</time></trkpt><trkpt lat="45.158146" lon="8.4569688"><ele>111.0</ele><time>2026-05-03T06:33:53.983Z</time></trkpt><trkpt lat="45.1580804" lon="8.4569354"><ele>111.0</ele><time>2026-05-03T06:33:54.983Z</time></trkpt><trkpt lat="45.1580114" lon="8.4568963"><ele>111.0</ele><time>2026-05-03T06:33:55.984Z</time></trkpt><trkpt lat="45.1579429" lon="8.4568531"><ele>111.0</ele><time>2026-05-03T06:33:56.983Z</time></trkpt><trkpt lat="45.1578741" lon="8.4568056"><ele>111.0</ele><time>2026-05-03T06:33:57.983Z</time></trkpt><trkpt lat="45.1577998" lon="8.4567545"><ele>111.0</ele><time>2026-05-03T06:33:58.984Z</time></trkpt><trkpt lat="45.157721" lon="8.4567053"><ele>111.0</ele><time>2026-05-03T06:33:59.984Z</time></trkpt><trkpt lat="45.1576418" lon="8.4566582"><ele>111.0</ele><time>2026-05-03T06:34:00.983Z</time></trkpt><trkpt lat="45.1575598" lon="8.4566054"><ele>111.0</ele><time>2026-05-03T06:34:01.984Z</time></trkpt><trkpt lat="45.1574761" lon="8.4565477"><ele>111.0</ele><time>2026-05-03T06:34:02.984Z</time></trkpt><trkpt lat="45.1573926" lon="8.4564902"><ele>111.0</ele><time>2026-05-03T06:34:03.983Z</time></trkpt><trkpt lat="45.1573049" lon="8.4564291"><ele>110.6</ele><time>2026-05-03T06:34:04.983Z</time></trkpt><trkpt lat="45.1572179" lon="8.4563712"><ele>110.19999999999999</ele><time>2026-05-03T06:34:05.983Z</time></trkpt><trkpt lat="45.1571298" lon="8.4563128"><ele>109.80000000000001</ele><time>2026-05-03T06:34:06.983Z</time></trkpt><trkpt lat="45.1570421" lon="8.4562541"><ele>109.4</ele><time>2026-05-03T06:34:07.983Z</time></trkpt><trkpt lat="45.1569528" lon="8.4561961"><ele>109.0</ele><time>2026-05-03T06:34:08.984Z</time></trkpt><trkpt lat="45.156861" lon="8.4561367"><ele>108.80000000000001</ele><time>2026-05-03T06:34:09.983Z</time></trkpt><trkpt lat="45.1567647" lon="8.4560753"><ele>108.60000000000001</ele><time>2026-05-03T06:34:10.983Z</time></trkpt><trkpt lat="45.1566692" lon="8.4560114"><ele>108.4</ele><time>2026-05-03T06:34:11.983Z</time></trkpt><trkpt lat="45.156579" lon="8.4559535"><ele>108.2</ele><time>2026-05-03T06:34:12.984Z</time></trkpt><trkpt lat="45.1564922" lon="8.4559022"><ele>108.0</ele><time>2026-05-03T06:34:13.984Z</time></trkpt><trkpt lat="45.156408" lon="8.4558491"><ele>108.60000000000001</ele><time>2026-05-03T06:34:14.985Z</time></trkpt><trkpt lat="45.1563247" lon="8.4557904"><ele>109.20000000000002</ele><time>2026-05-03T06:34:15.985Z</time></trkpt><trkpt lat="45.1562406" lon="8.4557293"><ele>109.8</ele><time>2026-05-03T06:34:16.985Z</time></trkpt><trkpt lat="45.1561561" lon="8.4556728"><ele>110.4</ele><time>2026-05-03T06:34:17.985Z</time></trkpt><trkpt lat="45.1560695" lon="8.4556183"><ele>111.0</ele><time>2026-05-03T06:34:18.984Z</time></trkpt><trkpt lat="45.155984" lon="8.4555645"><ele>111.0</ele><time>2026-05-03T06:34:19.984Z</time></trkpt><trkpt lat="45.1558996" lon="8.4555088"><ele>111.0</ele><time>2026-05-03T06:34:20.984Z</time></trkpt><trkpt lat="45.155815" lon="8.4554494"><ele>111.0</ele><time>2026-05-03T06:34:21.984Z</time></trkpt><trkpt lat="45.1557312" lon="8.455389"><ele>111.0</ele><time>2026-05-03T06:34:22.985Z</time></trkpt><trkpt lat="45.1556465" lon="8.455329"><ele>111.0</ele><time>2026-05-03T06:34:23.984Z</time></trkpt><trkpt lat="45.1555589" lon="8.4552721"><ele>111.0</ele><time>2026-05-03T06:34:24.984Z</time></trkpt><trkpt lat="45.1554721" lon="8.4552177"><ele>111.0</ele><time>2026-05-03T06:34:25.984Z</time></trkpt><trkpt lat="45.155383" lon="8.4551602"><ele>111.0</ele><time>2026-05-03T06:34:26.985Z</time></trkpt><trkpt lat="45.1552933" lon="8.4551041"><ele>111.0</ele><time>2026-05-03T06:34:27.985Z</time></trkpt><trkpt lat="45.1552023" lon="8.4550476"><ele>111.0</ele><time>2026-05-03T06:34:28.985Z</time></trkpt><trkpt lat="45.1551127" lon="8.4549902"><ele>111.0</ele><time>2026-05-03T06:34:29.984Z</time></trkpt><trkpt lat="45.1550259" lon="8.4549294"><ele>111.0</ele><time>2026-05-03T06:34:30.984Z</time></trkpt><trkpt lat="45.15494" lon="8.4548694"><ele>111.0</ele><time>2026-05-03T06:34:31.985Z</time></trkpt><trkpt lat="45.1548516" lon="8.4548129"><ele>111.0</ele><time>2026-05-03T06:34:32.985Z</time></trkpt><trkpt lat="45.1547636" lon="8.4547611"><ele>111.0</ele><time>2026-05-03T06:34:33.984Z</time></trkpt><trkpt lat="45.1546734" lon="8.454707"><ele>111.0</ele><time>2026-05-03T06:34:34.984Z</time></trkpt><trkpt lat="45.1545865" lon="8.4546449"><ele>111.0</ele><time>2026-05-03T06:34:35.984Z</time></trkpt><trkpt lat="45.1545041" lon="8.4545782"><ele>111.0</ele><time>2026-05-03T06:34:36.984Z</time></trkpt><trkpt lat="45.154422" lon="8.4545147"><ele>111.0</ele><time>2026-05-03T06:34:37.985Z</time></trkpt><trkpt lat="45.1543358" lon="8.4544549"><ele>111.0</ele><time>2026-05-03T06:34:38.984Z</time></trkpt><trkpt lat="45.1542472" lon="8.4543972"><ele>111.0</ele><time>2026-05-03T06:34:39.984Z</time></trkpt><trkpt lat="45.1541587" lon="8.4543418"><ele>111.0</ele><time>2026-05-03T06:34:40.984Z</time></trkpt><trkpt lat="45.1540682" lon="8.4542831"><ele>111.0</ele><time>2026-05-03T06:34:41.984Z</time></trkpt><trkpt lat="45.1539772" lon="8.4542238"><ele>111.0</ele><time>2026-05-03T06:34:42.985Z</time></trkpt><trkpt lat="45.153888" lon="8.4541643"><ele>111.0</ele><time>2026-05-03T06:34:43.984Z</time></trkpt><trkpt lat="45.1538009" lon="8.4541055"><ele>111.0</ele><time>2026-05-03T06:34:44.985Z</time></trkpt><trkpt lat="45.1537148" lon="8.4540481"><ele>111.0</ele><time>2026-05-03T06:34:45.984Z</time></trkpt><trkpt lat="45.1536276" lon="8.4539937"><ele>111.0</ele><time>2026-05-03T06:34:46.984Z</time></trkpt><trkpt lat="45.1535401" lon="8.4539413"><ele>111.0</ele><time>2026-05-03T06:34:47.985Z</time></trkpt><trkpt lat="45.1534517" lon="8.4538881"><ele>111.0</ele><time>2026-05-03T06:34:48.984Z</time></trkpt><trkpt lat="45.1533636" lon="8.4538338"><ele>110.8</ele><time>2026-05-03T06:34:49.985Z</time></trkpt><trkpt lat="45.1532739" lon="8.4537759"><ele>110.6</ele><time>2026-05-03T06:34:50.985Z</time></trkpt><trkpt lat="45.1531876" lon="8.4537147"><ele>110.4</ele><time>2026-05-03T06:34:51.984Z</time></trkpt><trkpt lat="45.1531011" lon="8.4536512"><ele>110.2</ele><time>2026-05-03T06:34:52.984Z</time></trkpt><trkpt lat="45.1530164" lon="8.4535915"><ele>110.0</ele><time>2026-05-03T06:34:53.985Z</time></trkpt><trkpt lat="45.1529301" lon="8.4535339"><ele>110.0</ele><time>2026-05-03T06:34:54.985Z</time></trkpt><trkpt lat="45.1528435" lon="8.4534764"><ele>110.0</ele><time>2026-05-03T06:34:55.985Z</time></trkpt><trkpt lat="45.1527558" lon="8.4534183"><ele>110.0</ele><time>2026-05-03T06:34:56.986Z</time></trkpt><trkpt lat="45.1526689" lon="8.4533612"><ele>110.0</ele><time>2026-05-03T06:34:57.986Z</time></trkpt><trkpt lat="45.1525778" lon="8.4533028"><ele>110.0</ele><time>2026-05-03T06:34:58.985Z</time></trkpt><trkpt lat="45.1524878" lon="8.4532469"><ele>110.0</ele><time>2026-05-03T06:34:59.985Z</time></trkpt><trkpt lat="45.1523968" lon="8.4531915"><ele>110.0</ele><time>2026-05-03T06:35:00.985Z</time></trkpt><trkpt lat="45.1523067" lon="8.453136"><ele>110.0</ele><time>2026-05-03T06:35:01.986Z</time></trkpt><trkpt lat="45.1522194" lon="8.4530779"><ele>110.0</ele><time>2026-05-03T06:35:02.986Z</time></trkpt><trkpt lat="45.1521311" lon="8.4530164"><ele>110.0</ele><time>2026-05-03T06:35:03.985Z</time></trkpt><trkpt lat="45.1520418" lon="8.4529545"><ele>109.8</ele><time>2026-05-03T06:35:04.985Z</time></trkpt><trkpt lat="45.1519534" lon="8.4528946"><ele>109.6</ele><time>2026-05-03T06:35:05.986Z</time></trkpt><trkpt lat="45.1518656" lon="8.4528375"><ele>109.4</ele><time>2026-05-03T06:35:06.986Z</time></trkpt><trkpt lat="45.1517779" lon="8.4527828"><ele>109.2</ele><time>2026-05-03T06:35:07.986Z</time></trkpt><trkpt lat="45.15169" lon="8.452725"><ele>109.0</ele><time>2026-05-03T06:35:08.985Z</time></trkpt><trkpt lat="45.1516026" lon="8.4526621"><ele>109.0</ele><time>2026-05-03T06:35:09.985Z</time></trkpt><trkpt lat="45.151514" lon="8.4525998"><ele>109.0</ele><time>2026-05-03T06:35:10.985Z</time></trkpt><trkpt lat="45.1514256" lon="8.4525399"><ele>109.0</ele><time>2026-05-03T06:35:11.985Z</time></trkpt><trkpt lat="45.1513382" lon="8.4524822"><ele>109.0</ele><time>2026-05-03T06:35:12.985Z</time></trkpt><trkpt lat="45.1512524" lon="8.452424"><ele>109.0</ele><time>2026-05-03T06:35:13.986Z</time></trkpt><trkpt lat="45.151168" lon="8.4523683"><ele>109.00000000000001</ele><time>2026-05-03T06:35:14.985Z</time></trkpt><trkpt lat="45.1510897" lon="8.45232"><ele>109.0</ele><time>2026-05-03T06:35:15.985Z</time></trkpt><trkpt lat="45.1510167" lon="8.452277"><ele>109.0</ele><time>2026-05-03T06:35:16.985Z</time></trkpt><trkpt lat="45.1509513" lon="8.4522323"><ele>109.0</ele><time>2026-05-03T06:35:17.985Z</time></trkpt><trkpt lat="45.1508506" lon="8.4521757"><ele>109.00000000000001</ele><time>2026-05-03T06:35:19.985Z</time></trkpt><trkpt lat="45.1507711" lon="8.452157"><ele>109.0</ele><time>2026-05-03T06:35:21.986Z</time></trkpt><trkpt lat="45.1506783" lon="8.4521263"><ele>109.33333333333334</ele><time>2026-05-03T06:35:23.985Z</time></trkpt><trkpt lat="45.1506172" lon="8.4521044"><ele>109.66666666666667</ele><time>2026-05-03T06:35:24.986Z</time></trkpt><trkpt lat="45.1505512" lon="8.4520782"><ele>110.0</ele><time>2026-05-03T06:35:25.985Z</time></trkpt><trkpt lat="45.1504779" lon="8.4520467"><ele>110.33333333333334</ele><time>2026-05-03T06:35:26.986Z</time></trkpt><trkpt lat="45.1503991" lon="8.4520143"><ele>110.66666666666667</ele><time>2026-05-03T06:35:27.986Z</time></trkpt><trkpt lat="45.150321" lon="8.451977"><ele>111.0</ele><time>2026-05-03T06:35:28.986Z</time></trkpt><trkpt lat="45.1502401" lon="8.4519384"><ele>111.0</ele><time>2026-05-03T06:35:29.986Z</time></trkpt><trkpt lat="45.1501534" lon="8.451901"><ele>111.0</ele><time>2026-05-03T06:35:30.985Z</time></trkpt><trkpt lat="45.150063" lon="8.4518675"><ele>111.0</ele><time>2026-05-03T06:35:31.986Z</time></trkpt><trkpt lat="45.14997" lon="8.4518406"><ele>111.0</ele><time>2026-05-03T06:35:32.985Z</time></trkpt><trkpt lat="45.1498771" lon="8.4518152"><ele>111.0</ele><time>2026-05-03T06:35:33.985Z</time></trkpt><trkpt lat="45.1497823" lon="8.4517908"><ele>111.0</ele><time>2026-05-03T06:35:34.987Z</time></trkpt><trkpt lat="45.1496856" lon="8.4517653"><ele>111.0</ele><time>2026-05-03T06:35:35.986Z</time></trkpt><trkpt lat="45.1495867" lon="8.4517382"><ele>111.0</ele><time>2026-05-03T06:35:36.987Z</time></trkpt><trkpt lat="45.1494876" lon="8.4517082"><ele>111.0</ele><time>2026-05-03T06:35:37.986Z</time></trkpt><trkpt lat="45.1493891" lon="8.4516752"><ele>111.0</ele><time>2026-05-03T06:35:38.986Z</time></trkpt><trkpt lat="45.1492907" lon="8.4516378"><ele>111.0</ele><time>2026-05-03T06:35:39.986Z</time></trkpt><trkpt lat="45.1491905" lon="8.4516007"><ele>111.0</ele><time>2026-05-03T06:35:40.986Z</time></trkpt><trkpt lat="45.1490897" lon="8.4515651"><ele>111.0</ele><time>2026-05-03T06:35:41.986Z</time></trkpt><trkpt lat="45.148989" lon="8.4515315"><ele>111.0</ele><time>2026-05-03T06:35:42.986Z</time></trkpt><trkpt lat="45.1488897" lon="8.4514982"><ele>111.0</ele><time>2026-05-03T06:35:43.986Z</time></trkpt><trkpt lat="45.1487923" lon="8.451464"><ele>111.0</ele><time>2026-05-03T06:35:44.987Z</time></trkpt><trkpt lat="45.1486963" lon="8.4514328"><ele>111.0</ele><time>2026-05-03T06:35:45.987Z</time></trkpt><trkpt lat="45.1485996" lon="8.451404"><ele>111.0</ele><time>2026-05-03T06:35:46.986Z</time></trkpt><trkpt lat="45.1485018" lon="8.451375"><ele>111.0</ele><time>2026-05-03T06:35:47.987Z</time></trkpt><trkpt lat="45.1484034" lon="8.4513435"><ele>111.0</ele><time>2026-05-03T06:35:48.986Z</time></trkpt><trkpt lat="45.1483063" lon="8.4513087"><ele>111.0</ele><time>2026-05-03T06:35:49.986Z</time></trkpt><trkpt lat="45.148211" lon="8.4512732"><ele>111.0</ele><time>2026-05-03T06:35:50.987Z</time></trkpt><trkpt lat="45.1481151" lon="8.4512401"><ele>111.0</ele><time>2026-05-03T06:35:51.987Z</time></trkpt><trkpt lat="45.1480191" lon="8.4512102"><ele>111.0</ele><time>2026-05-03T06:35:52.987Z</time></trkpt><trkpt lat="45.1479242" lon="8.4511854"><ele>111.0</ele><time>2026-05-03T06:35:53.986Z</time></trkpt><trkpt lat="45.1478392" lon="8.4511598"><ele>111.0</ele><time>2026-05-03T06:35:54.986Z</time></trkpt><trkpt lat="45.147757" lon="8.4511308"><ele>111.0</ele><time>2026-05-03T06:35:55.986Z</time></trkpt><trkpt lat="45.1476747" lon="8.451101"><ele>111.0</ele><time>2026-05-03T06:35:56.986Z</time></trkpt><trkpt lat="45.1475989" lon="8.4510756"><ele>111.0</ele><time>2026-05-03T06:35:57.987Z</time></trkpt><trkpt lat="45.1474897" lon="8.4510316"><ele>111.0</ele><time>2026-05-03T06:35:59.986Z</time></trkpt><trkpt lat="45.1473626" lon="8.4509756"><ele>111.16666666666667</ele><time>2026-05-03T06:36:01.986Z</time></trkpt><trkpt lat="45.1472877" lon="8.4509456"><ele>111.33333333333334</ele><time>2026-05-03T06:36:02.986Z</time></trkpt><trkpt lat="45.1472092" lon="8.4509181"><ele>111.5</ele><time>2026-05-03T06:36:03.986Z</time></trkpt><trkpt lat="45.1471265" lon="8.4509066"><ele>111.66666666666667</ele><time>2026-05-03T06:36:04.986Z</time></trkpt><trkpt lat="45.1470503" lon="8.4508809"><ele>111.83333333333334</ele><time>2026-05-03T06:36:05.986Z</time></trkpt><trkpt lat="45.1469685" lon="8.4508473"><ele>112.0</ele><time>2026-05-03T06:36:06.986Z</time></trkpt><trkpt lat="45.1468861" lon="8.4508097"><ele>112.00000000000001</ele><time>2026-05-03T06:36:07.986Z</time></trkpt><trkpt lat="45.1467944" lon="8.4507826"><ele>112.0</ele><time>2026-05-03T06:36:08.987Z</time></trkpt><trkpt lat="45.1467048" lon="8.4507604"><ele>112.0</ele><time>2026-05-03T06:36:09.987Z</time></trkpt><trkpt lat="45.1466163" lon="8.4507352"><ele>112.0</ele><time>2026-05-03T06:36:10.987Z</time></trkpt><trkpt lat="45.1465339" lon="8.4507048"><ele>112.00000000000001</ele><time>2026-05-03T06:36:11.986Z</time></trkpt><trkpt lat="45.1464489" lon="8.4506808"><ele>112.0</ele><time>2026-05-03T06:36:12.986Z</time></trkpt><trkpt lat="45.1463633" lon="8.4506529"><ele>112.00000000000001</ele><time>2026-05-03T06:36:13.987Z</time></trkpt><trkpt lat="45.1462773" lon="8.4506231"><ele>112.0</ele><time>2026-05-03T06:36:14.986Z</time></trkpt><trkpt lat="45.1461913" lon="8.4505935"><ele>112.0</ele><time>2026-05-03T06:36:15.986Z</time></trkpt><trkpt lat="45.1461057" lon="8.4505629"><ele>112.0</ele><time>2026-05-03T06:36:16.988Z</time></trkpt><trkpt lat="45.1460195" lon="8.4505329"><ele>112.00000000000001</ele><time>2026-05-03T06:36:17.988Z</time></trkpt><trkpt lat="45.1459346" lon="8.4505027"><ele>112.0</ele><time>2026-05-03T06:36:18.987Z</time></trkpt><trkpt lat="45.1458481" lon="8.4504704"><ele>112.0</ele><time>2026-05-03T06:36:19.988Z</time></trkpt><trkpt lat="45.1457617" lon="8.4504383"><ele>111.99999999999999</ele><time>2026-05-03T06:36:20.987Z</time></trkpt><trkpt lat="45.1456742" lon="8.4504093"><ele>111.99999999999999</ele><time>2026-05-03T06:36:21.988Z</time></trkpt><trkpt lat="45.1455856" lon="8.4503784"><ele>112.0</ele><time>2026-05-03T06:36:22.987Z</time></trkpt><trkpt lat="45.1454977" lon="8.4503487"><ele>112.0</ele><time>2026-05-03T06:36:23.988Z</time></trkpt><trkpt lat="45.1454099" lon="8.4503164"><ele>112.0</ele><time>2026-05-03T06:36:24.987Z</time></trkpt><trkpt lat="45.14532" lon="8.4502853"><ele>111.99999999999999</ele><time>2026-05-03T06:36:25.988Z</time></trkpt><trkpt lat="45.1452296" lon="8.450254"><ele>111.99999999999999</ele><time>2026-05-03T06:36:26.987Z</time></trkpt><trkpt lat="45.1451407" lon="8.4502162"><ele>112.0</ele><time>2026-05-03T06:36:27.987Z</time></trkpt><trkpt lat="45.1450554" lon="8.4501775"><ele>112.0</ele><time>2026-05-03T06:36:28.987Z</time></trkpt><trkpt lat="45.1449797" lon="8.4501294"><ele>112.00000000000001</ele><time>2026-05-03T06:36:29.987Z</time></trkpt><trkpt lat="45.1449099" lon="8.4500781"><ele>112.0</ele><time>2026-05-03T06:36:30.988Z</time></trkpt><trkpt lat="45.144855" lon="8.4500252"><ele>112.0</ele><time>2026-05-03T06:36:31.987Z</time></trkpt><trkpt lat="45.1447927" lon="8.4499571"><ele>112.0</ele><time>2026-05-03T06:36:33.987Z</time></trkpt><trkpt lat="45.1447335" lon="8.4498762"><ele>112.00000000000001</ele><time>2026-05-03T06:36:36.987Z</time></trkpt><trkpt lat="45.1446645" lon="8.4497736"><ele>112.0</ele><time>2026-05-03T06:36:38.987Z</time></trkpt><trkpt lat="45.1446226" lon="8.4497002"><ele>112.16666666666667</ele><time>2026-05-03T06:36:39.987Z</time></trkpt><trkpt lat="45.144574" lon="8.4496131"><ele>112.33333333333334</ele><time>2026-05-03T06:36:40.988Z</time></trkpt><trkpt lat="45.1445301" lon="8.4495253"><ele>112.5</ele><time>2026-05-03T06:36:41.988Z</time></trkpt><trkpt lat="45.1444892" lon="8.4494295"><ele>112.66666666666666</ele><time>2026-05-03T06:36:42.987Z</time></trkpt><trkpt lat="45.1444507" lon="8.4493336"><ele>112.83333333333333</ele><time>2026-05-03T06:36:43.987Z</time></trkpt><trkpt lat="45.1444129" lon="8.4492332"><ele>113.0</ele><time>2026-05-03T06:36:44.987Z</time></trkpt><trkpt lat="45.1443704" lon="8.4491286"><ele>112.99999999999999</ele><time>2026-05-03T06:36:45.987Z</time></trkpt><trkpt lat="45.1443259" lon="8.4490232"><ele>113.0</ele><time>2026-05-03T06:36:46.988Z</time></trkpt><trkpt lat="45.1442769" lon="8.4489256"><ele>113.0</ele><time>2026-05-03T06:36:47.988Z</time></trkpt><trkpt lat="45.1442292" lon="8.4488253"><ele>113.0</ele><time>2026-05-03T06:36:48.988Z</time></trkpt><trkpt lat="45.1441828" lon="8.4487217"><ele>112.99999999999999</ele><time>2026-05-03T06:36:49.988Z</time></trkpt><trkpt lat="45.1441366" lon="8.4486172"><ele>113.0</ele><time>2026-05-03T06:36:50.987Z</time></trkpt><trkpt lat="45.1440867" lon="8.4485099"><ele>112.83333333333333</ele><time>2026-05-03T06:36:51.988Z</time></trkpt><trkpt lat="45.1440418" lon="8.4484028"><ele>112.66666666666666</ele><time>2026-05-03T06:36:52.987Z</time></trkpt><trkpt lat="45.1440003" lon="8.4482952"><ele>112.5</ele><time>2026-05-03T06:36:53.987Z</time></trkpt><trkpt lat="45.1439597" lon="8.4481957"><ele>112.33333333333334</ele><time>2026-05-03T06:36:54.988Z</time></trkpt><trkpt lat="45.1439176" lon="8.4480986"><ele>112.16666666666667</ele><time>2026-05-03T06:36:55.987Z</time></trkpt><trkpt lat="45.1438737" lon="8.448004"><ele>112.0</ele><time>2026-05-03T06:36:56.987Z</time></trkpt><trkpt lat="45.1438281" lon="8.4479041"><ele>112.33333333333334</ele><time>2026-05-03T06:36:57.988Z</time></trkpt><trkpt lat="45.14377" lon="8.4478204"><ele>112.66666666666667</ele><time>2026-05-03T06:36:58.988Z</time></trkpt><trkpt lat="45.1437051" lon="8.4477446"><ele>113.0</ele><time>2026-05-03T06:36:59.988Z</time></trkpt><trkpt lat="45.1436353" lon="8.4476733"><ele>113.33333333333334</ele><time>2026-05-03T06:37:00.989Z</time></trkpt><trkpt lat="45.1435599" lon="8.4476012"><ele>113.66666666666667</ele><time>2026-05-03T06:37:01.989Z</time></trkpt><trkpt lat="45.1434847" lon="8.4475267"><ele>114.0</ele><time>2026-05-03T06:37:02.989Z</time></trkpt><trkpt lat="45.1434254" lon="8.4474612"><ele>114.0</ele><time>2026-05-03T06:37:03.988Z</time></trkpt><trkpt lat="45.143368" lon="8.4473828"><ele>114.0</ele><time>2026-05-03T06:37:04.988Z</time></trkpt><trkpt lat="45.1433161" lon="8.4473178"><ele>114.0</ele><time>2026-05-03T06:37:05.988Z</time></trkpt><trkpt lat="45.1432733" lon="8.4472479"><ele>114.0</ele><time>2026-05-03T06:37:06.988Z</time></trkpt><trkpt lat="45.1432145" lon="8.4471286"><ele>114.0</ele><time>2026-05-03T06:37:08.988Z</time></trkpt><trkpt lat="45.1432249" lon="8.4469916"><ele>114.0</ele><time>2026-05-03T06:37:11.989Z</time></trkpt><trkpt lat="45.1432431" lon="8.4468424"><ele>114.0</ele><time>2026-05-03T06:37:13.989Z</time></trkpt><trkpt lat="45.1431903" lon="8.4467019"><ele>114.0</ele><time>2026-05-03T06:37:15.988Z</time></trkpt><trkpt lat="45.1430586" lon="8.4466993"><ele>114.0</ele><time>2026-05-03T06:37:17.988Z</time></trkpt><trkpt lat="45.1429859" lon="8.4467413"><ele>114.0</ele><time>2026-05-03T06:37:18.988Z</time></trkpt><trkpt lat="45.142931" lon="8.4468076"><ele>114.0</ele><time>2026-05-03T06:37:19.988Z</time></trkpt><trkpt lat="45.1428755" lon="8.4468893"><ele>114.0</ele><time>2026-05-03T06:37:20.988Z</time></trkpt><trkpt lat="45.1428165" lon="8.4469636"><ele>114.0</ele><time>2026-05-03T06:37:21.988Z</time></trkpt><trkpt lat="45.1427527" lon="8.4470248"><ele>114.0</ele><time>2026-05-03T06:37:22.988Z</time></trkpt><trkpt lat="45.1426846" lon="8.4470705"><ele>114.0</ele><time>2026-05-03T06:37:23.988Z</time></trkpt><trkpt lat="45.1426088" lon="8.4471093"><ele>114.0</ele><time>2026-05-03T06:37:24.988Z</time></trkpt><trkpt lat="45.1425331" lon="8.4471477"><ele>114.0</ele><time>2026-05-03T06:37:25.989Z</time></trkpt><trkpt lat="45.1424537" lon="8.4471875"><ele>112.6</ele><time>2026-05-03T06:37:26.989Z</time></trkpt><trkpt lat="45.1423738" lon="8.4472312"><ele>111.2</ele><time>2026-05-03T06:37:27.988Z</time></trkpt><trkpt lat="45.142291" lon="8.4472764"><ele>109.79999999999998</ele><time>2026-05-03T06:37:28.989Z</time></trkpt><trkpt lat="45.1422069" lon="8.4473232"><ele>108.39999999999999</ele><time>2026-05-03T06:37:29.988Z</time></trkpt><trkpt lat="45.1421208" lon="8.4473716"><ele>107.0</ele><time>2026-05-03T06:37:30.988Z</time></trkpt><trkpt lat="45.1420335" lon="8.4474205"><ele>107.0</ele><time>2026-05-03T06:37:31.988Z</time></trkpt><trkpt lat="45.1419456" lon="8.4474681"><ele>106.99999999999999</ele><time>2026-05-03T06:37:32.988Z</time></trkpt><trkpt lat="45.1418592" lon="8.4475147"><ele>106.99999999999999</ele><time>2026-05-03T06:37:33.988Z</time></trkpt><trkpt lat="45.141774" lon="8.4475614"><ele>107.0</ele><time>2026-05-03T06:37:34.988Z</time></trkpt><trkpt lat="45.1416892" lon="8.4476087"><ele>107.0</ele><time>2026-05-03T06:37:35.988Z</time></trkpt><trkpt lat="45.1416055" lon="8.4476566"><ele>108.19999999999999</ele><time>2026-05-03T06:37:36.988Z</time></trkpt><trkpt lat="45.1415199" lon="8.4477054"><ele>109.39999999999999</ele><time>2026-05-03T06:37:37.99Z</time></trkpt><trkpt lat="45.1414332" lon="8.447754"><ele>110.60000000000001</ele><time>2026-05-03T06:37:38.99Z</time></trkpt><trkpt lat="45.1413466" lon="8.4477996"><ele>111.80000000000001</ele><time>2026-05-03T06:37:39.99Z</time></trkpt><trkpt lat="45.1412617" lon="8.4478438"><ele>113.0</ele><time>2026-05-03T06:37:40.99Z</time></trkpt><trkpt lat="45.1411821" lon="8.4478878"><ele>112.99999999999999</ele><time>2026-05-03T06:37:41.99Z</time></trkpt><trkpt lat="45.1411058" lon="8.4479317"><ele>113.0</ele><time>2026-05-03T06:37:42.99Z</time></trkpt><trkpt lat="45.1410337" lon="8.4479736"><ele>113.0</ele><time>2026-05-03T06:37:43.99Z</time></trkpt><trkpt lat="45.1409732" lon="8.4480105"><ele>113.0</ele><time>2026-05-03T06:37:44.989Z</time></trkpt><trkpt lat="45.1408659" lon="8.4480641"><ele>112.99999999999999</ele><time>2026-05-03T06:37:46.989Z</time></trkpt><trkpt lat="45.1407873" lon="8.4480736"><ele>113.0</ele><time>2026-05-03T06:37:48.99Z</time></trkpt><trkpt lat="45.1406933" lon="8.4479919"><ele>114.33333333333333</ele><time>2026-05-03T06:37:50.989Z</time></trkpt><trkpt lat="45.1406417" lon="8.4479202"><ele>115.66666666666666</ele><time>2026-05-03T06:37:51.989Z</time></trkpt><trkpt lat="45.1405858" lon="8.4478486"><ele>117.0</ele><time>2026-05-03T06:37:52.989Z</time></trkpt><trkpt lat="45.1405256" lon="8.4477714"><ele>118.33333333333334</ele><time>2026-05-03T06:37:53.99Z</time></trkpt><trkpt lat="45.1404588" lon="8.4476851"><ele>119.66666666666667</ele><time>2026-05-03T06:37:54.989Z</time></trkpt><trkpt lat="45.1404034" lon="8.4476051"><ele>121.0</ele><time>2026-05-03T06:37:55.989Z</time></trkpt><trkpt lat="45.1403558" lon="8.4475177"><ele>121.00000000000001</ele><time>2026-05-03T06:37:56.989Z</time></trkpt><trkpt lat="45.1403147" lon="8.4474232"><ele>121.0</ele><time>2026-05-03T06:37:57.99Z</time></trkpt><trkpt lat="45.1402734" lon="8.4473246"><ele>121.0</ele><time>2026-05-03T06:37:58.989Z</time></trkpt><trkpt lat="45.1402319" lon="8.4472282"><ele>121.0</ele><time>2026-05-03T06:37:59.99Z</time></trkpt><trkpt lat="45.1401899" lon="8.4471321"><ele>121.00000000000001</ele><time>2026-05-03T06:38:00.99Z</time></trkpt><trkpt lat="45.1401448" lon="8.447036"><ele>121.0</ele><time>2026-05-03T06:38:01.989Z</time></trkpt><trkpt lat="45.1400937" lon="8.4469423"><ele>120.50000000000001</ele><time>2026-05-03T06:38:02.989Z</time></trkpt><trkpt lat="45.1400382" lon="8.4468615"><ele>120.0</ele><time>2026-05-03T06:38:03.99Z</time></trkpt><trkpt lat="45.1399677" lon="8.4467927"><ele>119.5</ele><time>2026-05-03T06:38:04.989Z</time></trkpt><trkpt lat="45.1398887" lon="8.4467358"><ele>119.0</ele><time>2026-05-03T06:38:05.989Z</time></trkpt><trkpt lat="45.1398033" lon="8.4466921"><ele>118.50000000000001</ele><time>2026-05-03T06:38:06.989Z</time></trkpt><trkpt lat="45.1397189" lon="8.4466519"><ele>118.0</ele><time>2026-05-03T06:38:07.989Z</time></trkpt><trkpt lat="45.1396327" lon="8.4466119"><ele>118.00000000000001</ele><time>2026-05-03T06:38:08.989Z</time></trkpt><trkpt lat="45.1395496" lon="8.4465741"><ele>118.0</ele><time>2026-05-03T06:38:09.989Z</time></trkpt><trkpt lat="45.1394674" lon="8.4465355"><ele>118.0</ele><time>2026-05-03T06:38:10.99Z</time></trkpt><trkpt lat="45.1393877" lon="8.4465031"><ele>118.0</ele><time>2026-05-03T06:38:11.989Z</time></trkpt><trkpt lat="45.139312" lon="8.4464716"><ele>118.00000000000001</ele><time>2026-05-03T06:38:12.99Z</time></trkpt><trkpt lat="45.1392393" lon="8.4464419"><ele>118.0</ele><time>2026-05-03T06:38:13.99Z</time></trkpt><trkpt lat="45.139169" lon="8.4464177"><ele>118.0</ele><time>2026-05-03T06:38:14.989Z</time></trkpt><trkpt lat="45.1391021" lon="8.4464002"><ele>118.00000000000001</ele><time>2026-05-03T06:38:15.989Z</time></trkpt><trkpt lat="45.1389849" lon="8.4463638"><ele>118.00000000000001</ele><time>2026-05-03T06:38:17.99Z</time></trkpt><trkpt lat="45.1388771" lon="8.4462803"><ele>118.0</ele><time>2026-05-03T06:38:19.99Z</time></trkpt><trkpt lat="45.1388224" lon="8.4462216"><ele>118.0</ele><time>2026-05-03T06:38:20.991Z</time></trkpt><trkpt lat="45.1387631" lon="8.4461623"><ele>117.66666666666667</ele><time>2026-05-03T06:38:21.99Z</time></trkpt><trkpt lat="45.1387022" lon="8.446092"><ele>117.33333333333334</ele><time>2026-05-03T06:38:22.99Z</time></trkpt><trkpt lat="45.1386472" lon="8.4460065"><ele>117.0</ele><time>2026-05-03T06:38:23.99Z</time></trkpt><trkpt lat="45.1385919" lon="8.4459142"><ele>116.66666666666666</ele><time>2026-05-03T06:38:24.991Z</time></trkpt><trkpt lat="45.1385358" lon="8.4458295"><ele>116.33333333333333</ele><time>2026-05-03T06:38:25.99Z</time></trkpt><trkpt lat="45.1384758" lon="8.4457505"><ele>116.0</ele><time>2026-05-03T06:38:26.991Z</time></trkpt><trkpt lat="45.1384123" lon="8.445671"><ele>115.99999999999999</ele><time>2026-05-03T06:38:27.99Z</time></trkpt><trkpt lat="45.1383489" lon="8.4455915"><ele>116.0</ele><time>2026-05-03T06:38:28.991Z</time></trkpt><trkpt lat="45.1382826" lon="8.4455075"><ele>116.0</ele><time>2026-05-03T06:38:29.991Z</time></trkpt><trkpt lat="45.1382181" lon="8.4454214"><ele>116.0</ele><time>2026-05-03T06:38:30.99Z</time></trkpt><trkpt lat="45.1381554" lon="8.445333"><ele>115.99999999999999</ele><time>2026-05-03T06:38:31.991Z</time></trkpt><trkpt lat="45.1380941" lon="8.4452455"><ele>116.0</ele><time>2026-05-03T06:38:32.991Z</time></trkpt><trkpt lat="45.1380344" lon="8.4451571"><ele>116.33333333333333</ele><time>2026-05-03T06:38:33.99Z</time></trkpt><trkpt lat="45.1379778" lon="8.445082"><ele>116.66666666666666</ele><time>2026-05-03T06:38:34.99Z</time></trkpt><trkpt lat="45.1379218" lon="8.4450049"><ele>117.0</ele><time>2026-05-03T06:38:35.99Z</time></trkpt><trkpt lat="45.1378701" lon="8.4449277"><ele>117.33333333333334</ele><time>2026-05-03T06:38:36.991Z</time></trkpt><trkpt lat="45.1378194" lon="8.4448405"><ele>117.66666666666667</ele><time>2026-05-03T06:38:37.991Z</time></trkpt><trkpt lat="45.1377591" lon="8.4447633"><ele>118.0</ele><time>2026-05-03T06:38:38.99Z</time></trkpt><trkpt lat="45.1376906" lon="8.4446946"><ele>118.00000000000001</ele><time>2026-05-03T06:38:39.991Z</time></trkpt><trkpt lat="45.1376208" lon="8.4446358"><ele>118.0</ele><time>2026-05-03T06:38:40.991Z</time></trkpt><trkpt lat="45.1375483" lon="8.4445915"><ele>118.0</ele><time>2026-05-03T06:38:41.99Z</time></trkpt><trkpt lat="45.1374738" lon="8.444559"><ele>118.0</ele><time>2026-05-03T06:38:42.99Z</time></trkpt><trkpt lat="45.1373961" lon="8.4445371"><ele>118.00000000000001</ele><time>2026-05-03T06:38:43.991Z</time></trkpt><trkpt lat="45.1373168" lon="8.4445191"><ele>118.0</ele><time>2026-05-03T06:38:44.99Z</time></trkpt><trkpt lat="45.1372382" lon="8.4445026"><ele>118.0</ele><time>2026-05-03T06:38:45.991Z</time></trkpt><trkpt lat="45.1371647" lon="8.4444932"><ele>118.00000000000001</ele><time>2026-05-03T06:38:46.991Z</time></trkpt><trkpt lat="45.1370713" lon="8.4444868"><ele>118.00000000000001</ele><time>2026-05-03T06:38:48.99Z</time></trkpt><trkpt lat="45.1369924" lon="8.4444844"><ele>118.0</ele><time>2026-05-03T06:38:52.991Z</time></trkpt><trkpt lat="45.1369031" lon="8.4444564"><ele>118.0</ele><time>2026-05-03T06:38:54.99Z</time></trkpt><trkpt lat="45.1367919" lon="8.4444172"><ele>118.00000000000001</ele><time>2026-05-03T06:38:56.99Z</time></trkpt><trkpt lat="45.1367271" lon="8.4444037"><ele>118.0</ele><time>2026-05-03T06:38:57.99Z</time></trkpt><trkpt lat="45.1366574" lon="8.4443917"><ele>118.0</ele><time>2026-05-03T06:38:58.991Z</time></trkpt><trkpt lat="45.1365828" lon="8.4443784"><ele>118.0</ele><time>2026-05-03T06:38:59.99Z</time></trkpt><trkpt lat="45.1364971" lon="8.4443543"><ele>118.00000000000001</ele><time>2026-05-03T06:39:00.991Z</time></trkpt><trkpt lat="45.1364139" lon="8.4443323"><ele>118.0</ele><time>2026-05-03T06:39:01.991Z</time></trkpt><trkpt lat="45.1363306" lon="8.4443176"><ele>118.0</ele><time>2026-05-03T06:39:02.992Z</time></trkpt><trkpt lat="45.1362522" lon="8.4443023"><ele>118.00000000000001</ele><time>2026-05-03T06:39:03.991Z</time></trkpt><trkpt lat="45.1361825" lon="8.4442889"><ele>118.00000000000001</ele><time>2026-05-03T06:39:04.992Z</time></trkpt><trkpt lat="45.1360581" lon="8.4442649"><ele>118.0</ele><time>2026-05-03T06:39:06.992Z</time></trkpt><trkpt lat="45.1359276" lon="8.4442536"><ele>118.0</ele><time>2026-05-03T06:39:08.991Z</time></trkpt><trkpt lat="45.1358476" lon="8.4442616"><ele>118.0</ele><time>2026-05-03T06:39:09.991Z</time></trkpt><trkpt lat="45.1357666" lon="8.4442708"><ele>118.00000000000001</ele><time>2026-05-03T06:39:10.992Z</time></trkpt><trkpt lat="45.1356834" lon="8.4442749"><ele>118.00000000000001</ele><time>2026-05-03T06:39:11.992Z</time></trkpt><trkpt lat="45.1355878" lon="8.4442741"><ele>118.0</ele><time>2026-05-03T06:39:12.992Z</time></trkpt><trkpt lat="45.1354928" lon="8.4442747"><ele>118.0</ele><time>2026-05-03T06:39:13.991Z</time></trkpt><trkpt lat="45.1353916" lon="8.4442814"><ele>117.60000000000001</ele><time>2026-05-03T06:39:14.991Z</time></trkpt><trkpt lat="45.1352967" lon="8.4442825"><ele>117.20000000000002</ele><time>2026-05-03T06:39:15.991Z</time></trkpt><trkpt lat="45.1351967" lon="8.4442768"><ele>116.8</ele><time>2026-05-03T06:39:16.991Z</time></trkpt><trkpt lat="45.1350999" lon="8.4442911"><ele>116.4</ele><time>2026-05-03T06:39:17.991Z</time></trkpt><trkpt lat="45.1350133" lon="8.444299"><ele>116.0</ele><time>2026-05-03T06:39:18.991Z</time></trkpt><trkpt lat="45.1349397" lon="8.4443012"><ele>116.0</ele><time>2026-05-03T06:39:19.992Z</time></trkpt><trkpt lat="45.1348258" lon="8.4443014"><ele>116.0</ele><time>2026-05-03T06:39:21.991Z</time></trkpt><trkpt lat="45.134733" lon="8.4442808"><ele>116.0</ele><time>2026-05-03T06:39:23.991Z</time></trkpt><trkpt lat="45.1346201" lon="8.4442578"><ele>116.0</ele><time>2026-05-03T06:39:25.991Z</time></trkpt><trkpt lat="45.1345501" lon="8.4442714"><ele>116.0</ele><time>2026-05-03T06:39:26.991Z</time></trkpt><trkpt lat="45.1344864" lon="8.4442884"><ele>116.00000000000001</ele><time>2026-05-03T06:39:27.991Z</time></trkpt><trkpt lat="45.134423" lon="8.4443008"><ele>116.0</ele><time>2026-05-03T06:39:28.992Z</time></trkpt><trkpt lat="45.134359" lon="8.4443092"><ele>116.00000000000001</ele><time>2026-05-03T06:39:29.991Z</time></trkpt><trkpt lat="45.1342911" lon="8.4443115"><ele>116.00000000000001</ele><time>2026-05-03T06:39:30.992Z</time></trkpt><trkpt lat="45.1342199" lon="8.4443156"><ele>116.0</ele><time>2026-05-03T06:39:31.991Z</time></trkpt><trkpt lat="45.1341488" lon="8.4443215"><ele>116.00000000000001</ele><time>2026-05-03T06:39:32.992Z</time></trkpt><trkpt lat="45.1340723" lon="8.4443311"><ele>116.00000000000001</ele><time>2026-05-03T06:39:33.991Z</time></trkpt><trkpt lat="45.1339917" lon="8.4443429"><ele>115.99999999999999</ele><time>2026-05-03T06:39:34.991Z</time></trkpt><trkpt lat="45.1339045" lon="8.44436"><ele>116.0</ele><time>2026-05-03T06:39:35.991Z</time></trkpt><trkpt lat="45.1338232" lon="8.4443866"><ele>116.0</ele><time>2026-05-03T06:39:36.991Z</time></trkpt><trkpt lat="45.1337518" lon="8.4444248"><ele>116.0</ele><time>2026-05-03T06:39:37.992Z</time></trkpt><trkpt lat="45.1336769" lon="8.4444653"><ele>115.99999999999999</ele><time>2026-05-03T06:39:38.991Z</time></trkpt><trkpt lat="45.1336105" lon="8.4445111"><ele>116.0</ele><time>2026-05-03T06:39:39.991Z</time></trkpt><trkpt lat="45.1335257" lon="8.4446038"><ele>116.16666666666666</ele><time>2026-05-03T06:39:41.991Z</time></trkpt><trkpt lat="45.1334357" lon="8.4446869"><ele>116.33333333333333</ele><time>2026-05-03T06:39:43.992Z</time></trkpt><trkpt lat="45.1333382" lon="8.4446909"><ele>116.5</ele><time>2026-05-03T06:39:45.992Z</time></trkpt><trkpt lat="45.133278" lon="8.4446442"><ele>116.66666666666666</ele><time>2026-05-03T06:39:46.992Z</time></trkpt><trkpt lat="45.1332137" lon="8.4445729"><ele>116.83333333333333</ele><time>2026-05-03T06:39:47.992Z</time></trkpt><trkpt lat="45.1331569" lon="8.4445201"><ele>117.0</ele><time>2026-05-03T06:39:48.992Z</time></trkpt><trkpt lat="45.1330696" lon="8.444484"><ele>117.5</ele><time>2026-05-03T06:39:50.992Z</time></trkpt><trkpt lat="45.132991" lon="8.4445381"><ele>118.0</ele><time>2026-05-03T06:39:52.992Z</time></trkpt><trkpt lat="45.1329201" lon="8.4446255"><ele>118.5</ele><time>2026-05-03T06:39:53.993Z</time></trkpt><trkpt lat="45.1328769" lon="8.4447257"><ele>119.0</ele><time>2026-05-03T06:39:54.993Z</time></trkpt><trkpt lat="45.1328372" lon="8.4448264"><ele>119.5</ele><time>2026-05-03T06:39:55.992Z</time></trkpt><trkpt lat="45.1327944" lon="8.4449176"><ele>120.0</ele><time>2026-05-03T06:39:56.993Z</time></trkpt><trkpt lat="45.1327507" lon="8.4449986"><ele>120.0</ele><time>2026-05-03T06:39:57.992Z</time></trkpt><trkpt lat="45.1327036" lon="8.4450828"><ele>120.0</ele><time>2026-05-03T06:39:58.993Z</time></trkpt><trkpt lat="45.1326517" lon="8.4451742"><ele>120.0</ele><time>2026-05-03T06:39:59.992Z</time></trkpt><trkpt lat="45.1325891" lon="8.4452641"><ele>120.0</ele><time>2026-05-03T06:40:00.992Z</time></trkpt><trkpt lat="45.1325295" lon="8.4453608"><ele>120.0</ele><time>2026-05-03T06:40:01.992Z</time></trkpt><trkpt lat="45.1324619" lon="8.4454572"><ele>120.0</ele><time>2026-05-03T06:40:02.992Z</time></trkpt><trkpt lat="45.1323935" lon="8.4455502"><ele>119.33333333333333</ele><time>2026-05-03T06:40:03.992Z</time></trkpt><trkpt lat="45.1323295" lon="8.4456429"><ele>118.66666666666666</ele><time>2026-05-03T06:40:04.992Z</time></trkpt><trkpt lat="45.1322689" lon="8.4457347"><ele>118.0</ele><time>2026-05-03T06:40:05.992Z</time></trkpt><trkpt lat="45.1322079" lon="8.445831"><ele>117.33333333333333</ele><time>2026-05-03T06:40:06.992Z</time></trkpt><trkpt lat="45.1321496" lon="8.4459198"><ele>116.66666666666666</ele><time>2026-05-03T06:40:07.993Z</time></trkpt><trkpt lat="45.1320858" lon="8.4460102"><ele>116.0</ele><time>2026-05-03T06:40:08.992Z</time></trkpt><trkpt lat="45.1320234" lon="8.4461002"><ele>115.99999999999999</ele><time>2026-05-03T06:40:09.992Z</time></trkpt><trkpt lat="45.1319606" lon="8.4461876"><ele>116.0</ele><time>2026-05-03T06:40:10.993Z</time></trkpt><trkpt lat="45.1319008" lon="8.4462769"><ele>116.0</ele><time>2026-05-03T06:40:11.992Z</time></trkpt><trkpt lat="45.1318421" lon="8.4463644"><ele>116.0</ele><time>2026-05-03T06:40:12.992Z</time></trkpt><trkpt lat="45.1317863" lon="8.4464551"><ele>115.99999999999999</ele><time>2026-05-03T06:40:13.992Z</time></trkpt><trkpt lat="45.1317267" lon="8.4465371"><ele>116.0</ele><time>2026-05-03T06:40:14.993Z</time></trkpt><trkpt lat="45.131668" lon="8.4466214"><ele>115.99999999999999</ele><time>2026-05-03T06:40:15.992Z</time></trkpt><trkpt lat="45.131612" lon="8.4467058"><ele>116.0</ele><time>2026-05-03T06:40:16.993Z</time></trkpt><trkpt lat="45.1315502" lon="8.4467899"><ele>116.0</ele><time>2026-05-03T06:40:17.992Z</time></trkpt><trkpt lat="45.1314904" lon="8.4468773"><ele>116.0</ele><time>2026-05-03T06:40:18.992Z</time></trkpt><trkpt lat="45.1314307" lon="8.4469616"><ele>115.99999999999999</ele><time>2026-05-03T06:40:19.992Z</time></trkpt><trkpt lat="45.1313707" lon="8.447043"><ele>116.0</ele><time>2026-05-03T06:40:20.993Z</time></trkpt><trkpt lat="45.1313095" lon="8.4471231"><ele>116.16666666666666</ele><time>2026-05-03T06:40:21.992Z</time></trkpt><trkpt lat="45.131254" lon="8.4472091"><ele>116.33333333333333</ele><time>2026-05-03T06:40:22.992Z</time></trkpt><trkpt lat="45.1311965" lon="8.4472948"><ele>116.5</ele><time>2026-05-03T06:40:23.992Z</time></trkpt><trkpt lat="45.1311409" lon="8.4473805"><ele>116.66666666666666</ele><time>2026-05-03T06:40:24.993Z</time></trkpt><trkpt lat="45.1310829" lon="8.4474735"><ele>116.83333333333333</ele><time>2026-05-03T06:40:25.994Z</time></trkpt><trkpt lat="45.1310214" lon="8.4475637"><ele>117.0</ele><time>2026-05-03T06:40:26.993Z</time></trkpt><trkpt lat="45.1309543" lon="8.4476372"><ele>117.0</ele><time>2026-05-03T06:40:27.993Z</time></trkpt><trkpt lat="45.1308921" lon="8.4477209"><ele>117.0</ele><time>2026-05-03T06:40:28.993Z</time></trkpt><trkpt lat="45.1308264" lon="8.4477963"><ele>117.0</ele><time>2026-05-03T06:40:29.993Z</time></trkpt><trkpt lat="45.1307715" lon="8.4478794"><ele>117.0</ele><time>2026-05-03T06:40:30.993Z</time></trkpt><trkpt lat="45.1307156" lon="8.4479632"><ele>117.0</ele><time>2026-05-03T06:40:31.993Z</time></trkpt><trkpt lat="45.130654" lon="8.4480501"><ele>117.0</ele><time>2026-05-03T06:40:32.994Z</time></trkpt><trkpt lat="45.1305956" lon="8.448132"><ele>117.33333333333333</ele><time>2026-05-03T06:40:33.993Z</time></trkpt><trkpt lat="45.1305468" lon="8.4482156"><ele>117.66666666666666</ele><time>2026-05-03T06:40:34.993Z</time></trkpt><trkpt lat="45.1305006" lon="8.4482973"><ele>118.0</ele><time>2026-05-03T06:40:35.994Z</time></trkpt><trkpt lat="45.1304534" lon="8.4483664"><ele>118.33333333333333</ele><time>2026-05-03T06:40:36.993Z</time></trkpt><trkpt lat="45.1303822" lon="8.4484626"><ele>118.66666666666666</ele><time>2026-05-03T06:40:38.993Z</time></trkpt><trkpt lat="45.1302842" lon="8.4485355"><ele>119.0</ele><time>2026-05-03T06:40:41.993Z</time></trkpt><trkpt lat="45.1302007" lon="8.4486512"><ele>119.0</ele><time>2026-05-03T06:40:43.993Z</time></trkpt><trkpt lat="45.1301148" lon="8.4489067"><ele>119.0</ele><time>2026-05-03T06:40:46.993Z</time></trkpt><trkpt lat="45.1300674" lon="8.4489842"><ele>119.0</ele><time>2026-05-03T06:40:47.993Z</time></trkpt><trkpt lat="45.130012" lon="8.4490495"><ele>119.0</ele><time>2026-05-03T06:40:48.994Z</time></trkpt><trkpt lat="45.1299526" lon="8.449124"><ele>119.0</ele><time>2026-05-03T06:40:49.993Z</time></trkpt><trkpt lat="45.1298932" lon="8.449197"><ele>118.99999999999999</ele><time>2026-05-03T06:40:50.994Z</time></trkpt><trkpt lat="45.1298434" lon="8.4492711"><ele>119.0</ele><time>2026-05-03T06:40:51.993Z</time></trkpt><trkpt lat="45.1297922" lon="8.4493469"><ele>119.0</ele><time>2026-05-03T06:40:52.993Z</time></trkpt><trkpt lat="45.1297392" lon="8.4494279"><ele>119.0</ele><time>2026-05-03T06:40:53.993Z</time></trkpt><trkpt lat="45.129683" lon="8.449512"><ele>118.99999999999999</ele><time>2026-05-03T06:40:54.993Z</time></trkpt><trkpt lat="45.1296236" lon="8.4495932"><ele>119.0</ele><time>2026-05-03T06:40:55.993Z</time></trkpt><trkpt lat="45.1295641" lon="8.4496852"><ele>118.83333333333333</ele><time>2026-05-03T06:40:56.994Z</time></trkpt><trkpt lat="45.1295069" lon="8.4497746"><ele>118.66666666666666</ele><time>2026-05-03T06:40:57.994Z</time></trkpt><trkpt lat="45.1294479" lon="8.4498682"><ele>118.5</ele><time>2026-05-03T06:40:58.993Z</time></trkpt><trkpt lat="45.1293869" lon="8.4499654"><ele>118.33333333333334</ele><time>2026-05-03T06:40:59.993Z</time></trkpt><trkpt lat="45.1293222" lon="8.4500548"><ele>118.16666666666667</ele><time>2026-05-03T06:41:00.993Z</time></trkpt><trkpt lat="45.1292653" lon="8.4501386"><ele>118.0</ele><time>2026-05-03T06:41:01.993Z</time></trkpt><trkpt lat="45.1292127" lon="8.4502172"><ele>118.0</ele><time>2026-05-03T06:41:02.993Z</time></trkpt><trkpt lat="45.12916" lon="8.4502904"><ele>118.00000000000001</ele><time>2026-05-03T06:41:03.994Z</time></trkpt><trkpt lat="45.1290947" lon="8.4504139"><ele>118.00000000000001</ele><time>2026-05-03T06:41:05.994Z</time></trkpt><trkpt lat="45.129036" lon="8.4505138"><ele>118.0</ele><time>2026-05-03T06:41:07.994Z</time></trkpt><trkpt lat="45.1289458" lon="8.4506172"><ele>118.0</ele><time>2026-05-03T06:41:09.994Z</time></trkpt><trkpt lat="45.1288866" lon="8.4506515"><ele>117.83333333333334</ele><time>2026-05-03T06:41:10.995Z</time></trkpt><trkpt lat="45.1288253" lon="8.450675"><ele>117.66666666666667</ele><time>2026-05-03T06:41:11.995Z</time></trkpt><trkpt lat="45.1286999" lon="8.4506773"><ele>117.5</ele><time>2026-05-03T06:41:13.994Z</time></trkpt><trkpt lat="45.1286185" lon="8.4506879"><ele>117.33333333333334</ele><time>2026-05-03T06:41:14.994Z</time></trkpt><trkpt lat="45.12853" lon="8.4506869"><ele>117.16666666666667</ele><time>2026-05-03T06:41:15.994Z</time></trkpt><trkpt lat="45.1284439" lon="8.4506977"><ele>117.0</ele><time>2026-05-03T06:41:16.995Z</time></trkpt><trkpt lat="45.1283638" lon="8.4507142"><ele>117.0</ele><time>2026-05-03T06:41:17.994Z</time></trkpt><trkpt lat="45.1282804" lon="8.4507301"><ele>117.0</ele><time>2026-05-03T06:41:18.994Z</time></trkpt><trkpt lat="45.1282051" lon="8.450735"><ele>117.0</ele><time>2026-05-03T06:41:19.994Z</time></trkpt><trkpt lat="45.1281157" lon="8.4507555"><ele>117.0</ele><time>2026-05-03T06:41:20.994Z</time></trkpt><trkpt lat="45.1280351" lon="8.4507658"><ele>117.0</ele><time>2026-05-03T06:41:21.994Z</time></trkpt><trkpt lat="45.1279688" lon="8.4507681"><ele>117.0</ele><time>2026-05-03T06:41:22.994Z</time></trkpt><trkpt lat="45.1278416" lon="8.4507692"><ele>117.0</ele><time>2026-05-03T06:41:24.994Z</time></trkpt><trkpt lat="45.1277239" lon="8.4507737"><ele>117.0</ele><time>2026-05-03T06:41:26.994Z</time></trkpt><trkpt lat="45.127601" lon="8.4507842"><ele>117.0</ele><time>2026-05-03T06:41:28.995Z</time></trkpt><trkpt lat="45.1275339" lon="8.4507826"><ele>117.0</ele><time>2026-05-03T06:41:29.995Z</time></trkpt><trkpt lat="45.1274654" lon="8.4507845"><ele>117.0</ele><time>2026-05-03T06:41:30.994Z</time></trkpt><trkpt lat="45.1274008" lon="8.4507901"><ele>117.0</ele><time>2026-05-03T06:41:31.995Z</time></trkpt><trkpt lat="45.1273336" lon="8.450796"><ele>117.19999999999999</ele><time>2026-05-03T06:41:32.994Z</time></trkpt><trkpt lat="45.1272664" lon="8.4507961"><ele>117.39999999999999</ele><time>2026-05-03T06:41:33.994Z</time></trkpt><trkpt lat="45.1271386" lon="8.4508018"><ele>117.60000000000001</ele><time>2026-05-03T06:41:35.995Z</time></trkpt><trkpt lat="45.1270313" lon="8.4507892"><ele>117.80000000000001</ele><time>2026-05-03T06:41:37.995Z</time></trkpt><trkpt lat="45.1269643" lon="8.4507821"><ele>118.0</ele><time>2026-05-03T06:41:38.995Z</time></trkpt><trkpt lat="45.1268789" lon="8.4507702"><ele>118.00000000000001</ele><time>2026-05-03T06:41:39.994Z</time></trkpt><trkpt lat="45.1268046" lon="8.4507746"><ele>118.0</ele><time>2026-05-03T06:41:40.994Z</time></trkpt><trkpt lat="45.1267288" lon="8.4507845"><ele>118.0</ele><time>2026-05-03T06:41:41.995Z</time></trkpt><trkpt lat="45.1266512" lon="8.4507918"><ele>118.0</ele><time>2026-05-03T06:41:42.994Z</time></trkpt><trkpt lat="45.1265733" lon="8.4508004"><ele>118.00000000000001</ele><time>2026-05-03T06:41:43.995Z</time></trkpt><trkpt lat="45.1264924" lon="8.4508089"><ele>118.0</ele><time>2026-05-03T06:41:44.994Z</time></trkpt><trkpt lat="45.1263989" lon="8.4508204"><ele>118.00000000000001</ele><time>2026-05-03T06:41:45.994Z</time></trkpt><trkpt lat="45.1263102" lon="8.4508235"><ele>118.0</ele><time>2026-05-03T06:41:46.994Z</time></trkpt><trkpt lat="45.126219" lon="8.4508246"><ele>118.0</ele><time>2026-05-03T06:41:47.996Z</time></trkpt><trkpt lat="45.1261352" lon="8.4508353"><ele>118.0</ele><time>2026-05-03T06:41:48.995Z</time></trkpt><trkpt lat="45.126048" lon="8.4508456"><ele>118.00000000000001</ele><time>2026-05-03T06:41:49.995Z</time></trkpt><trkpt lat="45.1259583" lon="8.4508494"><ele>118.0</ele><time>2026-05-03T06:41:50.995Z</time></trkpt><trkpt lat="45.1258679" lon="8.4508532"><ele>118.0</ele><time>2026-05-03T06:41:51.995Z</time></trkpt><trkpt lat="45.1257717" lon="8.4508596"><ele>118.00000000000001</ele><time>2026-05-03T06:41:52.996Z</time></trkpt><trkpt lat="45.1256785" lon="8.4508707"><ele>118.00000000000001</ele><time>2026-05-03T06:41:53.995Z</time></trkpt><trkpt lat="45.1255848" lon="8.4508769"><ele>118.0</ele><time>2026-05-03T06:41:54.995Z</time></trkpt><trkpt lat="45.1255017" lon="8.45087"><ele>118.0</ele><time>2026-05-03T06:41:55.996Z</time></trkpt><trkpt lat="45.1254168" lon="8.4508686"><ele>117.60000000000001</ele><time>2026-05-03T06:41:56.996Z</time></trkpt><trkpt lat="45.1253179" lon="8.45087"><ele>117.20000000000002</ele><time>2026-05-03T06:41:57.996Z</time></trkpt><trkpt lat="45.1252259" lon="8.4508711"><ele>116.8</ele><time>2026-05-03T06:41:58.996Z</time></trkpt><trkpt lat="45.1251239" lon="8.4508632"><ele>116.4</ele><time>2026-05-03T06:41:59.995Z</time></trkpt><trkpt lat="45.1250255" lon="8.4508643"><ele>116.0</ele><time>2026-05-03T06:42:00.995Z</time></trkpt><trkpt lat="45.1249253" lon="8.4508665"><ele>115.99999999999999</ele><time>2026-05-03T06:42:01.995Z</time></trkpt><trkpt lat="45.1248312" lon="8.4508688"><ele>116.0</ele><time>2026-05-03T06:42:02.996Z</time></trkpt><trkpt lat="45.1247512" lon="8.4508674"><ele>116.0</ele><time>2026-05-03T06:42:03.995Z</time></trkpt><trkpt lat="45.1246659" lon="8.4508729"><ele>116.0</ele><time>2026-05-03T06:42:04.995Z</time></trkpt><trkpt lat="45.1245876" lon="8.4508776"><ele>115.99999999999999</ele><time>2026-05-03T06:42:05.995Z</time></trkpt><trkpt lat="45.1245125" lon="8.4508785"><ele>116.0</ele><time>2026-05-03T06:42:06.995Z</time></trkpt><trkpt lat="45.1243926" lon="8.4508853"><ele>116.0</ele><time>2026-05-03T06:42:08.995Z</time></trkpt><trkpt lat="45.1243038" lon="8.4508961"><ele>116.0</ele><time>2026-05-03T06:42:10.996Z</time></trkpt><trkpt lat="45.1242024" lon="8.450894"><ele>116.0</ele><time>2026-05-03T06:42:12.995Z</time></trkpt><trkpt lat="45.1240677" lon="8.4508996"><ele>116.0</ele><time>2026-05-03T06:42:14.996Z</time></trkpt><trkpt lat="45.1239952" lon="8.4509073"><ele>116.0</ele><time>2026-05-03T06:42:15.995Z</time></trkpt><trkpt lat="45.1239198" lon="8.4509144"><ele>116.33333333333333</ele><time>2026-05-03T06:42:16.995Z</time></trkpt><trkpt lat="45.1238426" lon="8.4509227"><ele>116.66666666666666</ele><time>2026-05-03T06:42:17.995Z</time></trkpt><trkpt lat="45.1237683" lon="8.4509323"><ele>117.0</ele><time>2026-05-03T06:42:18.995Z</time></trkpt><trkpt lat="45.1236919" lon="8.450939"><ele>117.33333333333334</ele><time>2026-05-03T06:42:19.995Z</time></trkpt><trkpt lat="45.1236119" lon="8.4509443"><ele>117.66666666666667</ele><time>2026-05-03T06:42:20.996Z</time></trkpt><trkpt lat="45.1235332" lon="8.4509468"><ele>118.0</ele><time>2026-05-03T06:42:21.995Z</time></trkpt><trkpt lat="45.1234553" lon="8.4509505"><ele>118.00000000000001</ele><time>2026-05-03T06:42:22.995Z</time></trkpt><trkpt lat="45.1233726" lon="8.4509512"><ele>118.0</ele><time>2026-05-03T06:42:23.996Z</time></trkpt><trkpt lat="45.1232961" lon="8.4509592"><ele>118.0</ele><time>2026-05-03T06:42:24.996Z</time></trkpt><trkpt lat="45.1232142" lon="8.4509655"><ele>118.0</ele><time>2026-05-03T06:42:25.995Z</time></trkpt><trkpt lat="45.1231188" lon="8.4509649"><ele>118.00000000000001</ele><time>2026-05-03T06:42:26.995Z</time></trkpt><trkpt lat="45.1230229" lon="8.4509561"><ele>118.0</ele><time>2026-05-03T06:42:27.995Z</time></trkpt><trkpt lat="45.122945" lon="8.4509552"><ele>118.2</ele><time>2026-05-03T06:42:28.996Z</time></trkpt><trkpt lat="45.122854" lon="8.4509619"><ele>118.4</ele><time>2026-05-03T06:42:29.996Z</time></trkpt><trkpt lat="45.1227652" lon="8.4509662"><ele>118.60000000000001</ele><time>2026-05-03T06:42:30.996Z</time></trkpt><trkpt lat="45.1226735" lon="8.4509744"><ele>118.80000000000001</ele><time>2026-05-03T06:42:31.996Z</time></trkpt><trkpt lat="45.1225781" lon="8.4509899"><ele>119.0</ele><time>2026-05-03T06:42:32.996Z</time></trkpt><trkpt lat="45.122481" lon="8.4509941"><ele>119.16666666666666</ele><time>2026-05-03T06:42:33.996Z</time></trkpt><trkpt lat="45.1223901" lon="8.4509969"><ele>119.33333333333333</ele><time>2026-05-03T06:42:34.996Z</time></trkpt><trkpt lat="45.1222977" lon="8.4510043"><ele>119.5</ele><time>2026-05-03T06:42:35.997Z</time></trkpt><trkpt lat="45.122212" lon="8.4510113"><ele>119.66666666666666</ele><time>2026-05-03T06:42:36.997Z</time></trkpt><trkpt lat="45.1221196" lon="8.4510231"><ele>119.83333333333333</ele><time>2026-05-03T06:42:37.997Z</time></trkpt><trkpt lat="45.1220379" lon="8.4510296"><ele>120.0</ele><time>2026-05-03T06:42:38.996Z</time></trkpt><trkpt lat="45.1219643" lon="8.4510341"><ele>120.0</ele><time>2026-05-03T06:42:39.996Z</time></trkpt><trkpt lat="45.1218866" lon="8.4510411"><ele>120.0</ele><time>2026-05-03T06:42:40.996Z</time></trkpt><trkpt lat="45.1217703" lon="8.4510291"><ele>120.0</ele><time>2026-05-03T06:42:42.996Z</time></trkpt><trkpt lat="45.1216832" lon="8.4509671"><ele>120.0</ele><time>2026-05-03T06:42:44.996Z</time></trkpt><trkpt lat="45.1215738" lon="8.4509219"><ele>120.0</ele><time>2026-05-03T06:42:46.996Z</time></trkpt><trkpt lat="45.1215064" lon="8.4509366"><ele>119.85714285714286</ele><time>2026-05-03T06:42:47.996Z</time></trkpt><trkpt lat="45.1214394" lon="8.4509869"><ele>119.71428571428571</ele><time>2026-05-03T06:42:48.997Z</time></trkpt><trkpt lat="45.1213817" lon="8.4510403"><ele>119.57142857142857</ele><time>2026-05-03T06:42:49.997Z</time></trkpt><trkpt lat="45.1213242" lon="8.4510802"><ele>119.42857142857143</ele><time>2026-05-03T06:42:50.996Z</time></trkpt><trkpt lat="45.1212567" lon="8.4510906"><ele>119.28571428571428</ele><time>2026-05-03T06:42:51.996Z</time></trkpt><trkpt lat="45.1211868" lon="8.4510986"><ele>119.14285714285714</ele><time>2026-05-03T06:42:52.996Z</time></trkpt><trkpt lat="45.1211038" lon="8.4511039"><ele>119.0</ele><time>2026-05-03T06:42:53.996Z</time></trkpt><trkpt lat="45.1210149" lon="8.4511106"><ele>118.99999999999999</ele><time>2026-05-03T06:42:54.997Z</time></trkpt><trkpt lat="45.1209308" lon="8.4511152"><ele>119.0</ele><time>2026-05-03T06:42:55.996Z</time></trkpt><trkpt lat="45.1208426" lon="8.4511199"><ele>119.0</ele><time>2026-05-03T06:42:56.996Z</time></trkpt><trkpt lat="45.1207631" lon="8.451125"><ele>119.0</ele><time>2026-05-03T06:42:57.996Z</time></trkpt><trkpt lat="45.1206834" lon="8.4511283"><ele>118.99999999999999</ele><time>2026-05-03T06:42:58.997Z</time></trkpt><trkpt lat="45.1206026" lon="8.4511262"><ele>119.0</ele><time>2026-05-03T06:42:59.996Z</time></trkpt><trkpt lat="45.1205176" lon="8.4511072"><ele>119.16666666666666</ele><time>2026-05-03T06:43:00.996Z</time></trkpt><trkpt lat="45.1204501" lon="8.4510751"><ele>119.33333333333333</ele><time>2026-05-03T06:43:01.997Z</time></trkpt><trkpt lat="45.1203529" lon="8.4510243"><ele>119.5</ele><time>2026-05-03T06:43:03.997Z</time></trkpt><trkpt lat="45.120252" lon="8.4509958"><ele>119.66666666666666</ele><time>2026-05-03T06:43:05.997Z</time></trkpt><trkpt lat="45.1201816" lon="8.4510339"><ele>119.83333333333333</ele><time>2026-05-03T06:43:06.996Z</time></trkpt><trkpt lat="45.1201316" lon="8.4510983"><ele>120.0</ele><time>2026-05-03T06:43:07.996Z</time></trkpt><trkpt lat="45.1200749" lon="8.451155"><ele>120.0</ele><time>2026-05-03T06:43:08.996Z</time></trkpt><trkpt lat="45.1200147" lon="8.4511852"><ele>120.0</ele><time>2026-05-03T06:43:09.998Z</time></trkpt><trkpt lat="45.1198817" lon="8.4511753"><ele>120.0</ele><time>2026-05-03T06:43:11.997Z</time></trkpt><trkpt lat="45.1198014" lon="8.4511665"><ele>120.0</ele><time>2026-05-03T06:43:12.997Z</time></trkpt><trkpt lat="45.1197228" lon="8.4511675"><ele>120.0</ele><time>2026-05-03T06:43:13.998Z</time></trkpt><trkpt lat="45.119647" lon="8.4511731"><ele>120.0</ele><time>2026-05-03T06:43:14.998Z</time></trkpt><trkpt lat="45.1195707" lon="8.4511786"><ele>119.83333333333333</ele><time>2026-05-03T06:43:15.997Z</time></trkpt><trkpt lat="45.1194941" lon="8.4511819"><ele>119.66666666666666</ele><time>2026-05-03T06:43:16.998Z</time></trkpt><trkpt lat="45.1194195" lon="8.4511831"><ele>119.5</ele><time>2026-05-03T06:43:17.998Z</time></trkpt><trkpt lat="45.1193396" lon="8.4511867"><ele>119.33333333333333</ele><time>2026-05-03T06:43:18.997Z</time></trkpt><trkpt lat="45.1192559" lon="8.4511939"><ele>119.16666666666666</ele><time>2026-05-03T06:43:19.998Z</time></trkpt><trkpt lat="45.1191758" lon="8.4512022"><ele>119.0</ele><time>2026-05-03T06:43:20.997Z</time></trkpt><trkpt lat="45.1190902" lon="8.4512054"><ele>119.2</ele><time>2026-05-03T06:43:21.997Z</time></trkpt><trkpt lat="45.1189831" lon="8.4512116"><ele>119.4</ele><time>2026-05-03T06:43:22.997Z</time></trkpt><trkpt lat="45.1188693" lon="8.4512187"><ele>119.6</ele><time>2026-05-03T06:43:23.997Z</time></trkpt><trkpt lat="45.1187785" lon="8.4512241"><ele>119.8</ele><time>2026-05-03T06:43:24.997Z</time></trkpt><trkpt lat="45.1186847" lon="8.4512276"><ele>120.0</ele><time>2026-05-03T06:43:25.997Z</time></trkpt><trkpt lat="45.118596" lon="8.4512327"><ele>120.0</ele><time>2026-05-03T06:43:26.997Z</time></trkpt><trkpt lat="45.1185066" lon="8.4512387"><ele>120.0</ele><time>2026-05-03T06:43:27.997Z</time></trkpt><trkpt lat="45.1184173" lon="8.4512427"><ele>120.0</ele><time>2026-05-03T06:43:28.997Z</time></trkpt><trkpt lat="45.1183228" lon="8.4512462"><ele>120.0</ele><time>2026-05-03T06:43:29.997Z</time></trkpt><trkpt lat="45.117427" lon="8.4513809"><ele>119.2</ele><time>2026-05-03T06:43:40.998Z</time></trkpt><trkpt lat="45.1172823" lon="8.4513729"><ele>118.4</ele><time>2026-05-03T06:43:41.998Z</time></trkpt><trkpt lat="45.1171791" lon="8.4514129"><ele>117.6</ele><time>2026-05-03T06:43:42.998Z</time></trkpt><trkpt lat="45.1171012" lon="8.4514086"><ele>116.8</ele><time>2026-05-03T06:43:43.998Z</time></trkpt><trkpt lat="45.1170264" lon="8.451404"><ele>116.0</ele><time>2026-05-03T06:43:44.997Z</time></trkpt><trkpt lat="45.1169437" lon="8.4514042"><ele>116.00000000000001</ele><time>2026-05-03T06:43:45.997Z</time></trkpt><trkpt lat="45.1168702" lon="8.4514032"><ele>116.0</ele><time>2026-05-03T06:43:46.998Z</time></trkpt><trkpt lat="45.1167991" lon="8.4514032"><ele>116.00000000000001</ele><time>2026-05-03T06:43:47.998Z</time></trkpt><trkpt lat="45.1167259" lon="8.4514007"><ele>116.00000000000001</ele><time>2026-05-03T06:43:48.997Z</time></trkpt><trkpt lat="45.1166584" lon="8.4513993"><ele>116.0</ele><time>2026-05-03T06:43:49.997Z</time></trkpt><trkpt lat="45.1165929" lon="8.4513964"><ele>116.00000000000001</ele><time>2026-05-03T06:43:50.997Z</time></trkpt><trkpt lat="45.1165258" lon="8.4513942"><ele>116.00000000000001</ele><time>2026-05-03T06:43:51.998Z</time></trkpt><trkpt lat="45.1163939" lon="8.4513853"><ele>116.14285714285717</ele><time>2026-05-03T06:43:53.998Z</time></trkpt><trkpt lat="45.1163224" lon="8.4513785"><ele>116.28571428571429</ele><time>2026-05-03T06:43:54.998Z</time></trkpt><trkpt lat="45.1162586" lon="8.4513715"><ele>116.42857142857144</ele><time>2026-05-03T06:43:55.999Z</time></trkpt><trkpt lat="45.1161886" lon="8.4513651"><ele>116.57142857142858</ele><time>2026-05-03T06:43:56.999Z</time></trkpt><trkpt lat="45.1161166" lon="8.4513529"><ele>116.71428571428572</ele><time>2026-05-03T06:43:57.998Z</time></trkpt><trkpt lat="45.1160471" lon="8.4513314"><ele>116.85714285714286</ele><time>2026-05-03T06:43:58.998Z</time></trkpt><trkpt lat="45.1159765" lon="8.4512936"><ele>117.0</ele><time>2026-05-03T06:43:59.998Z</time></trkpt><trkpt lat="45.1159102" lon="8.4512417"><ele>117.14285714285715</ele><time>2026-05-03T06:44:00.998Z</time></trkpt><trkpt lat="45.1158419" lon="8.4511767"><ele>117.2857142857143</ele><time>2026-05-03T06:44:01.998Z</time></trkpt><trkpt lat="45.1157837" lon="8.4511077"><ele>117.42857142857143</ele><time>2026-05-03T06:44:02.998Z</time></trkpt><trkpt lat="45.1157323" lon="8.4510312"><ele>117.57142857142858</ele><time>2026-05-03T06:44:03.999Z</time></trkpt><trkpt lat="45.1156913" lon="8.4509525"><ele>117.71428571428572</ele><time>2026-05-03T06:44:04.998Z</time></trkpt><trkpt lat="45.1156546" lon="8.4508675"><ele>117.85714285714286</ele><time>2026-05-03T06:44:05.998Z</time></trkpt><trkpt lat="45.1156179" lon="8.4507819"><ele>118.0</ele><time>2026-05-03T06:44:06.998Z</time></trkpt><trkpt lat="45.1155702" lon="8.4506985"><ele>118.00000000000001</ele><time>2026-05-03T06:44:07.998Z</time></trkpt><trkpt lat="45.1155152" lon="8.4506239"><ele>118.0</ele><time>2026-05-03T06:44:08.998Z</time></trkpt><trkpt lat="45.1154477" lon="8.4505677"><ele>118.0</ele><time>2026-05-03T06:44:09.998Z</time></trkpt><trkpt lat="45.1153658" lon="8.4505378"><ele>118.0</ele><time>2026-05-03T06:44:10.999Z</time></trkpt><trkpt lat="45.1152771" lon="8.4505391"><ele>118.00000000000001</ele><time>2026-05-03T06:44:11.998Z</time></trkpt><trkpt lat="45.1151898" lon="8.4505784"><ele>118.0</ele><time>2026-05-03T06:44:12.998Z</time></trkpt><trkpt lat="45.1151062" lon="8.4506443"><ele>118.0</ele><time>2026-05-03T06:44:13.998Z</time></trkpt><trkpt lat="45.1150239" lon="8.450724"><ele>118.00000000000001</ele><time>2026-05-03T06:44:14.999Z</time></trkpt><trkpt lat="45.1149495" lon="8.4508106"><ele>118.00000000000001</ele><time>2026-05-03T06:44:15.998Z</time></trkpt><trkpt lat="45.114878" lon="8.4508978"><ele>118.0</ele><time>2026-05-03T06:44:16.998Z</time></trkpt><trkpt lat="45.1148068" lon="8.4509853"><ele>118.0</ele><time>2026-05-03T06:44:17.998Z</time></trkpt><trkpt lat="45.1147366" lon="8.4510763"><ele>118.0</ele><time>2026-05-03T06:44:18.998Z</time></trkpt><trkpt lat="45.1146653" lon="8.4511666"><ele>118.00000000000001</ele><time>2026-05-03T06:44:19.998Z</time></trkpt><trkpt lat="45.1145911" lon="8.4512506"><ele>118.00000000000001</ele><time>2026-05-03T06:44:20.999Z</time></trkpt><trkpt lat="45.1145132" lon="8.4513285"><ele>118.0</ele><time>2026-05-03T06:44:21.999Z</time></trkpt><trkpt lat="45.1144304" lon="8.4513927"><ele>118.0</ele><time>2026-05-03T06:44:22.998Z</time></trkpt><trkpt lat="45.1143416" lon="8.4514416"><ele>117.80000000000001</ele><time>2026-05-03T06:44:23.999Z</time></trkpt><trkpt lat="45.1142476" lon="8.4514752"><ele>117.60000000000001</ele><time>2026-05-03T06:44:24.998Z</time></trkpt><trkpt lat="45.1141536" lon="8.4514973"><ele>117.39999999999999</ele><time>2026-05-03T06:44:25.998Z</time></trkpt><trkpt lat="45.1140607" lon="8.4515073"><ele>117.19999999999999</ele><time>2026-05-03T06:44:26.998Z</time></trkpt><trkpt lat="45.1139641" lon="8.4515109"><ele>117.0</ele><time>2026-05-03T06:44:27.999Z</time></trkpt><trkpt lat="45.1138676" lon="8.4515105"><ele>117.6</ele><time>2026-05-03T06:44:28.998Z</time></trkpt><trkpt lat="45.1137695" lon="8.4515076"><ele>118.19999999999999</ele><time>2026-05-03T06:44:29.998Z</time></trkpt><trkpt lat="45.1136702" lon="8.4515061"><ele>118.8</ele><time>2026-05-03T06:44:30.998Z</time></trkpt><trkpt lat="45.1135687" lon="8.4515077"><ele>119.4</ele><time>2026-05-03T06:44:31.999Z</time></trkpt><trkpt lat="45.1134699" lon="8.4515095"><ele>120.0</ele><time>2026-05-03T06:44:33Z</time></trkpt><trkpt lat="45.1133733" lon="8.4515106"><ele>120.0</ele><time>2026-05-03T06:44:33.999Z</time></trkpt><trkpt lat="45.1132771" lon="8.4515123"><ele>120.0</ele><time>2026-05-03T06:44:34.999Z</time></trkpt><trkpt lat="45.1131819" lon="8.4515152"><ele>120.0</ele><time>2026-05-03T06:44:35.999Z</time></trkpt><trkpt lat="45.113087" lon="8.4515189"><ele>120.0</ele><time>2026-05-03T06:44:36.999Z</time></trkpt><trkpt lat="45.112992" lon="8.4515251"><ele>120.0</ele><time>2026-05-03T06:44:37.999Z</time></trkpt><trkpt lat="45.112894" lon="8.4515316"><ele>119.6</ele><time>2026-05-03T06:44:38.999Z</time></trkpt><trkpt lat="45.1127964" lon="8.4515405"><ele>119.2</ele><time>2026-05-03T06:44:40Z</time></trkpt><trkpt lat="45.1127005" lon="8.4515499"><ele>118.80000000000001</ele><time>2026-05-03T06:44:40.999Z</time></trkpt><trkpt lat="45.1126041" lon="8.451556"><ele>118.4</ele><time>2026-05-03T06:44:42Z</time></trkpt><trkpt lat="45.112509" lon="8.4515606"><ele>118.0</ele><time>2026-05-03T06:44:42.999Z</time></trkpt><trkpt lat="45.1124122" lon="8.4515663"><ele>118.4</ele><time>2026-05-03T06:44:43.999Z</time></trkpt><trkpt lat="45.1123159" lon="8.451573"><ele>118.80000000000001</ele><time>2026-05-03T06:44:44.999Z</time></trkpt><trkpt lat="45.1122185" lon="8.45158"><ele>119.2</ele><time>2026-05-03T06:44:45.999Z</time></trkpt><trkpt lat="45.1121161" lon="8.4515848"><ele>119.6</ele><time>2026-05-03T06:44:46.999Z</time></trkpt><trkpt lat="45.112017" lon="8.4515906"><ele>120.0</ele><time>2026-05-03T06:44:47.999Z</time></trkpt><trkpt lat="45.1119168" lon="8.4515959"><ele>120.0</ele><time>2026-05-03T06:44:48.999Z</time></trkpt><trkpt lat="45.1118168" lon="8.451603"><ele>120.0</ele><time>2026-05-03T06:44:49.999Z</time></trkpt><trkpt lat="45.1117203" lon="8.4516072"><ele>120.0</ele><time>2026-05-03T06:44:50.999Z</time></trkpt><trkpt lat="45.1116242" lon="8.45161"><ele>120.0</ele><time>2026-05-03T06:44:51.999Z</time></trkpt><trkpt lat="45.1115281" lon="8.4516161"><ele>120.0</ele><time>2026-05-03T06:44:52.999Z</time></trkpt><trkpt lat="45.1114313" lon="8.4516237"><ele>119.6</ele><time>2026-05-03T06:44:53.999Z</time></trkpt><trkpt lat="45.1113367" lon="8.4516306"><ele>119.2</ele><time>2026-05-03T06:44:54.999Z</time></trkpt><trkpt lat="45.1112395" lon="8.4516327"><ele>118.80000000000001</ele><time>2026-05-03T06:44:55.999Z</time></trkpt><trkpt lat="45.1111423" lon="8.4516373"><ele>118.4</ele><time>2026-05-03T06:44:57Z</time></trkpt><trkpt lat="45.1110448" lon="8.4516407"><ele>118.0</ele><time>2026-05-03T06:44:58Z</time></trkpt><trkpt lat="45.1109456" lon="8.4516444"><ele>118.0</ele><time>2026-05-03T06:44:59.001Z</time></trkpt><trkpt lat="45.1108489" lon="8.4516475"><ele>118.00000000000001</ele><time>2026-05-03T06:44:59.999Z</time></trkpt><trkpt lat="45.1107505" lon="8.4516539"><ele>118.00000000000001</ele><time>2026-05-03T06:45:01Z</time></trkpt><trkpt lat="45.1106556" lon="8.451665"><ele>118.0</ele><time>2026-05-03T06:45:01.999Z</time></trkpt><trkpt lat="45.1105618" lon="8.4516748"><ele>118.0</ele><time>2026-05-03T06:45:03Z</time></trkpt><trkpt lat="45.1104681" lon="8.4516817"><ele>117.80000000000001</ele><time>2026-05-03T06:45:04Z</time></trkpt><trkpt lat="45.1103714" lon="8.4516861"><ele>117.60000000000001</ele><time>2026-05-03T06:45:04.999Z</time></trkpt><trkpt lat="45.1102722" lon="8.4516892"><ele>117.39999999999999</ele><time>2026-05-03T06:45:05.999Z</time></trkpt><trkpt lat="45.1101741" lon="8.451693"><ele>117.19999999999999</ele><time>2026-05-03T06:45:07Z</time></trkpt><trkpt lat="45.1100765" lon="8.451699"><ele>117.0</ele><time>2026-05-03T06:45:07.999Z</time></trkpt><trkpt lat="45.1099785" lon="8.4517071"><ele>117.19999999999999</ele><time>2026-05-03T06:45:08.999Z</time></trkpt><trkpt lat="45.1098784" lon="8.4517139"><ele>117.39999999999999</ele><time>2026-05-03T06:45:10Z</time></trkpt><trkpt lat="45.1097773" lon="8.4517199"><ele>117.60000000000001</ele><time>2026-05-03T06:45:10.999Z</time></trkpt><trkpt lat="45.1096769" lon="8.4517253"><ele>117.80000000000001</ele><time>2026-05-03T06:45:11.999Z</time></trkpt><trkpt lat="45.1095777" lon="8.4517297"><ele>118.0</ele><time>2026-05-03T06:45:12.999Z</time></trkpt><trkpt lat="45.1094797" lon="8.451734"><ele>118.0</ele><time>2026-05-03T06:45:14Z</time></trkpt><trkpt lat="45.1093801" lon="8.4517371"><ele>118.00000000000001</ele><time>2026-05-03T06:45:15Z</time></trkpt><trkpt lat="45.109283" lon="8.4517426"><ele>118.00000000000001</ele><time>2026-05-03T06:45:16Z</time></trkpt><trkpt lat="45.1091855" lon="8.4517485"><ele>118.0</ele><time>2026-05-03T06:45:17Z</time></trkpt><trkpt lat="45.1090881" lon="8.4517534"><ele>118.0</ele><time>2026-05-03T06:45:18.001Z</time></trkpt><trkpt lat="45.1089889" lon="8.4517579"><ele>118.2</ele><time>2026-05-03T06:45:19Z</time></trkpt><trkpt lat="45.1088917" lon="8.4517649"><ele>118.4</ele><time>2026-05-03T06:45:20Z</time></trkpt><trkpt lat="45.1087911" lon="8.451774"><ele>118.60000000000001</ele><time>2026-05-03T06:45:21Z</time></trkpt><trkpt lat="45.1086908" lon="8.4517797"><ele>118.80000000000001</ele><time>2026-05-03T06:45:22.001Z</time></trkpt><trkpt lat="45.1085898" lon="8.4517857"><ele>119.0</ele><time>2026-05-03T06:45:23Z</time></trkpt><trkpt lat="45.1084905" lon="8.4517912"><ele>119.0</ele><time>2026-05-03T06:45:24.001Z</time></trkpt><trkpt lat="45.1083902" lon="8.4517964"><ele>119.0</ele><time>2026-05-03T06:45:25.001Z</time></trkpt><trkpt lat="45.1082941" lon="8.4518023"><ele>119.0</ele><time>2026-05-03T06:45:26.001Z</time></trkpt><trkpt lat="45.1081982" lon="8.4518067"><ele>119.0</ele><time>2026-05-03T06:45:27Z</time></trkpt><trkpt lat="45.1081049" lon="8.4518084"><ele>119.0</ele><time>2026-05-03T06:45:28Z</time></trkpt><trkpt lat="45.1080095" lon="8.4518109"><ele>119.0</ele><time>2026-05-03T06:45:29Z</time></trkpt><trkpt lat="45.1079124" lon="8.4518156"><ele>119.0</ele><time>2026-05-03T06:45:30.001Z</time></trkpt><trkpt lat="45.1078155" lon="8.4518222"><ele>119.0</ele><time>2026-05-03T06:45:31Z</time></trkpt><trkpt lat="45.1077172" lon="8.4518315"><ele>119.0</ele><time>2026-05-03T06:45:32Z</time></trkpt><trkpt lat="45.1076159" lon="8.4518392"><ele>119.0</ele><time>2026-05-03T06:45:33Z</time></trkpt><trkpt lat="45.1075167" lon="8.4518419"><ele>119.0</ele><time>2026-05-03T06:45:34Z</time></trkpt><trkpt lat="45.1074201" lon="8.4518442"><ele>119.0</ele><time>2026-05-03T06:45:35.001Z</time></trkpt><trkpt lat="45.1073204" lon="8.4518507"><ele>119.0</ele><time>2026-05-03T06:45:36Z</time></trkpt><trkpt lat="45.1072206" lon="8.4518589"><ele>119.0</ele><time>2026-05-03T06:45:37.001Z</time></trkpt><trkpt lat="45.1071279" lon="8.4518632"><ele>119.0</ele><time>2026-05-03T06:45:38Z</time></trkpt><trkpt lat="45.1070315" lon="8.4518728"><ele>118.6</ele><time>2026-05-03T06:45:39Z</time></trkpt><trkpt lat="45.1069375" lon="8.4518813"><ele>118.2</ele><time>2026-05-03T06:45:40Z</time></trkpt><trkpt lat="45.1068449" lon="8.4518864"><ele>117.79999999999998</ele><time>2026-05-03T06:45:41.001Z</time></trkpt><trkpt lat="45.1067469" lon="8.451889"><ele>117.39999999999999</ele><time>2026-05-03T06:45:42Z</time></trkpt><trkpt lat="45.1066503" lon="8.451895"><ele>117.0</ele><time>2026-05-03T06:45:43Z</time></trkpt><trkpt lat="45.1065559" lon="8.4519037"><ele>117.0</ele><time>2026-05-03T06:45:44Z</time></trkpt><trkpt lat="45.1064608" lon="8.4519104"><ele>116.99999999999999</ele><time>2026-05-03T06:45:45.001Z</time></trkpt><trkpt lat="45.1063647" lon="8.4519128"><ele>116.99999999999999</ele><time>2026-05-03T06:45:46Z</time></trkpt><trkpt lat="45.106269" lon="8.4519179"><ele>117.0</ele><time>2026-05-03T06:45:47Z</time></trkpt><trkpt lat="45.1061707" lon="8.4519314"><ele>117.0</ele><time>2026-05-03T06:45:48Z</time></trkpt><trkpt lat="45.1060712" lon="8.4519462"><ele>117.0</ele><time>2026-05-03T06:45:49Z</time></trkpt><trkpt lat="45.1059707" lon="8.4519621"><ele>116.99999999999999</ele><time>2026-05-03T06:45:50Z</time></trkpt><trkpt lat="45.1058696" lon="8.4519761"><ele>116.99999999999999</ele><time>2026-05-03T06:45:51Z</time></trkpt><trkpt lat="45.1057703" lon="8.4519895"><ele>117.0</ele><time>2026-05-03T06:45:52Z</time></trkpt><trkpt lat="45.1056727" lon="8.4520032"><ele>117.0</ele><time>2026-05-03T06:45:53Z</time></trkpt><trkpt lat="45.105575" lon="8.4520156"><ele>117.39999999999999</ele><time>2026-05-03T06:45:54Z</time></trkpt><trkpt lat="45.1054763" lon="8.4520269"><ele>117.79999999999998</ele><time>2026-05-03T06:45:55.001Z</time></trkpt><trkpt lat="45.1053803" lon="8.4520386"><ele>118.2</ele><time>2026-05-03T06:45:56.002Z</time></trkpt><trkpt lat="45.1052844" lon="8.4520506"><ele>118.6</ele><time>2026-05-03T06:45:57.001Z</time></trkpt><trkpt lat="45.1051871" lon="8.4520647"><ele>119.0</ele><time>2026-05-03T06:45:58.001Z</time></trkpt><trkpt lat="45.1050865" lon="8.4520791"><ele>119.0</ele><time>2026-05-03T06:45:59.002Z</time></trkpt><trkpt lat="45.1049863" lon="8.4520946"><ele>119.0</ele><time>2026-05-03T06:46:00.001Z</time></trkpt><trkpt lat="45.1048848" lon="8.4521115"><ele>119.0</ele><time>2026-05-03T06:46:01.002Z</time></trkpt><trkpt lat="45.1047842" lon="8.4521274"><ele>119.0</ele><time>2026-05-03T06:46:02.002Z</time></trkpt><trkpt lat="45.1046863" lon="8.4521407"><ele>119.0</ele><time>2026-05-03T06:46:03.002Z</time></trkpt><trkpt lat="45.1045881" lon="8.4521533"><ele>118.6</ele><time>2026-05-03T06:46:04.001Z</time></trkpt><trkpt lat="45.1044871" lon="8.4521647"><ele>118.2</ele><time>2026-05-03T06:46:05.002Z</time></trkpt><trkpt lat="45.1043898" lon="8.4521758"><ele>117.79999999999998</ele><time>2026-05-03T06:46:06.001Z</time></trkpt><trkpt lat="45.1042927" lon="8.4521859"><ele>117.39999999999999</ele><time>2026-05-03T06:46:07.001Z</time></trkpt><trkpt lat="45.1041947" lon="8.4521976"><ele>117.0</ele><time>2026-05-03T06:46:08.002Z</time></trkpt><trkpt lat="45.1040981" lon="8.452212"><ele>117.39999999999999</ele><time>2026-05-03T06:46:09.002Z</time></trkpt><trkpt lat="45.1040017" lon="8.4522285"><ele>117.79999999999998</ele><time>2026-05-03T06:46:10.001Z</time></trkpt><trkpt lat="45.1039059" lon="8.4522464"><ele>118.2</ele><time>2026-05-03T06:46:11.002Z</time></trkpt><trkpt lat="45.1038093" lon="8.4522653"><ele>118.6</ele><time>2026-05-03T06:46:12.001Z</time></trkpt><trkpt lat="45.1037126" lon="8.4522868"><ele>119.0</ele><time>2026-05-03T06:46:13.001Z</time></trkpt><trkpt lat="45.1036115" lon="8.4523075"><ele>119.0</ele><time>2026-05-03T06:46:14.001Z</time></trkpt><trkpt lat="45.1035132" lon="8.4523282"><ele>119.0</ele><time>2026-05-03T06:46:15.002Z</time></trkpt><trkpt lat="45.1034169" lon="8.4523477"><ele>119.0</ele><time>2026-05-03T06:46:16.002Z</time></trkpt><trkpt lat="45.1033187" lon="8.4523693"><ele>119.0</ele><time>2026-05-03T06:46:17.001Z</time></trkpt><trkpt lat="45.1032232" lon="8.4523893"><ele>119.0</ele><time>2026-05-03T06:46:18.001Z</time></trkpt><trkpt lat="45.1031248" lon="8.4524105"><ele>118.80000000000001</ele><time>2026-05-03T06:46:19.001Z</time></trkpt><trkpt lat="45.103025" lon="8.4524315"><ele>118.60000000000001</ele><time>2026-05-03T06:46:20.001Z</time></trkpt><trkpt lat="45.10293" lon="8.4524538"><ele>118.4</ele><time>2026-05-03T06:46:21.001Z</time></trkpt><trkpt lat="45.1028331" lon="8.4524777"><ele>118.2</ele><time>2026-05-03T06:46:22.002Z</time></trkpt><trkpt lat="45.102737" lon="8.4525015"><ele>118.0</ele><time>2026-05-03T06:46:23.001Z</time></trkpt><trkpt lat="45.1026388" lon="8.4525242"><ele>118.0</ele><time>2026-05-03T06:46:24.002Z</time></trkpt><trkpt lat="45.1025373" lon="8.4525443"><ele>118.00000000000001</ele><time>2026-05-03T06:46:25.001Z</time></trkpt><trkpt lat="45.1024377" lon="8.4525627"><ele>118.00000000000001</ele><time>2026-05-03T06:46:26.002Z</time></trkpt><trkpt lat="45.1023431" lon="8.4525806"><ele>118.0</ele><time>2026-05-03T06:46:27.001Z</time></trkpt><trkpt lat="45.1022471" lon="8.4525991"><ele>118.0</ele><time>2026-05-03T06:46:28.001Z</time></trkpt><trkpt lat="45.1021503" lon="8.4526182"><ele>117.80000000000001</ele><time>2026-05-03T06:46:29.002Z</time></trkpt><trkpt lat="45.1020511" lon="8.4526386"><ele>117.60000000000001</ele><time>2026-05-03T06:46:30.001Z</time></trkpt><trkpt lat="45.1019474" lon="8.4526607"><ele>117.39999999999999</ele><time>2026-05-03T06:46:31.001Z</time></trkpt><trkpt lat="45.1018466" lon="8.4526807"><ele>117.19999999999999</ele><time>2026-05-03T06:46:32.002Z</time></trkpt><trkpt lat="45.1017442" lon="8.4527004"><ele>117.0</ele><time>2026-05-03T06:46:33.001Z</time></trkpt><trkpt lat="45.1016422" lon="8.4527193"><ele>117.39999999999999</ele><time>2026-05-03T06:46:34.001Z</time></trkpt><trkpt lat="45.1015393" lon="8.4527389"><ele>117.79999999999998</ele><time>2026-05-03T06:46:35.003Z</time></trkpt><trkpt lat="45.1014379" lon="8.4527592"><ele>118.2</ele><time>2026-05-03T06:46:36.003Z</time></trkpt><trkpt lat="45.101335" lon="8.4527803"><ele>118.6</ele><time>2026-05-03T06:46:37.003Z</time></trkpt><trkpt lat="45.101236" lon="8.4528024"><ele>119.0</ele><time>2026-05-03T06:46:38.002Z</time></trkpt><trkpt lat="45.101136" lon="8.4528215"><ele>118.99999999999999</ele><time>2026-05-03T06:46:39.002Z</time></trkpt><trkpt lat="45.1010416" lon="8.452839"><ele>119.0</ele><time>2026-05-03T06:46:40.002Z</time></trkpt><trkpt lat="45.1009499" lon="8.4528565"><ele>119.0</ele><time>2026-05-03T06:46:41.002Z</time></trkpt><trkpt lat="45.1008629" lon="8.4528728"><ele>119.0</ele><time>2026-05-03T06:46:42.002Z</time></trkpt><trkpt lat="45.1007859" lon="8.452887"><ele>118.99999999999999</ele><time>2026-05-03T06:46:43.003Z</time></trkpt><trkpt lat="45.1007216" lon="8.4528962"><ele>119.0</ele><time>2026-05-03T06:46:44.003Z</time></trkpt><trkpt lat="45.1006357" lon="8.4529065"><ele>118.83333333333333</ele><time>2026-05-03T06:46:46.002Z</time></trkpt><trkpt lat="45.1005935" lon="8.4528353"><ele>118.66666666666666</ele><time>2026-05-03T06:46:52.002Z</time></trkpt><trkpt lat="45.1005396" lon="8.4527861"><ele>118.5</ele><time>2026-05-03T06:46:54.002Z</time></trkpt><trkpt lat="45.1004646" lon="8.4527906"><ele>118.33333333333334</ele><time>2026-05-03T06:46:55.002Z</time></trkpt><trkpt lat="45.1004052" lon="8.452837"><ele>118.16666666666667</ele><time>2026-05-03T06:46:56.003Z</time></trkpt><trkpt lat="45.1003499" lon="8.4529943"><ele>118.0</ele><time>2026-05-03T06:46:58.002Z</time></trkpt><trkpt lat="45.1003047" lon="8.453059"><ele>118.0</ele><time>2026-05-03T06:46:59.002Z</time></trkpt><trkpt lat="45.100243" lon="8.4531092"><ele>118.0</ele><time>2026-05-03T06:47:00.002Z</time></trkpt><trkpt lat="45.100185" lon="8.4531516"><ele>118.0</ele><time>2026-05-03T06:47:01.002Z</time></trkpt><trkpt lat="45.1001279" lon="8.453195"><ele>118.0</ele><time>2026-05-03T06:47:02.002Z</time></trkpt><trkpt lat="45.1000661" lon="8.4532475"><ele>118.0</ele><time>2026-05-03T06:47:03.002Z</time></trkpt><trkpt lat="45.1000053" lon="8.4533069"><ele>118.0</ele><time>2026-05-03T06:47:04.002Z</time></trkpt><trkpt lat="45.0999458" lon="8.4533691"><ele>118.0</ele><time>2026-05-03T06:47:05.002Z</time></trkpt><trkpt lat="45.0998875" lon="8.4534386"><ele>118.16666666666667</ele><time>2026-05-03T06:47:06.003Z</time></trkpt><trkpt lat="45.0998296" lon="8.4535185"><ele>118.33333333333334</ele><time>2026-05-03T06:47:07.002Z</time></trkpt><trkpt lat="45.0997692" lon="8.4535936"><ele>118.5</ele><time>2026-05-03T06:47:08.002Z</time></trkpt><trkpt lat="45.0997098" lon="8.4536724"><ele>118.66666666666666</ele><time>2026-05-03T06:47:09.002Z</time></trkpt><trkpt lat="45.099645" lon="8.4537519"><ele>118.83333333333333</ele><time>2026-05-03T06:47:10.003Z</time></trkpt><trkpt lat="45.0995814" lon="8.4538347"><ele>119.0</ele><time>2026-05-03T06:47:11.002Z</time></trkpt><trkpt lat="45.0995157" lon="8.4539195"><ele>119.0</ele><time>2026-05-03T06:47:12.002Z</time></trkpt><trkpt lat="45.099449" lon="8.4540089"><ele>119.0</ele><time>2026-05-03T06:47:13.002Z</time></trkpt><trkpt lat="45.0993821" lon="8.4540974"><ele>119.0</ele><time>2026-05-03T06:47:14.003Z</time></trkpt><trkpt lat="45.0993166" lon="8.4541843"><ele>119.0</ele><time>2026-05-03T06:47:15.002Z</time></trkpt><trkpt lat="45.0992497" lon="8.4542716"><ele>119.0</ele><time>2026-05-03T06:47:16.003Z</time></trkpt><trkpt lat="45.0991818" lon="8.4543575"><ele>119.0</ele><time>2026-05-03T06:47:17.003Z</time></trkpt><trkpt lat="45.099115" lon="8.4544432"><ele>119.0</ele><time>2026-05-03T06:47:18.004Z</time></trkpt><trkpt lat="45.0989842" lon="8.4546181"><ele>119.0</ele><time>2026-05-03T06:47:20.004Z</time></trkpt><trkpt lat="45.0989226" lon="8.454705"><ele>119.0</ele><time>2026-05-03T06:47:21.003Z</time></trkpt><trkpt lat="45.0988589" lon="8.4547935"><ele>119.0</ele><time>2026-05-03T06:47:22.003Z</time></trkpt><trkpt lat="45.0987956" lon="8.45488"><ele>119.33333333333333</ele><time>2026-05-03T06:47:23.003Z</time></trkpt><trkpt lat="45.0987335" lon="8.4549662"><ele>119.66666666666666</ele><time>2026-05-03T06:47:24.003Z</time></trkpt><trkpt lat="45.0986677" lon="8.4550505"><ele>120.0</ele><time>2026-05-03T06:47:25.003Z</time></trkpt><trkpt lat="45.0986029" lon="8.4551317"><ele>120.33333333333334</ele><time>2026-05-03T06:47:26.004Z</time></trkpt><trkpt lat="45.0985389" lon="8.4552175"><ele>120.66666666666667</ele><time>2026-05-03T06:47:27.003Z</time></trkpt><trkpt lat="45.0984752" lon="8.455303"><ele>121.0</ele><time>2026-05-03T06:47:28.003Z</time></trkpt><trkpt lat="45.0984132" lon="8.4553789"><ele>120.50000000000001</ele><time>2026-05-03T06:47:29.004Z</time></trkpt><trkpt lat="45.0983492" lon="8.4554575"><ele>120.0</ele><time>2026-05-03T06:47:30.003Z</time></trkpt><trkpt lat="45.0982806" lon="8.4555359"><ele>119.5</ele><time>2026-05-03T06:47:31.003Z</time></trkpt><trkpt lat="45.0982153" lon="8.4556172"><ele>119.0</ele><time>2026-05-03T06:47:32.004Z</time></trkpt><trkpt lat="45.0981556" lon="8.4557071"><ele>118.50000000000001</ele><time>2026-05-03T06:47:33.004Z</time></trkpt><trkpt lat="45.0980858" lon="8.4557869"><ele>118.0</ele><time>2026-05-03T06:47:34.004Z</time></trkpt><trkpt lat="45.0980212" lon="8.4558723"><ele>118.2</ele><time>2026-05-03T06:47:35.004Z</time></trkpt><trkpt lat="45.0979551" lon="8.455957"><ele>118.4</ele><time>2026-05-03T06:47:36.004Z</time></trkpt><trkpt lat="45.0978854" lon="8.4560429"><ele>118.60000000000001</ele><time>2026-05-03T06:47:37.004Z</time></trkpt><trkpt lat="45.097812" lon="8.4561275"><ele>118.80000000000001</ele><time>2026-05-03T06:47:38.004Z</time></trkpt><trkpt lat="45.0977368" lon="8.4562112"><ele>119.0</ele><time>2026-05-03T06:47:39.003Z</time></trkpt><trkpt lat="45.0976726" lon="8.4562999"><ele>119.0</ele><time>2026-05-03T06:47:40.004Z</time></trkpt><trkpt lat="45.0976" lon="8.4563868"><ele>119.0</ele><time>2026-05-03T06:47:41.004Z</time></trkpt><trkpt lat="45.0975303" lon="8.4564757"><ele>119.0</ele><time>2026-05-03T06:47:42.003Z</time></trkpt><trkpt lat="45.0974644" lon="8.4565664"><ele>119.0</ele><time>2026-05-03T06:47:43.003Z</time></trkpt><trkpt lat="45.0973959" lon="8.4566602"><ele>119.0</ele><time>2026-05-03T06:47:44.003Z</time></trkpt><trkpt lat="45.0973293" lon="8.4567574"><ele>119.0</ele><time>2026-05-03T06:47:45.003Z</time></trkpt><trkpt lat="45.0972589" lon="8.4568501"><ele>119.0</ele><time>2026-05-03T06:47:46.003Z</time></trkpt><trkpt lat="45.0971836" lon="8.4569409"><ele>119.0</ele><time>2026-05-03T06:47:47.004Z</time></trkpt><trkpt lat="45.0971125" lon="8.457031"><ele>119.0</ele><time>2026-05-03T06:47:48.003Z</time></trkpt><trkpt lat="45.0970433" lon="8.4571242"><ele>119.0</ele><time>2026-05-03T06:47:49.004Z</time></trkpt><trkpt lat="45.0969765" lon="8.4572206"><ele>119.0</ele><time>2026-05-03T06:47:50.004Z</time></trkpt><trkpt lat="45.0969034" lon="8.4573117"><ele>119.0</ele><time>2026-05-03T06:47:51.003Z</time></trkpt><trkpt lat="45.0968358" lon="8.457405"><ele>119.0</ele><time>2026-05-03T06:47:52.004Z</time></trkpt><trkpt lat="45.0967688" lon="8.4574966"><ele>119.0</ele><time>2026-05-03T06:47:53.003Z</time></trkpt><trkpt lat="45.0966994" lon="8.4575876"><ele>119.0</ele><time>2026-05-03T06:47:54.004Z</time></trkpt><trkpt lat="45.0966286" lon="8.4576789"><ele>120.0</ele><time>2026-05-03T06:47:55.003Z</time></trkpt><trkpt lat="45.0965607" lon="8.4577745"><ele>121.0</ele><time>2026-05-03T06:47:56.003Z</time></trkpt><trkpt lat="45.0964918" lon="8.4578702"><ele>122.0</ele><time>2026-05-03T06:47:57.004Z</time></trkpt><trkpt lat="45.0964217" lon="8.4579675"><ele>123.0</ele><time>2026-05-03T06:47:58.004Z</time></trkpt><trkpt lat="45.0963547" lon="8.4580621"><ele>124.0</ele><time>2026-05-03T06:47:59.005Z</time></trkpt><trkpt lat="45.0962835" lon="8.4581576"><ele>124.0</ele><time>2026-05-03T06:48:00.005Z</time></trkpt><trkpt lat="45.096211" lon="8.4582527"><ele>124.0</ele><time>2026-05-03T06:48:01.004Z</time></trkpt><trkpt lat="45.0961366" lon="8.4583498"><ele>124.0</ele><time>2026-05-03T06:48:02.004Z</time></trkpt><trkpt lat="45.0960646" lon="8.4584455"><ele>124.0</ele><time>2026-05-03T06:48:03.004Z</time></trkpt><trkpt lat="45.0959923" lon="8.4585397"><ele>124.0</ele><time>2026-05-03T06:48:04.004Z</time></trkpt><trkpt lat="45.0959197" lon="8.4586345"><ele>124.0</ele><time>2026-05-03T06:48:05.005Z</time></trkpt><trkpt lat="45.0958477" lon="8.4587247"><ele>124.0</ele><time>2026-05-03T06:48:06.004Z</time></trkpt><trkpt lat="45.0957761" lon="8.4588179"><ele>124.0</ele><time>2026-05-03T06:48:07.005Z</time></trkpt><trkpt lat="45.0957042" lon="8.4589135"><ele>124.0</ele><time>2026-05-03T06:48:08.004Z</time></trkpt><trkpt lat="45.0956308" lon="8.4590102"><ele>124.0</ele><time>2026-05-03T06:48:09.004Z</time></trkpt><trkpt lat="45.0955569" lon="8.4591075"><ele>122.80000000000001</ele><time>2026-05-03T06:48:10.004Z</time></trkpt><trkpt lat="45.0954849" lon="8.4592042"><ele>121.60000000000001</ele><time>2026-05-03T06:48:11.004Z</time></trkpt><trkpt lat="45.0954113" lon="8.4592987"><ele>120.4</ele><time>2026-05-03T06:48:12.004Z</time></trkpt><trkpt lat="45.095337" lon="8.4593918"><ele>119.2</ele><time>2026-05-03T06:48:13.004Z</time></trkpt><trkpt lat="45.0952596" lon="8.4594834"><ele>118.0</ele><time>2026-05-03T06:48:14.004Z</time></trkpt><trkpt lat="45.095179" lon="8.4595687"><ele>117.60000000000001</ele><time>2026-05-03T06:48:15.004Z</time></trkpt><trkpt lat="45.095097" lon="8.4596525"><ele>117.20000000000002</ele><time>2026-05-03T06:48:16.004Z</time></trkpt><trkpt lat="45.0950128" lon="8.459734"><ele>116.8</ele><time>2026-05-03T06:48:17.004Z</time></trkpt><trkpt lat="45.094927" lon="8.4598133"><ele>116.4</ele><time>2026-05-03T06:48:18.004Z</time></trkpt><trkpt lat="45.0948395" lon="8.4598895"><ele>116.0</ele><time>2026-05-03T06:48:19.004Z</time></trkpt><trkpt lat="45.0947497" lon="8.4599593"><ele>116.0</ele><time>2026-05-03T06:48:20.004Z</time></trkpt><trkpt lat="45.0946606" lon="8.4600275"><ele>116.0</ele><time>2026-05-03T06:48:21.004Z</time></trkpt><trkpt lat="45.0945749" lon="8.4600971"><ele>116.0</ele><time>2026-05-03T06:48:22.004Z</time></trkpt><trkpt lat="45.0944897" lon="8.4601672"><ele>116.0</ele><time>2026-05-03T06:48:23.005Z</time></trkpt><trkpt lat="45.0944057" lon="8.4602349"><ele>116.0</ele><time>2026-05-03T06:48:24.004Z</time></trkpt><trkpt lat="45.0943189" lon="8.4603057"><ele>116.0</ele><time>2026-05-03T06:48:25.005Z</time></trkpt><trkpt lat="45.094232" lon="8.4603777"><ele>116.0</ele><time>2026-05-03T06:48:26.004Z</time></trkpt><trkpt lat="45.094147" lon="8.4604465"><ele>116.0</ele><time>2026-05-03T06:48:27.005Z</time></trkpt><trkpt lat="45.0940609" lon="8.460518"><ele>116.0</ele><time>2026-05-03T06:48:28.005Z</time></trkpt><trkpt lat="45.0939727" lon="8.4605902"><ele>116.0</ele><time>2026-05-03T06:48:29.004Z</time></trkpt><trkpt lat="45.0938864" lon="8.4606587"><ele>115.8</ele><time>2026-05-03T06:48:30.004Z</time></trkpt><trkpt lat="45.0938003" lon="8.4607286"><ele>115.6</ele><time>2026-05-03T06:48:31.004Z</time></trkpt><trkpt lat="45.0937164" lon="8.460801"><ele>115.4</ele><time>2026-05-03T06:48:32.004Z</time></trkpt><trkpt lat="45.0936309" lon="8.4608737"><ele>115.2</ele><time>2026-05-03T06:48:33.004Z</time></trkpt><trkpt lat="45.0935481" lon="8.4609445"><ele>115.0</ele><time>2026-05-03T06:48:34.004Z</time></trkpt><trkpt lat="45.0934648" lon="8.4610152"><ele>115.0</ele><time>2026-05-03T06:48:35.004Z</time></trkpt><trkpt lat="45.09338" lon="8.4610859"><ele>115.0</ele><time>2026-05-03T06:48:36.004Z</time></trkpt><trkpt lat="45.0932938" lon="8.4611549"><ele>115.0</ele><time>2026-05-03T06:48:37.004Z</time></trkpt><trkpt lat="45.0932053" lon="8.4612233"><ele>115.0</ele><time>2026-05-03T06:48:38.004Z</time></trkpt><trkpt lat="45.0931171" lon="8.4612938"><ele>115.0</ele><time>2026-05-03T06:48:39.005Z</time></trkpt><trkpt lat="45.0930309" lon="8.4613683"><ele>114.6</ele><time>2026-05-03T06:48:40.005Z</time></trkpt><trkpt lat="45.0929448" lon="8.4614432"><ele>114.2</ele><time>2026-05-03T06:48:41.006Z</time></trkpt><trkpt lat="45.0928586" lon="8.4615158"><ele>113.80000000000001</ele><time>2026-05-03T06:48:42.006Z</time></trkpt><trkpt lat="45.0927726" lon="8.4615845"><ele>113.4</ele><time>2026-05-03T06:48:43.005Z</time></trkpt><trkpt lat="45.0926871" lon="8.4616517"><ele>113.0</ele><time>2026-05-03T06:48:44.006Z</time></trkpt><trkpt lat="45.0926023" lon="8.4617212"><ele>113.0</ele><time>2026-05-03T06:48:45.005Z</time></trkpt><trkpt lat="45.0925187" lon="8.461793"><ele>113.00000000000001</ele><time>2026-05-03T06:48:46.005Z</time></trkpt><trkpt lat="45.0924354" lon="8.4618652"><ele>113.00000000000001</ele><time>2026-05-03T06:48:47.006Z</time></trkpt><trkpt lat="45.0923521" lon="8.461936"><ele>113.0</ele><time>2026-05-03T06:48:48.005Z</time></trkpt><trkpt lat="45.0922667" lon="8.4620065"><ele>113.0</ele><time>2026-05-03T06:48:49.005Z</time></trkpt><trkpt lat="45.0921798" lon="8.4620776"><ele>112.4</ele><time>2026-05-03T06:48:50.006Z</time></trkpt><trkpt lat="45.0920914" lon="8.4621505"><ele>111.80000000000001</ele><time>2026-05-03T06:48:51.005Z</time></trkpt><trkpt lat="45.092004" lon="8.4622223"><ele>111.2</ele><time>2026-05-03T06:48:52.005Z</time></trkpt><trkpt lat="45.0919179" lon="8.462293"><ele>110.6</ele><time>2026-05-03T06:48:53.006Z</time></trkpt><trkpt lat="45.0918333" lon="8.4623616"><ele>110.0</ele><time>2026-05-03T06:48:54.005Z</time></trkpt><trkpt lat="45.0917492" lon="8.4624312"><ele>110.0</ele><time>2026-05-03T06:48:55.005Z</time></trkpt><trkpt lat="45.0916656" lon="8.4625018"><ele>110.0</ele><time>2026-05-03T06:48:56.006Z</time></trkpt><trkpt lat="45.0915833" lon="8.4625708"><ele>110.0</ele><time>2026-05-03T06:48:57.006Z</time></trkpt><trkpt lat="45.0914981" lon="8.462642"><ele>110.0</ele><time>2026-05-03T06:48:58.005Z</time></trkpt><trkpt lat="45.0914154" lon="8.462715"><ele>110.0</ele><time>2026-05-03T06:48:59.005Z</time></trkpt><trkpt lat="45.091331" lon="8.4627911"><ele>110.2</ele><time>2026-05-03T06:49:00.006Z</time></trkpt><trkpt lat="45.0912462" lon="8.4628705"><ele>110.4</ele><time>2026-05-03T06:49:01.006Z</time></trkpt><trkpt lat="45.0911607" lon="8.4629457"><ele>110.6</ele><time>2026-05-03T06:49:02.005Z</time></trkpt><trkpt lat="45.0910727" lon="8.4630165"><ele>110.8</ele><time>2026-05-03T06:49:03.005Z</time></trkpt><trkpt lat="45.0909832" lon="8.4630812"><ele>111.0</ele><time>2026-05-03T06:49:04.005Z</time></trkpt><trkpt lat="45.0908957" lon="8.4631431"><ele>110.8</ele><time>2026-05-03T06:49:05.005Z</time></trkpt><trkpt lat="45.0908081" lon="8.463212"><ele>110.6</ele><time>2026-05-03T06:49:06.006Z</time></trkpt><trkpt lat="45.0907219" lon="8.4632861"><ele>110.4</ele><time>2026-05-03T06:49:07.005Z</time></trkpt><trkpt lat="45.0906356" lon="8.4633611"><ele>110.2</ele><time>2026-05-03T06:49:08.005Z</time></trkpt><trkpt lat="45.0905509" lon="8.4634321"><ele>110.0</ele><time>2026-05-03T06:49:09.005Z</time></trkpt><trkpt lat="45.0904657" lon="8.4635011"><ele>110.0</ele><time>2026-05-03T06:49:10.005Z</time></trkpt><trkpt lat="45.0903781" lon="8.4635754"><ele>110.0</ele><time>2026-05-03T06:49:11.005Z</time></trkpt><trkpt lat="45.0902924" lon="8.4636504"><ele>110.0</ele><time>2026-05-03T06:49:12.005Z</time></trkpt><trkpt lat="45.0902117" lon="8.4637249"><ele>110.0</ele><time>2026-05-03T06:49:13.005Z</time></trkpt><trkpt lat="45.0901297" lon="8.4638021"><ele>110.0</ele><time>2026-05-03T06:49:14.005Z</time></trkpt><trkpt lat="45.0900494" lon="8.4638846"><ele>110.0</ele><time>2026-05-03T06:49:15.005Z</time></trkpt><trkpt lat="45.0899697" lon="8.4639684"><ele>110.0</ele><time>2026-05-03T06:49:16.006Z</time></trkpt><trkpt lat="45.0898923" lon="8.4640519"><ele>110.0</ele><time>2026-05-03T06:49:17.005Z</time></trkpt><trkpt lat="45.0898144" lon="8.464143"><ele>110.0</ele><time>2026-05-03T06:49:18.005Z</time></trkpt><trkpt lat="45.0897415" lon="8.4642402"><ele>110.0</ele><time>2026-05-03T06:49:19.005Z</time></trkpt><trkpt lat="45.0896712" lon="8.4643421"><ele>110.0</ele><time>2026-05-03T06:49:20.006Z</time></trkpt><trkpt lat="45.0895987" lon="8.4644385"><ele>110.0</ele><time>2026-05-03T06:49:21.006Z</time></trkpt><trkpt lat="45.0895295" lon="8.4645373"><ele>110.0</ele><time>2026-05-03T06:49:22.007Z</time></trkpt><trkpt lat="45.0894637" lon="8.4646389"><ele>110.0</ele><time>2026-05-03T06:49:23.006Z</time></trkpt><trkpt lat="45.0893955" lon="8.4647359"><ele>110.0</ele><time>2026-05-03T06:49:24.006Z</time></trkpt><trkpt lat="45.0893277" lon="8.464833"><ele>110.0</ele><time>2026-05-03T06:49:25.006Z</time></trkpt><trkpt lat="45.0892586" lon="8.4649304"><ele>110.0</ele><time>2026-05-03T06:49:26.007Z</time></trkpt><trkpt lat="45.0891902" lon="8.4650275"><ele>110.0</ele><time>2026-05-03T06:49:27.006Z</time></trkpt><trkpt lat="45.0891226" lon="8.4651254"><ele>110.0</ele><time>2026-05-03T06:49:28.007Z</time></trkpt><trkpt lat="45.0890558" lon="8.465228"><ele>110.0</ele><time>2026-05-03T06:49:29.006Z</time></trkpt><trkpt lat="45.0889909" lon="8.4653274"><ele>110.2</ele><time>2026-05-03T06:49:30.007Z</time></trkpt><trkpt lat="45.0889258" lon="8.4654265"><ele>110.4</ele><time>2026-05-03T06:49:31.007Z</time></trkpt><trkpt lat="45.0888613" lon="8.4655257"><ele>110.6</ele><time>2026-05-03T06:49:32.006Z</time></trkpt><trkpt lat="45.0887944" lon="8.4656237"><ele>110.8</ele><time>2026-05-03T06:49:33.006Z</time></trkpt><trkpt lat="45.0887273" lon="8.465722"><ele>111.0</ele><time>2026-05-03T06:49:34.006Z</time></trkpt><trkpt lat="45.0886606" lon="8.4658167"><ele>111.0</ele><time>2026-05-03T06:49:35.006Z</time></trkpt><trkpt lat="45.0885942" lon="8.4659095"><ele>111.0</ele><time>2026-05-03T06:49:36.006Z</time></trkpt><trkpt lat="45.0885286" lon="8.466004"><ele>111.0</ele><time>2026-05-03T06:49:37.007Z</time></trkpt><trkpt lat="45.0884623" lon="8.4660989"><ele>111.0</ele><time>2026-05-03T06:49:38.006Z</time></trkpt><trkpt lat="45.0883951" lon="8.4661957"><ele>111.0</ele><time>2026-05-03T06:49:39.006Z</time></trkpt><trkpt lat="45.0883293" lon="8.4662925"><ele>110.8</ele><time>2026-05-03T06:49:40.006Z</time></trkpt><trkpt lat="45.0882633" lon="8.4663892"><ele>110.6</ele><time>2026-05-03T06:49:41.006Z</time></trkpt><trkpt lat="45.0881968" lon="8.4664854"><ele>110.4</ele><time>2026-05-03T06:49:42.006Z</time></trkpt><trkpt lat="45.0881306" lon="8.4665824"><ele>110.2</ele><time>2026-05-03T06:49:43.006Z</time></trkpt><trkpt lat="45.088065" lon="8.4666787"><ele>110.0</ele><time>2026-05-03T06:49:44.006Z</time></trkpt><trkpt lat="45.0880014" lon="8.4667751"><ele>110.4</ele><time>2026-05-03T06:49:45.006Z</time></trkpt><trkpt lat="45.0879366" lon="8.4668712"><ele>110.8</ele><time>2026-05-03T06:49:46.006Z</time></trkpt><trkpt lat="45.0878697" lon="8.4669681"><ele>111.19999999999999</ele><time>2026-05-03T06:49:47.007Z</time></trkpt><trkpt lat="45.087802" lon="8.4670643"><ele>111.6</ele><time>2026-05-03T06:49:48.006Z</time></trkpt><trkpt lat="45.0877337" lon="8.4671611"><ele>112.0</ele><time>2026-05-03T06:49:49.007Z</time></trkpt><trkpt lat="45.0876659" lon="8.4672581"><ele>112.0</ele><time>2026-05-03T06:49:50.006Z</time></trkpt><trkpt lat="45.0875992" lon="8.4673537"><ele>111.99999999999999</ele><time>2026-05-03T06:49:51.007Z</time></trkpt><trkpt lat="45.0875326" lon="8.4674483"><ele>111.99999999999999</ele><time>2026-05-03T06:49:52.006Z</time></trkpt><trkpt lat="45.0874663" lon="8.4675409"><ele>112.0</ele><time>2026-05-03T06:49:53.006Z</time></trkpt><trkpt lat="45.0873993" lon="8.4676345"><ele>112.0</ele><time>2026-05-03T06:49:54.007Z</time></trkpt><trkpt lat="45.0873312" lon="8.4677293"><ele>112.19999999999999</ele><time>2026-05-03T06:49:55.007Z</time></trkpt><trkpt lat="45.0872638" lon="8.4678261"><ele>112.39999999999999</ele><time>2026-05-03T06:49:56.006Z</time></trkpt><trkpt lat="45.0871948" lon="8.4679234"><ele>112.60000000000001</ele><time>2026-05-03T06:49:57.007Z</time></trkpt><trkpt lat="45.0871272" lon="8.4680219"><ele>112.80000000000001</ele><time>2026-05-03T06:49:58.007Z</time></trkpt><trkpt lat="45.0870628" lon="8.4681206"><ele>113.0</ele><time>2026-05-03T06:49:59.006Z</time></trkpt><trkpt lat="45.0869963" lon="8.4682212"><ele>112.99999999999999</ele><time>2026-05-03T06:50:00.007Z</time></trkpt><trkpt lat="45.0869325" lon="8.4683213"><ele>113.0</ele><time>2026-05-03T06:50:01.007Z</time></trkpt><trkpt lat="45.086872" lon="8.4684202"><ele>113.0</ele><time>2026-05-03T06:50:02.007Z</time></trkpt><trkpt lat="45.0868177" lon="8.468516"><ele>113.0</ele><time>2026-05-03T06:50:03.008Z</time></trkpt><trkpt lat="45.0867727" lon="8.4686077"><ele>112.99999999999999</ele><time>2026-05-03T06:50:04.007Z</time></trkpt><trkpt lat="45.0867269" lon="8.4686959"><ele>113.0</ele><time>2026-05-03T06:50:05.007Z</time></trkpt><trkpt lat="45.0866777" lon="8.468783"><ele>112.99999999999999</ele><time>2026-05-03T06:50:06.008Z</time></trkpt><trkpt lat="45.0866171" lon="8.4688494"><ele>113.0</ele><time>2026-05-03T06:50:07.009Z</time></trkpt><trkpt lat="45.0865448" lon="8.4688943"><ele>113.0</ele><time>2026-05-03T06:50:08.008Z</time></trkpt><trkpt lat="45.0864692" lon="8.468946"><ele>113.0</ele><time>2026-05-03T06:50:09.007Z</time></trkpt><trkpt lat="45.0864106" lon="8.4690224"><ele>112.99999999999999</ele><time>2026-05-03T06:50:10.007Z</time></trkpt><trkpt lat="45.0863664" lon="8.4691197"><ele>113.0</ele><time>2026-05-03T06:50:11.008Z</time></trkpt><trkpt lat="45.0863291" lon="8.4692327"><ele>112.99999999999999</ele><time>2026-05-03T06:50:12.007Z</time></trkpt><trkpt lat="45.0862831" lon="8.4693379"><ele>113.0</ele><time>2026-05-03T06:50:13.008Z</time></trkpt><trkpt lat="45.0862186" lon="8.4694187"><ele>113.0</ele><time>2026-05-03T06:50:14.007Z</time></trkpt><trkpt lat="45.0861473" lon="8.4694947"><ele>113.0</ele><time>2026-05-03T06:50:15.008Z</time></trkpt><trkpt lat="45.0860747" lon="8.4695713"><ele>112.99999999999999</ele><time>2026-05-03T06:50:16.008Z</time></trkpt><trkpt lat="45.0860067" lon="8.4696541"><ele>113.0</ele><time>2026-05-03T06:50:17.007Z</time></trkpt><trkpt lat="45.0859409" lon="8.4697443"><ele>113.0</ele><time>2026-05-03T06:50:18.007Z</time></trkpt><trkpt lat="45.0858756" lon="8.4698371"><ele>113.00000000000001</ele><time>2026-05-03T06:50:19.008Z</time></trkpt><trkpt lat="45.085809" lon="8.4699304"><ele>113.00000000000001</ele><time>2026-05-03T06:50:20.008Z</time></trkpt><trkpt lat="45.0857405" lon="8.4700214"><ele>113.0</ele><time>2026-05-03T06:50:21.007Z</time></trkpt><trkpt lat="45.0856706" lon="8.4701118"><ele>113.0</ele><time>2026-05-03T06:50:22.007Z</time></trkpt><trkpt lat="45.0856018" lon="8.4702093"><ele>113.0</ele><time>2026-05-03T06:50:23.007Z</time></trkpt><trkpt lat="45.0855353" lon="8.4703078"><ele>113.00000000000001</ele><time>2026-05-03T06:50:24.007Z</time></trkpt><trkpt lat="45.0854694" lon="8.4704127"><ele>113.00000000000001</ele><time>2026-05-03T06:50:25.007Z</time></trkpt><trkpt lat="45.0854045" lon="8.4705163"><ele>113.0</ele><time>2026-05-03T06:50:26.008Z</time></trkpt><trkpt lat="45.0853398" lon="8.4706215"><ele>113.0</ele><time>2026-05-03T06:50:27.007Z</time></trkpt><trkpt lat="45.0852737" lon="8.4707215"><ele>113.2</ele><time>2026-05-03T06:50:28.008Z</time></trkpt><trkpt lat="45.0852062" lon="8.4708214"><ele>113.4</ele><time>2026-05-03T06:50:29.008Z</time></trkpt><trkpt lat="45.0851391" lon="8.4709215"><ele>113.60000000000001</ele><time>2026-05-03T06:50:30.007Z</time></trkpt><trkpt lat="45.0850724" lon="8.4710189"><ele>113.80000000000001</ele><time>2026-05-03T06:50:31.007Z</time></trkpt><trkpt lat="45.0850076" lon="8.4711133"><ele>114.0</ele><time>2026-05-03T06:50:32.008Z</time></trkpt><trkpt lat="45.0849438" lon="8.4712085"><ele>114.0</ele><time>2026-05-03T06:50:33.007Z</time></trkpt><trkpt lat="45.0848791" lon="8.4713039"><ele>114.0</ele><time>2026-05-03T06:50:34.007Z</time></trkpt><trkpt lat="45.0848146" lon="8.4714017"><ele>114.0</ele><time>2026-05-03T06:50:35.007Z</time></trkpt><trkpt lat="45.0847501" lon="8.4714982"><ele>114.0</ele><time>2026-05-03T06:50:36.007Z</time></trkpt><trkpt lat="45.0846859" lon="8.4715933"><ele>114.0</ele><time>2026-05-03T06:50:37.007Z</time></trkpt><trkpt lat="45.0846204" lon="8.4716897"><ele>114.0</ele><time>2026-05-03T06:50:38.008Z</time></trkpt><trkpt lat="45.0845515" lon="8.4717819"><ele>114.0</ele><time>2026-05-03T06:50:39.008Z</time></trkpt><trkpt lat="45.0844818" lon="8.4718729"><ele>114.0</ele><time>2026-05-03T06:50:40.008Z</time></trkpt><trkpt lat="45.0844125" lon="8.4719629"><ele>114.0</ele><time>2026-05-03T06:50:41.007Z</time></trkpt><trkpt lat="45.0843436" lon="8.4720554"><ele>114.0</ele><time>2026-05-03T06:50:42.008Z</time></trkpt><trkpt lat="45.0842774" lon="8.4721525"><ele>114.2</ele><time>2026-05-03T06:50:43.008Z</time></trkpt><trkpt lat="45.0842123" lon="8.4722503"><ele>114.4</ele><time>2026-05-03T06:50:44.008Z</time></trkpt><trkpt lat="45.0841464" lon="8.4723493"><ele>114.6</ele><time>2026-05-03T06:50:45.009Z</time></trkpt><trkpt lat="45.0840798" lon="8.4724464"><ele>114.8</ele><time>2026-05-03T06:50:46.009Z</time></trkpt><trkpt lat="45.0840131" lon="8.4725432"><ele>115.0</ele><time>2026-05-03T06:50:47.008Z</time></trkpt><trkpt lat="45.0839462" lon="8.4726408"><ele>115.0</ele><time>2026-05-03T06:50:48.008Z</time></trkpt><trkpt lat="45.0838788" lon="8.472739"><ele>115.0</ele><time>2026-05-03T06:50:49.008Z</time></trkpt><trkpt lat="45.0838092" lon="8.4728382"><ele>115.0</ele><time>2026-05-03T06:50:50.009Z</time></trkpt><trkpt lat="45.0837401" lon="8.4729389"><ele>115.0</ele><time>2026-05-03T06:50:51.008Z</time></trkpt><trkpt lat="45.0836726" lon="8.4730415"><ele>115.0</ele><time>2026-05-03T06:50:52.009Z</time></trkpt><trkpt lat="45.0836068" lon="8.4731471"><ele>114.4</ele><time>2026-05-03T06:50:53.008Z</time></trkpt><trkpt lat="45.0835417" lon="8.4732512"><ele>113.8</ele><time>2026-05-03T06:50:54.008Z</time></trkpt><trkpt lat="45.0834749" lon="8.4733494"><ele>113.19999999999999</ele><time>2026-05-03T06:50:55.008Z</time></trkpt><trkpt lat="45.0834053" lon="8.4734423"><ele>112.6</ele><time>2026-05-03T06:50:56.008Z</time></trkpt><trkpt lat="45.083335" lon="8.4735353"><ele>112.0</ele><time>2026-05-03T06:50:57.008Z</time></trkpt><trkpt lat="45.0832665" lon="8.4736328"><ele>112.19999999999999</ele><time>2026-05-03T06:50:58.008Z</time></trkpt><trkpt lat="45.0831985" lon="8.4737328"><ele>112.39999999999999</ele><time>2026-05-03T06:50:59.008Z</time></trkpt><trkpt lat="45.0831304" lon="8.4738331"><ele>112.60000000000001</ele><time>2026-05-03T06:51:00.008Z</time></trkpt><trkpt lat="45.0830611" lon="8.4739336"><ele>112.80000000000001</ele><time>2026-05-03T06:51:01.008Z</time></trkpt><trkpt lat="45.0829931" lon="8.4740359"><ele>113.0</ele><time>2026-05-03T06:51:02.008Z</time></trkpt><trkpt lat="45.082925" lon="8.4741376"><ele>113.0</ele><time>2026-05-03T06:51:03.008Z</time></trkpt><trkpt lat="45.082856" lon="8.4742366"><ele>113.00000000000001</ele><time>2026-05-03T06:51:04.008Z</time></trkpt><trkpt lat="45.0827869" lon="8.4743332"><ele>113.00000000000001</ele><time>2026-05-03T06:51:05.009Z</time></trkpt><trkpt lat="45.0827182" lon="8.474431"><ele>113.0</ele><time>2026-05-03T06:51:06.008Z</time></trkpt><trkpt lat="45.0826496" lon="8.4745299"><ele>113.0</ele><time>2026-05-03T06:51:07.009Z</time></trkpt><trkpt lat="45.0825802" lon="8.474629"><ele>113.0</ele><time>2026-05-03T06:51:08.009Z</time></trkpt><trkpt lat="45.0825106" lon="8.4747277"><ele>113.00000000000001</ele><time>2026-05-03T06:51:09.009Z</time></trkpt><trkpt lat="45.0824405" lon="8.4748261"><ele>113.00000000000001</ele><time>2026-05-03T06:51:10.008Z</time></trkpt><trkpt lat="45.0823716" lon="8.4749261"><ele>113.0</ele><time>2026-05-03T06:51:11.008Z</time></trkpt><trkpt lat="45.0823032" lon="8.4750259"><ele>113.0</ele><time>2026-05-03T06:51:12.008Z</time></trkpt><trkpt lat="45.0822344" lon="8.4751258"><ele>113.0</ele><time>2026-05-03T06:51:13.008Z</time></trkpt><trkpt lat="45.0821648" lon="8.4752242"><ele>113.00000000000001</ele><time>2026-05-03T06:51:14.008Z</time></trkpt><trkpt lat="45.0820951" lon="8.4753238"><ele>113.00000000000001</ele><time>2026-05-03T06:51:15.008Z</time></trkpt><trkpt lat="45.0820259" lon="8.4754227"><ele>113.0</ele><time>2026-05-03T06:51:16.008Z</time></trkpt><trkpt lat="45.0819574" lon="8.4755223"><ele>113.0</ele><time>2026-05-03T06:51:17.008Z</time></trkpt><trkpt lat="45.0818879" lon="8.4756225"><ele>113.0</ele><time>2026-05-03T06:51:18.009Z</time></trkpt><trkpt lat="45.0818182" lon="8.475723"><ele>113.00000000000001</ele><time>2026-05-03T06:51:19.008Z</time></trkpt><trkpt lat="45.0817489" lon="8.4758236"><ele>113.00000000000001</ele><time>2026-05-03T06:51:20.008Z</time></trkpt><trkpt lat="45.0816801" lon="8.4759238"><ele>113.0</ele><time>2026-05-03T06:51:21.009Z</time></trkpt><trkpt lat="45.0816125" lon="8.4760231"><ele>113.0</ele><time>2026-05-03T06:51:22.008Z</time></trkpt><trkpt lat="45.0815459" lon="8.4761217"><ele>113.2</ele><time>2026-05-03T06:51:23.009Z</time></trkpt><trkpt lat="45.0814783" lon="8.4762198"><ele>113.4</ele><time>2026-05-03T06:51:24.009Z</time></trkpt><trkpt lat="45.0814107" lon="8.4763173"><ele>113.60000000000001</ele><time>2026-05-03T06:51:25.01Z</time></trkpt><trkpt lat="45.0813423" lon="8.4764157"><ele>113.80000000000001</ele><time>2026-05-03T06:51:26.009Z</time></trkpt><trkpt lat="45.0812742" lon="8.4765138"><ele>114.0</ele><time>2026-05-03T06:51:27.009Z</time></trkpt><trkpt lat="45.0812058" lon="8.4766133"><ele>113.6</ele><time>2026-05-03T06:51:28.009Z</time></trkpt><trkpt lat="45.0811364" lon="8.4767143"><ele>113.2</ele><time>2026-05-03T06:51:29.01Z</time></trkpt><trkpt lat="45.0810657" lon="8.4768144"><ele>112.79999999999998</ele><time>2026-05-03T06:51:30.009Z</time></trkpt><trkpt lat="45.0809954" lon="8.4769148"><ele>112.39999999999999</ele><time>2026-05-03T06:51:31.009Z</time></trkpt><trkpt lat="45.0809254" lon="8.477015"><ele>112.0</ele><time>2026-05-03T06:51:32.009Z</time></trkpt><trkpt lat="45.0808559" lon="8.4771142"><ele>111.8</ele><time>2026-05-03T06:51:33.01Z</time></trkpt><trkpt lat="45.0807858" lon="8.4772135"><ele>111.6</ele><time>2026-05-03T06:51:34.009Z</time></trkpt><trkpt lat="45.0807158" lon="8.4773143"><ele>111.39999999999999</ele><time>2026-05-03T06:51:35.01Z</time></trkpt><trkpt lat="45.0806472" lon="8.4774151"><ele>111.19999999999999</ele><time>2026-05-03T06:51:36.009Z</time></trkpt><trkpt lat="45.0805781" lon="8.4775162"><ele>111.0</ele><time>2026-05-03T06:51:37.01Z</time></trkpt><trkpt lat="45.0805091" lon="8.4776165"><ele>111.0</ele><time>2026-05-03T06:51:38.01Z</time></trkpt><trkpt lat="45.0804395" lon="8.4777168"><ele>111.0</ele><time>2026-05-03T06:51:39.009Z</time></trkpt><trkpt lat="45.0803698" lon="8.4778178"><ele>111.0</ele><time>2026-05-03T06:51:40.009Z</time></trkpt><trkpt lat="45.0803021" lon="8.4779189"><ele>111.0</ele><time>2026-05-03T06:51:41.01Z</time></trkpt><trkpt lat="45.0802338" lon="8.4780196"><ele>111.0</ele><time>2026-05-03T06:51:42.009Z</time></trkpt><trkpt lat="45.0801639" lon="8.4781191"><ele>111.0</ele><time>2026-05-03T06:51:43.009Z</time></trkpt><trkpt lat="45.0800943" lon="8.4782173"><ele>111.0</ele><time>2026-05-03T06:51:44.01Z</time></trkpt><trkpt lat="45.0800243" lon="8.4783158"><ele>111.0</ele><time>2026-05-03T06:51:45.01Z</time></trkpt><trkpt lat="45.0799541" lon="8.4784158"><ele>111.0</ele><time>2026-05-03T06:51:46.01Z</time></trkpt><trkpt lat="45.0798849" lon="8.4785176"><ele>111.0</ele><time>2026-05-03T06:51:47.01Z</time></trkpt><trkpt lat="45.0798173" lon="8.4786194"><ele>111.0</ele><time>2026-05-03T06:51:48.009Z</time></trkpt><trkpt lat="45.0797493" lon="8.4787201"><ele>111.0</ele><time>2026-05-03T06:51:49.009Z</time></trkpt><trkpt lat="45.0796807" lon="8.4788196"><ele>111.0</ele><time>2026-05-03T06:51:50.009Z</time></trkpt><trkpt lat="45.0796115" lon="8.4789201"><ele>111.0</ele><time>2026-05-03T06:51:51.009Z</time></trkpt><trkpt lat="45.0795414" lon="8.4790199"><ele>111.0</ele><time>2026-05-03T06:51:52.009Z</time></trkpt><trkpt lat="45.0794714" lon="8.47912"><ele>111.0</ele><time>2026-05-03T06:51:53.009Z</time></trkpt><trkpt lat="45.0794014" lon="8.4792212"><ele>111.0</ele><time>2026-05-03T06:51:54.009Z</time></trkpt><trkpt lat="45.0793312" lon="8.4793232"><ele>111.0</ele><time>2026-05-03T06:51:55.009Z</time></trkpt><trkpt lat="45.0792614" lon="8.4794254"><ele>111.0</ele><time>2026-05-03T06:51:56.01Z</time></trkpt><trkpt lat="45.0791909" lon="8.4795236"><ele>111.0</ele><time>2026-05-03T06:51:57.01Z</time></trkpt><trkpt lat="45.0791219" lon="8.4796196"><ele>110.8</ele><time>2026-05-03T06:51:58.01Z</time></trkpt><trkpt lat="45.0790524" lon="8.4797157"><ele>110.6</ele><time>2026-05-03T06:51:59.009Z</time></trkpt><trkpt lat="45.0789865" lon="8.4798149"><ele>110.4</ele><time>2026-05-03T06:52:00.009Z</time></trkpt><trkpt lat="45.0789201" lon="8.4799121"><ele>110.2</ele><time>2026-05-03T06:52:01.009Z</time></trkpt><trkpt lat="45.0788499" lon="8.4800136"><ele>110.0</ele><time>2026-05-03T06:52:02.009Z</time></trkpt><trkpt lat="45.0787802" lon="8.4801135"><ele>110.0</ele><time>2026-05-03T06:52:03.009Z</time></trkpt><trkpt lat="45.0787093" lon="8.4802146"><ele>110.0</ele><time>2026-05-03T06:52:04.01Z</time></trkpt><trkpt lat="45.0786395" lon="8.4803142"><ele>110.0</ele><time>2026-05-03T06:52:05.011Z</time></trkpt><trkpt lat="45.0785713" lon="8.4804153"><ele>110.0</ele><time>2026-05-03T06:52:06.01Z</time></trkpt><trkpt lat="45.0785035" lon="8.4805151"><ele>110.0</ele><time>2026-05-03T06:52:07.011Z</time></trkpt><trkpt lat="45.0784364" lon="8.4806147"><ele>110.0</ele><time>2026-05-03T06:52:08.01Z</time></trkpt><trkpt lat="45.0783683" lon="8.480716"><ele>110.0</ele><time>2026-05-03T06:52:09.01Z</time></trkpt><trkpt lat="45.0783001" lon="8.4808159"><ele>110.0</ele><time>2026-05-03T06:52:10.01Z</time></trkpt><trkpt lat="45.0782304" lon="8.4809164"><ele>110.0</ele><time>2026-05-03T06:52:11.011Z</time></trkpt><trkpt lat="45.0781629" lon="8.4810141"><ele>110.0</ele><time>2026-05-03T06:52:12.01Z</time></trkpt><trkpt lat="45.078093" lon="8.4811122"><ele>110.0</ele><time>2026-05-03T06:52:13.01Z</time></trkpt><trkpt lat="45.0780239" lon="8.4812138"><ele>110.0</ele><time>2026-05-03T06:52:14.011Z</time></trkpt><trkpt lat="45.0779537" lon="8.4813145"><ele>110.0</ele><time>2026-05-03T06:52:15.01Z</time></trkpt><trkpt lat="45.0778832" lon="8.4814147"><ele>110.0</ele><time>2026-05-03T06:52:16.01Z</time></trkpt><trkpt lat="45.077812" lon="8.4815135"><ele>110.0</ele><time>2026-05-03T06:52:17.01Z</time></trkpt><trkpt lat="45.0777417" lon="8.4816124"><ele>110.6</ele><time>2026-05-03T06:52:18.01Z</time></trkpt><trkpt lat="45.0776719" lon="8.4817122"><ele>111.2</ele><time>2026-05-03T06:52:19.011Z</time></trkpt><trkpt lat="45.0776036" lon="8.481813"><ele>111.80000000000001</ele><time>2026-05-03T06:52:20.011Z</time></trkpt><trkpt lat="45.0775347" lon="8.4819131"><ele>112.4</ele><time>2026-05-03T06:52:21.01Z</time></trkpt><trkpt lat="45.0774658" lon="8.4820125"><ele>113.0</ele><time>2026-05-03T06:52:22.011Z</time></trkpt><trkpt lat="45.0773977" lon="8.4821123"><ele>111.4</ele><time>2026-05-03T06:52:23.011Z</time></trkpt><trkpt lat="45.0773305" lon="8.4822133"><ele>109.80000000000001</ele><time>2026-05-03T06:52:24.01Z</time></trkpt><trkpt lat="45.0772632" lon="8.4823144"><ele>108.2</ele><time>2026-05-03T06:52:25.011Z</time></trkpt><trkpt lat="45.0771937" lon="8.4824128"><ele>106.6</ele><time>2026-05-03T06:52:26.01Z</time></trkpt><trkpt lat="45.0771227" lon="8.4825094"><ele>105.0</ele><time>2026-05-03T06:52:27.01Z</time></trkpt><trkpt lat="45.0770537" lon="8.4826064"><ele>105.0</ele><time>2026-05-03T06:52:28.011Z</time></trkpt><trkpt lat="45.0769863" lon="8.4827052"><ele>105.0</ele><time>2026-05-03T06:52:29.011Z</time></trkpt><trkpt lat="45.0769192" lon="8.4828035"><ele>105.0</ele><time>2026-05-03T06:52:30.01Z</time></trkpt><trkpt lat="45.0768518" lon="8.482901"><ele>105.0</ele><time>2026-05-03T06:52:31.01Z</time></trkpt><trkpt lat="45.076783" lon="8.4829986"><ele>105.0</ele><time>2026-05-03T06:52:32.011Z</time></trkpt><trkpt lat="45.0767142" lon="8.4830963"><ele>104.8</ele><time>2026-05-03T06:52:33.01Z</time></trkpt><trkpt lat="45.0766456" lon="8.4831949"><ele>104.6</ele><time>2026-05-03T06:52:34.011Z</time></trkpt><trkpt lat="45.0765779" lon="8.483293"><ele>104.4</ele><time>2026-05-03T06:52:35.01Z</time></trkpt><trkpt lat="45.0765101" lon="8.4833909"><ele>104.2</ele><time>2026-05-03T06:52:36.011Z</time></trkpt><trkpt lat="45.076442" lon="8.4834901"><ele>104.0</ele><time>2026-05-03T06:52:37.011Z</time></trkpt><trkpt lat="45.0763738" lon="8.4835891"><ele>104.6</ele><time>2026-05-03T06:52:38.011Z</time></trkpt><trkpt lat="45.076305" lon="8.4836882"><ele>105.2</ele><time>2026-05-03T06:52:39.011Z</time></trkpt><trkpt lat="45.0762363" lon="8.4837874"><ele>105.79999999999998</ele><time>2026-05-03T06:52:40.01Z</time></trkpt><trkpt lat="45.0761677" lon="8.4838871"><ele>106.39999999999999</ele><time>2026-05-03T06:52:41.01Z</time></trkpt><trkpt lat="45.0761002" lon="8.4839862"><ele>107.0</ele><time>2026-05-03T06:52:42.01Z</time></trkpt><trkpt lat="45.0760316" lon="8.4840828"><ele>107.8</ele><time>2026-05-03T06:52:43.01Z</time></trkpt><trkpt lat="45.0759629" lon="8.4841782"><ele>108.6</ele><time>2026-05-03T06:52:44.01Z</time></trkpt><trkpt lat="45.0758946" lon="8.4842751"><ele>109.39999999999999</ele><time>2026-05-03T06:52:45.01Z</time></trkpt><trkpt lat="45.0758285" lon="8.484372"><ele>110.19999999999999</ele><time>2026-05-03T06:52:46.011Z</time></trkpt><trkpt lat="45.0757631" lon="8.484467"><ele>111.0</ele><time>2026-05-03T06:52:47.012Z</time></trkpt><trkpt lat="45.0756996" lon="8.4845604"><ele>111.19999999999999</ele><time>2026-05-03T06:52:48.011Z</time></trkpt><trkpt lat="45.0756351" lon="8.484654"><ele>111.39999999999999</ele><time>2026-05-03T06:52:49.011Z</time></trkpt><trkpt lat="45.075571" lon="8.4847525"><ele>111.6</ele><time>2026-05-03T06:52:50.011Z</time></trkpt><trkpt lat="45.0755077" lon="8.4848481"><ele>111.8</ele><time>2026-05-03T06:52:51.011Z</time></trkpt><trkpt lat="45.0754396" lon="8.4849412"><ele>112.0</ele><time>2026-05-03T06:52:52.011Z</time></trkpt><trkpt lat="45.0753723" lon="8.4850379"><ele>112.0</ele><time>2026-05-03T06:52:53.011Z</time></trkpt><trkpt lat="45.0753053" lon="8.4851348"><ele>111.99999999999999</ele><time>2026-05-03T06:52:54.012Z</time></trkpt><trkpt lat="45.0752387" lon="8.485236"><ele>111.99999999999999</ele><time>2026-05-03T06:52:55.011Z</time></trkpt><trkpt lat="45.0751744" lon="8.4853377"><ele>112.0</ele><time>2026-05-03T06:52:56.011Z</time></trkpt><trkpt lat="45.0751084" lon="8.4854373"><ele>112.0</ele><time>2026-05-03T06:52:57.012Z</time></trkpt><trkpt lat="45.075043" lon="8.4855362"><ele>111.8</ele><time>2026-05-03T06:52:58.012Z</time></trkpt><trkpt lat="45.0749735" lon="8.4856314"><ele>111.6</ele><time>2026-05-03T06:52:59.012Z</time></trkpt><trkpt lat="45.0749015" lon="8.4857265"><ele>111.39999999999999</ele><time>2026-05-03T06:53:00.011Z</time></trkpt><trkpt lat="45.0748302" lon="8.4858236"><ele>111.19999999999999</ele><time>2026-05-03T06:53:01.011Z</time></trkpt><trkpt lat="45.0747626" lon="8.4859209"><ele>111.0</ele><time>2026-05-03T06:53:02.011Z</time></trkpt><trkpt lat="45.074698" lon="8.4860175"><ele>111.19999999999999</ele><time>2026-05-03T06:53:03.011Z</time></trkpt><trkpt lat="45.0746297" lon="8.4861155"><ele>111.39999999999999</ele><time>2026-05-03T06:53:04.012Z</time></trkpt><trkpt lat="45.0745612" lon="8.4862135"><ele>111.6</ele><time>2026-05-03T06:53:05.012Z</time></trkpt><trkpt lat="45.0744919" lon="8.4863089"><ele>111.8</ele><time>2026-05-03T06:53:06.011Z</time></trkpt><trkpt lat="45.0744224" lon="8.4864031"><ele>112.0</ele><time>2026-05-03T06:53:07.011Z</time></trkpt><trkpt lat="45.0743542" lon="8.4865008"><ele>112.0</ele><time>2026-05-03T06:53:08.011Z</time></trkpt><trkpt lat="45.0742898" lon="8.4865975"><ele>111.99999999999999</ele><time>2026-05-03T06:53:09.011Z</time></trkpt><trkpt lat="45.0742215" lon="8.4866941"><ele>111.99999999999999</ele><time>2026-05-03T06:53:10.011Z</time></trkpt><trkpt lat="45.0741551" lon="8.4867865"><ele>112.0</ele><time>2026-05-03T06:53:11.011Z</time></trkpt><trkpt lat="45.0740857" lon="8.4868788"><ele>112.0</ele><time>2026-05-03T06:53:12.011Z</time></trkpt><trkpt lat="45.0740147" lon="8.4869772"><ele>112.0</ele><time>2026-05-03T06:53:13.011Z</time></trkpt><trkpt lat="45.0739458" lon="8.4870799"><ele>111.99999999999999</ele><time>2026-05-03T06:53:14.012Z</time></trkpt><trkpt lat="45.0738782" lon="8.487186"><ele>111.99999999999999</ele><time>2026-05-03T06:53:15.012Z</time></trkpt><trkpt lat="45.0738122" lon="8.487289"><ele>112.0</ele><time>2026-05-03T06:53:16.011Z</time></trkpt><trkpt lat="45.0737451" lon="8.4873901"><ele>112.0</ele><time>2026-05-03T06:53:17.011Z</time></trkpt><trkpt lat="45.073679" lon="8.4874885"><ele>112.19999999999999</ele><time>2026-05-03T06:53:18.012Z</time></trkpt><trkpt lat="45.0736131" lon="8.4875841"><ele>112.39999999999999</ele><time>2026-05-03T06:53:19.011Z</time></trkpt><trkpt lat="45.0735466" lon="8.4876794"><ele>112.60000000000001</ele><time>2026-05-03T06:53:20.011Z</time></trkpt><trkpt lat="45.0734801" lon="8.4877769"><ele>112.80000000000001</ele><time>2026-05-03T06:53:21.012Z</time></trkpt><trkpt lat="45.0734128" lon="8.487873"><ele>113.0</ele><time>2026-05-03T06:53:22.011Z</time></trkpt><trkpt lat="45.0733432" lon="8.4879684"><ele>113.2</ele><time>2026-05-03T06:53:23.012Z</time></trkpt><trkpt lat="45.0732743" lon="8.4880623"><ele>113.4</ele><time>2026-05-03T06:53:24.012Z</time></trkpt><trkpt lat="45.0732067" lon="8.4881555"><ele>113.60000000000001</ele><time>2026-05-03T06:53:25.011Z</time></trkpt><trkpt lat="45.0731394" lon="8.4882491"><ele>113.80000000000001</ele><time>2026-05-03T06:53:26.011Z</time></trkpt><trkpt lat="45.0730749" lon="8.4883469"><ele>114.0</ele><time>2026-05-03T06:53:27.012Z</time></trkpt><trkpt lat="45.0730081" lon="8.4884434"><ele>114.0</ele><time>2026-05-03T06:53:28.013Z</time></trkpt><trkpt lat="45.0729408" lon="8.4885394"><ele>114.0</ele><time>2026-05-03T06:53:29.012Z</time></trkpt><trkpt lat="45.072874" lon="8.4886362"><ele>114.0</ele><time>2026-05-03T06:53:30.012Z</time></trkpt><trkpt lat="45.0728069" lon="8.4887366"><ele>114.0</ele><time>2026-05-03T06:53:31.012Z</time></trkpt><trkpt lat="45.0727401" lon="8.4888343"><ele>114.0</ele><time>2026-05-03T06:53:32.012Z</time></trkpt><trkpt lat="45.0726716" lon="8.4889321"><ele>114.0</ele><time>2026-05-03T06:53:33.012Z</time></trkpt><trkpt lat="45.0726026" lon="8.4890315"><ele>114.0</ele><time>2026-05-03T06:53:34.013Z</time></trkpt><trkpt lat="45.0725333" lon="8.4891302"><ele>114.0</ele><time>2026-05-03T06:53:35.013Z</time></trkpt><trkpt lat="45.0724644" lon="8.4892291"><ele>114.0</ele><time>2026-05-03T06:53:36.013Z</time></trkpt><trkpt lat="45.0723951" lon="8.4893269"><ele>114.0</ele><time>2026-05-03T06:53:37.013Z</time></trkpt><trkpt lat="45.0723247" lon="8.4894239"><ele>114.0</ele><time>2026-05-03T06:53:38.012Z</time></trkpt><trkpt lat="45.0722539" lon="8.4895196"><ele>114.0</ele><time>2026-05-03T06:53:39.012Z</time></trkpt><trkpt lat="45.0721849" lon="8.489619"><ele>114.0</ele><time>2026-05-03T06:53:40.012Z</time></trkpt><trkpt lat="45.0721162" lon="8.4897185"><ele>114.0</ele><time>2026-05-03T06:53:41.012Z</time></trkpt><trkpt lat="45.0720498" lon="8.4898167"><ele>114.0</ele><time>2026-05-03T06:53:42.012Z</time></trkpt><trkpt lat="45.0719826" lon="8.4899159"><ele>113.80000000000001</ele><time>2026-05-03T06:53:43.012Z</time></trkpt><trkpt lat="45.0719148" lon="8.4900189"><ele>113.60000000000001</ele><time>2026-05-03T06:53:44.012Z</time></trkpt><trkpt lat="45.0718501" lon="8.4901201"><ele>113.4</ele><time>2026-05-03T06:53:45.012Z</time></trkpt><trkpt lat="45.0717853" lon="8.4902203"><ele>113.2</ele><time>2026-05-03T06:53:46.013Z</time></trkpt><trkpt lat="45.0717195" lon="8.4903175"><ele>113.0</ele><time>2026-05-03T06:53:47.012Z</time></trkpt><trkpt lat="45.0716513" lon="8.490414"><ele>113.2</ele><time>2026-05-03T06:53:48.012Z</time></trkpt><trkpt lat="45.0715811" lon="8.4905114"><ele>113.4</ele><time>2026-05-03T06:53:49.012Z</time></trkpt><trkpt lat="45.0715116" lon="8.4906098"><ele>113.60000000000001</ele><time>2026-05-03T06:53:50.012Z</time></trkpt><trkpt lat="45.0714417" lon="8.4907091"><ele>113.80000000000001</ele><time>2026-05-03T06:53:51.012Z</time></trkpt><trkpt lat="45.0713734" lon="8.4908071"><ele>114.0</ele><time>2026-05-03T06:53:52.012Z</time></trkpt><trkpt lat="45.0713057" lon="8.4909052"><ele>114.0</ele><time>2026-05-03T06:53:53.013Z</time></trkpt><trkpt lat="45.0712367" lon="8.4910031"><ele>114.0</ele><time>2026-05-03T06:53:54.012Z</time></trkpt><trkpt lat="45.0711681" lon="8.4911023"><ele>114.0</ele><time>2026-05-03T06:53:55.012Z</time></trkpt><trkpt lat="45.0710997" lon="8.4912009"><ele>114.0</ele><time>2026-05-03T06:53:56.013Z</time></trkpt><trkpt lat="45.0710308" lon="8.4912993"><ele>114.0</ele><time>2026-05-03T06:53:57.013Z</time></trkpt><trkpt lat="45.0709626" lon="8.4913967"><ele>113.80000000000001</ele><time>2026-05-03T06:53:58.013Z</time></trkpt><trkpt lat="45.070895" lon="8.4914948"><ele>113.60000000000001</ele><time>2026-05-03T06:53:59.012Z</time></trkpt><trkpt lat="45.070828" lon="8.491591"><ele>113.4</ele><time>2026-05-03T06:54:00.012Z</time></trkpt><trkpt lat="45.0707603" lon="8.4916865"><ele>113.2</ele><time>2026-05-03T06:54:01.013Z</time></trkpt><trkpt lat="45.0706923" lon="8.4917825"><ele>113.0</ele><time>2026-05-03T06:54:02.012Z</time></trkpt><trkpt lat="45.0706257" lon="8.4918803"><ele>113.0</ele><time>2026-05-03T06:54:03.012Z</time></trkpt><trkpt lat="45.070559" lon="8.4919777"><ele>113.00000000000001</ele><time>2026-05-03T06:54:04.012Z</time></trkpt><trkpt lat="45.0704915" lon="8.492074"><ele>113.00000000000001</ele><time>2026-05-03T06:54:05.013Z</time></trkpt><trkpt lat="45.0704234" lon="8.4921719"><ele>113.0</ele><time>2026-05-03T06:54:06.012Z</time></trkpt><trkpt lat="45.0703553" lon="8.4922719"><ele>113.0</ele><time>2026-05-03T06:54:07.012Z</time></trkpt><trkpt lat="45.0702884" lon="8.4923757"><ele>112.80000000000001</ele><time>2026-05-03T06:54:08.013Z</time></trkpt><trkpt lat="45.0702213" lon="8.4924774"><ele>112.60000000000001</ele><time>2026-05-03T06:54:09.014Z</time></trkpt><trkpt lat="45.0701523" lon="8.4925788"><ele>112.39999999999999</ele><time>2026-05-03T06:54:10.014Z</time></trkpt><trkpt lat="45.0700833" lon="8.4926806"><ele>112.19999999999999</ele><time>2026-05-03T06:54:11.014Z</time></trkpt><trkpt lat="45.070014" lon="8.4927824"><ele>112.0</ele><time>2026-05-03T06:54:12.013Z</time></trkpt><trkpt lat="45.0699443" lon="8.4928833"><ele>112.0</ele><time>2026-05-03T06:54:13.013Z</time></trkpt><trkpt lat="45.0698728" lon="8.4929842"><ele>112.0</ele><time>2026-05-03T06:54:14.013Z</time></trkpt><trkpt lat="45.0698031" lon="8.4930852"><ele>112.0</ele><time>2026-05-03T06:54:15.014Z</time></trkpt><trkpt lat="45.0697347" lon="8.4931867"><ele>112.0</ele><time>2026-05-03T06:54:16.013Z</time></trkpt><trkpt lat="45.0695968" lon="8.493386"><ele>112.0</ele><time>2026-05-03T06:54:18.014Z</time></trkpt><trkpt lat="45.0695287" lon="8.4934837"><ele>111.99999999999999</ele><time>2026-05-03T06:54:19.013Z</time></trkpt><trkpt lat="45.0694612" lon="8.4935852"><ele>111.99999999999999</ele><time>2026-05-03T06:54:20.013Z</time></trkpt><trkpt lat="45.0693937" lon="8.4936862"><ele>112.0</ele><time>2026-05-03T06:54:21.014Z</time></trkpt><trkpt lat="45.0693244" lon="8.4937834"><ele>112.0</ele><time>2026-05-03T06:54:22.013Z</time></trkpt><trkpt lat="45.0692559" lon="8.4938795"><ele>112.0</ele><time>2026-05-03T06:54:23.013Z</time></trkpt><trkpt lat="45.0691882" lon="8.4939727"><ele>111.99999999999999</ele><time>2026-05-03T06:54:24.013Z</time></trkpt><trkpt lat="45.0691212" lon="8.4940691"><ele>111.99999999999999</ele><time>2026-05-03T06:54:25.013Z</time></trkpt><trkpt lat="45.0690532" lon="8.4941619"><ele>112.0</ele><time>2026-05-03T06:54:26.014Z</time></trkpt><trkpt lat="45.0689852" lon="8.4942547"><ele>112.0</ele><time>2026-05-03T06:54:27.014Z</time></trkpt><trkpt lat="45.0689174" lon="8.4943507"><ele>112.0</ele><time>2026-05-03T06:54:28.013Z</time></trkpt><trkpt lat="45.06885" lon="8.4944479"><ele>111.99999999999999</ele><time>2026-05-03T06:54:29.013Z</time></trkpt><trkpt lat="45.0687832" lon="8.4945459"><ele>111.99999999999999</ele><time>2026-05-03T06:54:30.013Z</time></trkpt><trkpt lat="45.068714" lon="8.4946407"><ele>112.0</ele><time>2026-05-03T06:54:31.013Z</time></trkpt><trkpt lat="45.0686456" lon="8.4947338"><ele>112.0</ele><time>2026-05-03T06:54:32.013Z</time></trkpt><trkpt lat="45.068577" lon="8.494825"><ele>112.0</ele><time>2026-05-03T06:54:33.013Z</time></trkpt><trkpt lat="45.0685064" lon="8.4949292"><ele>111.99999999999999</ele><time>2026-05-03T06:54:34.013Z</time></trkpt><trkpt lat="45.0684393" lon="8.4950322"><ele>111.99999999999999</ele><time>2026-05-03T06:54:35.013Z</time></trkpt><trkpt lat="45.0683713" lon="8.4951343"><ele>112.0</ele><time>2026-05-03T06:54:36.013Z</time></trkpt><trkpt lat="45.06831" lon="8.4952352"><ele>112.0</ele><time>2026-05-03T06:54:37.014Z</time></trkpt><trkpt lat="45.0682451" lon="8.4953313"><ele>111.8</ele><time>2026-05-03T06:54:38.013Z</time></trkpt><trkpt lat="45.0681721" lon="8.4954246"><ele>111.6</ele><time>2026-05-03T06:54:39.013Z</time></trkpt><trkpt lat="45.0681016" lon="8.4955225"><ele>111.39999999999999</ele><time>2026-05-03T06:54:40.014Z</time></trkpt><trkpt lat="45.0680367" lon="8.4956202"><ele>111.19999999999999</ele><time>2026-05-03T06:54:41.014Z</time></trkpt><trkpt lat="45.0679746" lon="8.4957192"><ele>111.0</ele><time>2026-05-03T06:54:42.014Z</time></trkpt><trkpt lat="45.0679125" lon="8.4958188"><ele>111.0</ele><time>2026-05-03T06:54:43.014Z</time></trkpt><trkpt lat="45.0678496" lon="8.495919"><ele>111.0</ele><time>2026-05-03T06:54:44.015Z</time></trkpt><trkpt lat="45.0677862" lon="8.4960213"><ele>111.0</ele><time>2026-05-03T06:54:45.014Z</time></trkpt><trkpt lat="45.0677231" lon="8.4961234"><ele>111.0</ele><time>2026-05-03T06:54:46.013Z</time></trkpt><trkpt lat="45.0676629" lon="8.4962229"><ele>111.0</ele><time>2026-05-03T06:54:47.014Z</time></trkpt><trkpt lat="45.0676037" lon="8.4963202"><ele>111.19999999999999</ele><time>2026-05-03T06:54:48.014Z</time></trkpt><trkpt lat="45.0675436" lon="8.4964191"><ele>111.39999999999999</ele><time>2026-05-03T06:54:49.015Z</time></trkpt><trkpt lat="45.0674831" lon="8.496517"><ele>111.6</ele><time>2026-05-03T06:54:50.015Z</time></trkpt><trkpt lat="45.0674236" lon="8.4966171"><ele>111.8</ele><time>2026-05-03T06:54:51.014Z</time></trkpt><trkpt lat="45.0673659" lon="8.496719"><ele>112.0</ele><time>2026-05-03T06:54:52.015Z</time></trkpt><trkpt lat="45.0673079" lon="8.4968188"><ele>112.19999999999999</ele><time>2026-05-03T06:54:53.014Z</time></trkpt><trkpt lat="45.0672491" lon="8.4969176"><ele>112.39999999999999</ele><time>2026-05-03T06:54:54.014Z</time></trkpt><trkpt lat="45.0671905" lon="8.4970154"><ele>112.60000000000001</ele><time>2026-05-03T06:54:55.015Z</time></trkpt><trkpt lat="45.0671332" lon="8.4971118"><ele>112.80000000000001</ele><time>2026-05-03T06:54:56.014Z</time></trkpt><trkpt lat="45.0670751" lon="8.4972104"><ele>113.0</ele><time>2026-05-03T06:54:57.014Z</time></trkpt><trkpt lat="45.0670164" lon="8.4973079"><ele>113.0</ele><time>2026-05-03T06:54:58.014Z</time></trkpt><trkpt lat="45.0669542" lon="8.4974051"><ele>113.00000000000001</ele><time>2026-05-03T06:54:59.014Z</time></trkpt><trkpt lat="45.0668918" lon="8.4975071"><ele>113.00000000000001</ele><time>2026-05-03T06:55:00.014Z</time></trkpt><trkpt lat="45.066829" lon="8.497615"><ele>113.0</ele><time>2026-05-03T06:55:01.014Z</time></trkpt><trkpt lat="45.0667667" lon="8.4977265"><ele>113.0</ele><time>2026-05-03T06:55:02.015Z</time></trkpt><trkpt lat="45.0667027" lon="8.4978406"><ele>112.60000000000001</ele><time>2026-05-03T06:55:03.015Z</time></trkpt><trkpt lat="45.0666403" lon="8.4979522"><ele>112.20000000000002</ele><time>2026-05-03T06:55:04.015Z</time></trkpt><trkpt lat="45.066577" lon="8.4980607"><ele>111.8</ele><time>2026-05-03T06:55:05.014Z</time></trkpt><trkpt lat="45.0665155" lon="8.4981685"><ele>111.4</ele><time>2026-05-03T06:55:06.014Z</time></trkpt><trkpt lat="45.0664558" lon="8.4982724"><ele>111.0</ele><time>2026-05-03T06:55:07.015Z</time></trkpt><trkpt lat="45.0663954" lon="8.4983795"><ele>111.0</ele><time>2026-05-03T06:55:08.014Z</time></trkpt><trkpt lat="45.0663346" lon="8.4984896"><ele>111.0</ele><time>2026-05-03T06:55:09.014Z</time></trkpt><trkpt lat="45.0662747" lon="8.4985978"><ele>111.0</ele><time>2026-05-03T06:55:10.015Z</time></trkpt><trkpt lat="45.0662161" lon="8.4987029"><ele>111.0</ele><time>2026-05-03T06:55:11.014Z</time></trkpt><trkpt lat="45.0661599" lon="8.4988067"><ele>111.0</ele><time>2026-05-03T06:55:12.015Z</time></trkpt><trkpt lat="45.0661028" lon="8.4989139"><ele>111.0</ele><time>2026-05-03T06:55:13.014Z</time></trkpt><trkpt lat="45.0660463" lon="8.4990202"><ele>111.0</ele><time>2026-05-03T06:55:14.014Z</time></trkpt><trkpt lat="45.0659884" lon="8.4991257"><ele>111.0</ele><time>2026-05-03T06:55:15.015Z</time></trkpt><trkpt lat="45.0659291" lon="8.49923"><ele>111.0</ele><time>2026-05-03T06:55:16.014Z</time></trkpt><trkpt lat="45.0658673" lon="8.4993341"><ele>111.0</ele><time>2026-05-03T06:55:17.014Z</time></trkpt><trkpt lat="45.0658045" lon="8.4994378"><ele>112.0</ele><time>2026-05-03T06:55:18.014Z</time></trkpt><trkpt lat="45.0657415" lon="8.4995432"><ele>113.0</ele><time>2026-05-03T06:55:19.014Z</time></trkpt><trkpt lat="45.0656788" lon="8.4996515"><ele>114.0</ele><time>2026-05-03T06:55:20.015Z</time></trkpt><trkpt lat="45.0656158" lon="8.4997594"><ele>115.0</ele><time>2026-05-03T06:55:21.014Z</time></trkpt><trkpt lat="45.0655524" lon="8.4998678"><ele>116.0</ele><time>2026-05-03T06:55:22.014Z</time></trkpt><trkpt lat="45.06549" lon="8.4999767"><ele>116.0</ele><time>2026-05-03T06:55:23.015Z</time></trkpt><trkpt lat="45.0654273" lon="8.5000848"><ele>116.0</ele><time>2026-05-03T06:55:24.015Z</time></trkpt><trkpt lat="45.0653659" lon="8.5001909"><ele>116.0</ele><time>2026-05-03T06:55:25.014Z</time></trkpt><trkpt lat="45.0653028" lon="8.5002956"><ele>116.0</ele><time>2026-05-03T06:55:26.014Z</time></trkpt><trkpt lat="45.0652387" lon="8.5004004"><ele>116.0</ele><time>2026-05-03T06:55:27.015Z</time></trkpt><trkpt lat="45.0651748" lon="8.5005045"><ele>115.8</ele><time>2026-05-03T06:55:28.014Z</time></trkpt><trkpt lat="45.0651108" lon="8.5006128"><ele>115.6</ele><time>2026-05-03T06:55:29.014Z</time></trkpt><trkpt lat="45.0650494" lon="8.5007221"><ele>115.4</ele><time>2026-05-03T06:55:30.015Z</time></trkpt><trkpt lat="45.0649873" lon="8.5008323"><ele>115.2</ele><time>2026-05-03T06:55:31.015Z</time></trkpt><trkpt lat="45.0649237" lon="8.5009404"><ele>115.0</ele><time>2026-05-03T06:55:32.015Z</time></trkpt><trkpt lat="45.0648579" lon="8.5010468"><ele>115.0</ele><time>2026-05-03T06:55:33.015Z</time></trkpt><trkpt lat="45.0647917" lon="8.5011536"><ele>115.0</ele><time>2026-05-03T06:55:34.015Z</time></trkpt><trkpt lat="45.0647277" lon="8.5012615"><ele>115.0</ele><time>2026-05-03T06:55:35.015Z</time></trkpt><trkpt lat="45.0646636" lon="8.50137"><ele>115.0</ele><time>2026-05-03T06:55:36.015Z</time></trkpt><trkpt lat="45.0646002" lon="8.5014799"><ele>115.0</ele><time>2026-05-03T06:55:37.015Z</time></trkpt><trkpt lat="45.0645373" lon="8.5015896"><ele>114.4</ele><time>2026-05-03T06:55:38.016Z</time></trkpt><trkpt lat="45.0644747" lon="8.501699"><ele>113.8</ele><time>2026-05-03T06:55:39.015Z</time></trkpt><trkpt lat="45.0644113" lon="8.5018086"><ele>113.19999999999999</ele><time>2026-05-03T06:55:40.016Z</time></trkpt><trkpt lat="45.0643475" lon="8.5019192"><ele>112.6</ele><time>2026-05-03T06:55:41.016Z</time></trkpt><trkpt lat="45.0642836" lon="8.5020319"><ele>112.0</ele><time>2026-05-03T06:55:42.015Z</time></trkpt><trkpt lat="45.0642189" lon="8.5021432"><ele>111.8</ele><time>2026-05-03T06:55:43.016Z</time></trkpt><trkpt lat="45.0641545" lon="8.5022532"><ele>111.6</ele><time>2026-05-03T06:55:44.015Z</time></trkpt><trkpt lat="45.0640898" lon="8.502366"><ele>111.39999999999999</ele><time>2026-05-03T06:55:45.016Z</time></trkpt><trkpt lat="45.0640277" lon="8.5024822"><ele>111.19999999999999</ele><time>2026-05-03T06:55:46.015Z</time></trkpt><trkpt lat="45.0639669" lon="8.5025986"><ele>111.0</ele><time>2026-05-03T06:55:47.016Z</time></trkpt><trkpt lat="45.0639034" lon="8.5027128"><ele>110.8</ele><time>2026-05-03T06:55:48.015Z</time></trkpt><trkpt lat="45.0638364" lon="8.5028229"><ele>110.6</ele><time>2026-05-03T06:55:49.015Z</time></trkpt><trkpt lat="45.0637696" lon="8.5029322"><ele>110.4</ele><time>2026-05-03T06:55:50.015Z</time></trkpt><trkpt lat="45.0637034" lon="8.5030419"><ele>110.2</ele><time>2026-05-03T06:55:51.015Z</time></trkpt><trkpt lat="45.0636392" lon="8.5031523"><ele>110.0</ele><time>2026-05-03T06:55:52.015Z</time></trkpt><trkpt lat="45.0635769" lon="8.503262"><ele>110.0</ele><time>2026-05-03T06:55:53.015Z</time></trkpt><trkpt lat="45.0635143" lon="8.5033709"><ele>110.0</ele><time>2026-05-03T06:55:54.015Z</time></trkpt><trkpt lat="45.0634493" lon="8.5034769"><ele>110.0</ele><time>2026-05-03T06:55:55.015Z</time></trkpt><trkpt lat="45.0633836" lon="8.5035836"><ele>110.0</ele><time>2026-05-03T06:55:56.016Z</time></trkpt><trkpt lat="45.0633206" lon="8.5036936"><ele>110.0</ele><time>2026-05-03T06:55:57.015Z</time></trkpt><trkpt lat="45.0632603" lon="8.5038045"><ele>110.0</ele><time>2026-05-03T06:55:58.015Z</time></trkpt><trkpt lat="45.0631993" lon="8.5039174"><ele>110.0</ele><time>2026-05-03T06:55:59.015Z</time></trkpt><trkpt lat="45.0631378" lon="8.5040245"><ele>110.0</ele><time>2026-05-03T06:56:00.015Z</time></trkpt><trkpt lat="45.0630743" lon="8.5041306"><ele>110.0</ele><time>2026-05-03T06:56:01.016Z</time></trkpt><trkpt lat="45.0630104" lon="8.5042367"><ele>110.0</ele><time>2026-05-03T06:56:02.015Z</time></trkpt><trkpt lat="45.0629488" lon="8.5043418"><ele>110.0</ele><time>2026-05-03T06:56:03.015Z</time></trkpt><trkpt lat="45.0628875" lon="8.5044476"><ele>110.0</ele><time>2026-05-03T06:56:04.015Z</time></trkpt><trkpt lat="45.0628275" lon="8.5045505"><ele>110.0</ele><time>2026-05-03T06:56:05.015Z</time></trkpt><trkpt lat="45.0627659" lon="8.5046465"><ele>110.0</ele><time>2026-05-03T06:56:06.015Z</time></trkpt><trkpt lat="45.062703" lon="8.5047331"><ele>110.0</ele><time>2026-05-03T06:56:07.015Z</time></trkpt><trkpt lat="45.0626396" lon="8.5048054"><ele>110.14285714285714</ele><time>2026-05-03T06:56:08.015Z</time></trkpt><trkpt lat="45.0625758" lon="8.5048603"><ele>110.28571428571428</ele><time>2026-05-03T06:56:09.017Z</time></trkpt><trkpt lat="45.0625131" lon="8.504895"><ele>110.42857142857142</ele><time>2026-05-03T06:56:10.015Z</time></trkpt><trkpt lat="45.062449" lon="8.5049073"><ele>110.57142857142857</ele><time>2026-05-03T06:56:11.016Z</time></trkpt><trkpt lat="45.0623822" lon="8.5049025"><ele>110.71428571428572</ele><time>2026-05-03T06:56:12.017Z</time></trkpt><trkpt lat="45.062302" lon="8.5049067"><ele>110.85714285714285</ele><time>2026-05-03T06:56:13.016Z</time></trkpt><trkpt lat="45.0622267" lon="8.5049345"><ele>111.0</ele><time>2026-05-03T06:56:14.016Z</time></trkpt><trkpt lat="45.0621568" lon="8.5049823"><ele>111.5</ele><time>2026-05-03T06:56:15.016Z</time></trkpt><trkpt lat="45.0620839" lon="8.5050228"><ele>112.0</ele><time>2026-05-03T06:56:16.016Z</time></trkpt><trkpt lat="45.0620034" lon="8.5050419"><ele>112.5</ele><time>2026-05-03T06:56:17.017Z</time></trkpt><trkpt lat="45.0619252" lon="8.5050182"><ele>113.0</ele><time>2026-05-03T06:56:18.017Z</time></trkpt><trkpt lat="45.0618479" lon="8.5049678"><ele>113.5</ele><time>2026-05-03T06:56:19.016Z</time></trkpt><trkpt lat="45.061766" lon="8.5049033"><ele>114.0</ele><time>2026-05-03T06:56:20.016Z</time></trkpt><trkpt lat="45.0616813" lon="8.5048287"><ele>114.0</ele><time>2026-05-03T06:56:21.016Z</time></trkpt><trkpt lat="45.0615953" lon="8.5047523"><ele>114.0</ele><time>2026-05-03T06:56:22.016Z</time></trkpt><trkpt lat="45.0615118" lon="8.5046913"><ele>114.0</ele><time>2026-05-03T06:56:23.016Z</time></trkpt><trkpt lat="45.0614288" lon="8.5046356"><ele>114.0</ele><time>2026-05-03T06:56:24.016Z</time></trkpt><trkpt lat="45.061345" lon="8.5045857"><ele>114.0</ele><time>2026-05-03T06:56:25.016Z</time></trkpt><trkpt lat="45.0612604" lon="8.5045348"><ele>114.0</ele><time>2026-05-03T06:56:26.017Z</time></trkpt><trkpt lat="45.061177" lon="8.5044874"><ele>114.0</ele><time>2026-05-03T06:56:27.016Z</time></trkpt><trkpt lat="45.0610932" lon="8.5044411"><ele>114.0</ele><time>2026-05-03T06:56:28.016Z</time></trkpt><trkpt lat="45.0610073" lon="8.504396"><ele>114.0</ele><time>2026-05-03T06:56:29.017Z</time></trkpt><trkpt lat="45.0609219" lon="8.5043572"><ele>114.0</ele><time>2026-05-03T06:56:30.016Z</time></trkpt><trkpt lat="45.0608432" lon="8.5043314"><ele>114.0</ele><time>2026-05-03T06:56:31.016Z</time></trkpt><trkpt lat="45.0607701" lon="8.5043329"><ele>114.0</ele><time>2026-05-03T06:56:32.016Z</time></trkpt><trkpt lat="45.0607027" lon="8.5043711"><ele>114.0</ele><time>2026-05-03T06:56:33.016Z</time></trkpt><trkpt lat="45.0606441" lon="8.5044362"><ele>114.0</ele><time>2026-05-03T06:56:34.016Z</time></trkpt><trkpt lat="45.0605905" lon="8.5045279"><ele>114.0</ele><time>2026-05-03T06:56:35.016Z</time></trkpt><trkpt lat="45.060548" lon="8.5046291"><ele>114.0</ele><time>2026-05-03T06:56:36.016Z</time></trkpt><trkpt lat="45.0605162" lon="8.5047313"><ele>114.0</ele><time>2026-05-03T06:56:37.016Z</time></trkpt><trkpt lat="45.0604803" lon="8.5048441"><ele>114.16666666666667</ele><time>2026-05-03T06:56:38.016Z</time></trkpt><trkpt lat="45.0604469" lon="8.5049515"><ele>114.33333333333334</ele><time>2026-05-03T06:56:39.017Z</time></trkpt><trkpt lat="45.0604167" lon="8.5050516"><ele>114.5</ele><time>2026-05-03T06:56:40.017Z</time></trkpt><trkpt lat="45.0603879" lon="8.5051545"><ele>114.66666666666667</ele><time>2026-05-03T06:56:41.016Z</time></trkpt><trkpt lat="45.0603605" lon="8.5052652"><ele>114.83333333333334</ele><time>2026-05-03T06:56:42.017Z</time></trkpt><trkpt lat="45.0603325" lon="8.5053749"><ele>115.0</ele><time>2026-05-03T06:56:43.017Z</time></trkpt><trkpt lat="45.060301" lon="8.5054874"><ele>115.2</ele><time>2026-05-03T06:56:44.016Z</time></trkpt><trkpt lat="45.060268" lon="8.5056026"><ele>115.4</ele><time>2026-05-03T06:56:45.017Z</time></trkpt><trkpt lat="45.0602331" lon="8.5057179"><ele>115.6</ele><time>2026-05-03T06:56:46.017Z</time></trkpt><trkpt lat="45.0601965" lon="8.5058401"><ele>115.8</ele><time>2026-05-03T06:56:47.016Z</time></trkpt><trkpt lat="45.0601608" lon="8.5059635"><ele>116.0</ele><time>2026-05-03T06:56:48.016Z</time></trkpt><trkpt lat="45.0601244" lon="8.5060856"><ele>116.0</ele><time>2026-05-03T06:56:49.016Z</time></trkpt><trkpt lat="45.0600892" lon="8.5062121"><ele>116.0</ele><time>2026-05-03T06:56:50.016Z</time></trkpt><trkpt lat="45.060056" lon="8.5063394"><ele>116.0</ele><time>2026-05-03T06:56:51.016Z</time></trkpt><trkpt lat="45.0600275" lon="8.5064616"><ele>116.0</ele><time>2026-05-03T06:56:52.017Z</time></trkpt><trkpt lat="45.0599989" lon="8.5065766"><ele>116.0</ele><time>2026-05-03T06:56:53.017Z</time></trkpt><trkpt lat="45.0599726" lon="8.5066922"><ele>115.49999999999999</ele><time>2026-05-03T06:56:54.017Z</time></trkpt><trkpt lat="45.0599426" lon="8.5068049"><ele>115.0</ele><time>2026-05-03T06:56:55.017Z</time></trkpt><trkpt lat="45.0599038" lon="8.5069139"><ele>114.5</ele><time>2026-05-03T06:56:56.018Z</time></trkpt><trkpt lat="45.0598657" lon="8.5070201"><ele>114.0</ele><time>2026-05-03T06:56:57.017Z</time></trkpt><trkpt lat="45.0598277" lon="8.5071311"><ele>113.49999999999999</ele><time>2026-05-03T06:56:58.018Z</time></trkpt><trkpt lat="45.0597917" lon="8.5072479"><ele>113.0</ele><time>2026-05-03T06:56:59.017Z</time></trkpt><trkpt lat="45.0597551" lon="8.5073656"><ele>112.80000000000001</ele><time>2026-05-03T06:57:00.017Z</time></trkpt><trkpt lat="45.0597195" lon="8.5074821"><ele>112.60000000000001</ele><time>2026-05-03T06:57:01.018Z</time></trkpt><trkpt lat="45.0596828" lon="8.5075968"><ele>112.39999999999999</ele><time>2026-05-03T06:57:02.017Z</time></trkpt><trkpt lat="45.0596512" lon="8.5077188"><ele>112.19999999999999</ele><time>2026-05-03T06:57:03.018Z</time></trkpt><trkpt lat="45.0596223" lon="8.5078458"><ele>112.0</ele><time>2026-05-03T06:57:04.018Z</time></trkpt><trkpt lat="45.0595895" lon="8.5079667"><ele>111.8</ele><time>2026-05-03T06:57:05.018Z</time></trkpt><trkpt lat="45.0595523" lon="8.5080886"><ele>111.6</ele><time>2026-05-03T06:57:06.017Z</time></trkpt><trkpt lat="45.0595116" lon="8.5082139"><ele>111.39999999999999</ele><time>2026-05-03T06:57:07.017Z</time></trkpt><trkpt lat="45.0594665" lon="8.508337"><ele>111.19999999999999</ele><time>2026-05-03T06:57:08.017Z</time></trkpt><trkpt lat="45.0594258" lon="8.5084648"><ele>111.0</ele><time>2026-05-03T06:57:09.017Z</time></trkpt><trkpt lat="45.0593868" lon="8.5085876"><ele>111.0</ele><time>2026-05-03T06:57:10.018Z</time></trkpt><trkpt lat="45.0593479" lon="8.5087065"><ele>111.0</ele><time>2026-05-03T06:57:11.017Z</time></trkpt><trkpt lat="45.0593097" lon="8.5088262"><ele>111.0</ele><time>2026-05-03T06:57:12.018Z</time></trkpt><trkpt lat="45.0592654" lon="8.5089473"><ele>111.0</ele><time>2026-05-03T06:57:13.018Z</time></trkpt><trkpt lat="45.0592175" lon="8.5090695"><ele>111.0</ele><time>2026-05-03T06:57:14.017Z</time></trkpt><trkpt lat="45.0591707" lon="8.5091962"><ele>111.0</ele><time>2026-05-03T06:57:15.017Z</time></trkpt><trkpt lat="45.0591303" lon="8.5093232"><ele>111.0</ele><time>2026-05-03T06:57:16.017Z</time></trkpt><trkpt lat="45.0590915" lon="8.5094489"><ele>111.0</ele><time>2026-05-03T06:57:17.018Z</time></trkpt><trkpt lat="45.0590494" lon="8.509574"><ele>111.0</ele><time>2026-05-03T06:57:18.018Z</time></trkpt><trkpt lat="45.0589987" lon="8.5096976"><ele>111.0</ele><time>2026-05-03T06:57:19.018Z</time></trkpt><trkpt lat="45.0589407" lon="8.5098128"><ele>110.8</ele><time>2026-05-03T06:57:20.018Z</time></trkpt><trkpt lat="45.0588732" lon="8.5099132"><ele>110.6</ele><time>2026-05-03T06:57:21.017Z</time></trkpt><trkpt lat="45.0587999" lon="8.5100121"><ele>110.4</ele><time>2026-05-03T06:57:22.017Z</time></trkpt><trkpt lat="45.0587185" lon="8.5100901"><ele>110.2</ele><time>2026-05-03T06:57:23.017Z</time></trkpt><trkpt lat="45.0586372" lon="8.5101661"><ele>110.0</ele><time>2026-05-03T06:57:24.017Z</time></trkpt><trkpt lat="45.0585452" lon="8.5102159"><ele>110.0</ele><time>2026-05-03T06:57:25.017Z</time></trkpt><trkpt lat="45.058452" lon="8.5102697"><ele>110.0</ele><time>2026-05-03T06:57:26.018Z</time></trkpt><trkpt lat="45.0583609" lon="8.5103328"><ele>110.0</ele><time>2026-05-03T06:57:27.017Z</time></trkpt><trkpt lat="45.0582742" lon="8.5103994"><ele>110.0</ele><time>2026-05-03T06:57:28.017Z</time></trkpt><trkpt lat="45.0581879" lon="8.5104636"><ele>110.0</ele><time>2026-05-03T06:57:29.017Z</time></trkpt><trkpt lat="45.0581012" lon="8.5105237"><ele>110.0</ele><time>2026-05-03T06:57:30.018Z</time></trkpt><trkpt lat="45.0580133" lon="8.5105851"><ele>110.0</ele><time>2026-05-03T06:57:31.018Z</time></trkpt><trkpt lat="45.0579264" lon="8.5106485"><ele>110.0</ele><time>2026-05-03T06:57:32.017Z</time></trkpt><trkpt lat="45.0578383" lon="8.5107127"><ele>110.0</ele><time>2026-05-03T06:57:33.019Z</time></trkpt><trkpt lat="45.057752" lon="8.5107746"><ele>110.0</ele><time>2026-05-03T06:57:34.018Z</time></trkpt><trkpt lat="45.0576687" lon="8.5108347"><ele>110.0</ele><time>2026-05-03T06:57:35.018Z</time></trkpt><trkpt lat="45.0575821" lon="8.5109002"><ele>110.0</ele><time>2026-05-03T06:57:36.018Z</time></trkpt><trkpt lat="45.0574963" lon="8.5109653"><ele>110.0</ele><time>2026-05-03T06:57:37.019Z</time></trkpt><trkpt lat="45.0574106" lon="8.5110311"><ele>110.0</ele><time>2026-05-03T06:57:38.018Z</time></trkpt><trkpt lat="45.0573248" lon="8.5110963"><ele>110.0</ele><time>2026-05-03T06:57:39.019Z</time></trkpt><trkpt lat="45.0572386" lon="8.5111618"><ele>110.0</ele><time>2026-05-03T06:57:40.018Z</time></trkpt><trkpt lat="45.0571524" lon="8.5112269"><ele>110.0</ele><time>2026-05-03T06:57:41.019Z</time></trkpt><trkpt lat="45.0570677" lon="8.51129"><ele>110.0</ele><time>2026-05-03T06:57:42.018Z</time></trkpt><trkpt lat="45.0569825" lon="8.5113543"><ele>110.0</ele><time>2026-05-03T06:57:43.018Z</time></trkpt><trkpt lat="45.0568962" lon="8.5114199"><ele>110.0</ele><time>2026-05-03T06:57:44.019Z</time></trkpt><trkpt lat="45.0568111" lon="8.5114861"><ele>109.4</ele><time>2026-05-03T06:57:45.019Z</time></trkpt><trkpt lat="45.0567262" lon="8.5115527"><ele>108.8</ele><time>2026-05-03T06:57:46.018Z</time></trkpt><trkpt lat="45.0566406" lon="8.5116191"><ele>108.19999999999999</ele><time>2026-05-03T06:57:47.018Z</time></trkpt><trkpt lat="45.0565538" lon="8.5116847"><ele>107.6</ele><time>2026-05-03T06:57:48.018Z</time></trkpt><trkpt lat="45.0564677" lon="8.5117494"><ele>107.0</ele><time>2026-05-03T06:57:49.018Z</time></trkpt><trkpt lat="45.0563821" lon="8.5118133"><ele>107.0</ele><time>2026-05-03T06:57:50.018Z</time></trkpt><trkpt lat="45.0562989" lon="8.5118748"><ele>106.99999999999999</ele><time>2026-05-03T06:57:51.018Z</time></trkpt><trkpt lat="45.0562157" lon="8.511938"><ele>106.99999999999999</ele><time>2026-05-03T06:57:52.018Z</time></trkpt><trkpt lat="45.0561304" lon="8.5120035"><ele>107.0</ele><time>2026-05-03T06:57:53.019Z</time></trkpt><trkpt lat="45.0560428" lon="8.5120703"><ele>107.0</ele><time>2026-05-03T06:57:54.019Z</time></trkpt><trkpt lat="45.0559542" lon="8.5121377"><ele>107.0</ele><time>2026-05-03T06:57:55.018Z</time></trkpt><trkpt lat="45.0558651" lon="8.512204"><ele>106.99999999999999</ele><time>2026-05-03T06:57:56.018Z</time></trkpt><trkpt lat="45.055775" lon="8.5122708"><ele>106.99999999999999</ele><time>2026-05-03T06:57:57.018Z</time></trkpt><trkpt lat="45.0556861" lon="8.5123364"><ele>107.0</ele><time>2026-05-03T06:57:58.018Z</time></trkpt><trkpt lat="45.0555971" lon="8.512404"><ele>107.0</ele><time>2026-05-03T06:57:59.018Z</time></trkpt><trkpt lat="45.0555096" lon="8.5124716"><ele>107.19999999999999</ele><time>2026-05-03T06:58:00.018Z</time></trkpt><trkpt lat="45.0554236" lon="8.5125372"><ele>107.39999999999999</ele><time>2026-05-03T06:58:01.019Z</time></trkpt><trkpt lat="45.055336" lon="8.5126018"><ele>107.60000000000001</ele><time>2026-05-03T06:58:02.018Z</time></trkpt><trkpt lat="45.0552481" lon="8.512667"><ele>107.80000000000001</ele><time>2026-05-03T06:58:03.018Z</time></trkpt><trkpt lat="45.055159" lon="8.5127353"><ele>108.0</ele><time>2026-05-03T06:58:04.018Z</time></trkpt><trkpt lat="45.0550732" lon="8.5128005"><ele>108.0</ele><time>2026-05-03T06:58:05.019Z</time></trkpt><trkpt lat="45.0549893" lon="8.5128638"><ele>108.00000000000001</ele><time>2026-05-03T06:58:06.018Z</time></trkpt><trkpt lat="45.054902" lon="8.5129304"><ele>108.00000000000001</ele><time>2026-05-03T06:58:07.019Z</time></trkpt><trkpt lat="45.0548124" lon="8.5129948"><ele>108.0</ele><time>2026-05-03T06:58:08.018Z</time></trkpt><trkpt lat="45.0547234" lon="8.5130592"><ele>108.0</ele><time>2026-05-03T06:58:09.019Z</time></trkpt><trkpt lat="45.0546358" lon="8.5131244"><ele>108.0</ele><time>2026-05-03T06:58:10.018Z</time></trkpt><trkpt lat="45.0545491" lon="8.513189"><ele>108.00000000000001</ele><time>2026-05-03T06:58:11.018Z</time></trkpt><trkpt lat="45.054464" lon="8.5132563"><ele>108.00000000000001</ele><time>2026-05-03T06:58:12.018Z</time></trkpt><trkpt lat="45.0543789" lon="8.5133227"><ele>108.0</ele><time>2026-05-03T06:58:13.018Z</time></trkpt><trkpt lat="45.0542902" lon="8.5133913"><ele>108.0</ele><time>2026-05-03T06:58:14.018Z</time></trkpt><trkpt lat="45.0541996" lon="8.5134606"><ele>108.0</ele><time>2026-05-03T06:58:15.019Z</time></trkpt><trkpt lat="45.0541077" lon="8.5135302"><ele>108.00000000000001</ele><time>2026-05-03T06:58:16.019Z</time></trkpt><trkpt lat="45.0540163" lon="8.5136"><ele>108.00000000000001</ele><time>2026-05-03T06:58:17.019Z</time></trkpt><trkpt lat="45.0539247" lon="8.5136704"><ele>108.0</ele><time>2026-05-03T06:58:18.019Z</time></trkpt><trkpt lat="45.0538311" lon="8.5137405"><ele>108.0</ele><time>2026-05-03T06:58:19.019Z</time></trkpt><trkpt lat="45.0537366" lon="8.5138107"><ele>108.0</ele><time>2026-05-03T06:58:20.019Z</time></trkpt><trkpt lat="45.0536408" lon="8.5138831"><ele>108.00000000000001</ele><time>2026-05-03T06:58:21.019Z</time></trkpt><trkpt lat="45.0535454" lon="8.5139552"><ele>108.00000000000001</ele><time>2026-05-03T06:58:22.019Z</time></trkpt><trkpt lat="45.0534507" lon="8.514026"><ele>108.0</ele><time>2026-05-03T06:58:23.019Z</time></trkpt><trkpt lat="45.0533558" lon="8.5140984"><ele>108.0</ele><time>2026-05-03T06:58:24.02Z</time></trkpt><trkpt lat="45.0532615" lon="8.5141722"><ele>107.80000000000001</ele><time>2026-05-03T06:58:25.019Z</time></trkpt><trkpt lat="45.0531657" lon="8.5142449"><ele>107.60000000000001</ele><time>2026-05-03T06:58:26.019Z</time></trkpt><trkpt lat="45.0530696" lon="8.5143146"><ele>107.39999999999999</ele><time>2026-05-03T06:58:27.019Z</time></trkpt><trkpt lat="45.0529736" lon="8.5143853"><ele>107.19999999999999</ele><time>2026-05-03T06:58:28.019Z</time></trkpt><trkpt lat="45.052877" lon="8.5144581"><ele>107.0</ele><time>2026-05-03T06:58:29.019Z</time></trkpt><trkpt lat="45.0527802" lon="8.5145313"><ele>107.39999999999999</ele><time>2026-05-03T06:58:30.02Z</time></trkpt><trkpt lat="45.0526838" lon="8.5146048"><ele>107.79999999999998</ele><time>2026-05-03T06:58:31.019Z</time></trkpt><trkpt lat="45.0525877" lon="8.5146771"><ele>108.2</ele><time>2026-05-03T06:58:32.02Z</time></trkpt><trkpt lat="45.0524912" lon="8.5147487"><ele>108.6</ele><time>2026-05-03T06:58:33.02Z</time></trkpt><trkpt lat="45.0523955" lon="8.5148209"><ele>109.0</ele><time>2026-05-03T06:58:34.019Z</time></trkpt><trkpt lat="45.0523002" lon="8.514894"><ele>109.0</ele><time>2026-05-03T06:58:35.02Z</time></trkpt><trkpt lat="45.0522046" lon="8.5149661"><ele>109.0</ele><time>2026-05-03T06:58:36.019Z</time></trkpt><trkpt lat="45.0521092" lon="8.5150391"><ele>109.0</ele><time>2026-05-03T06:58:37.019Z</time></trkpt><trkpt lat="45.0520138" lon="8.5151125"><ele>109.0</ele><time>2026-05-03T06:58:38.019Z</time></trkpt><trkpt lat="45.0519171" lon="8.5151858"><ele>109.0</ele><time>2026-05-03T06:58:39.019Z</time></trkpt><trkpt lat="45.0518196" lon="8.5152587"><ele>109.0</ele><time>2026-05-03T06:58:40.019Z</time></trkpt><trkpt lat="45.0517218" lon="8.5153311"><ele>109.0</ele><time>2026-05-03T06:58:41.019Z</time></trkpt><trkpt lat="45.0516267" lon="8.5154038"><ele>109.0</ele><time>2026-05-03T06:58:42.019Z</time></trkpt><trkpt lat="45.0515345" lon="8.5154769"><ele>109.0</ele><time>2026-05-03T06:58:43.019Z</time></trkpt><trkpt lat="45.0514429" lon="8.5155513"><ele>109.0</ele><time>2026-05-03T06:58:44.02Z</time></trkpt><trkpt lat="45.0513499" lon="8.5156264"><ele>109.0</ele><time>2026-05-03T06:58:45.019Z</time></trkpt><trkpt lat="45.0512556" lon="8.5156996"><ele>109.0</ele><time>2026-05-03T06:58:46.019Z</time></trkpt><trkpt lat="45.0511612" lon="8.5157714"><ele>109.0</ele><time>2026-05-03T06:58:47.02Z</time></trkpt><trkpt lat="45.0510666" lon="8.5158424"><ele>109.0</ele><time>2026-05-03T06:58:48.019Z</time></trkpt><trkpt lat="45.0509721" lon="8.5159107"><ele>109.0</ele><time>2026-05-03T06:58:49.019Z</time></trkpt><trkpt lat="45.0508788" lon="8.5159786"><ele>109.0</ele><time>2026-05-03T06:58:50.02Z</time></trkpt><trkpt lat="45.0507861" lon="8.5160477"><ele>109.0</ele><time>2026-05-03T06:58:51.021Z</time></trkpt><trkpt lat="45.0506937" lon="8.516116"><ele>109.0</ele><time>2026-05-03T06:58:52.019Z</time></trkpt><trkpt lat="45.0506021" lon="8.5161829"><ele>109.0</ele><time>2026-05-03T06:58:53.019Z</time></trkpt><trkpt lat="45.0505095" lon="8.5162513"><ele>109.0</ele><time>2026-05-03T06:58:54.02Z</time></trkpt><trkpt lat="45.0504172" lon="8.5163198"><ele>108.80000000000001</ele><time>2026-05-03T06:58:55.021Z</time></trkpt><trkpt lat="45.0503264" lon="8.516389"><ele>108.60000000000001</ele><time>2026-05-03T06:58:56.021Z</time></trkpt><trkpt lat="45.0502349" lon="8.5164594"><ele>108.4</ele><time>2026-05-03T06:58:57.02Z</time></trkpt><trkpt lat="45.0501401" lon="8.5165311"><ele>108.2</ele><time>2026-05-03T06:58:58.02Z</time></trkpt><trkpt lat="45.050045" lon="8.5166045"><ele>108.0</ele><time>2026-05-03T06:58:59.02Z</time></trkpt><trkpt lat="45.0499501" lon="8.5166809"><ele>107.80000000000001</ele><time>2026-05-03T06:59:00.02Z</time></trkpt><trkpt lat="45.0498562" lon="8.5167617"><ele>107.60000000000001</ele><time>2026-05-03T06:59:01.02Z</time></trkpt><trkpt lat="45.0497631" lon="8.5168401"><ele>107.39999999999999</ele><time>2026-05-03T06:59:02.021Z</time></trkpt><trkpt lat="45.0496695" lon="8.5169149"><ele>107.19999999999999</ele><time>2026-05-03T06:59:03.02Z</time></trkpt><trkpt lat="45.0495749" lon="8.5169883"><ele>107.0</ele><time>2026-05-03T06:59:04.02Z</time></trkpt><trkpt lat="45.0494787" lon="8.5170579"><ele>107.0</ele><time>2026-05-03T06:59:05.02Z</time></trkpt><trkpt lat="45.0493821" lon="8.5171239"><ele>106.99999999999999</ele><time>2026-05-03T06:59:06.02Z</time></trkpt><trkpt lat="45.0492839" lon="8.5171895"><ele>106.99999999999999</ele><time>2026-05-03T06:59:07.02Z</time></trkpt><trkpt lat="45.0491866" lon="8.5172569"><ele>107.0</ele><time>2026-05-03T06:59:08.02Z</time></trkpt><trkpt lat="45.0490924" lon="8.5173303"><ele>107.0</ele><time>2026-05-03T06:59:09.021Z</time></trkpt><trkpt lat="45.0489981" lon="8.5174055"><ele>107.0</ele><time>2026-05-03T06:59:10.021Z</time></trkpt><trkpt lat="45.0489029" lon="8.5174789"><ele>106.99999999999999</ele><time>2026-05-03T06:59:11.02Z</time></trkpt><trkpt lat="45.0488087" lon="8.5175514"><ele>106.99999999999999</ele><time>2026-05-03T06:59:12.021Z</time></trkpt><trkpt lat="45.0487142" lon="8.5176237"><ele>107.0</ele><time>2026-05-03T06:59:13.021Z</time></trkpt><trkpt lat="45.0486194" lon="8.5176963"><ele>107.0</ele><time>2026-05-03T06:59:14.021Z</time></trkpt><trkpt lat="45.0485255" lon="8.5177699"><ele>107.0</ele><time>2026-05-03T06:59:15.02Z</time></trkpt><trkpt lat="45.0484314" lon="8.5178425"><ele>106.99999999999999</ele><time>2026-05-03T06:59:16.02Z</time></trkpt><trkpt lat="45.0483367" lon="8.5179144"><ele>106.99999999999999</ele><time>2026-05-03T06:59:17.02Z</time></trkpt><trkpt lat="45.048243" lon="8.5179867"><ele>107.0</ele><time>2026-05-03T06:59:18.021Z</time></trkpt><trkpt lat="45.0481496" lon="8.5180574"><ele>107.0</ele><time>2026-05-03T06:59:19.02Z</time></trkpt><trkpt lat="45.0480557" lon="8.5181257"><ele>107.0</ele><time>2026-05-03T06:59:20.02Z</time></trkpt><trkpt lat="45.0479619" lon="8.518194"><ele>106.99999999999999</ele><time>2026-05-03T06:59:21.02Z</time></trkpt><trkpt lat="45.0478683" lon="8.5182614"><ele>106.99999999999999</ele><time>2026-05-03T06:59:22.02Z</time></trkpt><trkpt lat="45.0477746" lon="8.5183274"><ele>107.0</ele><time>2026-05-03T06:59:23.02Z</time></trkpt><trkpt lat="45.0476793" lon="8.5183937"><ele>107.0</ele><time>2026-05-03T06:59:24.021Z</time></trkpt><trkpt lat="45.0475829" lon="8.5184622"><ele>107.0</ele><time>2026-05-03T06:59:25.02Z</time></trkpt><trkpt lat="45.0474885" lon="8.5185354"><ele>106.99999999999999</ele><time>2026-05-03T06:59:26.021Z</time></trkpt><trkpt lat="45.0473948" lon="8.5186085"><ele>106.99999999999999</ele><time>2026-05-03T06:59:27.02Z</time></trkpt><trkpt lat="45.0473012" lon="8.5186804"><ele>107.0</ele><time>2026-05-03T06:59:28.02Z</time></trkpt><trkpt lat="45.0472072" lon="8.5187523"><ele>107.0</ele><time>2026-05-03T06:59:29.021Z</time></trkpt><trkpt lat="45.047113" lon="8.5188233"><ele>107.19999999999999</ele><time>2026-05-03T06:59:30.02Z</time></trkpt><trkpt lat="45.0470188" lon="8.5188958"><ele>107.39999999999999</ele><time>2026-05-03T06:59:31.021Z</time></trkpt><trkpt lat="45.0469249" lon="8.5189688"><ele>107.60000000000001</ele><time>2026-05-03T06:59:32.021Z</time></trkpt><trkpt lat="45.0468317" lon="8.5190397"><ele>107.80000000000001</ele><time>2026-05-03T06:59:33.021Z</time></trkpt><trkpt lat="45.04674" lon="8.5191089"><ele>108.0</ele><time>2026-05-03T06:59:34.021Z</time></trkpt><trkpt lat="45.046649" lon="8.5191775"><ele>108.0</ele><time>2026-05-03T06:59:35.021Z</time></trkpt><trkpt lat="45.0465567" lon="8.519246"><ele>108.00000000000001</ele><time>2026-05-03T06:59:36.021Z</time></trkpt><trkpt lat="45.0464632" lon="8.5193146"><ele>108.00000000000001</ele><time>2026-05-03T06:59:37.022Z</time></trkpt><trkpt lat="45.0463694" lon="8.5193852"><ele>108.0</ele><time>2026-05-03T06:59:38.021Z</time></trkpt><trkpt lat="45.0462768" lon="8.5194573"><ele>108.0</ele><time>2026-05-03T06:59:39.021Z</time></trkpt><trkpt lat="45.0461852" lon="8.5195288"><ele>108.2</ele><time>2026-05-03T06:59:40.022Z</time></trkpt><trkpt lat="45.0460937" lon="8.5196006"><ele>108.4</ele><time>2026-05-03T06:59:41.021Z</time></trkpt><trkpt lat="45.0460027" lon="8.5196716"><ele>108.60000000000001</ele><time>2026-05-03T06:59:42.021Z</time></trkpt><trkpt lat="45.0459121" lon="8.5197412"><ele>108.80000000000001</ele><time>2026-05-03T06:59:43.022Z</time></trkpt><trkpt lat="45.0458206" lon="8.5198097"><ele>109.0</ele><time>2026-05-03T06:59:44.021Z</time></trkpt><trkpt lat="45.0457277" lon="8.5198771"><ele>109.0</ele><time>2026-05-03T06:59:45.021Z</time></trkpt><trkpt lat="45.0456349" lon="8.5199451"><ele>109.0</ele><time>2026-05-03T06:59:46.021Z</time></trkpt><trkpt lat="45.0455438" lon="8.5200148"><ele>109.0</ele><time>2026-05-03T06:59:47.021Z</time></trkpt><trkpt lat="45.0454533" lon="8.5200845"><ele>109.0</ele><time>2026-05-03T06:59:48.021Z</time></trkpt><trkpt lat="45.0453622" lon="8.520154"><ele>109.0</ele><time>2026-05-03T06:59:49.021Z</time></trkpt><trkpt lat="45.0452712" lon="8.5202223"><ele>109.0</ele><time>2026-05-03T06:59:50.021Z</time></trkpt><trkpt lat="45.0451792" lon="8.5202907"><ele>109.0</ele><time>2026-05-03T06:59:51.021Z</time></trkpt><trkpt lat="45.0450869" lon="8.5203601"><ele>109.0</ele><time>2026-05-03T06:59:52.021Z</time></trkpt><trkpt lat="45.0449961" lon="8.5204301"><ele>109.0</ele><time>2026-05-03T06:59:53.021Z</time></trkpt><trkpt lat="45.0449061" lon="8.5204996"><ele>109.0</ele><time>2026-05-03T06:59:54.022Z</time></trkpt><trkpt lat="45.0448163" lon="8.5205691"><ele>108.80000000000001</ele><time>2026-05-03T06:59:55.022Z</time></trkpt><trkpt lat="45.0447248" lon="8.520639"><ele>108.60000000000001</ele><time>2026-05-03T06:59:56.022Z</time></trkpt><trkpt lat="45.0446353" lon="8.5207087"><ele>108.4</ele><time>2026-05-03T06:59:57.022Z</time></trkpt><trkpt lat="45.0445463" lon="8.5207749"><ele>108.2</ele><time>2026-05-03T06:59:58.022Z</time></trkpt><trkpt lat="45.0444548" lon="8.5208396"><ele>108.0</ele><time>2026-05-03T06:59:59.021Z</time></trkpt><trkpt lat="45.0443615" lon="8.5209066"><ele>108.0</ele><time>2026-05-03T07:00:00.021Z</time></trkpt><trkpt lat="45.0442677" lon="8.5209778"><ele>108.00000000000001</ele><time>2026-05-03T07:00:01.022Z</time></trkpt><trkpt lat="45.0441758" lon="8.5210487"><ele>108.00000000000001</ele><time>2026-05-03T07:00:02.021Z</time></trkpt><trkpt lat="45.0440836" lon="8.5211175"><ele>108.0</ele><time>2026-05-03T07:00:03.022Z</time></trkpt><trkpt lat="45.0439894" lon="8.5211883"><ele>108.0</ele><time>2026-05-03T07:00:04.022Z</time></trkpt><trkpt lat="45.0438968" lon="8.5212586"><ele>108.4</ele><time>2026-05-03T07:00:05.021Z</time></trkpt><trkpt lat="45.0438037" lon="8.5213319"><ele>108.80000000000001</ele><time>2026-05-03T07:00:06.021Z</time></trkpt><trkpt lat="45.0437102" lon="8.5214034"><ele>109.2</ele><time>2026-05-03T07:00:07.021Z</time></trkpt><trkpt lat="45.0436163" lon="8.5214736"><ele>109.6</ele><time>2026-05-03T07:00:08.021Z</time></trkpt><trkpt lat="45.0435227" lon="8.5215445"><ele>110.0</ele><time>2026-05-03T07:00:09.021Z</time></trkpt><trkpt lat="45.0434284" lon="8.5216146"><ele>110.0</ele><time>2026-05-03T07:00:10.021Z</time></trkpt><trkpt lat="45.0433333" lon="8.5216833"><ele>110.0</ele><time>2026-05-03T07:00:11.022Z</time></trkpt><trkpt lat="45.0432403" lon="8.5217538"><ele>110.0</ele><time>2026-05-03T07:00:12.022Z</time></trkpt><trkpt lat="45.0431476" lon="8.5218265"><ele>110.0</ele><time>2026-05-03T07:00:13.022Z</time></trkpt><trkpt lat="45.0430542" lon="8.5218992"><ele>110.0</ele><time>2026-05-03T07:00:14.021Z</time></trkpt><trkpt lat="45.042961" lon="8.5219701"><ele>110.2</ele><time>2026-05-03T07:00:15.021Z</time></trkpt><trkpt lat="45.0428678" lon="8.5220395"><ele>110.4</ele><time>2026-05-03T07:00:16.021Z</time></trkpt><trkpt lat="45.0427761" lon="8.5221083"><ele>110.6</ele><time>2026-05-03T07:00:17.022Z</time></trkpt><trkpt lat="45.0426859" lon="8.5221758"><ele>110.8</ele><time>2026-05-03T07:00:18.022Z</time></trkpt><trkpt lat="45.0425943" lon="8.5222429"><ele>111.0</ele><time>2026-05-03T07:00:19.022Z</time></trkpt><trkpt lat="45.0425032" lon="8.5223107"><ele>112.0</ele><time>2026-05-03T07:00:20.023Z</time></trkpt><trkpt lat="45.0424131" lon="8.5223788"><ele>113.0</ele><time>2026-05-03T07:00:21.022Z</time></trkpt><trkpt lat="45.0423227" lon="8.5224474"><ele>114.0</ele><time>2026-05-03T07:00:22.023Z</time></trkpt><trkpt lat="45.0422346" lon="8.5225143"><ele>115.0</ele><time>2026-05-03T07:00:23.022Z</time></trkpt><trkpt lat="45.0421489" lon="8.5225809"><ele>116.0</ele><time>2026-05-03T07:00:24.022Z</time></trkpt><trkpt lat="45.0420644" lon="8.5226467"><ele>116.0</ele><time>2026-05-03T07:00:25.023Z</time></trkpt><trkpt lat="45.04198" lon="8.5227133"><ele>116.0</ele><time>2026-05-03T07:00:26.023Z</time></trkpt><trkpt lat="45.0418955" lon="8.5227765"><ele>116.0</ele><time>2026-05-03T07:00:27.022Z</time></trkpt><trkpt lat="45.0418081" lon="8.5228388"><ele>116.0</ele><time>2026-05-03T07:00:28.022Z</time></trkpt><trkpt lat="45.0417216" lon="8.5229006"><ele>116.0</ele><time>2026-05-03T07:00:29.023Z</time></trkpt><trkpt lat="45.0416347" lon="8.5229645"><ele>116.4</ele><time>2026-05-03T07:00:30.023Z</time></trkpt><trkpt lat="45.0415513" lon="8.5230294"><ele>116.8</ele><time>2026-05-03T07:00:31.022Z</time></trkpt><trkpt lat="45.0414679" lon="8.5230964"><ele>117.20000000000002</ele><time>2026-05-03T07:00:32.022Z</time></trkpt><trkpt lat="45.0413843" lon="8.52316"><ele>117.60000000000001</ele><time>2026-05-03T07:00:33.022Z</time></trkpt><trkpt lat="45.0413009" lon="8.52322"><ele>118.0</ele><time>2026-05-03T07:00:34.022Z</time></trkpt><trkpt lat="45.0412192" lon="8.5232821"><ele>118.0</ele><time>2026-05-03T07:00:35.022Z</time></trkpt><trkpt lat="45.0411382" lon="8.5233435"><ele>118.00000000000001</ele><time>2026-05-03T07:00:36.022Z</time></trkpt><trkpt lat="45.0410564" lon="8.5234055"><ele>118.00000000000001</ele><time>2026-05-03T07:00:37.022Z</time></trkpt><trkpt lat="45.0409742" lon="8.5234673"><ele>118.0</ele><time>2026-05-03T07:00:38.022Z</time></trkpt><trkpt lat="45.0408924" lon="8.5235279"><ele>118.0</ele><time>2026-05-03T07:00:39.023Z</time></trkpt><trkpt lat="45.040812" lon="8.5235888"><ele>118.80000000000001</ele><time>2026-05-03T07:00:40.022Z</time></trkpt><trkpt lat="45.0407327" lon="8.5236512"><ele>119.60000000000001</ele><time>2026-05-03T07:00:41.022Z</time></trkpt><trkpt lat="45.040654" lon="8.5237148"><ele>120.39999999999999</ele><time>2026-05-03T07:00:42.022Z</time></trkpt><trkpt lat="45.040575" lon="8.523777"><ele>121.19999999999999</ele><time>2026-05-03T07:00:43.022Z</time></trkpt><trkpt lat="45.0404942" lon="8.5238384"><ele>122.0</ele><time>2026-05-03T07:00:44.022Z</time></trkpt><trkpt lat="45.0404129" lon="8.5238984"><ele>122.0</ele><time>2026-05-03T07:00:45.022Z</time></trkpt><trkpt lat="45.040333" lon="8.5239562"><ele>121.99999999999999</ele><time>2026-05-03T07:00:46.022Z</time></trkpt><trkpt lat="45.0402522" lon="8.5240137"><ele>121.99999999999999</ele><time>2026-05-03T07:00:47.022Z</time></trkpt><trkpt lat="45.0401716" lon="8.5240719"><ele>122.0</ele><time>2026-05-03T07:00:48.023Z</time></trkpt><trkpt lat="45.0400911" lon="8.5241333"><ele>122.0</ele><time>2026-05-03T07:00:49.022Z</time></trkpt><trkpt lat="45.0400099" lon="8.5241968"><ele>122.39999999999999</ele><time>2026-05-03T07:00:50.022Z</time></trkpt><trkpt lat="45.0399289" lon="8.5242577"><ele>122.79999999999998</ele><time>2026-05-03T07:00:51.022Z</time></trkpt><trkpt lat="45.039848" lon="8.5243169"><ele>123.2</ele><time>2026-05-03T07:00:52.023Z</time></trkpt><trkpt lat="45.0397674" lon="8.5243778"><ele>123.6</ele><time>2026-05-03T07:00:53.022Z</time></trkpt><trkpt lat="45.0396863" lon="8.5244454"><ele>124.0</ele><time>2026-05-03T07:00:54.022Z</time></trkpt><trkpt lat="45.0396067" lon="8.5245099"><ele>124.0</ele><time>2026-05-03T07:00:55.022Z</time></trkpt><trkpt lat="45.0395251" lon="8.5245731"><ele>124.0</ele><time>2026-05-03T07:00:56.022Z</time></trkpt><trkpt lat="45.0394448" lon="8.5246333"><ele>124.0</ele><time>2026-05-03T07:00:57.022Z</time></trkpt><trkpt lat="45.0393631" lon="8.5246947"><ele>124.0</ele><time>2026-05-03T07:00:58.022Z</time></trkpt><trkpt lat="45.0392807" lon="8.5247572"><ele>124.0</ele><time>2026-05-03T07:00:59.023Z</time></trkpt><trkpt lat="45.0391978" lon="8.5248193"><ele>124.2</ele><time>2026-05-03T07:01:00.023Z</time></trkpt><trkpt lat="45.0391139" lon="8.5248824"><ele>124.4</ele><time>2026-05-03T07:01:01.024Z</time></trkpt><trkpt lat="45.0390274" lon="8.5249467"><ele>124.6</ele><time>2026-05-03T07:01:02.023Z</time></trkpt><trkpt lat="45.0389401" lon="8.5250093"><ele>124.8</ele><time>2026-05-03T07:01:03.023Z</time></trkpt><trkpt lat="45.0388514" lon="8.5250706"><ele>125.0</ele><time>2026-05-03T07:01:04.024Z</time></trkpt><trkpt lat="45.0387624" lon="8.5251308"><ele>125.0</ele><time>2026-05-03T07:01:05.024Z</time></trkpt><trkpt lat="45.0386742" lon="8.525187"><ele>125.0</ele><time>2026-05-03T07:01:06.023Z</time></trkpt><trkpt lat="45.038585" lon="8.5252339"><ele>125.0</ele><time>2026-05-03T07:01:07.023Z</time></trkpt><trkpt lat="45.0384948" lon="8.5252704"><ele>125.0</ele><time>2026-05-03T07:01:08.023Z</time></trkpt><trkpt lat="45.0384057" lon="8.5252954"><ele>125.0</ele><time>2026-05-03T07:01:09.023Z</time></trkpt><trkpt lat="45.0383159" lon="8.5253075"><ele>124.83333333333333</ele><time>2026-05-03T07:01:10.023Z</time></trkpt><trkpt lat="45.0382302" lon="8.52531"><ele>124.66666666666666</ele><time>2026-05-03T07:01:11.023Z</time></trkpt><trkpt lat="45.0381465" lon="8.5253078"><ele>124.5</ele><time>2026-05-03T07:01:12.024Z</time></trkpt><trkpt lat="45.0380582" lon="8.5253025"><ele>124.33333333333334</ele><time>2026-05-03T07:01:13.023Z</time></trkpt><trkpt lat="45.0379681" lon="8.5252992"><ele>124.16666666666667</ele><time>2026-05-03T07:01:14.023Z</time></trkpt><trkpt lat="45.0378776" lon="8.5252983"><ele>124.0</ele><time>2026-05-03T07:01:15.024Z</time></trkpt><trkpt lat="45.0377892" lon="8.5252993"><ele>124.00000000000001</ele><time>2026-05-03T07:01:16.024Z</time></trkpt><trkpt lat="45.0377052" lon="8.5253008"><ele>124.0</ele><time>2026-05-03T07:01:17.023Z</time></trkpt><trkpt lat="45.0376234" lon="8.5253029"><ele>124.0</ele><time>2026-05-03T07:01:18.023Z</time></trkpt><trkpt lat="45.037538" lon="8.5253041"><ele>124.0</ele><time>2026-05-03T07:01:19.023Z</time></trkpt><trkpt lat="45.0374435" lon="8.5252967"><ele>124.00000000000001</ele><time>2026-05-03T07:01:20.023Z</time></trkpt><trkpt lat="45.0373483" lon="8.5252983"><ele>124.0</ele><time>2026-05-03T07:01:21.023Z</time></trkpt><trkpt lat="45.0372509" lon="8.5253062"><ele>122.80000000000001</ele><time>2026-05-03T07:01:22.023Z</time></trkpt><trkpt lat="45.0371547" lon="8.5253111"><ele>121.60000000000001</ele><time>2026-05-03T07:01:23.024Z</time></trkpt><trkpt lat="45.0370575" lon="8.5253113"><ele>120.4</ele><time>2026-05-03T07:01:24.024Z</time></trkpt><trkpt lat="45.036969" lon="8.5253275"><ele>119.2</ele><time>2026-05-03T07:01:25.024Z</time></trkpt><trkpt lat="45.0368658" lon="8.5253287"><ele>118.0</ele><time>2026-05-03T07:01:26.023Z</time></trkpt><trkpt lat="45.0367636" lon="8.5253252"><ele>118.00000000000001</ele><time>2026-05-03T07:01:27.023Z</time></trkpt><trkpt lat="45.0366744" lon="8.5253248"><ele>118.0</ele><time>2026-05-03T07:01:28.024Z</time></trkpt><trkpt lat="45.03659" lon="8.5253297"><ele>118.0</ele><time>2026-05-03T07:01:29.023Z</time></trkpt><trkpt lat="45.0365093" lon="8.5253232"><ele>118.0</ele><time>2026-05-03T07:01:30.024Z</time></trkpt><trkpt lat="45.0364387" lon="8.5252997"><ele>118.00000000000001</ele><time>2026-05-03T07:01:31.023Z</time></trkpt><trkpt lat="45.0363535" lon="8.525242"><ele>118.0</ele><time>2026-05-03T07:01:32.023Z</time></trkpt><trkpt lat="45.0362655" lon="8.525189"><ele>118.0</ele><time>2026-05-03T07:01:33.024Z</time></trkpt><trkpt lat="45.0361843" lon="8.5251252"><ele>118.00000000000001</ele><time>2026-05-03T07:01:34.023Z</time></trkpt><trkpt lat="45.0361024" lon="8.525053"><ele>118.00000000000001</ele><time>2026-05-03T07:01:35.023Z</time></trkpt><trkpt lat="45.036019" lon="8.5249792"><ele>118.0</ele><time>2026-05-03T07:01:36.023Z</time></trkpt><trkpt lat="45.0359428" lon="8.5249104"><ele>118.0</ele><time>2026-05-03T07:01:37.023Z</time></trkpt><trkpt lat="45.0358678" lon="8.5248397"><ele>118.0</ele><time>2026-05-03T07:01:38.024Z</time></trkpt><trkpt lat="45.0358005" lon="8.5247447"><ele>118.00000000000001</ele><time>2026-05-03T07:01:39.024Z</time></trkpt><trkpt lat="45.0357438" lon="8.5246377"><ele>118.00000000000001</ele><time>2026-05-03T07:01:40.024Z</time></trkpt><trkpt lat="45.0357039" lon="8.5245244"><ele>118.0</ele><time>2026-05-03T07:01:41.024Z</time></trkpt><trkpt lat="45.0356672" lon="8.5244157"><ele>118.0</ele><time>2026-05-03T07:01:42.024Z</time></trkpt><trkpt lat="45.0356308" lon="8.5242945"><ele>118.00000000000001</ele><time>2026-05-03T07:01:43.024Z</time></trkpt><trkpt lat="45.0355907" lon="8.5241854"><ele>118.0</ele><time>2026-05-03T07:01:44.024Z</time></trkpt><trkpt lat="45.0355275" lon="8.5240883"><ele>118.0</ele><time>2026-05-03T07:01:45.024Z</time></trkpt><trkpt lat="45.0354656" lon="8.5240341"><ele>118.0</ele><time>2026-05-03T07:01:46.024Z</time></trkpt><trkpt lat="45.035379" lon="8.5240199"><ele>118.00000000000001</ele><time>2026-05-03T07:01:47.024Z</time></trkpt><trkpt lat="45.0352877" lon="8.5240612"><ele>118.0</ele><time>2026-05-03T07:01:48.024Z</time></trkpt><trkpt lat="45.0352045" lon="8.5241351"><ele>118.00000000000001</ele><time>2026-05-03T07:01:49.024Z</time></trkpt><trkpt lat="45.035131" lon="8.5242081"><ele>118.0</ele><time>2026-05-03T07:01:50.024Z</time></trkpt><trkpt lat="45.0350824" lon="8.5243202"><ele>118.0</ele><time>2026-05-03T07:01:51.024Z</time></trkpt><trkpt lat="45.0350373" lon="8.5244229"><ele>118.0</ele><time>2026-05-03T07:01:52.025Z</time></trkpt><trkpt lat="45.0349901" lon="8.5245253"><ele>118.00000000000001</ele><time>2026-05-03T07:01:53.025Z</time></trkpt><trkpt lat="45.0349411" lon="8.5246284"><ele>118.0</ele><time>2026-05-03T07:01:54.024Z</time></trkpt><trkpt lat="45.0348795" lon="8.524732"><ele>118.66666666666667</ele><time>2026-05-03T07:01:55.025Z</time></trkpt><trkpt lat="45.0348266" lon="8.5248306"><ele>119.33333333333334</ele><time>2026-05-03T07:01:56.024Z</time></trkpt><trkpt lat="45.0347745" lon="8.5249308"><ele>120.0</ele><time>2026-05-03T07:01:57.024Z</time></trkpt><trkpt lat="45.0347222" lon="8.5250306"><ele>120.66666666666666</ele><time>2026-05-03T07:01:58.025Z</time></trkpt><trkpt lat="45.0346679" lon="8.5251326"><ele>121.33333333333333</ele><time>2026-05-03T07:01:59.025Z</time></trkpt><trkpt lat="45.0346137" lon="8.5252358"><ele>122.0</ele><time>2026-05-03T07:02:00.024Z</time></trkpt><trkpt lat="45.0345591" lon="8.5253357"><ele>122.0</ele><time>2026-05-03T07:02:01.025Z</time></trkpt><trkpt lat="45.0345035" lon="8.5254365"><ele>121.99999999999999</ele><time>2026-05-03T07:02:02.025Z</time></trkpt><trkpt lat="45.0344468" lon="8.525541"><ele>121.99999999999999</ele><time>2026-05-03T07:02:03.025Z</time></trkpt><trkpt lat="45.0343914" lon="8.5256447"><ele>122.0</ele><time>2026-05-03T07:02:04.024Z</time></trkpt><trkpt lat="45.0343397" lon="8.5257526"><ele>122.0</ele><time>2026-05-03T07:02:05.025Z</time></trkpt><trkpt lat="45.034275" lon="8.5258494"><ele>122.0</ele><time>2026-05-03T07:02:06.025Z</time></trkpt><trkpt lat="45.0342038" lon="8.525933"><ele>122.0</ele><time>2026-05-03T07:02:07.025Z</time></trkpt><trkpt lat="45.0341287" lon="8.5260183"><ele>122.0</ele><time>2026-05-03T07:02:08.025Z</time></trkpt><trkpt lat="45.0340525" lon="8.5260899"><ele>122.0</ele><time>2026-05-03T07:02:09.024Z</time></trkpt><trkpt lat="45.0339" lon="8.5262624"><ele>122.0</ele><time>2026-05-03T07:02:11.024Z</time></trkpt><trkpt lat="45.0338235" lon="8.5263449"><ele>121.99999999999999</ele><time>2026-05-03T07:02:12.024Z</time></trkpt><trkpt lat="45.0337466" lon="8.5264381"><ele>121.99999999999999</ele><time>2026-05-03T07:02:13.024Z</time></trkpt><trkpt lat="45.0336653" lon="8.5265324"><ele>122.0</ele><time>2026-05-03T07:02:14.024Z</time></trkpt><trkpt lat="45.0335871" lon="8.5266241"><ele>122.0</ele><time>2026-05-03T07:02:15.024Z</time></trkpt><trkpt lat="45.0335114" lon="8.5267185"><ele>122.0</ele><time>2026-05-03T07:02:16.025Z</time></trkpt><trkpt lat="45.0334372" lon="8.5268086"><ele>121.99999999999999</ele><time>2026-05-03T07:02:17.024Z</time></trkpt><trkpt lat="45.0333653" lon="8.5268975"><ele>121.99999999999999</ele><time>2026-05-03T07:02:18.025Z</time></trkpt><trkpt lat="45.0332898" lon="8.52699"><ele>122.0</ele><time>2026-05-03T07:02:19.024Z</time></trkpt><trkpt lat="45.0332134" lon="8.5270792"><ele>122.0</ele><time>2026-05-03T07:02:20.024Z</time></trkpt><trkpt lat="45.033136" lon="8.527168"><ele>122.39999999999999</ele><time>2026-05-03T07:02:21.025Z</time></trkpt><trkpt lat="45.0330624" lon="8.5272563"><ele>122.79999999999998</ele><time>2026-05-03T07:02:22.026Z</time></trkpt><trkpt lat="45.0329905" lon="8.527342"><ele>123.2</ele><time>2026-05-03T07:02:23.025Z</time></trkpt><trkpt lat="45.0329193" lon="8.5274247"><ele>123.6</ele><time>2026-05-03T07:02:24.025Z</time></trkpt><trkpt lat="45.0328479" lon="8.5275106"><ele>124.0</ele><time>2026-05-03T07:02:25.025Z</time></trkpt><trkpt lat="45.0327747" lon="8.5275938"><ele>124.0</ele><time>2026-05-03T07:02:26.026Z</time></trkpt><trkpt lat="45.032704" lon="8.5276798"><ele>124.0</ele><time>2026-05-03T07:02:27.025Z</time></trkpt><trkpt lat="45.0326338" lon="8.527765"><ele>124.0</ele><time>2026-05-03T07:02:28.025Z</time></trkpt><trkpt lat="45.0325633" lon="8.5278507"><ele>124.0</ele><time>2026-05-03T07:02:29.025Z</time></trkpt><trkpt lat="45.0324928" lon="8.5279372"><ele>124.0</ele><time>2026-05-03T07:02:30.026Z</time></trkpt><trkpt lat="45.0324221" lon="8.5280275"><ele>124.4</ele><time>2026-05-03T07:02:31.025Z</time></trkpt><trkpt lat="45.032352" lon="8.5281212"><ele>124.80000000000001</ele><time>2026-05-03T07:02:32.026Z</time></trkpt><trkpt lat="45.0322822" lon="8.5282097"><ele>125.19999999999999</ele><time>2026-05-03T07:02:33.025Z</time></trkpt><trkpt lat="45.0322091" lon="8.5282914"><ele>125.6</ele><time>2026-05-03T07:02:34.026Z</time></trkpt><trkpt lat="45.0321361" lon="8.5283759"><ele>126.0</ele><time>2026-05-03T07:02:35.026Z</time></trkpt><trkpt lat="45.0320644" lon="8.5284617"><ele>126.0</ele><time>2026-05-03T07:02:36.025Z</time></trkpt><trkpt lat="45.0319954" lon="8.528551"><ele>126.0</ele><time>2026-05-03T07:02:37.025Z</time></trkpt><trkpt lat="45.0319265" lon="8.5286354"><ele>126.0</ele><time>2026-05-03T07:02:38.026Z</time></trkpt><trkpt lat="45.0318471" lon="8.5287221"><ele>126.0</ele><time>2026-05-03T07:02:39.026Z</time></trkpt><trkpt lat="45.0317698" lon="8.5288141"><ele>126.0</ele><time>2026-05-03T07:02:40.026Z</time></trkpt><trkpt lat="45.031696" lon="8.5289049"><ele>126.19999999999999</ele><time>2026-05-03T07:02:41.025Z</time></trkpt><trkpt lat="45.0316209" lon="8.5289974"><ele>126.39999999999999</ele><time>2026-05-03T07:02:42.025Z</time></trkpt><trkpt lat="45.0315441" lon="8.5290876"><ele>126.6</ele><time>2026-05-03T07:02:43.026Z</time></trkpt><trkpt lat="45.0314698" lon="8.5291771"><ele>126.8</ele><time>2026-05-03T07:02:44.025Z</time></trkpt><trkpt lat="45.0313938" lon="8.5292696"><ele>127.0</ele><time>2026-05-03T07:02:45.026Z</time></trkpt><trkpt lat="45.0313214" lon="8.5293599"><ele>127.0</ele><time>2026-05-03T07:02:46.025Z</time></trkpt><trkpt lat="45.0312481" lon="8.5294511"><ele>126.99999999999999</ele><time>2026-05-03T07:02:47.025Z</time></trkpt><trkpt lat="45.0311716" lon="8.5295451"><ele>126.99999999999999</ele><time>2026-05-03T07:02:48.025Z</time></trkpt><trkpt lat="45.0310934" lon="8.5296386"><ele>127.0</ele><time>2026-05-03T07:02:49.026Z</time></trkpt><trkpt lat="45.0310161" lon="8.5297342"><ele>127.0</ele><time>2026-05-03T07:02:50.025Z</time></trkpt><trkpt lat="45.0309399" lon="8.5298292"><ele>126.6</ele><time>2026-05-03T07:02:51.025Z</time></trkpt><trkpt lat="45.0308635" lon="8.5299215"><ele>126.19999999999999</ele><time>2026-05-03T07:02:52.026Z</time></trkpt><trkpt lat="45.0307841" lon="8.5300127"><ele>125.8</ele><time>2026-05-03T07:02:53.026Z</time></trkpt><trkpt lat="45.0307043" lon="8.5301052"><ele>125.4</ele><time>2026-05-03T07:02:54.025Z</time></trkpt><trkpt lat="45.0306239" lon="8.5301948"><ele>125.0</ele><time>2026-05-03T07:02:55.025Z</time></trkpt><trkpt lat="45.0305463" lon="8.5302852"><ele>124.8</ele><time>2026-05-03T07:02:56.025Z</time></trkpt><trkpt lat="45.0304699" lon="8.5303764"><ele>124.6</ele><time>2026-05-03T07:02:57.025Z</time></trkpt><trkpt lat="45.0303947" lon="8.5304697"><ele>124.4</ele><time>2026-05-03T07:02:58.025Z</time></trkpt><trkpt lat="45.0303186" lon="8.5305612"><ele>124.2</ele><time>2026-05-03T07:02:59.026Z</time></trkpt><trkpt lat="45.0302417" lon="8.5306518"><ele>124.0</ele><time>2026-05-03T07:03:00.025Z</time></trkpt><trkpt lat="45.0301626" lon="8.530741"><ele>124.0</ele><time>2026-05-03T07:03:01.026Z</time></trkpt><trkpt lat="45.0300838" lon="8.530831"><ele>124.0</ele><time>2026-05-03T07:03:02.025Z</time></trkpt><trkpt lat="45.0300065" lon="8.5309229"><ele>124.0</ele><time>2026-05-03T07:03:03.027Z</time></trkpt><trkpt lat="45.0299302" lon="8.5310165"><ele>124.0</ele><time>2026-05-03T07:03:04.026Z</time></trkpt><trkpt lat="45.0298545" lon="8.5311109"><ele>124.0</ele><time>2026-05-03T07:03:05.027Z</time></trkpt><trkpt lat="45.0297773" lon="8.5312042"><ele>124.2</ele><time>2026-05-03T07:03:06.026Z</time></trkpt><trkpt lat="45.0297006" lon="8.5313007"><ele>124.4</ele><time>2026-05-03T07:03:07.026Z</time></trkpt><trkpt lat="45.029625" lon="8.531397"><ele>124.6</ele><time>2026-05-03T07:03:08.027Z</time></trkpt><trkpt lat="45.0295485" lon="8.5314904"><ele>124.8</ele><time>2026-05-03T07:03:09.027Z</time></trkpt><trkpt lat="45.0294726" lon="8.5315829"><ele>125.0</ele><time>2026-05-03T07:03:10.026Z</time></trkpt><trkpt lat="45.0293965" lon="8.5316746"><ele>125.0</ele><time>2026-05-03T07:03:11.027Z</time></trkpt><trkpt lat="45.029321" lon="8.5317667"><ele>125.0</ele><time>2026-05-03T07:03:12.026Z</time></trkpt><trkpt lat="45.0292442" lon="8.5318575"><ele>125.0</ele><time>2026-05-03T07:03:13.026Z</time></trkpt><trkpt lat="45.0291678" lon="8.5319495"><ele>125.0</ele><time>2026-05-03T07:03:14.026Z</time></trkpt><trkpt lat="45.0290927" lon="8.5320425"><ele>125.0</ele><time>2026-05-03T07:03:15.026Z</time></trkpt><trkpt lat="45.0290181" lon="8.5321358"><ele>124.8</ele><time>2026-05-03T07:03:16.026Z</time></trkpt><trkpt lat="45.0289416" lon="8.5322299"><ele>124.6</ele><time>2026-05-03T07:03:17.027Z</time></trkpt><trkpt lat="45.0288633" lon="8.5323233"><ele>124.4</ele><time>2026-05-03T07:03:18.027Z</time></trkpt><trkpt lat="45.0287832" lon="8.532417"><ele>124.2</ele><time>2026-05-03T07:03:19.026Z</time></trkpt><trkpt lat="45.0287041" lon="8.5325101"><ele>124.0</ele><time>2026-05-03T07:03:20.027Z</time></trkpt><trkpt lat="45.0286252" lon="8.5326055"><ele>124.0</ele><time>2026-05-03T07:03:21.027Z</time></trkpt><trkpt lat="45.0285467" lon="8.5327012"><ele>124.0</ele><time>2026-05-03T07:03:22.027Z</time></trkpt><trkpt lat="45.0284664" lon="8.5327981"><ele>124.0</ele><time>2026-05-03T07:03:23.026Z</time></trkpt><trkpt lat="45.0283837" lon="8.5328961"><ele>124.0</ele><time>2026-05-03T07:03:24.026Z</time></trkpt><trkpt lat="45.0283023" lon="8.5329907"><ele>124.0</ele><time>2026-05-03T07:03:25.026Z</time></trkpt><trkpt lat="45.0282203" lon="8.5330851"><ele>123.6</ele><time>2026-05-03T07:03:26.026Z</time></trkpt><trkpt lat="45.0281372" lon="8.5331824"><ele>123.2</ele><time>2026-05-03T07:03:27.026Z</time></trkpt><trkpt lat="45.0280562" lon="8.533278"><ele>122.79999999999998</ele><time>2026-05-03T07:03:28.026Z</time></trkpt><trkpt lat="45.0279771" lon="8.533376"><ele>122.39999999999999</ele><time>2026-05-03T07:03:29.027Z</time></trkpt><trkpt lat="45.0279001" lon="8.5334737"><ele>122.0</ele><time>2026-05-03T07:03:30.027Z</time></trkpt><trkpt lat="45.0278229" lon="8.53357"><ele>122.0</ele><time>2026-05-03T07:03:31.027Z</time></trkpt><trkpt lat="45.0277453" lon="8.5336671"><ele>121.99999999999999</ele><time>2026-05-03T07:03:32.026Z</time></trkpt><trkpt lat="45.0276659" lon="8.5337633"><ele>121.99999999999999</ele><time>2026-05-03T07:03:33.026Z</time></trkpt><trkpt lat="45.0275845" lon="8.5338568"><ele>122.0</ele><time>2026-05-03T07:03:34.026Z</time></trkpt><trkpt lat="45.0275054" lon="8.5339523"><ele>122.0</ele><time>2026-05-03T07:03:35.026Z</time></trkpt><trkpt lat="45.0274282" lon="8.5340494"><ele>122.39999999999999</ele><time>2026-05-03T07:03:36.027Z</time></trkpt><trkpt lat="45.027351" lon="8.5341474"><ele>122.79999999999998</ele><time>2026-05-03T07:03:37.027Z</time></trkpt><trkpt lat="45.0272725" lon="8.5342418"><ele>123.2</ele><time>2026-05-03T07:03:38.026Z</time></trkpt><trkpt lat="45.0271934" lon="8.5343322"><ele>123.6</ele><time>2026-05-03T07:03:39.026Z</time></trkpt><trkpt lat="45.0271136" lon="8.5344197"><ele>124.0</ele><time>2026-05-03T07:03:40.026Z</time></trkpt><trkpt lat="45.0270342" lon="8.5345111"><ele>124.0</ele><time>2026-05-03T07:03:41.026Z</time></trkpt><trkpt lat="45.0269535" lon="8.5346076"><ele>124.0</ele><time>2026-05-03T07:03:42.027Z</time></trkpt><trkpt lat="45.0268731" lon="8.5347017"><ele>124.0</ele><time>2026-05-03T07:03:43.026Z</time></trkpt><trkpt lat="45.0267943" lon="8.5347971"><ele>124.0</ele><time>2026-05-03T07:03:44.027Z</time></trkpt><trkpt lat="45.0267165" lon="8.5348939"><ele>124.0</ele><time>2026-05-03T07:03:45.027Z</time></trkpt><trkpt lat="45.0266383" lon="8.5349893"><ele>124.0</ele><time>2026-05-03T07:03:46.028Z</time></trkpt><trkpt lat="45.0265588" lon="8.5350847"><ele>124.0</ele><time>2026-05-03T07:03:47.027Z</time></trkpt><trkpt lat="45.0264799" lon="8.5351809"><ele>124.0</ele><time>2026-05-03T07:03:48.028Z</time></trkpt><trkpt lat="45.026401" lon="8.5352768"><ele>124.0</ele><time>2026-05-03T07:03:49.028Z</time></trkpt><trkpt lat="45.0263233" lon="8.5353712"><ele>124.0</ele><time>2026-05-03T07:03:50.028Z</time></trkpt><trkpt lat="45.026244" lon="8.5354664"><ele>123.80000000000001</ele><time>2026-05-03T07:03:51.028Z</time></trkpt><trkpt lat="45.0261659" lon="8.5355611"><ele>123.60000000000001</ele><time>2026-05-03T07:03:52.027Z</time></trkpt><trkpt lat="45.0260885" lon="8.5356548"><ele>123.4</ele><time>2026-05-03T07:03:53.027Z</time></trkpt><trkpt lat="45.0260112" lon="8.535748"><ele>123.2</ele><time>2026-05-03T07:03:54.027Z</time></trkpt><trkpt lat="45.0259339" lon="8.5358432"><ele>123.0</ele><time>2026-05-03T07:03:55.028Z</time></trkpt><trkpt lat="45.0258561" lon="8.5359382"><ele>123.4</ele><time>2026-05-03T07:03:56.027Z</time></trkpt><trkpt lat="45.0257776" lon="8.5360309"><ele>123.80000000000001</ele><time>2026-05-03T07:03:57.027Z</time></trkpt><trkpt lat="45.0256993" lon="8.5361242"><ele>124.2</ele><time>2026-05-03T07:03:58.028Z</time></trkpt><trkpt lat="45.0256202" lon="8.5362171"><ele>124.6</ele><time>2026-05-03T07:03:59.028Z</time></trkpt><trkpt lat="45.0255412" lon="8.5363106"><ele>125.0</ele><time>2026-05-03T07:04:00.028Z</time></trkpt><trkpt lat="45.0254621" lon="8.5364041"><ele>125.0</ele><time>2026-05-03T07:04:01.027Z</time></trkpt><trkpt lat="45.0253831" lon="8.5364975"><ele>125.0</ele><time>2026-05-03T07:04:02.028Z</time></trkpt><trkpt lat="45.0253052" lon="8.5365911"><ele>125.0</ele><time>2026-05-03T07:04:03.027Z</time></trkpt><trkpt lat="45.0252281" lon="8.5366885"><ele>125.0</ele><time>2026-05-03T07:04:04.028Z</time></trkpt><trkpt lat="45.0251517" lon="8.5367867"><ele>125.0</ele><time>2026-05-03T07:04:05.027Z</time></trkpt><trkpt lat="45.0250727" lon="8.5368829"><ele>125.0</ele><time>2026-05-03T07:04:06.027Z</time></trkpt><trkpt lat="45.0249915" lon="8.5369764"><ele>125.0</ele><time>2026-05-03T07:04:07.028Z</time></trkpt><trkpt lat="45.0249097" lon="8.5370708"><ele>125.0</ele><time>2026-05-03T07:04:08.027Z</time></trkpt><trkpt lat="45.0248303" lon="8.5371654"><ele>125.0</ele><time>2026-05-03T07:04:09.028Z</time></trkpt><trkpt lat="45.024753" lon="8.5372602"><ele>125.0</ele><time>2026-05-03T07:04:10.027Z</time></trkpt><trkpt lat="45.0246751" lon="8.5373542"><ele>125.4</ele><time>2026-05-03T07:04:11.027Z</time></trkpt><trkpt lat="45.0245966" lon="8.5374506"><ele>125.8</ele><time>2026-05-03T07:04:12.027Z</time></trkpt><trkpt lat="45.0245168" lon="8.5375519"><ele>126.19999999999999</ele><time>2026-05-03T07:04:13.027Z</time></trkpt><trkpt lat="45.0244363" lon="8.5376542"><ele>126.6</ele><time>2026-05-03T07:04:14.027Z</time></trkpt><trkpt lat="45.0243611" lon="8.5377462"><ele>127.0</ele><time>2026-05-03T07:04:15.027Z</time></trkpt><trkpt lat="45.0242849" lon="8.5378337"><ele>126.6</ele><time>2026-05-03T07:04:16.027Z</time></trkpt><trkpt lat="45.0242123" lon="8.537917"><ele>126.19999999999999</ele><time>2026-05-03T07:04:17.028Z</time></trkpt><trkpt lat="45.0241432" lon="8.537996"><ele>125.8</ele><time>2026-05-03T07:04:18.027Z</time></trkpt><trkpt lat="45.0240634" lon="8.5380921"><ele>125.4</ele><time>2026-05-03T07:04:19.028Z</time></trkpt><trkpt lat="45.0239764" lon="8.5382018"><ele>125.0</ele><time>2026-05-03T07:04:20.028Z</time></trkpt><trkpt lat="45.0238888" lon="8.5383114"><ele>125.0</ele><time>2026-05-03T07:04:21.027Z</time></trkpt><trkpt lat="45.0238055" lon="8.5384116"><ele>125.0</ele><time>2026-05-03T07:04:22.027Z</time></trkpt><trkpt lat="45.0237217" lon="8.538514"><ele>125.0</ele><time>2026-05-03T07:04:23.028Z</time></trkpt><trkpt lat="45.0236398" lon="8.538609"><ele>125.0</ele><time>2026-05-03T07:04:24.027Z</time></trkpt><trkpt lat="45.0235604" lon="8.5386994"><ele>125.0</ele><time>2026-05-03T07:04:25.027Z</time></trkpt><trkpt lat="45.0234815" lon="8.5387884"><ele>125.0</ele><time>2026-05-03T07:04:26.028Z</time></trkpt><trkpt lat="45.0234029" lon="8.5388788"><ele>125.0</ele><time>2026-05-03T07:04:27.028Z</time></trkpt><trkpt lat="45.0233234" lon="8.5389733"><ele>125.0</ele><time>2026-05-03T07:04:28.029Z</time></trkpt><trkpt lat="45.0232435" lon="8.5390696"><ele>125.0</ele><time>2026-05-03T07:04:29.028Z</time></trkpt><trkpt lat="45.0231633" lon="8.5391658"><ele>125.0</ele><time>2026-05-03T07:04:30.029Z</time></trkpt><trkpt lat="45.0230838" lon="8.5392625"><ele>124.6</ele><time>2026-05-03T07:04:31.028Z</time></trkpt><trkpt lat="45.0230037" lon="8.5393575"><ele>124.2</ele><time>2026-05-03T07:04:32.029Z</time></trkpt><trkpt lat="45.0229251" lon="8.5394502"><ele>123.80000000000001</ele><time>2026-05-03T07:04:33.029Z</time></trkpt><trkpt lat="45.022848" lon="8.5395422"><ele>123.4</ele><time>2026-05-03T07:04:34.028Z</time></trkpt><trkpt lat="45.0227714" lon="8.5396344"><ele>123.0</ele><time>2026-05-03T07:04:35.029Z</time></trkpt><trkpt lat="45.0226962" lon="8.5397269"><ele>123.0</ele><time>2026-05-03T07:04:36.029Z</time></trkpt><trkpt lat="45.022622" lon="8.5398157"><ele>123.00000000000001</ele><time>2026-05-03T07:04:37.028Z</time></trkpt><trkpt lat="45.0225493" lon="8.5399044"><ele>123.00000000000001</ele><time>2026-05-03T07:04:38.028Z</time></trkpt><trkpt lat="45.0224789" lon="8.5399921"><ele>123.0</ele><time>2026-05-03T07:04:39.028Z</time></trkpt><trkpt lat="45.0224082" lon="8.5400839"><ele>123.0</ele><time>2026-05-03T07:04:40.028Z</time></trkpt><trkpt lat="45.0223377" lon="8.5401736"><ele>122.60000000000001</ele><time>2026-05-03T07:04:41.028Z</time></trkpt><trkpt lat="45.022266" lon="8.5402576"><ele>122.20000000000002</ele><time>2026-05-03T07:04:42.028Z</time></trkpt><trkpt lat="45.0221941" lon="8.5403403"><ele>121.8</ele><time>2026-05-03T07:04:43.028Z</time></trkpt><trkpt lat="45.0221211" lon="8.5404312"><ele>121.4</ele><time>2026-05-03T07:04:44.028Z</time></trkpt><trkpt lat="45.0220504" lon="8.540519"><ele>121.0</ele><time>2026-05-03T07:04:45.028Z</time></trkpt><trkpt lat="45.0219805" lon="8.5406049"><ele>121.0</ele><time>2026-05-03T07:04:46.028Z</time></trkpt><trkpt lat="45.0219094" lon="8.5406902"><ele>121.0</ele><time>2026-05-03T07:04:47.028Z</time></trkpt><trkpt lat="45.0218395" lon="8.5407727"><ele>121.0</ele><time>2026-05-03T07:04:48.029Z</time></trkpt><trkpt lat="45.0217675" lon="8.5408594"><ele>121.0</ele><time>2026-05-03T07:04:49.029Z</time></trkpt><trkpt lat="45.0216945" lon="8.5409474"><ele>121.0</ele><time>2026-05-03T07:04:50.028Z</time></trkpt><trkpt lat="45.0216209" lon="8.5410355"><ele>121.0</ele><time>2026-05-03T07:04:51.028Z</time></trkpt><trkpt lat="45.0215484" lon="8.5411231"><ele>121.0</ele><time>2026-05-03T07:04:52.029Z</time></trkpt><trkpt lat="45.0214769" lon="8.5412128"><ele>121.0</ele><time>2026-05-03T07:04:53.028Z</time></trkpt><trkpt lat="45.0214068" lon="8.541301"><ele>121.0</ele><time>2026-05-03T07:04:54.029Z</time></trkpt><trkpt lat="45.0213372" lon="8.5413896"><ele>121.0</ele><time>2026-05-03T07:04:55.028Z</time></trkpt><trkpt lat="45.021266" lon="8.5414757"><ele>121.0</ele><time>2026-05-03T07:04:56.028Z</time></trkpt><trkpt lat="45.0211907" lon="8.5415654"><ele>121.0</ele><time>2026-05-03T07:04:57.029Z</time></trkpt><trkpt lat="45.0211141" lon="8.5416587"><ele>121.0</ele><time>2026-05-03T07:04:58.029Z</time></trkpt><trkpt lat="45.0210376" lon="8.5417537"><ele>121.0</ele><time>2026-05-03T07:04:59.029Z</time></trkpt><trkpt lat="45.0209599" lon="8.5418499"><ele>121.0</ele><time>2026-05-03T07:05:00.028Z</time></trkpt><trkpt lat="45.0208792" lon="8.5419455"><ele>121.0</ele><time>2026-05-03T07:05:01.028Z</time></trkpt><trkpt lat="45.020797" lon="8.5420389"><ele>121.0</ele><time>2026-05-03T07:05:02.029Z</time></trkpt><trkpt lat="45.0207146" lon="8.5421331"><ele>121.0</ele><time>2026-05-03T07:05:03.028Z</time></trkpt><trkpt lat="45.0206324" lon="8.5422323"><ele>121.0</ele><time>2026-05-03T07:05:04.028Z</time></trkpt><trkpt lat="45.0205504" lon="8.5423315"><ele>121.0</ele><time>2026-05-03T07:05:05.028Z</time></trkpt><trkpt lat="45.0204679" lon="8.5424308"><ele>120.8</ele><time>2026-05-03T07:05:06.029Z</time></trkpt><trkpt lat="45.0203867" lon="8.5425304"><ele>120.6</ele><time>2026-05-03T07:05:07.029Z</time></trkpt><trkpt lat="45.0203067" lon="8.5426279"><ele>120.4</ele><time>2026-05-03T07:05:08.029Z</time></trkpt><trkpt lat="45.0202272" lon="8.5427231"><ele>120.2</ele><time>2026-05-03T07:05:09.03Z</time></trkpt><trkpt lat="45.0201479" lon="8.5428168"><ele>120.0</ele><time>2026-05-03T07:05:10.029Z</time></trkpt><trkpt lat="45.0200687" lon="8.5429118"><ele>119.8</ele><time>2026-05-03T07:05:11.03Z</time></trkpt><trkpt lat="45.0199886" lon="8.5430073"><ele>119.6</ele><time>2026-05-03T07:05:12.03Z</time></trkpt><trkpt lat="45.0199082" lon="8.5431001"><ele>119.4</ele><time>2026-05-03T07:05:13.029Z</time></trkpt><trkpt lat="45.0198262" lon="8.5431919"><ele>119.2</ele><time>2026-05-03T07:05:14.03Z</time></trkpt><trkpt lat="45.0197459" lon="8.5432839"><ele>119.0</ele><time>2026-05-03T07:05:15.029Z</time></trkpt><trkpt lat="45.0196694" lon="8.5433765"><ele>119.80000000000001</ele><time>2026-05-03T07:05:16.029Z</time></trkpt><trkpt lat="45.0195941" lon="8.5434682"><ele>120.60000000000001</ele><time>2026-05-03T07:05:17.029Z</time></trkpt><trkpt lat="45.0195175" lon="8.5435621"><ele>121.4</ele><time>2026-05-03T07:05:18.03Z</time></trkpt><trkpt lat="45.0194378" lon="8.5436578"><ele>122.2</ele><time>2026-05-03T07:05:19.029Z</time></trkpt><trkpt lat="45.0193575" lon="8.5437544"><ele>123.0</ele><time>2026-05-03T07:05:20.03Z</time></trkpt><trkpt lat="45.0192784" lon="8.5438526"><ele>123.0</ele><time>2026-05-03T07:05:21.029Z</time></trkpt><trkpt lat="45.0192041" lon="8.5439556"><ele>123.00000000000001</ele><time>2026-05-03T07:05:22.03Z</time></trkpt><trkpt lat="45.0191328" lon="8.544061"><ele>123.00000000000001</ele><time>2026-05-03T07:05:23.029Z</time></trkpt><trkpt lat="45.0190571" lon="8.5441647"><ele>123.0</ele><time>2026-05-03T07:05:24.03Z</time></trkpt><trkpt lat="45.0189758" lon="8.5442621"><ele>123.0</ele><time>2026-05-03T07:05:25.029Z</time></trkpt><trkpt lat="45.0188948" lon="8.5443561"><ele>123.2</ele><time>2026-05-03T07:05:26.029Z</time></trkpt><trkpt lat="45.0188126" lon="8.5444496"><ele>123.4</ele><time>2026-05-03T07:05:27.029Z</time></trkpt><trkpt lat="45.0187293" lon="8.5445466"><ele>123.60000000000001</ele><time>2026-05-03T07:05:28.029Z</time></trkpt><trkpt lat="45.0186455" lon="8.5446429"><ele>123.80000000000001</ele><time>2026-05-03T07:05:29.03Z</time></trkpt><trkpt lat="45.0185607" lon="8.5447431"><ele>124.0</ele><time>2026-05-03T07:05:30.029Z</time></trkpt><trkpt lat="45.0184801" lon="8.5448429"><ele>123.6</ele><time>2026-05-03T07:05:31.029Z</time></trkpt><trkpt lat="45.0183986" lon="8.5449435"><ele>123.2</ele><time>2026-05-03T07:05:32.029Z</time></trkpt><trkpt lat="45.0183162" lon="8.5450404"><ele>122.79999999999998</ele><time>2026-05-03T07:05:33.029Z</time></trkpt><trkpt lat="45.0182321" lon="8.5451387"><ele>122.39999999999999</ele><time>2026-05-03T07:05:34.029Z</time></trkpt><trkpt lat="45.0181439" lon="8.5452374"><ele>122.0</ele><time>2026-05-03T07:05:35.029Z</time></trkpt><trkpt lat="45.0180606" lon="8.545338"><ele>121.8</ele><time>2026-05-03T07:05:36.029Z</time></trkpt><trkpt lat="45.017982" lon="8.5454378"><ele>121.6</ele><time>2026-05-03T07:05:37.03Z</time></trkpt><trkpt lat="45.0179025" lon="8.5455355"><ele>121.39999999999999</ele><time>2026-05-03T07:05:38.029Z</time></trkpt><trkpt lat="45.0178221" lon="8.5456312"><ele>121.19999999999999</ele><time>2026-05-03T07:05:39.029Z</time></trkpt><trkpt lat="45.0177423" lon="8.5457261"><ele>121.0</ele><time>2026-05-03T07:05:40.029Z</time></trkpt><trkpt lat="45.017663" lon="8.5458224"><ele>121.0</ele><time>2026-05-03T07:05:41.029Z</time></trkpt><trkpt lat="45.017585" lon="8.5459159"><ele>121.0</ele><time>2026-05-03T07:05:42.03Z</time></trkpt><trkpt lat="45.0175072" lon="8.5460067"><ele>121.0</ele><time>2026-05-03T07:05:43.029Z</time></trkpt><trkpt lat="45.0174297" lon="8.5460971"><ele>121.0</ele><time>2026-05-03T07:05:44.03Z</time></trkpt><trkpt lat="45.0173547" lon="8.5461865"><ele>121.0</ele><time>2026-05-03T07:05:45.029Z</time></trkpt><trkpt lat="45.0172809" lon="8.5462735"><ele>122.4</ele><time>2026-05-03T07:05:46.029Z</time></trkpt><trkpt lat="45.0172073" lon="8.5463584"><ele>123.8</ele><time>2026-05-03T07:05:47.029Z</time></trkpt><trkpt lat="45.017131" lon="8.5464436"><ele>125.20000000000002</ele><time>2026-05-03T07:05:48.031Z</time></trkpt><trkpt lat="45.0170535" lon="8.5465289"><ele>126.60000000000001</ele><time>2026-05-03T07:05:49.03Z</time></trkpt><trkpt lat="45.0169771" lon="8.5466128"><ele>128.0</ele><time>2026-05-03T07:05:50.031Z</time></trkpt><trkpt lat="45.0169022" lon="8.5467003"><ele>128.0</ele><time>2026-05-03T07:05:51.03Z</time></trkpt><trkpt lat="45.0168336" lon="8.5467867"><ele>128.0</ele><time>2026-05-03T07:05:52.03Z</time></trkpt><trkpt lat="45.0167644" lon="8.5468735"><ele>128.0</ele><time>2026-05-03T07:05:53.03Z</time></trkpt><trkpt lat="45.0166936" lon="8.5469595"><ele>128.0</ele><time>2026-05-03T07:05:54.03Z</time></trkpt><trkpt lat="45.0166222" lon="8.5470432"><ele>128.0</ele><time>2026-05-03T07:05:55.031Z</time></trkpt><trkpt lat="45.0165497" lon="8.5471301"><ele>128.4</ele><time>2026-05-03T07:05:56.031Z</time></trkpt><trkpt lat="45.0164775" lon="8.5472192"><ele>128.8</ele><time>2026-05-03T07:05:57.03Z</time></trkpt><trkpt lat="45.0164057" lon="8.5473091"><ele>129.2</ele><time>2026-05-03T07:05:58.031Z</time></trkpt><trkpt lat="45.016333" lon="8.5473991"><ele>129.6</ele><time>2026-05-03T07:05:59.03Z</time></trkpt><trkpt lat="45.0162586" lon="8.5474889"><ele>130.0</ele><time>2026-05-03T07:06:00.03Z</time></trkpt><trkpt lat="45.0161837" lon="8.5475785"><ele>130.0</ele><time>2026-05-03T07:06:01.03Z</time></trkpt><trkpt lat="45.0161093" lon="8.5476686"><ele>130.0</ele><time>2026-05-03T07:06:02.03Z</time></trkpt><trkpt lat="45.0160349" lon="8.547759"><ele>130.0</ele><time>2026-05-03T07:06:03.03Z</time></trkpt><trkpt lat="45.0159614" lon="8.5478477"><ele>130.0</ele><time>2026-05-03T07:06:04.03Z</time></trkpt><trkpt lat="45.0158861" lon="8.5479369"><ele>130.0</ele><time>2026-05-03T07:06:05.03Z</time></trkpt><trkpt lat="45.0158106" lon="8.5480272"><ele>130.0</ele><time>2026-05-03T07:06:06.03Z</time></trkpt><trkpt lat="45.0157364" lon="8.5481166"><ele>130.0</ele><time>2026-05-03T07:06:07.03Z</time></trkpt><trkpt lat="45.0156619" lon="8.5482059"><ele>130.0</ele><time>2026-05-03T07:06:08.03Z</time></trkpt><trkpt lat="45.0155877" lon="8.5482955"><ele>130.0</ele><time>2026-05-03T07:06:09.03Z</time></trkpt><trkpt lat="45.0155111" lon="8.5483865"><ele>130.0</ele><time>2026-05-03T07:06:10.03Z</time></trkpt><trkpt lat="45.0154354" lon="8.5484766"><ele>130.0</ele><time>2026-05-03T07:06:11.03Z</time></trkpt><trkpt lat="45.0153622" lon="8.5485661"><ele>130.0</ele><time>2026-05-03T07:06:12.031Z</time></trkpt><trkpt lat="45.0152893" lon="8.5486555"><ele>130.0</ele><time>2026-05-03T07:06:13.03Z</time></trkpt><trkpt lat="45.0152174" lon="8.548745"><ele>130.0</ele><time>2026-05-03T07:06:14.03Z</time></trkpt><trkpt lat="45.015143" lon="8.5488342"><ele>130.0</ele><time>2026-05-03T07:06:15.03Z</time></trkpt><trkpt lat="45.015069" lon="8.5489237"><ele>130.2</ele><time>2026-05-03T07:06:16.03Z</time></trkpt><trkpt lat="45.014996" lon="8.5490128"><ele>130.4</ele><time>2026-05-03T07:06:17.03Z</time></trkpt><trkpt lat="45.0149231" lon="8.549101"><ele>130.6</ele><time>2026-05-03T07:06:18.03Z</time></trkpt><trkpt lat="45.0148485" lon="8.5491897"><ele>130.8</ele><time>2026-05-03T07:06:19.031Z</time></trkpt><trkpt lat="45.0147722" lon="8.5492794"><ele>131.0</ele><time>2026-05-03T07:06:20.031Z</time></trkpt><trkpt lat="45.0146966" lon="8.5493693"><ele>131.0</ele><time>2026-05-03T07:06:21.03Z</time></trkpt><trkpt lat="45.0146229" lon="8.5494579"><ele>131.0</ele><time>2026-05-03T07:06:22.03Z</time></trkpt><trkpt lat="45.0145501" lon="8.549546"><ele>131.0</ele><time>2026-05-03T07:06:23.031Z</time></trkpt><trkpt lat="45.0144768" lon="8.5496339"><ele>131.0</ele><time>2026-05-03T07:06:24.031Z</time></trkpt><trkpt lat="45.0144028" lon="8.5497213"><ele>131.0</ele><time>2026-05-03T07:06:25.031Z</time></trkpt><trkpt lat="45.0143278" lon="8.5498085"><ele>131.2</ele><time>2026-05-03T07:06:26.03Z</time></trkpt><trkpt lat="45.0142522" lon="8.5498931"><ele>131.39999999999998</ele><time>2026-05-03T07:06:27.031Z</time></trkpt><trkpt lat="45.0141764" lon="8.5499805"><ele>131.6</ele><time>2026-05-03T07:06:28.03Z</time></trkpt><trkpt lat="45.0141012" lon="8.5500682"><ele>131.79999999999998</ele><time>2026-05-03T07:06:29.03Z</time></trkpt><trkpt lat="45.0140273" lon="8.5501604"><ele>132.0</ele><time>2026-05-03T07:06:30.031Z</time></trkpt><trkpt lat="45.0139544" lon="8.5502542"><ele>132.2</ele><time>2026-05-03T07:06:31.032Z</time></trkpt><trkpt lat="45.0138814" lon="8.5503448"><ele>132.39999999999998</ele><time>2026-05-03T07:06:32.031Z</time></trkpt><trkpt lat="45.0138078" lon="8.5504324"><ele>132.60000000000002</ele><time>2026-05-03T07:06:33.031Z</time></trkpt><trkpt lat="45.0137345" lon="8.5505187"><ele>132.8</ele><time>2026-05-03T07:06:34.032Z</time></trkpt><trkpt lat="45.0136617" lon="8.5506049"><ele>133.0</ele><time>2026-05-03T07:06:35.031Z</time></trkpt><trkpt lat="45.0135883" lon="8.5506936"><ele>133.0</ele><time>2026-05-03T07:06:36.031Z</time></trkpt><trkpt lat="45.0135166" lon="8.5507797"><ele>133.0</ele><time>2026-05-03T07:06:37.031Z</time></trkpt><trkpt lat="45.0134464" lon="8.5508615"><ele>133.0</ele><time>2026-05-03T07:06:38.031Z</time></trkpt><trkpt lat="45.0133759" lon="8.5509464"><ele>133.0</ele><time>2026-05-03T07:06:39.031Z</time></trkpt><trkpt lat="45.0133045" lon="8.551033"><ele>133.0</ele><time>2026-05-03T07:06:40.032Z</time></trkpt><trkpt lat="45.0132325" lon="8.5511213"><ele>133.8</ele><time>2026-05-03T07:06:41.031Z</time></trkpt><trkpt lat="45.0131596" lon="8.5512134"><ele>134.60000000000002</ele><time>2026-05-03T07:06:42.031Z</time></trkpt><trkpt lat="45.0130858" lon="8.5513037"><ele>135.39999999999998</ele><time>2026-05-03T07:06:43.032Z</time></trkpt><trkpt lat="45.0130127" lon="8.5513916"><ele>136.2</ele><time>2026-05-03T07:06:44.031Z</time></trkpt><trkpt lat="45.0129411" lon="8.5514744"><ele>137.0</ele><time>2026-05-03T07:06:45.031Z</time></trkpt><trkpt lat="45.01287" lon="8.5515534"><ele>137.0</ele><time>2026-05-03T07:06:46.031Z</time></trkpt><trkpt lat="45.0127963" lon="8.5516328"><ele>137.0</ele><time>2026-05-03T07:06:47.031Z</time></trkpt><trkpt lat="45.012718" lon="8.5517166"><ele>137.0</ele><time>2026-05-03T07:06:48.032Z</time></trkpt><trkpt lat="45.0126384" lon="8.551801"><ele>137.0</ele><time>2026-05-03T07:06:49.031Z</time></trkpt><trkpt lat="45.0125585" lon="8.5518843"><ele>137.0</ele><time>2026-05-03T07:06:50.031Z</time></trkpt><trkpt lat="45.012479" lon="8.5519647"><ele>137.4</ele><time>2026-05-03T07:06:51.032Z</time></trkpt><trkpt lat="45.0123991" lon="8.5520443"><ele>137.79999999999998</ele><time>2026-05-03T07:06:52.031Z</time></trkpt><trkpt lat="45.0123217" lon="8.552122"><ele>138.2</ele><time>2026-05-03T07:06:53.031Z</time></trkpt><trkpt lat="45.012245" lon="8.5521979"><ele>138.6</ele><time>2026-05-03T07:06:54.031Z</time></trkpt><trkpt lat="45.0121678" lon="8.5522717"><ele>139.0</ele><time>2026-05-03T07:06:55.031Z</time></trkpt><trkpt lat="45.0120911" lon="8.5523447"><ele>139.0</ele><time>2026-05-03T07:06:56.031Z</time></trkpt><trkpt lat="45.0120122" lon="8.5524144"><ele>139.0</ele><time>2026-05-03T07:06:57.031Z</time></trkpt><trkpt lat="45.0119294" lon="8.5524809"><ele>139.0</ele><time>2026-05-03T07:06:58.031Z</time></trkpt><trkpt lat="45.0118445" lon="8.5525486"><ele>139.0</ele><time>2026-05-03T07:06:59.031Z</time></trkpt><trkpt lat="45.0117584" lon="8.5526171"><ele>139.0</ele><time>2026-05-03T07:07:00.032Z</time></trkpt><trkpt lat="45.0116728" lon="8.5526876"><ele>139.2</ele><time>2026-05-03T07:07:01.031Z</time></trkpt><trkpt lat="45.0115891" lon="8.5527565"><ele>139.4</ele><time>2026-05-03T07:07:02.031Z</time></trkpt><trkpt lat="45.0115044" lon="8.5528203"><ele>139.6</ele><time>2026-05-03T07:07:03.031Z</time></trkpt><trkpt lat="45.0114196" lon="8.5528818"><ele>139.8</ele><time>2026-05-03T07:07:04.031Z</time></trkpt><trkpt lat="45.0113361" lon="8.5529436"><ele>140.0</ele><time>2026-05-03T07:07:05.031Z</time></trkpt><trkpt lat="45.011252" lon="8.5530065"><ele>140.2</ele><time>2026-05-03T07:07:06.032Z</time></trkpt><trkpt lat="45.0111668" lon="8.5530672"><ele>140.4</ele><time>2026-05-03T07:07:07.031Z</time></trkpt><trkpt lat="45.0110817" lon="8.5531239"><ele>140.6</ele><time>2026-05-03T07:07:08.032Z</time></trkpt><trkpt lat="45.0109957" lon="8.5531776"><ele>140.8</ele><time>2026-05-03T07:07:09.032Z</time></trkpt><trkpt lat="45.0109089" lon="8.5532285"><ele>141.0</ele><time>2026-05-03T07:07:10.032Z</time></trkpt><trkpt lat="45.0108203" lon="8.5532783"><ele>141.0</ele><time>2026-05-03T07:07:11.031Z</time></trkpt><trkpt lat="45.0107298" lon="8.5533272"><ele>141.0</ele><time>2026-05-03T07:07:12.032Z</time></trkpt><trkpt lat="45.0106402" lon="8.5533744"><ele>141.0</ele><time>2026-05-03T07:07:13.032Z</time></trkpt><trkpt lat="45.0105504" lon="8.5534204"><ele>141.0</ele><time>2026-05-03T07:07:14.032Z</time></trkpt><trkpt lat="45.0104608" lon="8.5534655"><ele>141.0</ele><time>2026-05-03T07:07:15.033Z</time></trkpt><trkpt lat="45.0103702" lon="8.5535079"><ele>141.0</ele><time>2026-05-03T07:07:16.032Z</time></trkpt><trkpt lat="45.010279" lon="8.5535481"><ele>141.0</ele><time>2026-05-03T07:07:17.032Z</time></trkpt><trkpt lat="45.0101868" lon="8.553585"><ele>141.0</ele><time>2026-05-03T07:07:18.033Z</time></trkpt><trkpt lat="45.0100962" lon="8.5536187"><ele>141.0</ele><time>2026-05-03T07:07:19.032Z</time></trkpt><trkpt lat="45.0100027" lon="8.5536549"><ele>141.0</ele><time>2026-05-03T07:07:20.032Z</time></trkpt><trkpt lat="45.0099117" lon="8.5536877"><ele>142.0</ele><time>2026-05-03T07:07:21.032Z</time></trkpt><trkpt lat="45.0098207" lon="8.5537221"><ele>143.0</ele><time>2026-05-03T07:07:22.033Z</time></trkpt><trkpt lat="45.0097299" lon="8.5537549"><ele>144.0</ele><time>2026-05-03T07:07:23.032Z</time></trkpt><trkpt lat="45.0096387" lon="8.5537832"><ele>145.0</ele><time>2026-05-03T07:07:24.033Z</time></trkpt><trkpt lat="45.0095475" lon="8.5538127"><ele>146.0</ele><time>2026-05-03T07:07:25.032Z</time></trkpt><trkpt lat="45.0094568" lon="8.5538468"><ele>146.0</ele><time>2026-05-03T07:07:26.032Z</time></trkpt><trkpt lat="45.0093564" lon="8.5538771"><ele>146.0</ele><time>2026-05-03T07:07:27.032Z</time></trkpt><trkpt lat="45.0092566" lon="8.5538974"><ele>146.0</ele><time>2026-05-03T07:07:28.032Z</time></trkpt><trkpt lat="45.0091578" lon="8.5539172"><ele>146.0</ele><time>2026-05-03T07:07:29.032Z</time></trkpt><trkpt lat="45.0090616" lon="8.5539375"><ele>146.0</ele><time>2026-05-03T07:07:30.032Z</time></trkpt><trkpt lat="45.0089686" lon="8.5539624"><ele>145.8</ele><time>2026-05-03T07:07:31.032Z</time></trkpt><trkpt lat="45.0088768" lon="8.5539848"><ele>145.6</ele><time>2026-05-03T07:07:32.032Z</time></trkpt><trkpt lat="45.0087839" lon="8.5540054"><ele>145.4</ele><time>2026-05-03T07:07:33.033Z</time></trkpt><trkpt lat="45.008687" lon="8.5540265"><ele>145.2</ele><time>2026-05-03T07:07:34.032Z</time></trkpt><trkpt lat="45.0085904" lon="8.5540424"><ele>145.0</ele><time>2026-05-03T07:07:35.032Z</time></trkpt><trkpt lat="45.0084956" lon="8.554057"><ele>145.0</ele><time>2026-05-03T07:07:36.033Z</time></trkpt><trkpt lat="45.0084026" lon="8.554068"><ele>145.0</ele><time>2026-05-03T07:07:37.032Z</time></trkpt><trkpt lat="45.0083088" lon="8.5540733"><ele>145.0</ele><time>2026-05-03T07:07:38.032Z</time></trkpt><trkpt lat="45.0082143" lon="8.5540742"><ele>145.0</ele><time>2026-05-03T07:07:39.033Z</time></trkpt><trkpt lat="45.0081212" lon="8.5540774"><ele>145.0</ele><time>2026-05-03T07:07:40.032Z</time></trkpt><trkpt lat="45.0080294" lon="8.5540839"><ele>144.8</ele><time>2026-05-03T07:07:41.033Z</time></trkpt><trkpt lat="45.007937" lon="8.5540903"><ele>144.6</ele><time>2026-05-03T07:07:42.032Z</time></trkpt><trkpt lat="45.0078423" lon="8.5540936"><ele>144.4</ele><time>2026-05-03T07:07:43.032Z</time></trkpt><trkpt lat="45.0077469" lon="8.5540934"><ele>144.2</ele><time>2026-05-03T07:07:44.032Z</time></trkpt><trkpt lat="45.0076529" lon="8.5540945"><ele>144.0</ele><time>2026-05-03T07:07:45.032Z</time></trkpt><trkpt lat="45.0075584" lon="8.5540916"><ele>144.83333333333334</ele><time>2026-05-03T07:07:46.032Z</time></trkpt><trkpt lat="45.0074648" lon="8.5540863"><ele>145.66666666666666</ele><time>2026-05-03T07:07:47.032Z</time></trkpt><trkpt lat="45.0073734" lon="8.5540794"><ele>146.5</ele><time>2026-05-03T07:07:48.032Z</time></trkpt><trkpt lat="45.0072863" lon="8.5540737"><ele>147.33333333333331</ele><time>2026-05-03T07:07:49.033Z</time></trkpt><trkpt lat="45.0072" lon="8.5540677"><ele>148.16666666666666</ele><time>2026-05-03T07:07:50.032Z</time></trkpt><trkpt lat="45.0071112" lon="8.5540575"><ele>149.0</ele><time>2026-05-03T07:07:51.032Z</time></trkpt><trkpt lat="45.0070204" lon="8.5540427"><ele>149.0</ele><time>2026-05-03T07:07:52.033Z</time></trkpt><trkpt lat="45.00693" lon="8.5540247"><ele>149.0</ele><time>2026-05-03T07:07:53.033Z</time></trkpt><trkpt lat="45.0068406" lon="8.5540059"><ele>149.0</ele><time>2026-05-03T07:07:54.033Z</time></trkpt><trkpt lat="45.0067457" lon="8.5539845"><ele>149.0</ele><time>2026-05-03T07:07:55.033Z</time></trkpt><trkpt lat="45.0066489" lon="8.5539633"><ele>149.0</ele><time>2026-05-03T07:07:56.033Z</time></trkpt><trkpt lat="45.0065532" lon="8.5539448"><ele>149.4</ele><time>2026-05-03T07:07:57.034Z</time></trkpt><trkpt lat="45.0064565" lon="8.5539232"><ele>149.8</ele><time>2026-05-03T07:07:58.034Z</time></trkpt><trkpt lat="45.0063625" lon="8.5538938"><ele>150.2</ele><time>2026-05-03T07:07:59.033Z</time></trkpt><trkpt lat="45.0062669" lon="8.5538689"><ele>150.6</ele><time>2026-05-03T07:08:00.033Z</time></trkpt><trkpt lat="45.0061716" lon="8.5538434"><ele>151.0</ele><time>2026-05-03T07:08:01.034Z</time></trkpt><trkpt lat="45.0060791" lon="8.5538194"><ele>151.0</ele><time>2026-05-03T07:08:02.033Z</time></trkpt><trkpt lat="45.0059887" lon="8.5537924"><ele>151.0</ele><time>2026-05-03T07:08:03.033Z</time></trkpt><trkpt lat="45.0058974" lon="8.5537579"><ele>151.0</ele><time>2026-05-03T07:08:04.034Z</time></trkpt><trkpt lat="45.0058063" lon="8.5537258"><ele>151.0</ele><time>2026-05-03T07:08:05.033Z</time></trkpt><trkpt lat="45.0057171" lon="8.5536989"><ele>151.0</ele><time>2026-05-03T07:08:06.033Z</time></trkpt><trkpt lat="45.0056248" lon="8.5536739"><ele>152.6</ele><time>2026-05-03T07:08:07.033Z</time></trkpt><trkpt lat="45.0055335" lon="8.5536468"><ele>154.2</ele><time>2026-05-03T07:08:08.033Z</time></trkpt><trkpt lat="45.0054393" lon="8.5536145"><ele>155.8</ele><time>2026-05-03T07:08:09.033Z</time></trkpt><trkpt lat="45.005345" lon="8.5535797"><ele>157.4</ele><time>2026-05-03T07:08:10.033Z</time></trkpt><trkpt lat="45.0052521" lon="8.553545"><ele>159.0</ele><time>2026-05-03T07:08:11.034Z</time></trkpt><trkpt lat="45.0051589" lon="8.5535071"><ele>159.0</ele><time>2026-05-03T07:08:12.033Z</time></trkpt><trkpt lat="45.0050651" lon="8.5534721"><ele>159.0</ele><time>2026-05-03T07:08:13.033Z</time></trkpt><trkpt lat="45.004973" lon="8.5534365"><ele>159.0</ele><time>2026-05-03T07:08:14.034Z</time></trkpt><trkpt lat="45.004882" lon="8.5534045"><ele>159.0</ele><time>2026-05-03T07:08:15.034Z</time></trkpt><trkpt lat="45.0047887" lon="8.5533677"><ele>159.0</ele><time>2026-05-03T07:08:16.033Z</time></trkpt><trkpt lat="45.0046941" lon="8.5533314"><ele>159.4</ele><time>2026-05-03T07:08:17.033Z</time></trkpt><trkpt lat="45.0046005" lon="8.5532973"><ele>159.8</ele><time>2026-05-03T07:08:18.033Z</time></trkpt><trkpt lat="45.0045107" lon="8.5532627"><ele>160.20000000000002</ele><time>2026-05-03T07:08:19.033Z</time></trkpt><trkpt lat="45.004422" lon="8.5532301"><ele>160.60000000000002</ele><time>2026-05-03T07:08:20.033Z</time></trkpt><trkpt lat="45.0043308" lon="8.5531964"><ele>161.0</ele><time>2026-05-03T07:08:21.033Z</time></trkpt><trkpt lat="45.00424" lon="8.5531654"><ele>161.0</ele><time>2026-05-03T07:08:22.033Z</time></trkpt><trkpt lat="45.0041475" lon="8.5531298"><ele>161.0</ele><time>2026-05-03T07:08:23.034Z</time></trkpt><trkpt lat="45.0040514" lon="8.5530983"><ele>161.0</ele><time>2026-05-03T07:08:24.033Z</time></trkpt><trkpt lat="45.0039591" lon="8.5530667"><ele>161.0</ele><time>2026-05-03T07:08:25.033Z</time></trkpt><trkpt lat="45.0038662" lon="8.553042"><ele>161.0</ele><time>2026-05-03T07:08:26.034Z</time></trkpt><trkpt lat="45.0037743" lon="8.5530143"><ele>161.0</ele><time>2026-05-03T07:08:27.034Z</time></trkpt><trkpt lat="45.0036812" lon="8.5529794"><ele>161.0</ele><time>2026-05-03T07:08:28.034Z</time></trkpt><trkpt lat="45.0035917" lon="8.5529431"><ele>161.0</ele><time>2026-05-03T07:08:29.033Z</time></trkpt><trkpt lat="45.0035048" lon="8.5529123"><ele>161.0</ele><time>2026-05-03T07:08:30.033Z</time></trkpt><trkpt lat="45.0034154" lon="8.5528799"><ele>161.0</ele><time>2026-05-03T07:08:31.033Z</time></trkpt><trkpt lat="45.003324" lon="8.5528459"><ele>162.20000000000002</ele><time>2026-05-03T07:08:32.034Z</time></trkpt><trkpt lat="45.0032318" lon="8.552815"><ele>163.4</ele><time>2026-05-03T07:08:33.033Z</time></trkpt><trkpt lat="45.0031404" lon="8.5527816"><ele>164.6</ele><time>2026-05-03T07:08:34.033Z</time></trkpt><trkpt lat="45.0030501" lon="8.5527469"><ele>165.8</ele><time>2026-05-03T07:08:35.034Z</time></trkpt><trkpt lat="45.0029575" lon="8.5527143"><ele>167.0</ele><time>2026-05-03T07:08:36.035Z</time></trkpt><trkpt lat="45.0028649" lon="8.5526767"><ele>167.0</ele><time>2026-05-03T07:08:37.034Z</time></trkpt><trkpt lat="45.0027765" lon="8.5526388"><ele>167.0</ele><time>2026-05-03T07:08:38.034Z</time></trkpt><trkpt lat="45.0026876" lon="8.5526006"><ele>167.0</ele><time>2026-05-03T07:08:39.034Z</time></trkpt><trkpt lat="45.0025986" lon="8.5525679"><ele>167.0</ele><time>2026-05-03T07:08:40.035Z</time></trkpt><trkpt lat="45.0025061" lon="8.5525404"><ele>167.0</ele><time>2026-05-03T07:08:41.034Z</time></trkpt><trkpt lat="45.0024106" lon="8.55251"><ele>166.8</ele><time>2026-05-03T07:08:42.035Z</time></trkpt><trkpt lat="45.0023175" lon="8.5524782"><ele>166.6</ele><time>2026-05-03T07:08:43.034Z</time></trkpt><trkpt lat="45.0022235" lon="8.5524458"><ele>166.4</ele><time>2026-05-03T07:08:44.034Z</time></trkpt><trkpt lat="45.0021296" lon="8.5524148"><ele>166.20000000000002</ele><time>2026-05-03T07:08:45.035Z</time></trkpt><trkpt lat="45.002039" lon="8.552383"><ele>166.0</ele><time>2026-05-03T07:08:46.035Z</time></trkpt><trkpt lat="45.0019446" lon="8.5523505"><ele>166.0</ele><time>2026-05-03T07:08:47.035Z</time></trkpt><trkpt lat="45.0018522" lon="8.5523156"><ele>166.0</ele><time>2026-05-03T07:08:48.034Z</time></trkpt><trkpt lat="45.0017575" lon="8.5522805"><ele>166.0</ele><time>2026-05-03T07:08:49.034Z</time></trkpt><trkpt lat="45.0016632" lon="8.5522454"><ele>166.0</ele><time>2026-05-03T07:08:50.034Z</time></trkpt><trkpt lat="45.0015658" lon="8.5522119"><ele>166.0</ele><time>2026-05-03T07:08:51.034Z</time></trkpt><trkpt lat="45.0014697" lon="8.5521793"><ele>167.0</ele><time>2026-05-03T07:08:52.035Z</time></trkpt><trkpt lat="45.0013764" lon="8.5521469"><ele>168.0</ele><time>2026-05-03T07:08:53.034Z</time></trkpt><trkpt lat="45.0012837" lon="8.5521149"><ele>169.0</ele><time>2026-05-03T07:08:54.034Z</time></trkpt><trkpt lat="45.001189" lon="8.5520829"><ele>170.0</ele><time>2026-05-03T07:08:55.035Z</time></trkpt><trkpt lat="45.0010921" lon="8.5520523"><ele>171.0</ele><time>2026-05-03T07:08:56.034Z</time></trkpt><trkpt lat="45.0009937" lon="8.552025"><ele>173.75</ele><time>2026-05-03T07:08:57.035Z</time></trkpt><trkpt lat="45.0008022" lon="8.5519885"><ele>176.5</ele><time>2026-05-03T07:08:59.034Z</time></trkpt><trkpt lat="45.0007077" lon="8.5519815"><ele>179.25</ele><time>2026-05-03T07:09:00.035Z</time></trkpt><trkpt lat="45.000613" lon="8.5519744"><ele>182.0</ele><time>2026-05-03T07:09:01.034Z</time></trkpt><trkpt lat="45.0005164" lon="8.5519692"><ele>182.0</ele><time>2026-05-03T07:09:02.034Z</time></trkpt><trkpt lat="45.0004238" lon="8.5519642"><ele>182.0</ele><time>2026-05-03T07:09:03.034Z</time></trkpt><trkpt lat="45.0003337" lon="8.5519642"><ele>182.0</ele><time>2026-05-03T07:09:04.034Z</time></trkpt><trkpt lat="45.0002419" lon="8.5519684"><ele>182.0</ele><time>2026-05-03T07:09:05.035Z</time></trkpt><trkpt lat="45.0001481" lon="8.551975"><ele>182.0</ele><time>2026-05-03T07:09:06.035Z</time></trkpt><trkpt lat="45.0000522" lon="8.5519853"><ele>182.0</ele><time>2026-05-03T07:09:07.034Z</time></trkpt><trkpt lat="44.9999557" lon="8.5519953"><ele>182.0</ele><time>2026-05-03T07:09:08.034Z</time></trkpt><trkpt lat="44.9998606" lon="8.5520127"><ele>182.0</ele><time>2026-05-03T07:09:09.034Z</time></trkpt><trkpt lat="44.9997671" lon="8.5520336"><ele>182.0</ele><time>2026-05-03T07:09:10.034Z</time></trkpt><trkpt lat="44.9996738" lon="8.5520561"><ele>182.0</ele><time>2026-05-03T07:09:11.034Z</time></trkpt><trkpt lat="44.9995794" lon="8.5520813"><ele>181.2</ele><time>2026-05-03T07:09:12.035Z</time></trkpt><trkpt lat="44.9994863" lon="8.5521109"><ele>180.39999999999998</ele><time>2026-05-03T07:09:13.035Z</time></trkpt><trkpt lat="44.9993949" lon="8.5521452"><ele>179.60000000000002</ele><time>2026-05-03T07:09:14.035Z</time></trkpt><trkpt lat="44.9993037" lon="8.5521828"><ele>178.8</ele><time>2026-05-03T07:09:15.034Z</time></trkpt><trkpt lat="44.9992129" lon="8.5522224"><ele>178.0</ele><time>2026-05-03T07:09:16.034Z</time></trkpt><trkpt lat="44.9991231" lon="8.5522706"><ele>178.0</ele><time>2026-05-03T07:09:17.035Z</time></trkpt><trkpt lat="44.9990313" lon="8.5523236"><ele>178.0</ele><time>2026-05-03T07:09:18.036Z</time></trkpt><trkpt lat="44.9989426" lon="8.5523796"><ele>178.0</ele><time>2026-05-03T07:09:19.036Z</time></trkpt><trkpt lat="44.9988538" lon="8.5524432"><ele>178.0</ele><time>2026-05-03T07:09:20.035Z</time></trkpt><trkpt lat="44.9987666" lon="8.5525096"><ele>178.0</ele><time>2026-05-03T07:09:21.036Z</time></trkpt><trkpt lat="44.9986806" lon="8.5525719"><ele>178.0</ele><time>2026-05-03T07:09:22.035Z</time></trkpt><trkpt lat="44.9985974" lon="8.5526356"><ele>178.0</ele><time>2026-05-03T07:09:23.035Z</time></trkpt><trkpt lat="44.9985135" lon="8.5526979"><ele>178.0</ele><time>2026-05-03T07:09:24.036Z</time></trkpt><trkpt lat="44.9984307" lon="8.5527686"><ele>178.0</ele><time>2026-05-03T07:09:25.036Z</time></trkpt><trkpt lat="44.9983495" lon="8.552843"><ele>178.0</ele><time>2026-05-03T07:09:26.036Z</time></trkpt><trkpt lat="44.9982691" lon="8.5529234"><ele>178.8</ele><time>2026-05-03T07:09:27.035Z</time></trkpt><trkpt lat="44.9981928" lon="8.5530064"><ele>179.60000000000002</ele><time>2026-05-03T07:09:28.036Z</time></trkpt><trkpt lat="44.9981204" lon="8.5530892"><ele>180.39999999999998</ele><time>2026-05-03T07:09:29.036Z</time></trkpt><trkpt lat="44.9980479" lon="8.553176"><ele>181.2</ele><time>2026-05-03T07:09:30.035Z</time></trkpt><trkpt lat="44.9979743" lon="8.5532678"><ele>182.0</ele><time>2026-05-03T07:09:31.036Z</time></trkpt><trkpt lat="44.9979014" lon="8.5533615"><ele>182.0</ele><time>2026-05-03T07:09:32.036Z</time></trkpt><trkpt lat="44.9978272" lon="8.5534456"><ele>182.0</ele><time>2026-05-03T07:09:33.036Z</time></trkpt><trkpt lat="44.9976822" lon="8.5536179"><ele>182.0</ele><time>2026-05-03T07:09:35.036Z</time></trkpt><trkpt lat="44.9953681" lon="8.5561652"><ele>181.6</ele><time>2026-05-03T07:10:05.036Z</time></trkpt><trkpt lat="44.9952887" lon="8.5562912"><ele>181.2</ele><time>2026-05-03T07:10:06.037Z</time></trkpt><trkpt lat="44.9952154" lon="8.5563858"><ele>180.8</ele><time>2026-05-03T07:10:07.036Z</time></trkpt><trkpt lat="44.9951407" lon="8.5564757"><ele>180.4</ele><time>2026-05-03T07:10:08.037Z</time></trkpt><trkpt lat="44.9950634" lon="8.5565659"><ele>180.0</ele><time>2026-05-03T07:10:09.036Z</time></trkpt><trkpt lat="44.9949887" lon="8.5566512"><ele>178.2</ele><time>2026-05-03T07:10:10.037Z</time></trkpt><trkpt lat="44.9949169" lon="8.5567331"><ele>176.4</ele><time>2026-05-03T07:10:11.036Z</time></trkpt><trkpt lat="44.99484" lon="8.5568164"><ele>174.60000000000002</ele><time>2026-05-03T07:10:12.037Z</time></trkpt><trkpt lat="44.9947627" lon="8.5568979"><ele>172.8</ele><time>2026-05-03T07:10:13.036Z</time></trkpt><trkpt lat="44.9946821" lon="8.5569817"><ele>171.0</ele><time>2026-05-03T07:10:14.036Z</time></trkpt><trkpt lat="44.9945971" lon="8.5570733"><ele>170.0</ele><time>2026-05-03T07:10:15.037Z</time></trkpt><trkpt lat="44.9945118" lon="8.557161"><ele>169.0</ele><time>2026-05-03T07:10:16.036Z</time></trkpt><trkpt lat="44.9944259" lon="8.557244"><ele>168.0</ele><time>2026-05-03T07:10:17.036Z</time></trkpt><trkpt lat="44.9943383" lon="8.5573229"><ele>167.0</ele><time>2026-05-03T07:10:18.036Z</time></trkpt><trkpt lat="44.9942497" lon="8.5574043"><ele>166.0</ele><time>2026-05-03T07:10:19.036Z</time></trkpt><trkpt lat="44.9941609" lon="8.5574863"><ele>166.0</ele><time>2026-05-03T07:10:20.036Z</time></trkpt><trkpt lat="44.994072" lon="8.557568"><ele>166.0</ele><time>2026-05-03T07:10:21.036Z</time></trkpt><trkpt lat="44.9939835" lon="8.5576498"><ele>166.0</ele><time>2026-05-03T07:10:22.036Z</time></trkpt><trkpt lat="44.9938958" lon="8.5577323"><ele>166.0</ele><time>2026-05-03T07:10:23.037Z</time></trkpt><trkpt lat="44.9938064" lon="8.5578167"><ele>166.0</ele><time>2026-05-03T07:10:24.036Z</time></trkpt><trkpt lat="44.993719" lon="8.5578992"><ele>165.0</ele><time>2026-05-03T07:10:25.036Z</time></trkpt><trkpt lat="44.9936303" lon="8.5579817"><ele>164.0</ele><time>2026-05-03T07:10:26.036Z</time></trkpt><trkpt lat="44.9935405" lon="8.5580633"><ele>163.0</ele><time>2026-05-03T07:10:27.036Z</time></trkpt><trkpt lat="44.9934499" lon="8.5581468"><ele>162.0</ele><time>2026-05-03T07:10:28.036Z</time></trkpt><trkpt lat="44.9933634" lon="8.5582274"><ele>161.0</ele><time>2026-05-03T07:10:29.036Z</time></trkpt><trkpt lat="44.9932774" lon="8.5583091"><ele>161.0</ele><time>2026-05-03T07:10:30.036Z</time></trkpt><trkpt lat="44.9931923" lon="8.5583892"><ele>161.0</ele><time>2026-05-03T07:10:31.036Z</time></trkpt><trkpt lat="44.993108" lon="8.558471"><ele>161.0</ele><time>2026-05-03T07:10:32.036Z</time></trkpt><trkpt lat="44.993021" lon="8.5585487"><ele>161.0</ele><time>2026-05-03T07:10:33.036Z</time></trkpt><trkpt lat="44.9929294" lon="8.5586274"><ele>161.0</ele><time>2026-05-03T07:10:34.036Z</time></trkpt><trkpt lat="44.9928363" lon="8.5587054"><ele>159.60000000000002</ele><time>2026-05-03T07:10:35.037Z</time></trkpt><trkpt lat="44.9927407" lon="8.5587787"><ele>158.20000000000002</ele><time>2026-05-03T07:10:36.036Z</time></trkpt><trkpt lat="44.9926468" lon="8.5588464"><ele>156.8</ele><time>2026-05-03T07:10:37.036Z</time></trkpt><trkpt lat="44.9925504" lon="8.5589175"><ele>155.4</ele><time>2026-05-03T07:10:38.037Z</time></trkpt><trkpt lat="44.9924511" lon="8.558985"><ele>154.0</ele><time>2026-05-03T07:10:39.037Z</time></trkpt><trkpt lat="44.9923516" lon="8.5590479"><ele>154.0</ele><time>2026-05-03T07:10:40.038Z</time></trkpt><trkpt lat="44.9922531" lon="8.5591108"><ele>154.0</ele><time>2026-05-03T07:10:41.038Z</time></trkpt><trkpt lat="44.9921586" lon="8.5591689"><ele>154.0</ele><time>2026-05-03T07:10:42.037Z</time></trkpt><trkpt lat="44.9920611" lon="8.5592297"><ele>154.0</ele><time>2026-05-03T07:10:43.037Z</time></trkpt><trkpt lat="44.9919647" lon="8.5592908"><ele>154.0</ele><time>2026-05-03T07:10:44.037Z</time></trkpt><trkpt lat="44.9918653" lon="8.559349"><ele>154.0</ele><time>2026-05-03T07:10:45.038Z</time></trkpt><trkpt lat="44.9917659" lon="8.5594024"><ele>154.0</ele><time>2026-05-03T07:10:46.037Z</time></trkpt><trkpt lat="44.9916674" lon="8.5594492"><ele>154.0</ele><time>2026-05-03T07:10:47.037Z</time></trkpt><trkpt lat="44.9915661" lon="8.5594919"><ele>154.0</ele><time>2026-05-03T07:10:48.037Z</time></trkpt><trkpt lat="44.9914672" lon="8.5595302"><ele>154.0</ele><time>2026-05-03T07:10:49.037Z</time></trkpt><trkpt lat="44.9913656" lon="8.5595682"><ele>153.2</ele><time>2026-05-03T07:10:50.038Z</time></trkpt><trkpt lat="44.9912628" lon="8.5596021"><ele>152.4</ele><time>2026-05-03T07:10:51.038Z</time></trkpt><trkpt lat="44.9911554" lon="8.5596349"><ele>151.6</ele><time>2026-05-03T07:10:52.037Z</time></trkpt><trkpt lat="44.9910494" lon="8.5596629"><ele>150.8</ele><time>2026-05-03T07:10:53.037Z</time></trkpt><trkpt lat="44.9909477" lon="8.559689"><ele>150.0</ele><time>2026-05-03T07:10:54.037Z</time></trkpt><trkpt lat="44.990847" lon="8.5597173"><ele>149.6</ele><time>2026-05-03T07:10:55.037Z</time></trkpt><trkpt lat="44.9907452" lon="8.5597387"><ele>149.2</ele><time>2026-05-03T07:10:56.037Z</time></trkpt><trkpt lat="44.990639" lon="8.5597568"><ele>148.8</ele><time>2026-05-03T07:10:57.038Z</time></trkpt><trkpt lat="44.9905331" lon="8.5597721"><ele>148.4</ele><time>2026-05-03T07:10:58.037Z</time></trkpt><trkpt lat="44.9904235" lon="8.5597883"><ele>148.0</ele><time>2026-05-03T07:10:59.038Z</time></trkpt><trkpt lat="44.9903185" lon="8.5598038"><ele>148.0</ele><time>2026-05-03T07:11:00.038Z</time></trkpt><trkpt lat="44.9902164" lon="8.5598181"><ele>148.0</ele><time>2026-05-03T07:11:01.038Z</time></trkpt><trkpt lat="44.9901107" lon="8.5598302"><ele>148.0</ele><time>2026-05-03T07:11:02.037Z</time></trkpt><trkpt lat="44.9900044" lon="8.5598372"><ele>148.0</ele><time>2026-05-03T07:11:03.037Z</time></trkpt><trkpt lat="44.9898989" lon="8.5598405"><ele>148.0</ele><time>2026-05-03T07:11:04.037Z</time></trkpt><trkpt lat="44.9897934" lon="8.5598413"><ele>147.20000000000002</ele><time>2026-05-03T07:11:05.037Z</time></trkpt><trkpt lat="44.9896868" lon="8.5598363"><ele>146.4</ele><time>2026-05-03T07:11:06.037Z</time></trkpt><trkpt lat="44.9895802" lon="8.5598288"><ele>145.60000000000002</ele><time>2026-05-03T07:11:07.037Z</time></trkpt><trkpt lat="44.989473" lon="8.5598197"><ele>144.8</ele><time>2026-05-03T07:11:08.037Z</time></trkpt><trkpt lat="44.9893672" lon="8.5598054"><ele>144.0</ele><time>2026-05-03T07:11:09.037Z</time></trkpt><trkpt lat="44.9892642" lon="8.5597945"><ele>143.2</ele><time>2026-05-03T07:11:10.037Z</time></trkpt><trkpt lat="44.9891673" lon="8.559778"><ele>142.4</ele><time>2026-05-03T07:11:11.037Z</time></trkpt><trkpt lat="44.9890669" lon="8.5597621"><ele>141.6</ele><time>2026-05-03T07:11:12.037Z</time></trkpt><trkpt lat="44.9889633" lon="8.5597436"><ele>140.8</ele><time>2026-05-03T07:11:13.038Z</time></trkpt><trkpt lat="44.9888545" lon="8.5597205"><ele>140.0</ele><time>2026-05-03T07:11:14.037Z</time></trkpt><trkpt lat="44.9887472" lon="8.559693"><ele>140.0</ele><time>2026-05-03T07:11:15.038Z</time></trkpt><trkpt lat="44.9886415" lon="8.5596596"><ele>140.0</ele><time>2026-05-03T07:11:16.037Z</time></trkpt><trkpt lat="44.9885358" lon="8.5596252"><ele>140.0</ele><time>2026-05-03T07:11:17.038Z</time></trkpt><trkpt lat="44.9884312" lon="8.5595907"><ele>140.0</ele><time>2026-05-03T07:11:18.037Z</time></trkpt><trkpt lat="44.9883303" lon="8.5595574"><ele>140.0</ele><time>2026-05-03T07:11:19.038Z</time></trkpt><trkpt lat="44.9882288" lon="8.5595213"><ele>140.0</ele><time>2026-05-03T07:11:20.037Z</time></trkpt><trkpt lat="44.9881286" lon="8.5594802"><ele>140.0</ele><time>2026-05-03T07:11:21.039Z</time></trkpt><trkpt lat="44.9880289" lon="8.5594368"><ele>140.0</ele><time>2026-05-03T07:11:22.038Z</time></trkpt><trkpt lat="44.9879297" lon="8.5593883"><ele>140.0</ele><time>2026-05-03T07:11:23.038Z</time></trkpt><trkpt lat="44.9878304" lon="8.5593383"><ele>140.0</ele><time>2026-05-03T07:11:24.038Z</time></trkpt><trkpt lat="44.9877312" lon="8.5592819"><ele>140.0</ele><time>2026-05-03T07:11:25.038Z</time></trkpt><trkpt lat="44.9876328" lon="8.5592271"><ele>140.0</ele><time>2026-05-03T07:11:26.039Z</time></trkpt><trkpt lat="44.9875336" lon="8.5591723"><ele>140.0</ele><time>2026-05-03T07:11:27.038Z</time></trkpt><trkpt lat="44.9874318" lon="8.5591191"><ele>140.0</ele><time>2026-05-03T07:11:28.039Z</time></trkpt><trkpt lat="44.987331" lon="8.5590693"><ele>140.0</ele><time>2026-05-03T07:11:29.038Z</time></trkpt><trkpt lat="44.9872328" lon="8.5590203"><ele>139.0</ele><time>2026-05-03T07:11:30.039Z</time></trkpt><trkpt lat="44.9871355" lon="8.5589715"><ele>138.0</ele><time>2026-05-03T07:11:31.038Z</time></trkpt><trkpt lat="44.9870377" lon="8.558923"><ele>137.0</ele><time>2026-05-03T07:11:32.039Z</time></trkpt><trkpt lat="44.9869405" lon="8.5588724"><ele>136.0</ele><time>2026-05-03T07:11:33.038Z</time></trkpt><trkpt lat="44.9868423" lon="8.5588234"><ele>135.0</ele><time>2026-05-03T07:11:34.038Z</time></trkpt><trkpt lat="44.9867453" lon="8.5587735"><ele>134.8</ele><time>2026-05-03T07:11:35.039Z</time></trkpt><trkpt lat="44.9866472" lon="8.5587218"><ele>134.6</ele><time>2026-05-03T07:11:36.038Z</time></trkpt><trkpt lat="44.98655" lon="8.5586714"><ele>134.4</ele><time>2026-05-03T07:11:37.038Z</time></trkpt><trkpt lat="44.9864503" lon="8.558619"><ele>134.2</ele><time>2026-05-03T07:11:38.039Z</time></trkpt><trkpt lat="44.9863492" lon="8.5585682"><ele>134.0</ele><time>2026-05-03T07:11:39.038Z</time></trkpt><trkpt lat="44.9862492" lon="8.558518"><ele>134.0</ele><time>2026-05-03T07:11:40.038Z</time></trkpt><trkpt lat="44.9861495" lon="8.5584676"><ele>134.0</ele><time>2026-05-03T07:11:41.038Z</time></trkpt><trkpt lat="44.9860492" lon="8.5584179"><ele>134.0</ele><time>2026-05-03T07:11:42.038Z</time></trkpt><trkpt lat="44.9859497" lon="8.5583674"><ele>134.0</ele><time>2026-05-03T07:11:43.038Z</time></trkpt><trkpt lat="44.9858502" lon="8.5583178"><ele>134.0</ele><time>2026-05-03T07:11:44.038Z</time></trkpt><trkpt lat="44.9857502" lon="8.5582662"><ele>133.2</ele><time>2026-05-03T07:11:45.038Z</time></trkpt><trkpt lat="44.9856487" lon="8.5582149"><ele>132.4</ele><time>2026-05-03T07:11:46.039Z</time></trkpt><trkpt lat="44.9855474" lon="8.5581638"><ele>131.6</ele><time>2026-05-03T07:11:47.038Z</time></trkpt><trkpt lat="44.985447" lon="8.5581118"><ele>130.8</ele><time>2026-05-03T07:11:48.039Z</time></trkpt><trkpt lat="44.9853481" lon="8.5580603"><ele>130.0</ele><time>2026-05-03T07:11:49.039Z</time></trkpt><trkpt lat="44.9852503" lon="8.5580112"><ele>130.0</ele><time>2026-05-03T07:11:50.038Z</time></trkpt><trkpt lat="44.985153" lon="8.557963"><ele>130.0</ele><time>2026-05-03T07:11:51.038Z</time></trkpt><trkpt lat="44.9850558" lon="8.5579125"><ele>130.0</ele><time>2026-05-03T07:11:52.039Z</time></trkpt><trkpt lat="44.9849606" lon="8.5578649"><ele>130.0</ele><time>2026-05-03T07:11:53.038Z</time></trkpt><trkpt lat="44.9848664" lon="8.5578174"><ele>130.0</ele><time>2026-05-03T07:11:54.038Z</time></trkpt><trkpt lat="44.9847717" lon="8.5577697"><ele>129.4</ele><time>2026-05-03T07:11:55.038Z</time></trkpt><trkpt lat="44.9846748" lon="8.5577198"><ele>128.8</ele><time>2026-05-03T07:11:56.039Z</time></trkpt><trkpt lat="44.9845796" lon="8.5576731"><ele>128.2</ele><time>2026-05-03T07:11:57.039Z</time></trkpt><trkpt lat="44.9844875" lon="8.557626"><ele>127.6</ele><time>2026-05-03T07:11:58.039Z</time></trkpt><trkpt lat="44.984394" lon="8.5575768"><ele>127.0</ele><time>2026-05-03T07:11:59.038Z</time></trkpt><trkpt lat="44.9843019" lon="8.5575267"><ele>127.0</ele><time>2026-05-03T07:12:00.038Z</time></trkpt><trkpt lat="44.9842091" lon="8.5574784"><ele>126.99999999999999</ele><time>2026-05-03T07:12:01.038Z</time></trkpt><trkpt lat="44.9841142" lon="8.5574343"><ele>126.99999999999999</ele><time>2026-05-03T07:12:02.039Z</time></trkpt><trkpt lat="44.9840225" lon="8.5573986"><ele>127.0</ele><time>2026-05-03T07:12:03.04Z</time></trkpt><trkpt lat="44.9839278" lon="8.5573644"><ele>127.0</ele><time>2026-05-03T07:12:04.04Z</time></trkpt><trkpt lat="44.9838315" lon="8.5573357"><ele>126.8</ele><time>2026-05-03T07:12:05.039Z</time></trkpt><trkpt lat="44.9837347" lon="8.5573094"><ele>126.6</ele><time>2026-05-03T07:12:06.039Z</time></trkpt><trkpt lat="44.9836367" lon="8.557283"><ele>126.39999999999999</ele><time>2026-05-03T07:12:07.039Z</time></trkpt><trkpt lat="44.9835418" lon="8.5572575"><ele>126.19999999999999</ele><time>2026-05-03T07:12:08.039Z</time></trkpt><trkpt lat="44.9834451" lon="8.5572361"><ele>126.0</ele><time>2026-05-03T07:12:09.039Z</time></trkpt><trkpt lat="44.9833448" lon="8.557219"><ele>127.4</ele><time>2026-05-03T07:12:10.04Z</time></trkpt><trkpt lat="44.9832424" lon="8.5572053"><ele>128.8</ele><time>2026-05-03T07:12:11.039Z</time></trkpt><trkpt lat="44.9831422" lon="8.5571939"><ele>130.20000000000002</ele><time>2026-05-03T07:12:12.039Z</time></trkpt><trkpt lat="44.9830424" lon="8.5571872"><ele>131.6</ele><time>2026-05-03T07:12:13.04Z</time></trkpt><trkpt lat="44.9829428" lon="8.5571832"><ele>133.0</ele><time>2026-05-03T07:12:14.04Z</time></trkpt><trkpt lat="44.9828445" lon="8.5571823"><ele>133.0</ele><time>2026-05-03T07:12:15.039Z</time></trkpt><trkpt lat="44.9827458" lon="8.557182"><ele>133.0</ele><time>2026-05-03T07:12:16.04Z</time></trkpt><trkpt lat="44.9826442" lon="8.5571836"><ele>133.0</ele><time>2026-05-03T07:12:17.04Z</time></trkpt><trkpt lat="44.9825427" lon="8.5571925"><ele>133.0</ele><time>2026-05-03T07:12:18.04Z</time></trkpt><trkpt lat="44.9824444" lon="8.5572054"><ele>133.0</ele><time>2026-05-03T07:12:19.039Z</time></trkpt><trkpt lat="44.9823489" lon="8.5572227"><ele>132.4</ele><time>2026-05-03T07:12:20.039Z</time></trkpt><trkpt lat="44.9822493" lon="8.557243"><ele>131.8</ele><time>2026-05-03T07:12:21.04Z</time></trkpt><trkpt lat="44.9821522" lon="8.5572648"><ele>131.2</ele><time>2026-05-03T07:12:22.039Z</time></trkpt><trkpt lat="44.9820582" lon="8.5572858"><ele>130.6</ele><time>2026-05-03T07:12:23.039Z</time></trkpt><trkpt lat="44.9819612" lon="8.5573095"><ele>130.0</ele><time>2026-05-03T07:12:24.039Z</time></trkpt><trkpt lat="44.9818621" lon="8.5573324"><ele>130.0</ele><time>2026-05-03T07:12:25.039Z</time></trkpt><trkpt lat="44.9817663" lon="8.5573561"><ele>130.0</ele><time>2026-05-03T07:12:26.039Z</time></trkpt><trkpt lat="44.9816728" lon="8.5573773"><ele>130.0</ele><time>2026-05-03T07:12:27.039Z</time></trkpt><trkpt lat="44.9815791" lon="8.5573987"><ele>130.0</ele><time>2026-05-03T07:12:28.04Z</time></trkpt><trkpt lat="44.9814933" lon="8.5574185"><ele>130.0</ele><time>2026-05-03T07:12:29.04Z</time></trkpt><trkpt lat="44.9814084" lon="8.5574376"><ele>129.8</ele><time>2026-05-03T07:12:30.039Z</time></trkpt><trkpt lat="44.9813195" lon="8.557458"><ele>129.6</ele><time>2026-05-03T07:12:31.039Z</time></trkpt><trkpt lat="44.9812322" lon="8.5574822"><ele>129.4</ele><time>2026-05-03T07:12:32.04Z</time></trkpt><trkpt lat="44.9811297" lon="8.5575"><ele>129.2</ele><time>2026-05-03T07:12:33.039Z</time></trkpt><trkpt lat="44.9810302" lon="8.5575196"><ele>129.0</ele><time>2026-05-03T07:12:34.039Z</time></trkpt><trkpt lat="44.9809308" lon="8.5575392"><ele>129.6</ele><time>2026-05-03T07:12:35.039Z</time></trkpt><trkpt lat="44.9808334" lon="8.557557"><ele>130.2</ele><time>2026-05-03T07:12:36.04Z</time></trkpt><trkpt lat="44.9807388" lon="8.5575705"><ele>130.79999999999998</ele><time>2026-05-03T07:12:37.039Z</time></trkpt><trkpt lat="44.9806451" lon="8.5575803"><ele>131.4</ele><time>2026-05-03T07:12:38.039Z</time></trkpt><trkpt lat="44.9805508" lon="8.5575918"><ele>132.0</ele><time>2026-05-03T07:12:39.039Z</time></trkpt><trkpt lat="44.9804543" lon="8.5576078"><ele>132.0</ele><time>2026-05-03T07:12:40.039Z</time></trkpt><trkpt lat="44.980358" lon="8.5576283"><ele>132.0</ele><time>2026-05-03T07:12:41.039Z</time></trkpt><trkpt lat="44.9802632" lon="8.5576506"><ele>132.0</ele><time>2026-05-03T07:12:42.039Z</time></trkpt><trkpt lat="44.98017" lon="8.5576723"><ele>132.0</ele><time>2026-05-03T07:12:43.039Z</time></trkpt><trkpt lat="44.9800785" lon="8.5576912"><ele>132.0</ele><time>2026-05-03T07:12:44.04Z</time></trkpt><trkpt lat="44.9799847" lon="8.5577057"><ele>133.4</ele><time>2026-05-03T07:12:45.041Z</time></trkpt><trkpt lat="44.9798888" lon="8.5577246"><ele>134.79999999999998</ele><time>2026-05-03T07:12:46.04Z</time></trkpt><trkpt lat="44.9797932" lon="8.5577417"><ele>136.2</ele><time>2026-05-03T07:12:47.04Z</time></trkpt><trkpt lat="44.979693" lon="8.5577659"><ele>137.6</ele><time>2026-05-03T07:12:48.04Z</time></trkpt><trkpt lat="44.9795971" lon="8.5577876"><ele>139.0</ele><time>2026-05-03T07:12:49.04Z</time></trkpt><trkpt lat="44.9795015" lon="8.5578102"><ele>139.0</ele><time>2026-05-03T07:12:50.04Z</time></trkpt><trkpt lat="44.9794061" lon="8.5578328"><ele>139.0</ele><time>2026-05-03T07:12:51.04Z</time></trkpt><trkpt lat="44.9793087" lon="8.5578527"><ele>139.0</ele><time>2026-05-03T07:12:52.04Z</time></trkpt><trkpt lat="44.9792131" lon="8.5578721"><ele>139.0</ele><time>2026-05-03T07:12:53.04Z</time></trkpt><trkpt lat="44.9791197" lon="8.5578919"><ele>139.0</ele><time>2026-05-03T07:12:54.041Z</time></trkpt><trkpt lat="44.9790198" lon="8.5579163"><ele>141.2</ele><time>2026-05-03T07:12:55.04Z</time></trkpt><trkpt lat="44.9789219" lon="8.5579396"><ele>143.4</ele><time>2026-05-03T07:12:56.04Z</time></trkpt><trkpt lat="44.9788233" lon="8.5579576"><ele>145.6</ele><time>2026-05-03T07:12:57.04Z</time></trkpt><trkpt lat="44.978728" lon="8.5579731"><ele>147.8</ele><time>2026-05-03T07:12:58.04Z</time></trkpt><trkpt lat="44.9786361" lon="8.5579963"><ele>150.0</ele><time>2026-05-03T07:12:59.041Z</time></trkpt><trkpt lat="44.9785442" lon="8.5580187"><ele>150.0</ele><time>2026-05-03T07:13:00.04Z</time></trkpt><trkpt lat="44.9784505" lon="8.5580387"><ele>150.0</ele><time>2026-05-03T07:13:01.04Z</time></trkpt><trkpt lat="44.9783543" lon="8.5580526"><ele>150.0</ele><time>2026-05-03T07:13:02.041Z</time></trkpt><trkpt lat="44.9782643" lon="8.5580678"><ele>150.0</ele><time>2026-05-03T07:13:03.04Z</time></trkpt><trkpt lat="44.9781717" lon="8.5580922"><ele>150.0</ele><time>2026-05-03T07:13:04.041Z</time></trkpt><trkpt lat="44.9780779" lon="8.5581145"><ele>149.2</ele><time>2026-05-03T07:13:05.04Z</time></trkpt><trkpt lat="44.9779848" lon="8.5581313"><ele>148.4</ele><time>2026-05-03T07:13:06.041Z</time></trkpt><trkpt lat="44.9778895" lon="8.5581467"><ele>147.6</ele><time>2026-05-03T07:13:07.04Z</time></trkpt><trkpt lat="44.9777915" lon="8.5581653"><ele>146.8</ele><time>2026-05-03T07:13:08.04Z</time></trkpt><trkpt lat="44.9776935" lon="8.5581834"><ele>146.0</ele><time>2026-05-03T07:13:09.04Z</time></trkpt><trkpt lat="44.9775965" lon="8.5582023"><ele>145.0</ele><time>2026-05-03T07:13:10.04Z</time></trkpt><trkpt lat="44.9774994" lon="8.5582252"><ele>144.0</ele><time>2026-05-03T07:13:11.041Z</time></trkpt><trkpt lat="44.9774008" lon="8.5582452"><ele>143.0</ele><time>2026-05-03T07:13:12.041Z</time></trkpt><trkpt lat="44.9772994" lon="8.5582653"><ele>142.0</ele><time>2026-05-03T07:13:13.04Z</time></trkpt><trkpt lat="44.9771976" lon="8.5582851"><ele>141.0</ele><time>2026-05-03T07:13:14.04Z</time></trkpt><trkpt lat="44.9770928" lon="8.5583055"><ele>141.0</ele><time>2026-05-03T07:13:15.04Z</time></trkpt><trkpt lat="44.9769889" lon="8.5583273"><ele>141.0</ele><time>2026-05-03T07:13:16.04Z</time></trkpt><trkpt lat="44.9768867" lon="8.5583466"><ele>141.0</ele><time>2026-05-03T07:13:17.04Z</time></trkpt><trkpt lat="44.9767869" lon="8.558367"><ele>141.0</ele><time>2026-05-03T07:13:18.04Z</time></trkpt><trkpt lat="44.976687" lon="8.5583883"><ele>141.0</ele><time>2026-05-03T07:13:19.041Z</time></trkpt><trkpt lat="44.9765847" lon="8.5584094"><ele>140.6</ele><time>2026-05-03T07:13:20.04Z</time></trkpt><trkpt lat="44.9764822" lon="8.5584308"><ele>140.2</ele><time>2026-05-03T07:13:21.04Z</time></trkpt><trkpt lat="44.9763829" lon="8.558451"><ele>139.8</ele><time>2026-05-03T07:13:22.041Z</time></trkpt><trkpt lat="44.9762837" lon="8.5584724"><ele>139.4</ele><time>2026-05-03T07:13:23.041Z</time></trkpt><trkpt lat="44.9761836" lon="8.5584941"><ele>139.0</ele><time>2026-05-03T07:13:24.04Z</time></trkpt><trkpt lat="44.9760836" lon="8.558515"><ele>139.0</ele><time>2026-05-03T07:13:25.041Z</time></trkpt><trkpt lat="44.9759827" lon="8.5585349"><ele>139.0</ele><time>2026-05-03T07:13:26.041Z</time></trkpt><trkpt lat="44.9758781" lon="8.5585553"><ele>139.0</ele><time>2026-05-03T07:13:27.041Z</time></trkpt><trkpt lat="44.9757757" lon="8.5585761"><ele>139.0</ele><time>2026-05-03T07:13:28.042Z</time></trkpt><trkpt lat="44.9756738" lon="8.5585997"><ele>139.0</ele><time>2026-05-03T07:13:29.041Z</time></trkpt><trkpt lat="44.9755717" lon="8.5586243"><ele>138.4</ele><time>2026-05-03T07:13:30.041Z</time></trkpt><trkpt lat="44.9754693" lon="8.5586489"><ele>137.8</ele><time>2026-05-03T07:13:31.042Z</time></trkpt><trkpt lat="44.9753715" lon="8.5586718"><ele>137.2</ele><time>2026-05-03T07:13:32.042Z</time></trkpt><trkpt lat="44.9752745" lon="8.5586917"><ele>136.6</ele><time>2026-05-03T07:13:33.042Z</time></trkpt><trkpt lat="44.975173" lon="8.5587107"><ele>136.0</ele><time>2026-05-03T07:13:34.042Z</time></trkpt><trkpt lat="44.9750736" lon="8.5587308"><ele>135.8</ele><time>2026-05-03T07:13:35.041Z</time></trkpt><trkpt lat="44.9749741" lon="8.5587521"><ele>135.6</ele><time>2026-05-03T07:13:36.041Z</time></trkpt><trkpt lat="44.9748718" lon="8.5587732"><ele>135.4</ele><time>2026-05-03T07:13:37.042Z</time></trkpt><trkpt lat="44.974771" lon="8.5587953"><ele>135.2</ele><time>2026-05-03T07:13:38.041Z</time></trkpt><trkpt lat="44.9746676" lon="8.5588251"><ele>135.0</ele><time>2026-05-03T07:13:39.041Z</time></trkpt><trkpt lat="44.9745668" lon="8.558853"><ele>135.0</ele><time>2026-05-03T07:13:40.041Z</time></trkpt><trkpt lat="44.9744708" lon="8.5588827"><ele>135.0</ele><time>2026-05-03T07:13:41.041Z</time></trkpt><trkpt lat="44.9743712" lon="8.5589143"><ele>135.0</ele><time>2026-05-03T07:13:42.042Z</time></trkpt><trkpt lat="44.9742721" lon="8.5589453"><ele>135.0</ele><time>2026-05-03T07:13:43.041Z</time></trkpt><trkpt lat="44.9741751" lon="8.5589778"><ele>135.0</ele><time>2026-05-03T07:13:44.041Z</time></trkpt><trkpt lat="44.974079" lon="8.5590107"><ele>134.0</ele><time>2026-05-03T07:13:45.041Z</time></trkpt><trkpt lat="44.9739836" lon="8.5590462"><ele>133.0</ele><time>2026-05-03T07:13:46.042Z</time></trkpt><trkpt lat="44.9738903" lon="8.5590832"><ele>132.0</ele><time>2026-05-03T07:13:47.041Z</time></trkpt><trkpt lat="44.9737965" lon="8.5591229"><ele>131.0</ele><time>2026-05-03T07:13:48.041Z</time></trkpt><trkpt lat="44.9736985" lon="8.5591668"><ele>130.0</ele><time>2026-05-03T07:13:49.041Z</time></trkpt><trkpt lat="44.9735968" lon="8.5592163"><ele>130.0</ele><time>2026-05-03T07:13:50.042Z</time></trkpt><trkpt lat="44.9734937" lon="8.559269"><ele>130.0</ele><time>2026-05-03T07:13:51.041Z</time></trkpt><trkpt lat="44.9733965" lon="8.5593202"><ele>130.0</ele><time>2026-05-03T07:13:52.041Z</time></trkpt><trkpt lat="44.9733004" lon="8.5593735"><ele>130.0</ele><time>2026-05-03T07:13:53.041Z</time></trkpt><trkpt lat="44.9732033" lon="8.5594241"><ele>130.0</ele><time>2026-05-03T07:13:54.041Z</time></trkpt><trkpt lat="44.9731062" lon="8.5594812"><ele>130.0</ele><time>2026-05-03T07:13:55.041Z</time></trkpt><trkpt lat="44.973012" lon="8.5595397"><ele>130.0</ele><time>2026-05-03T07:13:56.042Z</time></trkpt><trkpt lat="44.972918" lon="8.5595986"><ele>130.0</ele><time>2026-05-03T07:13:57.041Z</time></trkpt><trkpt lat="44.9728224" lon="8.5596609"><ele>130.0</ele><time>2026-05-03T07:13:58.041Z</time></trkpt><trkpt lat="44.9727268" lon="8.5597265"><ele>130.0</ele><time>2026-05-03T07:13:59.042Z</time></trkpt><trkpt lat="44.972629" lon="8.5597972"><ele>130.0</ele><time>2026-05-03T07:14:00.042Z</time></trkpt><trkpt lat="44.972531" lon="8.5598659"><ele>130.0</ele><time>2026-05-03T07:14:01.041Z</time></trkpt><trkpt lat="44.9724351" lon="8.5599338"><ele>130.0</ele><time>2026-05-03T07:14:02.041Z</time></trkpt><trkpt lat="44.9723426" lon="8.5600059"><ele>130.0</ele><time>2026-05-03T07:14:03.041Z</time></trkpt><trkpt lat="44.9722565" lon="8.56008"><ele>130.0</ele><time>2026-05-03T07:14:04.041Z</time></trkpt><trkpt lat="44.972169" lon="8.5601565"><ele>129.2</ele><time>2026-05-03T07:14:05.041Z</time></trkpt><trkpt lat="44.9720794" lon="8.5602339"><ele>128.4</ele><time>2026-05-03T07:14:06.043Z</time></trkpt><trkpt lat="44.9719904" lon="8.5603122"><ele>127.6</ele><time>2026-05-03T07:14:07.043Z</time></trkpt><trkpt lat="44.9719008" lon="8.5603937"><ele>126.8</ele><time>2026-05-03T07:14:08.042Z</time></trkpt><trkpt lat="44.9718129" lon="8.5604747"><ele>126.0</ele><time>2026-05-03T07:14:09.042Z</time></trkpt><trkpt lat="44.9717261" lon="8.5605602"><ele>125.8</ele><time>2026-05-03T07:14:10.043Z</time></trkpt><trkpt lat="44.9716397" lon="8.5606472"><ele>125.6</ele><time>2026-05-03T07:14:11.042Z</time></trkpt><trkpt lat="44.971557" lon="8.5607349"><ele>125.4</ele><time>2026-05-03T07:14:12.042Z</time></trkpt><trkpt lat="44.9714749" lon="8.5608248"><ele>125.2</ele><time>2026-05-03T07:14:13.043Z</time></trkpt><trkpt lat="44.9713925" lon="8.5609166"><ele>125.0</ele><time>2026-05-03T07:14:14.042Z</time></trkpt><trkpt lat="44.971309" lon="8.5610058"><ele>125.0</ele><time>2026-05-03T07:14:15.042Z</time></trkpt><trkpt lat="44.9712264" lon="8.5610999"><ele>125.0</ele><time>2026-05-03T07:14:16.042Z</time></trkpt><trkpt lat="44.9711465" lon="8.5611973"><ele>125.0</ele><time>2026-05-03T07:14:17.042Z</time></trkpt><trkpt lat="44.9710694" lon="8.5612957"><ele>125.0</ele><time>2026-05-03T07:14:18.042Z</time></trkpt><trkpt lat="44.9709932" lon="8.5613931"><ele>125.0</ele><time>2026-05-03T07:14:19.042Z</time></trkpt><trkpt lat="44.9709168" lon="8.5614867"><ele>125.0</ele><time>2026-05-03T07:14:20.042Z</time></trkpt><trkpt lat="44.9708432" lon="8.5615855"><ele>125.0</ele><time>2026-05-03T07:14:21.043Z</time></trkpt><trkpt lat="44.9707717" lon="8.5616891"><ele>125.0</ele><time>2026-05-03T07:14:22.043Z</time></trkpt><trkpt lat="44.9707028" lon="8.5617906"><ele>125.0</ele><time>2026-05-03T07:14:23.042Z</time></trkpt><trkpt lat="44.9706327" lon="8.5618931"><ele>125.0</ele><time>2026-05-03T07:14:24.042Z</time></trkpt><trkpt lat="44.9705658" lon="8.5619955"><ele>124.0</ele><time>2026-05-03T07:14:25.043Z</time></trkpt><trkpt lat="44.9704985" lon="8.5620998"><ele>123.0</ele><time>2026-05-03T07:14:26.043Z</time></trkpt><trkpt lat="44.9704301" lon="8.5622019"><ele>122.0</ele><time>2026-05-03T07:14:27.042Z</time></trkpt><trkpt lat="44.9703642" lon="8.5623042"><ele>121.0</ele><time>2026-05-03T07:14:28.042Z</time></trkpt><trkpt lat="44.9702979" lon="8.562413"><ele>120.0</ele><time>2026-05-03T07:14:29.042Z</time></trkpt><trkpt lat="44.9702292" lon="8.5625251"><ele>120.0</ele><time>2026-05-03T07:14:30.042Z</time></trkpt><trkpt lat="44.9701647" lon="8.5626442"><ele>120.0</ele><time>2026-05-03T07:14:31.042Z</time></trkpt><trkpt lat="44.9701065" lon="8.5627625"><ele>120.0</ele><time>2026-05-03T07:14:32.043Z</time></trkpt><trkpt lat="44.970048" lon="8.5628814"><ele>120.0</ele><time>2026-05-03T07:14:33.042Z</time></trkpt><trkpt lat="44.9699891" lon="8.5629971"><ele>120.0</ele><time>2026-05-03T07:14:34.042Z</time></trkpt><trkpt lat="44.9699293" lon="8.5631097"><ele>119.8</ele><time>2026-05-03T07:14:35.042Z</time></trkpt><trkpt lat="44.9698693" lon="8.5632194"><ele>119.6</ele><time>2026-05-03T07:14:36.042Z</time></trkpt><trkpt lat="44.9698126" lon="8.5633267"><ele>119.4</ele><time>2026-05-03T07:14:37.042Z</time></trkpt><trkpt lat="44.9697534" lon="8.563438"><ele>119.2</ele><time>2026-05-03T07:14:38.042Z</time></trkpt><trkpt lat="44.9696911" lon="8.5635487"><ele>119.0</ele><time>2026-05-03T07:14:39.042Z</time></trkpt><trkpt lat="44.9696268" lon="8.5636615"><ele>118.80000000000001</ele><time>2026-05-03T07:14:40.043Z</time></trkpt><trkpt lat="44.9695638" lon="8.5637747"><ele>118.60000000000001</ele><time>2026-05-03T07:14:41.042Z</time></trkpt><trkpt lat="44.9695001" lon="8.5638947"><ele>118.4</ele><time>2026-05-03T07:14:42.043Z</time></trkpt><trkpt lat="44.9694359" lon="8.5640164"><ele>118.2</ele><time>2026-05-03T07:14:43.043Z</time></trkpt><trkpt lat="44.9693712" lon="8.5641419"><ele>118.0</ele><time>2026-05-03T07:14:44.043Z</time></trkpt><trkpt lat="44.9693053" lon="8.5642685"><ele>118.0</ele><time>2026-05-03T07:14:45.042Z</time></trkpt><trkpt lat="44.9692395" lon="8.5643938"><ele>118.00000000000001</ele><time>2026-05-03T07:14:46.043Z</time></trkpt><trkpt lat="44.9691716" lon="8.5645191"><ele>118.00000000000001</ele><time>2026-05-03T07:14:47.043Z</time></trkpt><trkpt lat="44.9691061" lon="8.5646413"><ele>118.0</ele><time>2026-05-03T07:14:48.044Z</time></trkpt><trkpt lat="44.969042" lon="8.5647564"><ele>118.0</ele><time>2026-05-03T07:14:49.044Z</time></trkpt><trkpt lat="44.9689742" lon="8.5648776"><ele>117.60000000000001</ele><time>2026-05-03T07:14:50.043Z</time></trkpt><trkpt lat="44.968909" lon="8.5649962"><ele>117.20000000000002</ele><time>2026-05-03T07:14:51.043Z</time></trkpt><trkpt lat="44.9688438" lon="8.5651155"><ele>116.8</ele><time>2026-05-03T07:14:52.043Z</time></trkpt><trkpt lat="44.9687793" lon="8.5652348"><ele>116.4</ele><time>2026-05-03T07:14:53.044Z</time></trkpt><trkpt lat="44.9687144" lon="8.5653529"><ele>116.0</ele><time>2026-05-03T07:14:54.044Z</time></trkpt><trkpt lat="44.9686494" lon="8.5654702"><ele>116.0</ele><time>2026-05-03T07:14:55.043Z</time></trkpt><trkpt lat="44.9685851" lon="8.5655898"><ele>116.0</ele><time>2026-05-03T07:14:56.043Z</time></trkpt><trkpt lat="44.9685213" lon="8.5657086"><ele>116.0</ele><time>2026-05-03T07:14:57.044Z</time></trkpt><trkpt lat="44.9684561" lon="8.5658265"><ele>116.0</ele><time>2026-05-03T07:14:58.043Z</time></trkpt><trkpt lat="44.9683889" lon="8.5659436"><ele>116.0</ele><time>2026-05-03T07:14:59.044Z</time></trkpt><trkpt lat="44.9683218" lon="8.566062"><ele>115.8</ele><time>2026-05-03T07:15:00.044Z</time></trkpt><trkpt lat="44.9682571" lon="8.5661816"><ele>115.6</ele><time>2026-05-03T07:15:01.043Z</time></trkpt><trkpt lat="44.9681946" lon="8.5663004"><ele>115.4</ele><time>2026-05-03T07:15:02.044Z</time></trkpt><trkpt lat="44.9681314" lon="8.5664168"><ele>115.2</ele><time>2026-05-03T07:15:03.043Z</time></trkpt><trkpt lat="44.9680667" lon="8.5665308"><ele>115.0</ele><time>2026-05-03T07:15:04.044Z</time></trkpt><trkpt lat="44.9680027" lon="8.5666439"><ele>115.0</ele><time>2026-05-03T07:15:05.043Z</time></trkpt><trkpt lat="44.9679383" lon="8.5667601"><ele>115.0</ele><time>2026-05-03T07:15:06.043Z</time></trkpt><trkpt lat="44.9678738" lon="8.5668824"><ele>115.0</ele><time>2026-05-03T07:15:07.043Z</time></trkpt><trkpt lat="44.9678108" lon="8.5670017"><ele>115.0</ele><time>2026-05-03T07:15:08.044Z</time></trkpt><trkpt lat="44.9677473" lon="8.5671187"><ele>115.0</ele><time>2026-05-03T07:15:09.043Z</time></trkpt><trkpt lat="44.9676813" lon="8.5672345"><ele>115.0</ele><time>2026-05-03T07:15:10.043Z</time></trkpt><trkpt lat="44.9676141" lon="8.5673564"><ele>115.0</ele><time>2026-05-03T07:15:11.043Z</time></trkpt><trkpt lat="44.967548" lon="8.5674773"><ele>115.0</ele><time>2026-05-03T07:15:12.043Z</time></trkpt><trkpt lat="44.967483" lon="8.5675977"><ele>115.0</ele><time>2026-05-03T07:15:13.043Z</time></trkpt><trkpt lat="44.9674193" lon="8.5677161"><ele>115.0</ele><time>2026-05-03T07:15:14.044Z</time></trkpt><trkpt lat="44.9673559" lon="8.5678337"><ele>114.6</ele><time>2026-05-03T07:15:15.043Z</time></trkpt><trkpt lat="44.9672908" lon="8.5679551"><ele>114.2</ele><time>2026-05-03T07:15:16.044Z</time></trkpt><trkpt lat="44.967227" lon="8.568071"><ele>113.80000000000001</ele><time>2026-05-03T07:15:17.043Z</time></trkpt><trkpt lat="44.9671633" lon="8.5681865"><ele>113.4</ele><time>2026-05-03T07:15:18.043Z</time></trkpt><trkpt lat="44.9671025" lon="8.5683008"><ele>113.0</ele><time>2026-05-03T07:15:19.043Z</time></trkpt><trkpt lat="44.9670392" lon="8.5684175"><ele>113.0</ele><time>2026-05-03T07:15:20.043Z</time></trkpt><trkpt lat="44.9669734" lon="8.5685381"><ele>113.00000000000001</ele><time>2026-05-03T07:15:21.043Z</time></trkpt><trkpt lat="44.9669082" lon="8.5686586"><ele>113.00000000000001</ele><time>2026-05-03T07:15:22.044Z</time></trkpt><trkpt lat="44.9668418" lon="8.5687804"><ele>113.0</ele><time>2026-05-03T07:15:23.043Z</time></trkpt><trkpt lat="44.9667752" lon="8.5688984"><ele>113.0</ele><time>2026-05-03T07:15:24.044Z</time></trkpt><trkpt lat="44.9667095" lon="8.5690171"><ele>113.0</ele><time>2026-05-03T07:15:25.044Z</time></trkpt><trkpt lat="44.9666434" lon="8.5691389"><ele>113.00000000000001</ele><time>2026-05-03T07:15:26.043Z</time></trkpt><trkpt lat="44.9665787" lon="8.5692574"><ele>113.00000000000001</ele><time>2026-05-03T07:15:27.043Z</time></trkpt><trkpt lat="44.9665143" lon="8.5693744"><ele>113.0</ele><time>2026-05-03T07:15:28.044Z</time></trkpt><trkpt lat="44.9664507" lon="8.5694913"><ele>113.0</ele><time>2026-05-03T07:15:29.044Z</time></trkpt><trkpt lat="44.9663876" lon="8.5696098"><ele>113.0</ele><time>2026-05-03T07:15:30.044Z</time></trkpt><trkpt lat="44.9663247" lon="8.5697277"><ele>113.00000000000001</ele><time>2026-05-03T07:15:31.045Z</time></trkpt><trkpt lat="44.966259" lon="8.5698468"><ele>113.00000000000001</ele><time>2026-05-03T07:15:32.045Z</time></trkpt><trkpt lat="44.9661968" lon="8.5699641"><ele>113.0</ele><time>2026-05-03T07:15:33.045Z</time></trkpt><trkpt lat="44.9661323" lon="8.5700797"><ele>113.0</ele><time>2026-05-03T07:15:34.044Z</time></trkpt><trkpt lat="44.9660653" lon="8.5701987"><ele>113.0</ele><time>2026-05-03T07:15:35.044Z</time></trkpt><trkpt lat="44.9660029" lon="8.5703176"><ele>113.00000000000001</ele><time>2026-05-03T07:15:36.044Z</time></trkpt><trkpt lat="44.9659403" lon="8.5704349"><ele>113.00000000000001</ele><time>2026-05-03T07:15:37.044Z</time></trkpt><trkpt lat="44.9658745" lon="8.5705548"><ele>113.0</ele><time>2026-05-03T07:15:38.044Z</time></trkpt><trkpt lat="44.9658064" lon="8.5706733"><ele>113.0</ele><time>2026-05-03T07:15:39.044Z</time></trkpt><trkpt lat="44.9657397" lon="8.5707926"><ele>112.60000000000001</ele><time>2026-05-03T07:15:40.045Z</time></trkpt><trkpt lat="44.9656737" lon="8.5709151"><ele>112.20000000000002</ele><time>2026-05-03T07:15:41.045Z</time></trkpt><trkpt lat="44.9656071" lon="8.5710381"><ele>111.8</ele><time>2026-05-03T07:15:42.044Z</time></trkpt><trkpt lat="44.9655424" lon="8.5711599"><ele>111.4</ele><time>2026-05-03T07:15:43.045Z</time></trkpt><trkpt lat="44.9654787" lon="8.5712795"><ele>111.0</ele><time>2026-05-03T07:15:44.044Z</time></trkpt><trkpt lat="44.9654162" lon="8.5713985"><ele>110.8</ele><time>2026-05-03T07:15:45.044Z</time></trkpt><trkpt lat="44.9653524" lon="8.5715183"><ele>110.6</ele><time>2026-05-03T07:15:46.044Z</time></trkpt><trkpt lat="44.9652879" lon="8.5716369"><ele>110.4</ele><time>2026-05-03T07:15:47.044Z</time></trkpt><trkpt lat="44.9652235" lon="8.5717524"><ele>110.2</ele><time>2026-05-03T07:15:48.044Z</time></trkpt><trkpt lat="44.9651574" lon="8.5718688"><ele>110.0</ele><time>2026-05-03T07:15:49.044Z</time></trkpt><trkpt lat="44.9650949" lon="8.5719863"><ele>109.6</ele><time>2026-05-03T07:15:50.044Z</time></trkpt><trkpt lat="44.9650282" lon="8.5721052"><ele>109.2</ele><time>2026-05-03T07:15:51.045Z</time></trkpt><trkpt lat="44.9649612" lon="8.5722262"><ele>108.80000000000001</ele><time>2026-05-03T07:15:52.044Z</time></trkpt><trkpt lat="44.9648964" lon="8.5723445"><ele>108.4</ele><time>2026-05-03T07:15:53.044Z</time></trkpt><trkpt lat="44.96483" lon="8.5724664"><ele>108.0</ele><time>2026-05-03T07:15:54.044Z</time></trkpt><trkpt lat="44.9647626" lon="8.5725924"><ele>108.0</ele><time>2026-05-03T07:15:55.044Z</time></trkpt><trkpt lat="44.9646942" lon="8.5727153"><ele>108.00000000000001</ele><time>2026-05-03T07:15:56.044Z</time></trkpt><trkpt lat="44.964629" lon="8.5728373"><ele>108.00000000000001</ele><time>2026-05-03T07:15:57.044Z</time></trkpt><trkpt lat="44.9645627" lon="8.5729504"><ele>108.0</ele><time>2026-05-03T07:15:58.044Z</time></trkpt><trkpt lat="44.964497" lon="8.5730663"><ele>108.0</ele><time>2026-05-03T07:15:59.044Z</time></trkpt><trkpt lat="44.9644316" lon="8.5731869"><ele>108.0</ele><time>2026-05-03T07:16:00.045Z</time></trkpt><trkpt lat="44.9643691" lon="8.5733073"><ele>108.00000000000001</ele><time>2026-05-03T07:16:01.045Z</time></trkpt><trkpt lat="44.9643089" lon="8.5734263"><ele>108.00000000000001</ele><time>2026-05-03T07:16:02.045Z</time></trkpt><trkpt lat="44.9642466" lon="8.5735428"><ele>108.0</ele><time>2026-05-03T07:16:03.045Z</time></trkpt><trkpt lat="44.9641828" lon="8.5736593"><ele>108.0</ele><time>2026-05-03T07:16:04.045Z</time></trkpt><trkpt lat="44.9641159" lon="8.5737763"><ele>108.0</ele><time>2026-05-03T07:16:05.044Z</time></trkpt><trkpt lat="44.9640477" lon="8.5738952"><ele>108.00000000000001</ele><time>2026-05-03T07:16:06.044Z</time></trkpt><trkpt lat="44.96398" lon="8.5740166"><ele>108.00000000000001</ele><time>2026-05-03T07:16:07.045Z</time></trkpt><trkpt lat="44.9639152" lon="8.5741362"><ele>108.0</ele><time>2026-05-03T07:16:08.044Z</time></trkpt><trkpt lat="44.9638482" lon="8.5742568"><ele>108.0</ele><time>2026-05-03T07:16:09.044Z</time></trkpt><trkpt lat="44.9637823" lon="8.5743723"><ele>108.0</ele><time>2026-05-03T07:16:10.044Z</time></trkpt><trkpt lat="44.9637157" lon="8.5744883"><ele>108.00000000000001</ele><time>2026-05-03T07:16:11.045Z</time></trkpt><trkpt lat="44.963649" lon="8.5746052"><ele>108.00000000000001</ele><time>2026-05-03T07:16:12.046Z</time></trkpt><trkpt lat="44.9635787" lon="8.5747193"><ele>108.0</ele><time>2026-05-03T07:16:13.045Z</time></trkpt><trkpt lat="44.963504" lon="8.5748318"><ele>108.0</ele><time>2026-05-03T07:16:14.045Z</time></trkpt><trkpt lat="44.9634287" lon="8.574939"><ele>108.0</ele><time>2026-05-03T07:16:15.045Z</time></trkpt><trkpt lat="44.963353" lon="8.5750435"><ele>108.00000000000001</ele><time>2026-05-03T07:16:16.045Z</time></trkpt><trkpt lat="44.9632795" lon="8.5751449"><ele>108.00000000000001</ele><time>2026-05-03T07:16:17.046Z</time></trkpt><trkpt lat="44.9632051" lon="8.5752467"><ele>108.0</ele><time>2026-05-03T07:16:18.046Z</time></trkpt><trkpt lat="44.9631267" lon="8.575348"><ele>108.0</ele><time>2026-05-03T07:16:19.046Z</time></trkpt><trkpt lat="44.9630455" lon="8.5754445"><ele>108.0</ele><time>2026-05-03T07:16:20.045Z</time></trkpt><trkpt lat="44.9629644" lon="8.5755369"><ele>108.00000000000001</ele><time>2026-05-03T07:16:21.045Z</time></trkpt><trkpt lat="44.9628814" lon="8.5756293"><ele>108.00000000000001</ele><time>2026-05-03T07:16:22.046Z</time></trkpt><trkpt lat="44.9627994" lon="8.5757203"><ele>108.0</ele><time>2026-05-03T07:16:23.045Z</time></trkpt><trkpt lat="44.9627189" lon="8.5758126"><ele>108.0</ele><time>2026-05-03T07:16:24.045Z</time></trkpt><trkpt lat="44.962561" lon="8.5759911"><ele>108.0</ele><time>2026-05-03T07:16:26.046Z</time></trkpt><trkpt lat="44.9624852" lon="8.5760756"><ele>108.0</ele><time>2026-05-03T07:16:27.045Z</time></trkpt><trkpt lat="44.9624188" lon="8.5761497"><ele>108.0</ele><time>2026-05-03T07:16:28.046Z</time></trkpt><trkpt lat="44.9623571" lon="8.5762194"><ele>108.0</ele><time>2026-05-03T07:16:29.045Z</time></trkpt><trkpt lat="44.9622986" lon="8.5762861"><ele>108.0</ele><time>2026-05-03T07:16:30.046Z</time></trkpt><trkpt lat="44.9622439" lon="8.576345"><ele>108.0</ele><time>2026-05-03T07:16:31.046Z</time></trkpt><trkpt lat="44.9621907" lon="8.5763927"><ele>108.0</ele><time>2026-05-03T07:16:32.045Z</time></trkpt><trkpt lat="44.9620953" lon="8.5764265"><ele>108.0</ele><time>2026-05-03T07:16:34.045Z</time></trkpt><trkpt lat="44.9619884" lon="8.5764432"><ele>108.0</ele><time>2026-05-03T07:16:36.045Z</time></trkpt><trkpt lat="44.9619313" lon="8.5764852"><ele>108.0</ele><time>2026-05-03T07:16:37.046Z</time></trkpt><trkpt lat="44.9618843" lon="8.5765561"><ele>108.0</ele><time>2026-05-03T07:16:38.045Z</time></trkpt><trkpt lat="44.9618452" lon="8.5766434"><ele>108.0</ele><time>2026-05-03T07:16:39.045Z</time></trkpt><trkpt lat="44.9618104" lon="8.5767281"><ele>108.0</ele><time>2026-05-03T07:16:40.045Z</time></trkpt><trkpt lat="44.9617606" lon="8.5767996"><ele>108.0</ele><time>2026-05-03T07:16:41.045Z</time></trkpt><trkpt lat="44.9616881" lon="8.5768564"><ele>108.0</ele><time>2026-05-03T07:16:42.045Z</time></trkpt><trkpt lat="44.9616091" lon="8.5768984"><ele>108.0</ele><time>2026-05-03T07:16:43.046Z</time></trkpt><trkpt lat="44.9615238" lon="8.5769367"><ele>108.0</ele><time>2026-05-03T07:16:44.045Z</time></trkpt><trkpt lat="44.9614365" lon="8.5769802"><ele>108.0</ele><time>2026-05-03T07:16:45.045Z</time></trkpt><trkpt lat="44.9613501" lon="8.5770302"><ele>107.80000000000001</ele><time>2026-05-03T07:16:46.045Z</time></trkpt><trkpt lat="44.9612637" lon="8.5770822"><ele>107.60000000000001</ele><time>2026-05-03T07:16:47.046Z</time></trkpt><trkpt lat="44.9611737" lon="8.577136"><ele>107.39999999999999</ele><time>2026-05-03T07:16:48.046Z</time></trkpt><trkpt lat="44.9610804" lon="8.5771904"><ele>107.19999999999999</ele><time>2026-05-03T07:16:49.045Z</time></trkpt><trkpt lat="44.9609878" lon="8.5772427"><ele>107.0</ele><time>2026-05-03T07:16:50.045Z</time></trkpt><trkpt lat="44.9608922" lon="8.577295"><ele>106.6</ele><time>2026-05-03T07:16:51.045Z</time></trkpt><trkpt lat="44.9607942" lon="8.5773491"><ele>106.19999999999999</ele><time>2026-05-03T07:16:52.046Z</time></trkpt><trkpt lat="44.9606977" lon="8.5774032"><ele>105.8</ele><time>2026-05-03T07:16:53.046Z</time></trkpt><trkpt lat="44.9606003" lon="8.5774582"><ele>105.4</ele><time>2026-05-03T07:16:54.047Z</time></trkpt><trkpt lat="44.9605019" lon="8.5775111"><ele>105.0</ele><time>2026-05-03T07:16:55.047Z</time></trkpt><trkpt lat="44.9604016" lon="8.5775565"><ele>105.0</ele><time>2026-05-03T07:16:56.047Z</time></trkpt><trkpt lat="44.960299" lon="8.5775948"><ele>105.0</ele><time>2026-05-03T07:16:57.047Z</time></trkpt><trkpt lat="44.9601964" lon="8.5776296"><ele>105.0</ele><time>2026-05-03T07:16:58.046Z</time></trkpt><trkpt lat="44.9600955" lon="8.5776644"><ele>105.0</ele><time>2026-05-03T07:16:59.046Z</time></trkpt><trkpt lat="44.9599973" lon="8.5776973"><ele>105.0</ele><time>2026-05-03T07:17:00.046Z</time></trkpt><trkpt lat="44.9599034" lon="8.5777291"><ele>104.6</ele><time>2026-05-03T07:17:01.047Z</time></trkpt><trkpt lat="44.9598089" lon="8.5777588"><ele>104.2</ele><time>2026-05-03T07:17:02.046Z</time></trkpt><trkpt lat="44.9597153" lon="8.5777909"><ele>103.80000000000001</ele><time>2026-05-03T07:17:03.046Z</time></trkpt><trkpt lat="44.9596225" lon="8.5778254"><ele>103.4</ele><time>2026-05-03T07:17:04.047Z</time></trkpt><trkpt lat="44.959529" lon="8.5778613"><ele>103.0</ele><time>2026-05-03T07:17:05.046Z</time></trkpt><trkpt lat="44.9594336" lon="8.5778952"><ele>102.80000000000001</ele><time>2026-05-03T07:17:06.047Z</time></trkpt><trkpt lat="44.9593365" lon="8.5779258"><ele>102.6</ele><time>2026-05-03T07:17:07.047Z</time></trkpt><trkpt lat="44.9592407" lon="8.5779552"><ele>102.4</ele><time>2026-05-03T07:17:08.046Z</time></trkpt><trkpt lat="44.9591466" lon="8.5779892"><ele>102.19999999999999</ele><time>2026-05-03T07:17:09.046Z</time></trkpt><trkpt lat="44.9590567" lon="8.578029"><ele>102.0</ele><time>2026-05-03T07:17:10.046Z</time></trkpt><trkpt lat="44.9589681" lon="8.5780672"><ele>102.39999999999999</ele><time>2026-05-03T07:17:11.047Z</time></trkpt><trkpt lat="44.9588765" lon="8.5781009"><ele>102.8</ele><time>2026-05-03T07:17:12.046Z</time></trkpt><trkpt lat="44.9587847" lon="8.5781275"><ele>103.2</ele><time>2026-05-03T07:17:13.046Z</time></trkpt><trkpt lat="44.9586929" lon="8.5781536"><ele>103.6</ele><time>2026-05-03T07:17:14.047Z</time></trkpt><trkpt lat="44.9586016" lon="8.5781845"><ele>104.0</ele><time>2026-05-03T07:17:15.046Z</time></trkpt><trkpt lat="44.9585097" lon="8.5782196"><ele>104.0</ele><time>2026-05-03T07:17:16.046Z</time></trkpt><trkpt lat="44.9584149" lon="8.578259"><ele>104.0</ele><time>2026-05-03T07:17:17.047Z</time></trkpt><trkpt lat="44.9583196" lon="8.5782972"><ele>104.0</ele><time>2026-05-03T07:17:18.046Z</time></trkpt><trkpt lat="44.9582277" lon="8.5783314"><ele>104.0</ele><time>2026-05-03T07:17:19.046Z</time></trkpt><trkpt lat="44.9581367" lon="8.5783642"><ele>104.0</ele><time>2026-05-03T07:17:20.046Z</time></trkpt><trkpt lat="44.9580463" lon="8.5783957"><ele>104.0</ele><time>2026-05-03T07:17:21.046Z</time></trkpt><trkpt lat="44.9579494" lon="8.578425"><ele>104.0</ele><time>2026-05-03T07:17:22.046Z</time></trkpt><trkpt lat="44.9578526" lon="8.5784578"><ele>104.0</ele><time>2026-05-03T07:17:23.047Z</time></trkpt><trkpt lat="44.957758" lon="8.5784956"><ele>104.0</ele><time>2026-05-03T07:17:24.046Z</time></trkpt><trkpt lat="44.9576669" lon="8.5785306"><ele>104.0</ele><time>2026-05-03T07:17:25.046Z</time></trkpt><trkpt lat="44.9575752" lon="8.5785639"><ele>104.0</ele><time>2026-05-03T07:17:26.047Z</time></trkpt><trkpt lat="44.9574838" lon="8.578595"><ele>104.0</ele><time>2026-05-03T07:17:27.046Z</time></trkpt><trkpt lat="44.957393" lon="8.5786284"><ele>104.0</ele><time>2026-05-03T07:17:28.046Z</time></trkpt><trkpt lat="44.9572955" lon="8.578666"><ele>104.0</ele><time>2026-05-03T07:17:29.046Z</time></trkpt><trkpt lat="44.9572012" lon="8.5786991"><ele>104.0</ele><time>2026-05-03T07:17:30.046Z</time></trkpt><trkpt lat="44.9571047" lon="8.578732"><ele>104.0</ele><time>2026-05-03T07:17:31.047Z</time></trkpt><trkpt lat="44.9570126" lon="8.5787682"><ele>104.0</ele><time>2026-05-03T07:17:32.046Z</time></trkpt><trkpt lat="44.956921" lon="8.578804"><ele>104.0</ele><time>2026-05-03T07:17:33.048Z</time></trkpt><trkpt lat="44.9568249" lon="8.5788414"><ele>104.0</ele><time>2026-05-03T07:17:34.047Z</time></trkpt><trkpt lat="44.9567273" lon="8.5788766"><ele>104.0</ele><time>2026-05-03T07:17:35.047Z</time></trkpt><trkpt lat="44.956629" lon="8.5789128"><ele>104.2</ele><time>2026-05-03T07:17:36.047Z</time></trkpt><trkpt lat="44.9565299" lon="8.5789531"><ele>104.4</ele><time>2026-05-03T07:17:37.048Z</time></trkpt><trkpt lat="44.9564324" lon="8.5789906"><ele>104.6</ele><time>2026-05-03T07:17:38.047Z</time></trkpt><trkpt lat="44.9563367" lon="8.5790236"><ele>104.8</ele><time>2026-05-03T07:17:39.047Z</time></trkpt><trkpt lat="44.9562384" lon="8.5790572"><ele>105.0</ele><time>2026-05-03T07:17:40.048Z</time></trkpt><trkpt lat="44.9561423" lon="8.5790915"><ele>105.0</ele><time>2026-05-03T07:17:41.048Z</time></trkpt><trkpt lat="44.9560473" lon="8.579132"><ele>105.0</ele><time>2026-05-03T07:17:42.047Z</time></trkpt><trkpt lat="44.9559509" lon="8.5791656"><ele>105.0</ele><time>2026-05-03T07:17:43.047Z</time></trkpt><trkpt lat="44.9558505" lon="8.5791937"><ele>105.0</ele><time>2026-05-03T07:17:44.048Z</time></trkpt><trkpt lat="44.9557512" lon="8.5792249"><ele>105.0</ele><time>2026-05-03T07:17:45.047Z</time></trkpt><trkpt lat="44.9556507" lon="8.5792643"><ele>104.6</ele><time>2026-05-03T07:17:46.048Z</time></trkpt><trkpt lat="44.9555525" lon="8.579308"><ele>104.2</ele><time>2026-05-03T07:17:47.048Z</time></trkpt><trkpt lat="44.9554539" lon="8.5793518"><ele>103.80000000000001</ele><time>2026-05-03T07:17:48.047Z</time></trkpt><trkpt lat="44.9553566" lon="8.5793942"><ele>103.4</ele><time>2026-05-03T07:17:49.048Z</time></trkpt><trkpt lat="44.9552594" lon="8.5794324"><ele>103.0</ele><time>2026-05-03T07:17:50.047Z</time></trkpt><trkpt lat="44.955162" lon="8.5794678"><ele>103.0</ele><time>2026-05-03T07:17:51.047Z</time></trkpt><trkpt lat="44.9550632" lon="8.5795037"><ele>103.0</ele><time>2026-05-03T07:17:52.047Z</time></trkpt><trkpt lat="44.9549663" lon="8.5795409"><ele>103.0</ele><time>2026-05-03T07:17:53.047Z</time></trkpt><trkpt lat="44.9548738" lon="8.5795768"><ele>103.0</ele><time>2026-05-03T07:17:54.047Z</time></trkpt><trkpt lat="44.9547761" lon="8.5796155"><ele>103.0</ele><time>2026-05-03T07:17:55.047Z</time></trkpt><trkpt lat="44.9546785" lon="8.5796517"><ele>103.0</ele><time>2026-05-03T07:17:56.047Z</time></trkpt><trkpt lat="44.954575" lon="8.5796894"><ele>103.0</ele><time>2026-05-03T07:17:57.047Z</time></trkpt><trkpt lat="44.9544671" lon="8.5797288"><ele>103.0</ele><time>2026-05-03T07:17:58.047Z</time></trkpt><trkpt lat="44.9543597" lon="8.5797707"><ele>103.0</ele><time>2026-05-03T07:17:59.048Z</time></trkpt><trkpt lat="44.9542574" lon="8.5798053"><ele>103.0</ele><time>2026-05-03T07:18:00.048Z</time></trkpt><trkpt lat="44.9541571" lon="8.5798324"><ele>103.0</ele><time>2026-05-03T07:18:01.047Z</time></trkpt><trkpt lat="44.9540553" lon="8.5798611"><ele>103.0</ele><time>2026-05-03T07:18:02.047Z</time></trkpt><trkpt lat="44.9539492" lon="8.579896"><ele>103.0</ele><time>2026-05-03T07:18:03.047Z</time></trkpt><trkpt lat="44.9538482" lon="8.5799379"><ele>103.0</ele><time>2026-05-03T07:18:04.048Z</time></trkpt><trkpt lat="44.9537494" lon="8.5799795"><ele>103.0</ele><time>2026-05-03T07:18:05.047Z</time></trkpt><trkpt lat="44.9536499" lon="8.5800202"><ele>103.0</ele><time>2026-05-03T07:18:06.047Z</time></trkpt><trkpt lat="44.95355" lon="8.5800587"><ele>103.0</ele><time>2026-05-03T07:18:07.048Z</time></trkpt><trkpt lat="44.9534508" lon="8.580096"><ele>103.0</ele><time>2026-05-03T07:18:08.047Z</time></trkpt><trkpt lat="44.953349" lon="8.5801325"><ele>103.0</ele><time>2026-05-03T07:18:09.047Z</time></trkpt><trkpt lat="44.9532473" lon="8.5801688"><ele>103.0</ele><time>2026-05-03T07:18:10.047Z</time></trkpt><trkpt lat="44.9531474" lon="8.5802058"><ele>102.60000000000001</ele><time>2026-05-03T07:18:11.047Z</time></trkpt><trkpt lat="44.9530504" lon="8.5802414"><ele>102.2</ele><time>2026-05-03T07:18:12.047Z</time></trkpt><trkpt lat="44.9529525" lon="8.580277"><ele>101.8</ele><time>2026-05-03T07:18:13.047Z</time></trkpt><trkpt lat="44.9528556" lon="8.5803148"><ele>101.4</ele><time>2026-05-03T07:18:14.047Z</time></trkpt><trkpt lat="44.9527583" lon="8.5803543"><ele>101.0</ele><time>2026-05-03T07:18:15.048Z</time></trkpt><trkpt lat="44.9526602" lon="8.5803912"><ele>101.0</ele><time>2026-05-03T07:18:16.049Z</time></trkpt><trkpt lat="44.9525613" lon="8.5804247"><ele>101.0</ele><time>2026-05-03T07:18:17.048Z</time></trkpt><trkpt lat="44.9524611" lon="8.580459"><ele>101.0</ele><time>2026-05-03T07:18:18.048Z</time></trkpt><trkpt lat="44.9523557" lon="8.580495"><ele>101.0</ele><time>2026-05-03T07:18:19.048Z</time></trkpt><trkpt lat="44.9522536" lon="8.5805325"><ele>101.0</ele><time>2026-05-03T07:18:20.049Z</time></trkpt><trkpt lat="44.9521535" lon="8.5805727"><ele>101.0</ele><time>2026-05-03T07:18:21.048Z</time></trkpt><trkpt lat="44.9520542" lon="8.5806105"><ele>101.0</ele><time>2026-05-03T07:18:22.048Z</time></trkpt><trkpt lat="44.9519544" lon="8.5806466"><ele>101.0</ele><time>2026-05-03T07:18:23.048Z</time></trkpt><trkpt lat="44.9518533" lon="8.580681"><ele>101.0</ele><time>2026-05-03T07:18:24.048Z</time></trkpt><trkpt lat="44.9517514" lon="8.5807156"><ele>101.0</ele><time>2026-05-03T07:18:25.048Z</time></trkpt><trkpt lat="44.9516502" lon="8.5807512"><ele>101.0</ele><time>2026-05-03T07:18:26.048Z</time></trkpt><trkpt lat="44.9515538" lon="8.5807858"><ele>101.0</ele><time>2026-05-03T07:18:27.048Z</time></trkpt><trkpt lat="44.9514564" lon="8.5808225"><ele>101.0</ele><time>2026-05-03T07:18:28.049Z</time></trkpt><trkpt lat="44.9513571" lon="8.5808591"><ele>101.0</ele><time>2026-05-03T07:18:29.048Z</time></trkpt><trkpt lat="44.9512581" lon="8.5808973"><ele>101.0</ele><time>2026-05-03T07:18:30.048Z</time></trkpt><trkpt lat="44.9511564" lon="8.5809363"><ele>101.0</ele><time>2026-05-03T07:18:31.049Z</time></trkpt><trkpt lat="44.9510551" lon="8.5809728"><ele>101.0</ele><time>2026-05-03T07:18:32.048Z</time></trkpt><trkpt lat="44.9509543" lon="8.5810047"><ele>101.0</ele><time>2026-05-03T07:18:33.048Z</time></trkpt><trkpt lat="44.9508536" lon="8.5810449"><ele>101.0</ele><time>2026-05-03T07:18:34.048Z</time></trkpt><trkpt lat="44.9507544" lon="8.5810856"><ele>101.0</ele><time>2026-05-03T07:18:35.049Z</time></trkpt><trkpt lat="44.9506563" lon="8.5811259"><ele>100.6</ele><time>2026-05-03T07:18:36.048Z</time></trkpt><trkpt lat="44.950556" lon="8.5811633"><ele>100.19999999999999</ele><time>2026-05-03T07:18:37.048Z</time></trkpt><trkpt lat="44.9504578" lon="8.5811966"><ele>99.80000000000001</ele><time>2026-05-03T07:18:38.048Z</time></trkpt><trkpt lat="44.9503635" lon="8.5812286"><ele>99.4</ele><time>2026-05-03T07:18:39.048Z</time></trkpt><trkpt lat="44.9502697" lon="8.5812653"><ele>99.0</ele><time>2026-05-03T07:18:40.048Z</time></trkpt><trkpt lat="44.9501704" lon="8.5813009"><ele>99.0</ele><time>2026-05-03T07:18:41.049Z</time></trkpt><trkpt lat="44.9500722" lon="8.5813375"><ele>99.0</ele><time>2026-05-03T07:18:42.048Z</time></trkpt><trkpt lat="44.949973" lon="8.5813745"><ele>99.0</ele><time>2026-05-03T07:18:43.049Z</time></trkpt><trkpt lat="44.9498725" lon="8.5814091"><ele>99.0</ele><time>2026-05-03T07:18:44.048Z</time></trkpt><trkpt lat="44.9497726" lon="8.5814418"><ele>99.0</ele><time>2026-05-03T07:18:45.048Z</time></trkpt><trkpt lat="44.949672" lon="8.5814758"><ele>99.2</ele><time>2026-05-03T07:18:46.048Z</time></trkpt><trkpt lat="44.9495738" lon="8.5815113"><ele>99.4</ele><time>2026-05-03T07:18:47.048Z</time></trkpt><trkpt lat="44.9494748" lon="8.5815493"><ele>99.6</ele><time>2026-05-03T07:18:48.048Z</time></trkpt><trkpt lat="44.9493758" lon="8.5815872"><ele>99.8</ele><time>2026-05-03T07:18:49.048Z</time></trkpt><trkpt lat="44.9492769" lon="8.5816218"><ele>100.0</ele><time>2026-05-03T07:18:50.048Z</time></trkpt><trkpt lat="44.9491778" lon="8.5816575"><ele>99.2</ele><time>2026-05-03T07:18:51.048Z</time></trkpt><trkpt lat="44.9490791" lon="8.5816958"><ele>98.4</ele><time>2026-05-03T07:18:52.048Z</time></trkpt><trkpt lat="44.9489815" lon="8.5817321"><ele>97.6</ele><time>2026-05-03T07:18:53.049Z</time></trkpt><trkpt lat="44.9488846" lon="8.5817666"><ele>96.8</ele><time>2026-05-03T07:18:54.048Z</time></trkpt><trkpt lat="44.9487866" lon="8.581802"><ele>96.0</ele><time>2026-05-03T07:18:55.049Z</time></trkpt><trkpt lat="44.9486887" lon="8.5818377"><ele>96.0</ele><time>2026-05-03T07:18:56.05Z</time></trkpt><trkpt lat="44.9485916" lon="8.5818746"><ele>96.0</ele><time>2026-05-03T07:18:57.049Z</time></trkpt><trkpt lat="44.9484936" lon="8.5819117"><ele>96.0</ele><time>2026-05-03T07:18:58.049Z</time></trkpt><trkpt lat="44.9483961" lon="8.5819483"><ele>96.0</ele><time>2026-05-03T07:18:59.049Z</time></trkpt><trkpt lat="44.9482982" lon="8.5819848"><ele>96.0</ele><time>2026-05-03T07:19:00.05Z</time></trkpt><trkpt lat="44.948201" lon="8.5820223"><ele>96.19999999999999</ele><time>2026-05-03T07:19:01.049Z</time></trkpt><trkpt lat="44.9481039" lon="8.5820607"><ele>96.39999999999999</ele><time>2026-05-03T07:19:02.049Z</time></trkpt><trkpt lat="44.9480057" lon="8.5820981"><ele>96.6</ele><time>2026-05-03T07:19:03.05Z</time></trkpt><trkpt lat="44.9479074" lon="8.5821334"><ele>96.8</ele><time>2026-05-03T07:19:04.049Z</time></trkpt><trkpt lat="44.9478112" lon="8.5821678"><ele>97.0</ele><time>2026-05-03T07:19:05.049Z</time></trkpt><trkpt lat="44.947714" lon="8.5822025"><ele>97.0</ele><time>2026-05-03T07:19:06.049Z</time></trkpt><trkpt lat="44.9476156" lon="8.582238"><ele>97.0</ele><time>2026-05-03T07:19:07.049Z</time></trkpt><trkpt lat="44.9475171" lon="8.5822757"><ele>97.0</ele><time>2026-05-03T07:19:08.05Z</time></trkpt><trkpt lat="44.9474191" lon="8.5823161"><ele>97.0</ele><time>2026-05-03T07:19:09.049Z</time></trkpt><trkpt lat="44.9473218" lon="8.582359"><ele>97.0</ele><time>2026-05-03T07:19:10.05Z</time></trkpt><trkpt lat="44.9472228" lon="8.5824015"><ele>97.19999999999999</ele><time>2026-05-03T07:19:11.049Z</time></trkpt><trkpt lat="44.9471251" lon="8.5824418"><ele>97.4</ele><time>2026-05-03T07:19:12.049Z</time></trkpt><trkpt lat="44.9470269" lon="8.5824781"><ele>97.6</ele><time>2026-05-03T07:19:13.049Z</time></trkpt><trkpt lat="44.9469282" lon="8.5825106"><ele>97.80000000000001</ele><time>2026-05-03T07:19:14.049Z</time></trkpt><trkpt lat="44.9468306" lon="8.582543"><ele>98.0</ele><time>2026-05-03T07:19:15.05Z</time></trkpt><trkpt lat="44.9467333" lon="8.5825781"><ele>97.60000000000001</ele><time>2026-05-03T07:19:16.049Z</time></trkpt><trkpt lat="44.9466371" lon="8.5826143"><ele>97.2</ele><time>2026-05-03T07:19:17.049Z</time></trkpt><trkpt lat="44.9465413" lon="8.5826508"><ele>96.8</ele><time>2026-05-03T07:19:18.049Z</time></trkpt><trkpt lat="44.9464445" lon="8.582684"><ele>96.4</ele><time>2026-05-03T07:19:19.049Z</time></trkpt><trkpt lat="44.9463488" lon="8.582718"><ele>96.0</ele><time>2026-05-03T07:19:20.05Z</time></trkpt><trkpt lat="44.9462534" lon="8.5827541"><ele>96.0</ele><time>2026-05-03T07:19:21.05Z</time></trkpt><trkpt lat="44.9461575" lon="8.5827896"><ele>96.0</ele><time>2026-05-03T07:19:22.05Z</time></trkpt><trkpt lat="44.9460609" lon="8.5828247"><ele>96.0</ele><time>2026-05-03T07:19:23.049Z</time></trkpt><trkpt lat="44.9459642" lon="8.5828611"><ele>96.0</ele><time>2026-05-03T07:19:24.049Z</time></trkpt><trkpt lat="44.9458679" lon="8.5828981"><ele>96.0</ele><time>2026-05-03T07:19:25.049Z</time></trkpt><trkpt lat="44.9457706" lon="8.5829327"><ele>96.0</ele><time>2026-05-03T07:19:26.049Z</time></trkpt><trkpt lat="44.9456721" lon="8.582963"><ele>96.0</ele><time>2026-05-03T07:19:27.049Z</time></trkpt><trkpt lat="44.9455715" lon="8.5829879"><ele>96.0</ele><time>2026-05-03T07:19:28.049Z</time></trkpt><trkpt lat="44.9454713" lon="8.5830133"><ele>96.0</ele><time>2026-05-03T07:19:29.049Z</time></trkpt><trkpt lat="44.9453721" lon="8.5830417"><ele>96.0</ele><time>2026-05-03T07:19:30.049Z</time></trkpt><trkpt lat="44.9452734" lon="8.5830727"><ele>96.0</ele><time>2026-05-03T07:19:31.049Z</time></trkpt><trkpt lat="44.945175" lon="8.5831037"><ele>96.0</ele><time>2026-05-03T07:19:32.049Z</time></trkpt><trkpt lat="44.9450767" lon="8.5831352"><ele>96.0</ele><time>2026-05-03T07:19:33.049Z</time></trkpt><trkpt lat="44.9449785" lon="8.583165"><ele>96.0</ele><time>2026-05-03T07:19:34.049Z</time></trkpt><trkpt lat="44.9448801" lon="8.5831958"><ele>96.0</ele><time>2026-05-03T07:19:35.049Z</time></trkpt><trkpt lat="44.9447813" lon="8.5832294"><ele>95.8</ele><time>2026-05-03T07:19:36.05Z</time></trkpt><trkpt lat="44.9446836" lon="8.5832634"><ele>95.6</ele><time>2026-05-03T07:19:37.05Z</time></trkpt><trkpt lat="44.9445853" lon="8.5832983"><ele>95.4</ele><time>2026-05-03T07:19:38.05Z</time></trkpt><trkpt lat="44.9444865" lon="8.583335"><ele>95.2</ele><time>2026-05-03T07:19:39.051Z</time></trkpt><trkpt lat="44.9443879" lon="8.5833724"><ele>95.0</ele><time>2026-05-03T07:19:40.05Z</time></trkpt><trkpt lat="44.9442879" lon="8.5834102"><ele>95.2</ele><time>2026-05-03T07:19:41.05Z</time></trkpt><trkpt lat="44.944188" lon="8.5834468"><ele>95.4</ele><time>2026-05-03T07:19:42.051Z</time></trkpt><trkpt lat="44.9440894" lon="8.5834837"><ele>95.6</ele><time>2026-05-03T07:19:43.05Z</time></trkpt><trkpt lat="44.9439932" lon="8.5835215"><ele>95.8</ele><time>2026-05-03T07:19:44.051Z</time></trkpt><trkpt lat="44.9438974" lon="8.5835565"><ele>96.0</ele><time>2026-05-03T07:19:45.051Z</time></trkpt><trkpt lat="44.9438012" lon="8.5835906"><ele>96.0</ele><time>2026-05-03T07:19:46.051Z</time></trkpt><trkpt lat="44.9437052" lon="8.5836205"><ele>96.0</ele><time>2026-05-03T07:19:47.05Z</time></trkpt><trkpt lat="44.943608" lon="8.5836513"><ele>96.0</ele><time>2026-05-03T07:19:48.051Z</time></trkpt><trkpt lat="44.943508" lon="8.5836857"><ele>96.0</ele><time>2026-05-03T07:19:49.051Z</time></trkpt><trkpt lat="44.9434076" lon="8.5837211"><ele>96.0</ele><time>2026-05-03T07:19:50.051Z</time></trkpt><trkpt lat="44.9433077" lon="8.583757"><ele>95.8</ele><time>2026-05-03T07:19:51.05Z</time></trkpt><trkpt lat="44.9432076" lon="8.5837946"><ele>95.6</ele><time>2026-05-03T07:19:52.051Z</time></trkpt><trkpt lat="44.9431092" lon="8.5838279"><ele>95.4</ele><time>2026-05-03T07:19:53.05Z</time></trkpt><trkpt lat="44.9430133" lon="8.5838631"><ele>95.2</ele><time>2026-05-03T07:19:54.051Z</time></trkpt><trkpt lat="44.9429172" lon="8.5839006"><ele>95.0</ele><time>2026-05-03T07:19:55.051Z</time></trkpt><trkpt lat="44.9428155" lon="8.5839469"><ele>95.0</ele><time>2026-05-03T07:19:56.051Z</time></trkpt><trkpt lat="44.9427172" lon="8.5839937"><ele>95.0</ele><time>2026-05-03T07:19:57.05Z</time></trkpt><trkpt lat="44.9426176" lon="8.5840409"><ele>95.0</ele><time>2026-05-03T07:19:58.051Z</time></trkpt><trkpt lat="44.9425205" lon="8.5840859"><ele>95.0</ele><time>2026-05-03T07:19:59.051Z</time></trkpt><trkpt lat="44.9424244" lon="8.5841296"><ele>95.0</ele><time>2026-05-03T07:20:00.05Z</time></trkpt><trkpt lat="44.9423313" lon="8.5841739"><ele>95.0</ele><time>2026-05-03T07:20:01.051Z</time></trkpt><trkpt lat="44.9422418" lon="8.5842178"><ele>95.0</ele><time>2026-05-03T07:20:02.051Z</time></trkpt><trkpt lat="44.9421528" lon="8.5842615"><ele>95.0</ele><time>2026-05-03T07:20:03.05Z</time></trkpt><trkpt lat="44.942064" lon="8.5843021"><ele>95.0</ele><time>2026-05-03T07:20:04.051Z</time></trkpt><trkpt lat="44.9419735" lon="8.5843419"><ele>95.0</ele><time>2026-05-03T07:20:05.051Z</time></trkpt><trkpt lat="44.941883" lon="8.5843798"><ele>95.0</ele><time>2026-05-03T07:20:06.05Z</time></trkpt><trkpt lat="44.9417941" lon="8.5844162"><ele>95.0</ele><time>2026-05-03T07:20:07.05Z</time></trkpt><trkpt lat="44.9417049" lon="8.584455"><ele>95.0</ele><time>2026-05-03T07:20:08.051Z</time></trkpt><trkpt lat="44.9416196" lon="8.584494"><ele>95.0</ele><time>2026-05-03T07:20:09.051Z</time></trkpt><trkpt lat="44.9415379" lon="8.5845327"><ele>95.0</ele><time>2026-05-03T07:20:10.051Z</time></trkpt><trkpt lat="44.9414552" lon="8.5845687"><ele>95.0</ele><time>2026-05-03T07:20:11.05Z</time></trkpt><trkpt lat="44.9413723" lon="8.5846056"><ele>95.0</ele><time>2026-05-03T07:20:12.05Z</time></trkpt><trkpt lat="44.9412877" lon="8.5846436"><ele>95.0</ele><time>2026-05-03T07:20:13.051Z</time></trkpt><trkpt lat="44.9412008" lon="8.5846838"><ele>95.0</ele><time>2026-05-03T07:20:14.051Z</time></trkpt><trkpt lat="44.9411164" lon="8.584723"><ele>95.0</ele><time>2026-05-03T07:20:15.051Z</time></trkpt><trkpt lat="44.94103" lon="8.5847621"><ele>95.0</ele><time>2026-05-03T07:20:16.05Z</time></trkpt><trkpt lat="44.9409452" lon="8.5848007"><ele>95.0</ele><time>2026-05-03T07:20:17.051Z</time></trkpt><trkpt lat="44.9408577" lon="8.5848402"><ele>95.0</ele><time>2026-05-03T07:20:18.051Z</time></trkpt><trkpt lat="44.9407695" lon="8.5848801"><ele>95.0</ele><time>2026-05-03T07:20:19.051Z</time></trkpt><trkpt lat="44.9406812" lon="8.5849194"><ele>95.0</ele><time>2026-05-03T07:20:20.052Z</time></trkpt><trkpt lat="44.9405954" lon="8.5849605"><ele>95.0</ele><time>2026-05-03T07:20:21.052Z</time></trkpt><trkpt lat="44.9405093" lon="8.5850041"><ele>95.0</ele><time>2026-05-03T07:20:22.051Z</time></trkpt><trkpt lat="44.9404229" lon="8.5850448"><ele>95.0</ele><time>2026-05-03T07:20:23.052Z</time></trkpt><trkpt lat="44.9403362" lon="8.5850819"><ele>95.0</ele><time>2026-05-03T07:20:24.051Z</time></trkpt><trkpt lat="44.9402463" lon="8.5851207"><ele>95.0</ele><time>2026-05-03T07:20:25.051Z</time></trkpt><trkpt lat="44.9401573" lon="8.5851627"><ele>95.0</ele><time>2026-05-03T07:20:26.051Z</time></trkpt><trkpt lat="44.9400678" lon="8.5852051"><ele>95.0</ele><time>2026-05-03T07:20:27.052Z</time></trkpt><trkpt lat="44.9399744" lon="8.5852466"><ele>95.2</ele><time>2026-05-03T07:20:28.051Z</time></trkpt><trkpt lat="44.9398821" lon="8.5852862"><ele>95.4</ele><time>2026-05-03T07:20:29.051Z</time></trkpt><trkpt lat="44.939794" lon="8.5853244"><ele>95.6</ele><time>2026-05-03T07:20:30.052Z</time></trkpt><trkpt lat="44.9397039" lon="8.5853659"><ele>95.8</ele><time>2026-05-03T07:20:31.052Z</time></trkpt><trkpt lat="44.9396126" lon="8.5854111"><ele>96.0</ele><time>2026-05-03T07:20:32.051Z</time></trkpt><trkpt lat="44.939519" lon="8.5854544"><ele>96.0</ele><time>2026-05-03T07:20:33.051Z</time></trkpt><trkpt lat="44.9394223" lon="8.5854964"><ele>96.0</ele><time>2026-05-03T07:20:34.051Z</time></trkpt><trkpt lat="44.9393244" lon="8.5855309"><ele>96.0</ele><time>2026-05-03T07:20:35.051Z</time></trkpt><trkpt lat="44.9392279" lon="8.585563"><ele>96.0</ele><time>2026-05-03T07:20:36.051Z</time></trkpt><trkpt lat="44.9391292" lon="8.5855876"><ele>96.0</ele><time>2026-05-03T07:20:37.051Z</time></trkpt><trkpt lat="44.9390309" lon="8.5856102"><ele>95.6</ele><time>2026-05-03T07:20:38.052Z</time></trkpt><trkpt lat="44.9389315" lon="8.5856288"><ele>95.19999999999999</ele><time>2026-05-03T07:20:39.051Z</time></trkpt><trkpt lat="44.9388292" lon="8.5856442"><ele>94.80000000000001</ele><time>2026-05-03T07:20:40.051Z</time></trkpt><trkpt lat="44.9387258" lon="8.5856516"><ele>94.4</ele><time>2026-05-03T07:20:41.051Z</time></trkpt><trkpt lat="44.9386166" lon="8.5856556"><ele>94.0</ele><time>2026-05-03T07:20:42.051Z</time></trkpt><trkpt lat="44.938508" lon="8.5856572"><ele>94.0</ele><time>2026-05-03T07:20:43.051Z</time></trkpt><trkpt lat="44.9384042" lon="8.5856548"><ele>94.0</ele><time>2026-05-03T07:20:44.051Z</time></trkpt><trkpt lat="44.9382999" lon="8.5856412"><ele>94.0</ele><time>2026-05-03T07:20:45.051Z</time></trkpt><trkpt lat="44.9381976" lon="8.5856234"><ele>94.0</ele><time>2026-05-03T07:20:46.051Z</time></trkpt><trkpt lat="44.9380944" lon="8.5856084"><ele>94.0</ele><time>2026-05-03T07:20:47.051Z</time></trkpt><trkpt lat="44.937995" lon="8.5855949"><ele>94.0</ele><time>2026-05-03T07:20:48.051Z</time></trkpt><trkpt lat="44.9378963" lon="8.5855793"><ele>94.0</ele><time>2026-05-03T07:20:49.051Z</time></trkpt><trkpt lat="44.9377956" lon="8.5855654"><ele>94.0</ele><time>2026-05-03T07:20:50.052Z</time></trkpt><trkpt lat="44.9376979" lon="8.5855499"><ele>94.0</ele><time>2026-05-03T07:20:51.051Z</time></trkpt><trkpt lat="44.9376007" lon="8.585534"><ele>94.0</ele><time>2026-05-03T07:20:52.051Z</time></trkpt><trkpt lat="44.9375026" lon="8.5855158"><ele>94.2</ele><time>2026-05-03T07:20:53.051Z</time></trkpt><trkpt lat="44.9374039" lon="8.5854989"><ele>94.4</ele><time>2026-05-03T07:20:54.051Z</time></trkpt><trkpt lat="44.9373052" lon="8.5854826"><ele>94.6</ele><time>2026-05-03T07:20:55.051Z</time></trkpt><trkpt lat="44.937205" lon="8.5854675"><ele>94.8</ele><time>2026-05-03T07:20:56.052Z</time></trkpt><trkpt lat="44.9371053" lon="8.5854575"><ele>95.0</ele><time>2026-05-03T07:20:57.053Z</time></trkpt><trkpt lat="44.9370046" lon="8.5854489"><ele>95.0</ele><time>2026-05-03T07:20:58.052Z</time></trkpt><trkpt lat="44.9369082" lon="8.5854464"><ele>95.0</ele><time>2026-05-03T07:20:59.052Z</time></trkpt><trkpt lat="44.9368142" lon="8.5854461"><ele>95.0</ele><time>2026-05-03T07:21:00.052Z</time></trkpt><trkpt lat="44.9367286" lon="8.5854461"><ele>95.0</ele><time>2026-05-03T07:21:01.052Z</time></trkpt><trkpt lat="44.936646" lon="8.5854502"><ele>95.0</ele><time>2026-05-03T07:21:02.052Z</time></trkpt><trkpt lat="44.9365658" lon="8.5854561"><ele>95.0</ele><time>2026-05-03T07:21:03.052Z</time></trkpt><trkpt lat="44.936492" lon="8.585458"><ele>94.83333333333334</ele><time>2026-05-03T07:21:04.053Z</time></trkpt><trkpt lat="44.9364276" lon="8.5854495"><ele>94.66666666666667</ele><time>2026-05-03T07:21:05.052Z</time></trkpt><trkpt lat="44.9363426" lon="8.5854071"><ele>94.5</ele><time>2026-05-03T07:21:07.052Z</time></trkpt><trkpt lat="44.93627" lon="8.5853378"><ele>94.33333333333333</ele><time>2026-05-03T07:21:09.053Z</time></trkpt><trkpt lat="44.9362202" lon="8.5852704"><ele>94.16666666666666</ele><time>2026-05-03T07:21:10.052Z</time></trkpt><trkpt lat="44.9361622" lon="8.5852051"><ele>94.0</ele><time>2026-05-03T07:21:11.052Z</time></trkpt><trkpt lat="44.9360964" lon="8.5851425"><ele>93.83333333333333</ele><time>2026-05-03T07:21:12.052Z</time></trkpt><trkpt lat="44.9360276" lon="8.5850936"><ele>93.66666666666666</ele><time>2026-05-03T07:21:13.052Z</time></trkpt><trkpt lat="44.9359396" lon="8.5850798"><ele>93.5</ele><time>2026-05-03T07:21:14.052Z</time></trkpt><trkpt lat="44.9358524" lon="8.5851027"><ele>93.33333333333333</ele><time>2026-05-03T07:21:15.052Z</time></trkpt><trkpt lat="44.9357709" lon="8.5851439"><ele>93.16666666666667</ele><time>2026-05-03T07:21:16.053Z</time></trkpt><trkpt lat="44.935686" lon="8.5851987"><ele>93.0</ele><time>2026-05-03T07:21:17.052Z</time></trkpt><trkpt lat="44.9356023" lon="8.5852525"><ele>92.83333333333333</ele><time>2026-05-03T07:21:18.052Z</time></trkpt><trkpt lat="44.9355104" lon="8.5852942"><ele>92.66666666666667</ele><time>2026-05-03T07:21:19.052Z</time></trkpt><trkpt lat="44.935425" lon="8.585302"><ele>92.5</ele><time>2026-05-03T07:21:20.052Z</time></trkpt><trkpt lat="44.9353408" lon="8.5852835"><ele>92.33333333333334</ele><time>2026-05-03T07:21:21.053Z</time></trkpt><trkpt lat="44.9352582" lon="8.5852523"><ele>92.16666666666667</ele><time>2026-05-03T07:21:22.052Z</time></trkpt><trkpt lat="44.9351792" lon="8.5852257"><ele>92.0</ele><time>2026-05-03T07:21:23.052Z</time></trkpt><trkpt lat="44.9351038" lon="8.5852038"><ele>92.0</ele><time>2026-05-03T07:21:24.052Z</time></trkpt><trkpt lat="44.9350321" lon="8.5851862"><ele>92.0</ele><time>2026-05-03T07:21:25.053Z</time></trkpt><trkpt lat="44.9349647" lon="8.5851708"><ele>92.0</ele><time>2026-05-03T07:21:26.052Z</time></trkpt><trkpt lat="44.9349008" lon="8.5851589"><ele>92.0</ele><time>2026-05-03T07:21:27.052Z</time></trkpt><trkpt lat="44.9347872" lon="8.5851465"><ele>92.0</ele><time>2026-05-03T07:21:29.052Z</time></trkpt><trkpt lat="44.9347092" lon="8.5851382"><ele>92.0</ele><time>2026-05-03T07:21:31.053Z</time></trkpt><trkpt lat="44.9346256" lon="8.5851344"><ele>92.0</ele><time>2026-05-03T07:21:51.054Z</time></trkpt><trkpt lat="44.9345514" lon="8.5851297"><ele>92.0</ele><time>2026-05-03T07:21:53.053Z</time></trkpt><trkpt lat="44.9344721" lon="8.5851281"><ele>92.0</ele><time>2026-05-03T07:21:55.053Z</time></trkpt><trkpt lat="44.9343782" lon="8.5851269"><ele>92.0</ele><time>2026-05-03T07:21:57.053Z</time></trkpt><trkpt lat="44.9342572" lon="8.5851332"><ele>92.0</ele><time>2026-05-03T07:21:59.053Z</time></trkpt><trkpt lat="44.9341888" lon="8.5851371"><ele>92.0</ele><time>2026-05-03T07:22:00.054Z</time></trkpt><trkpt lat="44.9341172" lon="8.5851419"><ele>92.0</ele><time>2026-05-03T07:22:01.053Z</time></trkpt><trkpt lat="44.9340394" lon="8.5851444"><ele>92.0</ele><time>2026-05-03T07:22:02.053Z</time></trkpt><trkpt lat="44.9339607" lon="8.5851566"><ele>92.0</ele><time>2026-05-03T07:22:03.054Z</time></trkpt><trkpt lat="44.9338768" lon="8.5851721"><ele>92.0</ele><time>2026-05-03T07:22:04.053Z</time></trkpt><trkpt lat="44.9337932" lon="8.5851893"><ele>92.0</ele><time>2026-05-03T07:22:05.053Z</time></trkpt><trkpt lat="44.9337119" lon="8.5851993"><ele>92.0</ele><time>2026-05-03T07:22:06.053Z</time></trkpt><trkpt lat="44.9336281" lon="8.5852073"><ele>92.0</ele><time>2026-05-03T07:22:07.054Z</time></trkpt><trkpt lat="44.9335411" lon="8.5852151"><ele>92.0</ele><time>2026-05-03T07:22:08.053Z</time></trkpt><trkpt lat="44.9334512" lon="8.5852237"><ele>92.0</ele><time>2026-05-03T07:22:09.053Z</time></trkpt><trkpt lat="44.9333567" lon="8.5852307"><ele>92.0</ele><time>2026-05-03T07:22:10.054Z</time></trkpt><trkpt lat="44.933261" lon="8.585237"><ele>92.0</ele><time>2026-05-03T07:22:11.054Z</time></trkpt><trkpt lat="44.9331645" lon="8.5852439"><ele>92.19999999999999</ele><time>2026-05-03T07:22:12.054Z</time></trkpt><trkpt lat="44.9330682" lon="8.5852538"><ele>92.4</ele><time>2026-05-03T07:22:13.053Z</time></trkpt><trkpt lat="44.9329739" lon="8.5852654"><ele>92.6</ele><time>2026-05-03T07:22:14.053Z</time></trkpt><trkpt lat="44.9328787" lon="8.5852771"><ele>92.80000000000001</ele><time>2026-05-03T07:22:15.053Z</time></trkpt><trkpt lat="44.9327849" lon="8.5852857"><ele>93.0</ele><time>2026-05-03T07:22:16.054Z</time></trkpt><trkpt lat="44.93269" lon="8.5852943"><ele>93.0</ele><time>2026-05-03T07:22:17.053Z</time></trkpt><trkpt lat="44.9325945" lon="8.5853024"><ele>93.0</ele><time>2026-05-03T07:22:18.054Z</time></trkpt><trkpt lat="44.9324981" lon="8.5853123"><ele>93.0</ele><time>2026-05-03T07:22:19.054Z</time></trkpt><trkpt lat="44.9323945" lon="8.5853184"><ele>93.0</ele><time>2026-05-03T07:22:20.054Z</time></trkpt><trkpt lat="44.9322906" lon="8.5853182"><ele>93.0</ele><time>2026-05-03T07:22:21.055Z</time></trkpt><trkpt lat="44.9321937" lon="8.5853237"><ele>92.80000000000001</ele><time>2026-05-03T07:22:22.054Z</time></trkpt><trkpt lat="44.9320951" lon="8.5853326"><ele>92.6</ele><time>2026-05-03T07:22:23.054Z</time></trkpt><trkpt lat="44.9319938" lon="8.5853424"><ele>92.4</ele><time>2026-05-03T07:22:24.054Z</time></trkpt><trkpt lat="44.9318907" lon="8.5853541"><ele>92.19999999999999</ele><time>2026-05-03T07:22:25.054Z</time></trkpt><trkpt lat="44.9317903" lon="8.5853643"><ele>92.0</ele><time>2026-05-03T07:22:26.054Z</time></trkpt><trkpt lat="44.9316914" lon="8.5853756"><ele>92.0</ele><time>2026-05-03T07:22:27.054Z</time></trkpt><trkpt lat="44.9315932" lon="8.5853861"><ele>92.0</ele><time>2026-05-03T07:22:28.054Z</time></trkpt><trkpt lat="44.9314935" lon="8.5853959"><ele>92.0</ele><time>2026-05-03T07:22:29.055Z</time></trkpt><trkpt lat="44.9313941" lon="8.5854057"><ele>92.0</ele><time>2026-05-03T07:22:30.055Z</time></trkpt><trkpt lat="44.9312963" lon="8.5854162"><ele>92.0</ele><time>2026-05-03T07:22:31.054Z</time></trkpt><trkpt lat="44.9311985" lon="8.5854268"><ele>92.0</ele><time>2026-05-03T07:22:32.054Z</time></trkpt><trkpt lat="44.9311015" lon="8.5854373"><ele>92.0</ele><time>2026-05-03T07:22:33.054Z</time></trkpt><trkpt lat="44.9310056" lon="8.5854475"><ele>92.0</ele><time>2026-05-03T07:22:34.054Z</time></trkpt><trkpt lat="44.9309099" lon="8.5854597"><ele>92.0</ele><time>2026-05-03T07:22:35.054Z</time></trkpt><trkpt lat="44.930815" lon="8.5854729"><ele>92.0</ele><time>2026-05-03T07:22:36.054Z</time></trkpt><trkpt lat="44.9307186" lon="8.5854824"><ele>91.8</ele><time>2026-05-03T07:22:37.054Z</time></trkpt><trkpt lat="44.9306223" lon="8.5854859"><ele>91.6</ele><time>2026-05-03T07:22:38.054Z</time></trkpt><trkpt lat="44.9305277" lon="8.5854878"><ele>91.39999999999999</ele><time>2026-05-03T07:22:39.055Z</time></trkpt><trkpt lat="44.9304305" lon="8.5854893"><ele>91.19999999999999</ele><time>2026-05-03T07:22:40.054Z</time></trkpt><trkpt lat="44.9303357" lon="8.5854987"><ele>91.0</ele><time>2026-05-03T07:22:41.055Z</time></trkpt><trkpt lat="44.9302404" lon="8.5855089"><ele>91.0</ele><time>2026-05-03T07:22:42.055Z</time></trkpt><trkpt lat="44.9301402" lon="8.5855203"><ele>91.0</ele><time>2026-05-03T07:22:43.054Z</time></trkpt><trkpt lat="44.9300437" lon="8.5855308"><ele>91.0</ele><time>2026-05-03T07:22:44.054Z</time></trkpt><trkpt lat="44.9299476" lon="8.5855396"><ele>91.0</ele><time>2026-05-03T07:22:45.055Z</time></trkpt><trkpt lat="44.9298508" lon="8.5855484"><ele>91.0</ele><time>2026-05-03T07:22:46.054Z</time></trkpt><trkpt lat="44.929753" lon="8.5855561"><ele>91.0</ele><time>2026-05-03T07:22:47.054Z</time></trkpt><trkpt lat="44.9296541" lon="8.5855653"><ele>91.0</ele><time>2026-05-03T07:22:48.054Z</time></trkpt><trkpt lat="44.9295572" lon="8.585578"><ele>91.0</ele><time>2026-05-03T07:22:49.055Z</time></trkpt><trkpt lat="44.9294597" lon="8.585589"><ele>91.0</ele><time>2026-05-03T07:22:50.054Z</time></trkpt><trkpt lat="44.929363" lon="8.5855993"><ele>91.0</ele><time>2026-05-03T07:22:51.054Z</time></trkpt><trkpt lat="44.9292669" lon="8.5856079"><ele>91.19999999999999</ele><time>2026-05-03T07:22:52.054Z</time></trkpt><trkpt lat="44.9291706" lon="8.5856183"><ele>91.39999999999999</ele><time>2026-05-03T07:22:53.054Z</time></trkpt><trkpt lat="44.9290734" lon="8.5856253"><ele>91.6</ele><time>2026-05-03T07:22:54.055Z</time></trkpt><trkpt lat="44.9289784" lon="8.5856303"><ele>91.8</ele><time>2026-05-03T07:22:55.054Z</time></trkpt><trkpt lat="44.9288799" lon="8.5856316"><ele>92.0</ele><time>2026-05-03T07:22:56.055Z</time></trkpt><trkpt lat="44.9287831" lon="8.5856384"><ele>92.0</ele><time>2026-05-03T07:22:57.054Z</time></trkpt><trkpt lat="44.9286846" lon="8.5856497"><ele>92.0</ele><time>2026-05-03T07:22:58.054Z</time></trkpt><trkpt lat="44.9285864" lon="8.5856626"><ele>92.0</ele><time>2026-05-03T07:22:59.055Z</time></trkpt><trkpt lat="44.9284873" lon="8.5856728"><ele>92.0</ele><time>2026-05-03T07:23:00.054Z</time></trkpt><trkpt lat="44.9283882" lon="8.5856829"><ele>92.0</ele><time>2026-05-03T07:23:01.055Z</time></trkpt><trkpt lat="44.928289" lon="8.5856952"><ele>92.0</ele><time>2026-05-03T07:23:02.055Z</time></trkpt><trkpt lat="44.928185" lon="8.5857064"><ele>92.0</ele><time>2026-05-03T07:23:03.055Z</time></trkpt><trkpt lat="44.9280837" lon="8.5857165"><ele>92.0</ele><time>2026-05-03T07:23:04.056Z</time></trkpt><trkpt lat="44.9279818" lon="8.5857259"><ele>92.0</ele><time>2026-05-03T07:23:05.056Z</time></trkpt><trkpt lat="44.9278798" lon="8.5857365"><ele>92.0</ele><time>2026-05-03T07:23:06.055Z</time></trkpt><trkpt lat="44.9277803" lon="8.5857474"><ele>92.0</ele><time>2026-05-03T07:23:07.055Z</time></trkpt><trkpt lat="44.9276835" lon="8.5857597"><ele>92.0</ele><time>2026-05-03T07:23:08.055Z</time></trkpt><trkpt lat="44.9275878" lon="8.5857658"><ele>92.0</ele><time>2026-05-03T07:23:09.056Z</time></trkpt><trkpt lat="44.927488" lon="8.5857726"><ele>92.0</ele><time>2026-05-03T07:23:10.055Z</time></trkpt><trkpt lat="44.9273868" lon="8.5857805"><ele>92.0</ele><time>2026-05-03T07:23:11.056Z</time></trkpt><trkpt lat="44.9272849" lon="8.5857954"><ele>92.0</ele><time>2026-05-03T07:23:12.055Z</time></trkpt><trkpt lat="44.9271822" lon="8.5858058"><ele>92.0</ele><time>2026-05-03T07:23:13.056Z</time></trkpt><trkpt lat="44.9270816" lon="8.585815"><ele>92.0</ele><time>2026-05-03T07:23:14.055Z</time></trkpt><trkpt lat="44.9269821" lon="8.5858245"><ele>92.0</ele><time>2026-05-03T07:23:15.055Z</time></trkpt><trkpt lat="44.9268862" lon="8.5858355"><ele>92.0</ele><time>2026-05-03T07:23:16.055Z</time></trkpt><trkpt lat="44.9267877" lon="8.5858423"><ele>91.8</ele><time>2026-05-03T07:23:17.055Z</time></trkpt><trkpt lat="44.9266853" lon="8.5858523"><ele>91.6</ele><time>2026-05-03T07:23:18.055Z</time></trkpt><trkpt lat="44.9265831" lon="8.5858627"><ele>91.39999999999999</ele><time>2026-05-03T07:23:19.055Z</time></trkpt><trkpt lat="44.926481" lon="8.5858733"><ele>91.19999999999999</ele><time>2026-05-03T07:23:20.056Z</time></trkpt><trkpt lat="44.9263806" lon="8.5858832"><ele>91.0</ele><time>2026-05-03T07:23:21.056Z</time></trkpt><trkpt lat="44.9262786" lon="8.5858937"><ele>91.0</ele><time>2026-05-03T07:23:22.055Z</time></trkpt><trkpt lat="44.9261762" lon="8.585907"><ele>91.0</ele><time>2026-05-03T07:23:23.056Z</time></trkpt><trkpt lat="44.9259767" lon="8.5859308"><ele>91.0</ele><time>2026-05-03T07:23:25.056Z</time></trkpt><trkpt lat="44.925877" lon="8.585937"><ele>91.0</ele><time>2026-05-03T07:23:26.055Z</time></trkpt><trkpt lat="44.9257719" lon="8.5859423"><ele>91.0</ele><time>2026-05-03T07:23:27.055Z</time></trkpt><trkpt lat="44.9256726" lon="8.5859536"><ele>91.0</ele><time>2026-05-03T07:23:28.055Z</time></trkpt><trkpt lat="44.925569" lon="8.585963"><ele>91.0</ele><time>2026-05-03T07:23:29.055Z</time></trkpt><trkpt lat="44.9254681" lon="8.5859754"><ele>91.0</ele><time>2026-05-03T07:23:30.055Z</time></trkpt><trkpt lat="44.9253699" lon="8.5859854"><ele>91.0</ele><time>2026-05-03T07:23:31.055Z</time></trkpt><trkpt lat="44.9252722" lon="8.5859928"><ele>91.0</ele><time>2026-05-03T07:23:32.055Z</time></trkpt><trkpt lat="44.9251685" lon="8.5860007"><ele>91.0</ele><time>2026-05-03T07:23:33.055Z</time></trkpt><trkpt lat="44.925067" lon="8.586009"><ele>91.0</ele><time>2026-05-03T07:23:34.055Z</time></trkpt><trkpt lat="44.9249649" lon="8.586019"><ele>91.0</ele><time>2026-05-03T07:23:35.055Z</time></trkpt><trkpt lat="44.9248601" lon="8.5860282"><ele>91.0</ele><time>2026-05-03T07:23:36.055Z</time></trkpt><trkpt lat="44.9247586" lon="8.5860317"><ele>91.19999999999999</ele><time>2026-05-03T07:23:37.055Z</time></trkpt><trkpt lat="44.9246568" lon="8.5860352"><ele>91.39999999999999</ele><time>2026-05-03T07:23:38.056Z</time></trkpt><trkpt lat="44.924555" lon="8.5860385"><ele>91.6</ele><time>2026-05-03T07:23:39.055Z</time></trkpt><trkpt lat="44.9244541" lon="8.586035"><ele>91.8</ele><time>2026-05-03T07:23:40.055Z</time></trkpt><trkpt lat="44.9243542" lon="8.5860178"><ele>92.0</ele><time>2026-05-03T07:23:41.055Z</time></trkpt><trkpt lat="44.9242558" lon="8.5859885"><ele>91.8</ele><time>2026-05-03T07:23:42.056Z</time></trkpt><trkpt lat="44.9241597" lon="8.5859508"><ele>91.6</ele><time>2026-05-03T07:23:43.056Z</time></trkpt><trkpt lat="44.9240668" lon="8.5859088"><ele>91.39999999999999</ele><time>2026-05-03T07:23:44.056Z</time></trkpt><trkpt lat="44.9239783" lon="8.58586"><ele>91.19999999999999</ele><time>2026-05-03T07:23:45.056Z</time></trkpt><trkpt lat="44.9238924" lon="8.5858011"><ele>91.0</ele><time>2026-05-03T07:23:46.056Z</time></trkpt><trkpt lat="44.92381" lon="8.5857364"><ele>91.0</ele><time>2026-05-03T07:23:47.056Z</time></trkpt><trkpt lat="44.9237327" lon="8.5856634"><ele>91.0</ele><time>2026-05-03T07:23:48.056Z</time></trkpt><trkpt lat="44.9236614" lon="8.5855859"><ele>91.0</ele><time>2026-05-03T07:23:49.056Z</time></trkpt><trkpt lat="44.923588" lon="8.5855109"><ele>91.0</ele><time>2026-05-03T07:23:50.056Z</time></trkpt><trkpt lat="44.9235181" lon="8.5854327"><ele>91.0</ele><time>2026-05-03T07:23:51.056Z</time></trkpt><trkpt lat="44.9234543" lon="8.5853521"><ele>91.0</ele><time>2026-05-03T07:23:52.057Z</time></trkpt><trkpt lat="44.9233976" lon="8.5852686"><ele>91.16666666666666</ele><time>2026-05-03T07:23:53.056Z</time></trkpt><trkpt lat="44.9233421" lon="8.585182"><ele>91.33333333333333</ele><time>2026-05-03T07:23:54.057Z</time></trkpt><trkpt lat="44.9232933" lon="8.5850838"><ele>91.5</ele><time>2026-05-03T07:23:55.056Z</time></trkpt><trkpt lat="44.9232469" lon="8.5849966"><ele>91.66666666666667</ele><time>2026-05-03T07:23:56.057Z</time></trkpt><trkpt lat="44.9232035" lon="8.5849073"><ele>91.83333333333334</ele><time>2026-05-03T07:23:57.056Z</time></trkpt><trkpt lat="44.9231545" lon="8.5848259"><ele>92.0</ele><time>2026-05-03T07:23:58.057Z</time></trkpt><trkpt lat="44.9230895" lon="8.5847685"><ele>92.0</ele><time>2026-05-03T07:23:59.056Z</time></trkpt><trkpt lat="44.9230179" lon="8.5847199"><ele>92.0</ele><time>2026-05-03T07:24:00.057Z</time></trkpt><trkpt lat="44.9229356" lon="8.5846887"><ele>92.0</ele><time>2026-05-03T07:24:01.056Z</time></trkpt><trkpt lat="44.9228564" lon="8.5846767"><ele>92.0</ele><time>2026-05-03T07:24:02.057Z</time></trkpt><trkpt lat="44.9227767" lon="8.5846721"><ele>92.0</ele><time>2026-05-03T07:24:03.056Z</time></trkpt><trkpt lat="44.9226981" lon="8.5846835"><ele>92.0</ele><time>2026-05-03T07:24:04.057Z</time></trkpt><trkpt lat="44.9226212" lon="8.5847013"><ele>92.0</ele><time>2026-05-03T07:24:05.056Z</time></trkpt><trkpt lat="44.9225368" lon="8.5847311"><ele>92.0</ele><time>2026-05-03T07:24:06.057Z</time></trkpt><trkpt lat="44.922457" lon="8.5847692"><ele>92.0</ele><time>2026-05-03T07:24:07.057Z</time></trkpt><trkpt lat="44.9223825" lon="8.5848234"><ele>92.0</ele><time>2026-05-03T07:24:08.056Z</time></trkpt><trkpt lat="44.9223184" lon="8.5848957"><ele>92.0</ele><time>2026-05-03T07:24:09.056Z</time></trkpt><trkpt lat="44.9222542" lon="8.5849774"><ele>92.0</ele><time>2026-05-03T07:24:10.057Z</time></trkpt><trkpt lat="44.9222006" lon="8.5850786"><ele>92.0</ele><time>2026-05-03T07:24:11.057Z</time></trkpt><trkpt lat="44.922151" lon="8.5851967"><ele>92.0</ele><time>2026-05-03T07:24:12.056Z</time></trkpt><trkpt lat="44.922111" lon="8.5853246"><ele>92.0</ele><time>2026-05-03T07:24:13.057Z</time></trkpt><trkpt lat="44.9220843" lon="8.5854623"><ele>92.0</ele><time>2026-05-03T07:24:14.056Z</time></trkpt><trkpt lat="44.9220661" lon="8.5856062"><ele>92.0</ele><time>2026-05-03T07:24:15.056Z</time></trkpt><trkpt lat="44.9220652" lon="8.5857603"><ele>92.19999999999999</ele><time>2026-05-03T07:24:16.056Z</time></trkpt><trkpt lat="44.9220798" lon="8.5859093"><ele>92.4</ele><time>2026-05-03T07:24:17.056Z</time></trkpt><trkpt lat="44.9220975" lon="8.5860557"><ele>92.6</ele><time>2026-05-03T07:24:18.057Z</time></trkpt><trkpt lat="44.9221147" lon="8.5861993"><ele>92.80000000000001</ele><time>2026-05-03T07:24:19.057Z</time></trkpt><trkpt lat="44.9221269" lon="8.5863408"><ele>93.0</ele><time>2026-05-03T07:24:20.057Z</time></trkpt><trkpt lat="44.9221355" lon="8.5864843"><ele>93.0</ele><time>2026-05-03T07:24:21.057Z</time></trkpt><trkpt lat="44.9221419" lon="8.5866273"><ele>93.0</ele><time>2026-05-03T07:24:22.056Z</time></trkpt><trkpt lat="44.9221491" lon="8.5867686"><ele>93.0</ele><time>2026-05-03T07:24:23.057Z</time></trkpt><trkpt lat="44.922158" lon="8.5869046"><ele>93.0</ele><time>2026-05-03T07:24:24.057Z</time></trkpt><trkpt lat="44.9221692" lon="8.5870386"><ele>93.0</ele><time>2026-05-03T07:24:25.058Z</time></trkpt><trkpt lat="44.9221798" lon="8.5871715"><ele>92.83333333333333</ele><time>2026-05-03T07:24:26.057Z</time></trkpt><trkpt lat="44.9221886" lon="8.587303"><ele>92.66666666666667</ele><time>2026-05-03T07:24:27.057Z</time></trkpt><trkpt lat="44.9221908" lon="8.5874326"><ele>92.5</ele><time>2026-05-03T07:24:28.057Z</time></trkpt><trkpt lat="44.9221873" lon="8.5875567"><ele>92.33333333333334</ele><time>2026-05-03T07:24:29.058Z</time></trkpt><trkpt lat="44.9221801" lon="8.5876781"><ele>92.16666666666667</ele><time>2026-05-03T07:24:30.058Z</time></trkpt><trkpt lat="44.9221778" lon="8.5877979"><ele>92.0</ele><time>2026-05-03T07:24:31.058Z</time></trkpt><trkpt lat="44.9221804" lon="8.5879212"><ele>92.0</ele><time>2026-05-03T07:24:32.058Z</time></trkpt><trkpt lat="44.9221876" lon="8.5880442"><ele>92.0</ele><time>2026-05-03T07:24:33.058Z</time></trkpt><trkpt lat="44.9221918" lon="8.5881689"><ele>92.0</ele><time>2026-05-03T07:24:34.057Z</time></trkpt><trkpt lat="44.9221933" lon="8.5882931"><ele>92.0</ele><time>2026-05-03T07:24:35.058Z</time></trkpt><trkpt lat="44.9221941" lon="8.5884177"><ele>92.0</ele><time>2026-05-03T07:24:36.057Z</time></trkpt><trkpt lat="44.9221944" lon="8.5885455"><ele>92.0</ele><time>2026-05-03T07:24:37.057Z</time></trkpt><trkpt lat="44.9221926" lon="8.5886797"><ele>91.8</ele><time>2026-05-03T07:24:38.057Z</time></trkpt><trkpt lat="44.9221871" lon="8.5888157"><ele>91.6</ele><time>2026-05-03T07:24:39.057Z</time></trkpt><trkpt lat="44.9221783" lon="8.588957"><ele>91.39999999999999</ele><time>2026-05-03T07:24:40.057Z</time></trkpt><trkpt lat="44.9221656" lon="8.5890979"><ele>91.19999999999999</ele><time>2026-05-03T07:24:41.057Z</time></trkpt><trkpt lat="44.9221398" lon="8.5892464"><ele>91.0</ele><time>2026-05-03T07:24:42.057Z</time></trkpt><trkpt lat="44.9221037" lon="8.5893844"><ele>90.8</ele><time>2026-05-03T07:24:43.057Z</time></trkpt><trkpt lat="44.9220579" lon="8.5895162"><ele>90.6</ele><time>2026-05-03T07:24:44.057Z</time></trkpt><trkpt lat="44.9220052" lon="8.5896484"><ele>90.4</ele><time>2026-05-03T07:24:45.057Z</time></trkpt><trkpt lat="44.9219482" lon="8.589777"><ele>90.2</ele><time>2026-05-03T07:24:46.057Z</time></trkpt><trkpt lat="44.9218915" lon="8.5899012"><ele>90.0</ele><time>2026-05-03T07:24:47.057Z</time></trkpt><trkpt lat="44.9218388" lon="8.5900202"><ele>90.0</ele><time>2026-05-03T07:24:48.057Z</time></trkpt><trkpt lat="44.9217856" lon="8.5901394"><ele>90.0</ele><time>2026-05-03T07:24:49.058Z</time></trkpt><trkpt lat="44.9217326" lon="8.5902596"><ele>90.0</ele><time>2026-05-03T07:24:50.057Z</time></trkpt><trkpt lat="44.9216796" lon="8.5903827"><ele>90.0</ele><time>2026-05-03T07:24:51.057Z</time></trkpt><trkpt lat="44.9216262" lon="8.5905067"><ele>90.0</ele><time>2026-05-03T07:24:52.057Z</time></trkpt><trkpt lat="44.9215737" lon="8.5906285"><ele>90.4</ele><time>2026-05-03T07:24:53.057Z</time></trkpt><trkpt lat="44.9215205" lon="8.590753"><ele>90.8</ele><time>2026-05-03T07:24:54.057Z</time></trkpt><trkpt lat="44.9214672" lon="8.5908799"><ele>91.19999999999999</ele><time>2026-05-03T07:24:55.057Z</time></trkpt><trkpt lat="44.9214126" lon="8.5910066"><ele>91.6</ele><time>2026-05-03T07:24:56.057Z</time></trkpt><trkpt lat="44.9213558" lon="8.5911324"><ele>92.0</ele><time>2026-05-03T07:24:57.057Z</time></trkpt><trkpt lat="44.9212995" lon="8.5912565"><ele>92.0</ele><time>2026-05-03T07:24:58.057Z</time></trkpt><trkpt lat="44.9212457" lon="8.5913795"><ele>92.0</ele><time>2026-05-03T07:24:59.057Z</time></trkpt><trkpt lat="44.9211929" lon="8.5915044"><ele>92.0</ele><time>2026-05-03T07:25:00.057Z</time></trkpt><trkpt lat="44.9211435" lon="8.5916255"><ele>92.0</ele><time>2026-05-03T07:25:01.057Z</time></trkpt><trkpt lat="44.9210947" lon="8.5917472"><ele>92.0</ele><time>2026-05-03T07:25:02.057Z</time></trkpt><trkpt lat="44.921046" lon="8.5918604"><ele>92.0</ele><time>2026-05-03T07:25:03.057Z</time></trkpt><trkpt lat="44.9209937" lon="8.5919681"><ele>92.0</ele><time>2026-05-03T07:25:04.058Z</time></trkpt><trkpt lat="44.9209423" lon="8.5920784"><ele>92.0</ele><time>2026-05-03T07:25:05.058Z</time></trkpt><trkpt lat="44.9208937" lon="8.5921904"><ele>92.0</ele><time>2026-05-03T07:25:06.059Z</time></trkpt><trkpt lat="44.9208459" lon="8.592299"><ele>92.0</ele><time>2026-05-03T07:25:07.058Z</time></trkpt><trkpt lat="44.9207956" lon="8.5924067"><ele>91.6</ele><time>2026-05-03T07:25:08.059Z</time></trkpt><trkpt lat="44.9207444" lon="8.5925165"><ele>91.19999999999999</ele><time>2026-05-03T07:25:09.058Z</time></trkpt><trkpt lat="44.920699" lon="8.5926236"><ele>90.8</ele><time>2026-05-03T07:25:10.058Z</time></trkpt><trkpt lat="44.9206539" lon="8.5927333"><ele>90.4</ele><time>2026-05-03T07:25:11.059Z</time></trkpt><trkpt lat="44.920608" lon="8.592841"><ele>90.0</ele><time>2026-05-03T07:25:12.059Z</time></trkpt><trkpt lat="44.9205603" lon="8.5929478"><ele>90.0</ele><time>2026-05-03T07:25:13.058Z</time></trkpt><trkpt lat="44.9205145" lon="8.593054"><ele>90.0</ele><time>2026-05-03T07:25:14.059Z</time></trkpt><trkpt lat="44.9204728" lon="8.593164"><ele>90.0</ele><time>2026-05-03T07:25:15.058Z</time></trkpt><trkpt lat="44.9204406" lon="8.5932719"><ele>90.0</ele><time>2026-05-03T07:25:16.058Z</time></trkpt><trkpt lat="44.9204157" lon="8.5933748"><ele>90.0</ele><time>2026-05-03T07:25:17.058Z</time></trkpt><trkpt lat="44.9203962" lon="8.5934747"><ele>90.0</ele><time>2026-05-03T07:25:18.058Z</time></trkpt><trkpt lat="44.9203821" lon="8.5935645"><ele>90.0</ele><time>2026-05-03T07:25:19.059Z</time></trkpt><trkpt lat="44.9203596" lon="8.5936484"><ele>90.0</ele><time>2026-05-03T07:25:20.058Z</time></trkpt><trkpt lat="44.9203186" lon="8.593719"><ele>90.0</ele><time>2026-05-03T07:25:21.058Z</time></trkpt><trkpt lat="44.9202724" lon="8.593802"><ele>90.0</ele><time>2026-05-03T07:25:22.058Z</time></trkpt><trkpt lat="44.9202322" lon="8.593888"><ele>90.0</ele><time>2026-05-03T07:25:23.058Z</time></trkpt><trkpt lat="44.9201984" lon="8.5939865"><ele>90.0</ele><time>2026-05-03T07:25:24.058Z</time></trkpt><trkpt lat="44.9201606" lon="8.5940806"><ele>90.0</ele><time>2026-05-03T07:25:25.059Z</time></trkpt><trkpt lat="44.9201073" lon="8.5941539"><ele>90.0</ele><time>2026-05-03T07:25:26.059Z</time></trkpt><trkpt lat="44.9200448" lon="8.5942218"><ele>90.0</ele><time>2026-05-03T07:25:27.059Z</time></trkpt><trkpt lat="44.9199828" lon="8.5942966"><ele>90.0</ele><time>2026-05-03T07:25:28.058Z</time></trkpt><trkpt lat="44.919933" lon="8.5943832"><ele>90.0</ele><time>2026-05-03T07:25:29.058Z</time></trkpt><trkpt lat="44.9198887" lon="8.5944791"><ele>90.0</ele><time>2026-05-03T07:25:30.058Z</time></trkpt><trkpt lat="44.9198484" lon="8.5945824"><ele>90.0</ele><time>2026-05-03T07:25:31.059Z</time></trkpt><trkpt lat="44.9198095" lon="8.5946871"><ele>89.83333333333333</ele><time>2026-05-03T07:25:32.059Z</time></trkpt><trkpt lat="44.9197702" lon="8.5947867"><ele>89.66666666666667</ele><time>2026-05-03T07:25:33.058Z</time></trkpt><trkpt lat="44.9197279" lon="8.5948886"><ele>89.5</ele><time>2026-05-03T07:25:34.059Z</time></trkpt><trkpt lat="44.9196854" lon="8.5949862"><ele>89.33333333333334</ele><time>2026-05-03T07:25:35.058Z</time></trkpt><trkpt lat="44.9196391" lon="8.5950901"><ele>89.16666666666667</ele><time>2026-05-03T07:25:36.058Z</time></trkpt><trkpt lat="44.9195954" lon="8.5951901"><ele>89.0</ele><time>2026-05-03T07:25:37.06Z</time></trkpt><trkpt lat="44.9195508" lon="8.5952918"><ele>89.0</ele><time>2026-05-03T07:25:38.058Z</time></trkpt><trkpt lat="44.9195035" lon="8.5954015"><ele>89.0</ele><time>2026-05-03T07:25:39.058Z</time></trkpt><trkpt lat="44.9194559" lon="8.5955166"><ele>89.0</ele><time>2026-05-03T07:25:40.059Z</time></trkpt><trkpt lat="44.9194095" lon="8.5956293"><ele>89.0</ele><time>2026-05-03T07:25:41.058Z</time></trkpt><trkpt lat="44.9193596" lon="8.5957291"><ele>89.0</ele><time>2026-05-03T07:25:42.058Z</time></trkpt><trkpt lat="44.9193112" lon="8.595833"><ele>89.0</ele><time>2026-05-03T07:25:43.058Z</time></trkpt><trkpt lat="44.9192612" lon="8.5959395"><ele>89.0</ele><time>2026-05-03T07:25:44.058Z</time></trkpt><trkpt lat="44.919213" lon="8.5960498"><ele>89.0</ele><time>2026-05-03T07:25:45.058Z</time></trkpt><trkpt lat="44.9191681" lon="8.5961602"><ele>89.0</ele><time>2026-05-03T07:25:46.06Z</time></trkpt><trkpt lat="44.91912" lon="8.5962731"><ele>89.0</ele><time>2026-05-03T07:25:47.059Z</time></trkpt><trkpt lat="44.919071" lon="8.596382"><ele>89.2</ele><time>2026-05-03T07:25:48.06Z</time></trkpt><trkpt lat="44.9190213" lon="8.5964913"><ele>89.4</ele><time>2026-05-03T07:25:49.059Z</time></trkpt><trkpt lat="44.9189647" lon="8.5966067"><ele>89.6</ele><time>2026-05-03T07:25:50.059Z</time></trkpt><trkpt lat="44.9189164" lon="8.59672"><ele>89.8</ele><time>2026-05-03T07:25:51.059Z</time></trkpt><trkpt lat="44.9188694" lon="8.5968383"><ele>90.0</ele><time>2026-05-03T07:25:52.059Z</time></trkpt><trkpt lat="44.9188224" lon="8.5969507"><ele>90.0</ele><time>2026-05-03T07:25:53.06Z</time></trkpt><trkpt lat="44.9187751" lon="8.5970542"><ele>90.0</ele><time>2026-05-03T07:25:54.059Z</time></trkpt><trkpt lat="44.9187267" lon="8.5971636"><ele>90.0</ele><time>2026-05-03T07:25:55.06Z</time></trkpt><trkpt lat="44.918676" lon="8.5972735"><ele>90.0</ele><time>2026-05-03T07:25:56.059Z</time></trkpt><trkpt lat="44.9186244" lon="8.5973865"><ele>90.0</ele><time>2026-05-03T07:25:57.059Z</time></trkpt><trkpt lat="44.918574" lon="8.5974971"><ele>90.0</ele><time>2026-05-03T07:25:58.059Z</time></trkpt><trkpt lat="44.9185255" lon="8.5976125"><ele>90.0</ele><time>2026-05-03T07:25:59.059Z</time></trkpt><trkpt lat="44.9184777" lon="8.5977306"><ele>90.0</ele><time>2026-05-03T07:26:00.059Z</time></trkpt><trkpt lat="44.9184257" lon="8.5978453"><ele>90.0</ele><time>2026-05-03T07:26:01.059Z</time></trkpt><trkpt lat="44.9183789" lon="8.5979539"><ele>90.0</ele><time>2026-05-03T07:26:02.059Z</time></trkpt><trkpt lat="44.918332" lon="8.598077"><ele>90.6</ele><time>2026-05-03T07:26:03.06Z</time></trkpt><trkpt lat="44.9182835" lon="8.5981929"><ele>91.2</ele><time>2026-05-03T07:26:04.059Z</time></trkpt><trkpt lat="44.918235" lon="8.5983072"><ele>91.80000000000001</ele><time>2026-05-03T07:26:05.059Z</time></trkpt><trkpt lat="44.918189" lon="8.598415"><ele>92.4</ele><time>2026-05-03T07:26:06.059Z</time></trkpt><trkpt lat="44.918143" lon="8.5985273"><ele>93.0</ele><time>2026-05-03T07:26:07.06Z</time></trkpt><trkpt lat="44.9180935" lon="8.5986365"><ele>93.0</ele><time>2026-05-03T07:26:08.059Z</time></trkpt><trkpt lat="44.9180436" lon="8.5987471"><ele>93.0</ele><time>2026-05-03T07:26:09.059Z</time></trkpt><trkpt lat="44.9179967" lon="8.5988579"><ele>93.0</ele><time>2026-05-03T07:26:10.06Z</time></trkpt><trkpt lat="44.9179509" lon="8.5989616"><ele>93.0</ele><time>2026-05-03T07:26:11.059Z</time></trkpt><trkpt lat="44.9179048" lon="8.5990727"><ele>93.0</ele><time>2026-05-03T07:26:12.059Z</time></trkpt><trkpt lat="44.9178578" lon="8.599194"><ele>93.0</ele><time>2026-05-03T07:26:13.059Z</time></trkpt><trkpt lat="44.917817" lon="8.5993139"><ele>93.0</ele><time>2026-05-03T07:26:14.059Z</time></trkpt><trkpt lat="44.9177821" lon="8.5994482"><ele>93.0</ele><time>2026-05-03T07:26:15.059Z</time></trkpt><trkpt lat="44.9177434" lon="8.59957"><ele>93.0</ele><time>2026-05-03T07:26:16.059Z</time></trkpt><trkpt lat="44.9177036" lon="8.5996919"><ele>93.0</ele><time>2026-05-03T07:26:17.06Z</time></trkpt><trkpt lat="44.9176585" lon="8.5998059"><ele>93.0</ele><time>2026-05-03T07:26:18.059Z</time></trkpt><trkpt lat="44.9176095" lon="8.5999123"><ele>93.0</ele><time>2026-05-03T07:26:19.06Z</time></trkpt><trkpt lat="44.9175592" lon="8.5999985"><ele>93.0</ele><time>2026-05-03T07:26:20.059Z</time></trkpt><trkpt lat="44.9175034" lon="8.6000612"><ele>93.0</ele><time>2026-05-03T07:26:21.059Z</time></trkpt><trkpt lat="44.917441" lon="8.600109"><ele>93.0</ele><time>2026-05-03T07:26:22.059Z</time></trkpt><trkpt lat="44.9173752" lon="8.6001466"><ele>93.0</ele><time>2026-05-03T07:26:23.06Z</time></trkpt><trkpt lat="44.9173068" lon="8.6001731"><ele>93.0</ele><time>2026-05-03T07:26:24.06Z</time></trkpt><trkpt lat="44.9172319" lon="8.6001833"><ele>93.0</ele><time>2026-05-03T07:26:25.06Z</time></trkpt><trkpt lat="44.9171547" lon="8.6001814"><ele>93.0</ele><time>2026-05-03T07:26:26.059Z</time></trkpt><trkpt lat="44.9170816" lon="8.6001912"><ele>93.0</ele><time>2026-05-03T07:26:27.059Z</time></trkpt><trkpt lat="44.9170093" lon="8.600227"><ele>93.0</ele><time>2026-05-03T07:26:28.061Z</time></trkpt><trkpt lat="44.9169459" lon="8.6002901"><ele>93.0</ele><time>2026-05-03T07:26:29.061Z</time></trkpt><trkpt lat="44.9168923" lon="8.6003713"><ele>93.0</ele><time>2026-05-03T07:26:30.06Z</time></trkpt><trkpt lat="44.9168385" lon="8.6004641"><ele>93.0</ele><time>2026-05-03T07:26:31.06Z</time></trkpt><trkpt lat="44.9167815" lon="8.6005602"><ele>93.0</ele><time>2026-05-03T07:26:32.06Z</time></trkpt><trkpt lat="44.9167183" lon="8.6006284"><ele>93.0</ele><time>2026-05-03T07:26:33.06Z</time></trkpt><trkpt lat="44.9166459" lon="8.6006542"><ele>93.0</ele><time>2026-05-03T07:26:34.061Z</time></trkpt><trkpt lat="44.9165569" lon="8.6006526"><ele>93.0</ele><time>2026-05-03T07:26:35.06Z</time></trkpt><trkpt lat="44.9164763" lon="8.6006282"><ele>92.4</ele><time>2026-05-03T07:26:36.06Z</time></trkpt><trkpt lat="44.9163873" lon="8.600596"><ele>91.80000000000001</ele><time>2026-05-03T07:26:37.061Z</time></trkpt><trkpt lat="44.9162947" lon="8.6005764"><ele>91.2</ele><time>2026-05-03T07:26:38.06Z</time></trkpt><trkpt lat="44.9162022" lon="8.6005687"><ele>90.6</ele><time>2026-05-03T07:26:39.06Z</time></trkpt><trkpt lat="44.9161115" lon="8.6005687"><ele>90.0</ele><time>2026-05-03T07:26:40.06Z</time></trkpt><trkpt lat="44.916024" lon="8.6005768"><ele>90.0</ele><time>2026-05-03T07:26:41.061Z</time></trkpt><trkpt lat="44.9159376" lon="8.6005927"><ele>90.0</ele><time>2026-05-03T07:26:42.061Z</time></trkpt><trkpt lat="44.9158544" lon="8.6006234"><ele>90.0</ele><time>2026-05-03T07:26:43.06Z</time></trkpt><trkpt lat="44.9157661" lon="8.6006715"><ele>90.0</ele><time>2026-05-03T07:26:44.061Z</time></trkpt><trkpt lat="44.9156825" lon="8.6007352"><ele>90.0</ele><time>2026-05-03T07:26:45.061Z</time></trkpt><trkpt lat="44.9156048" lon="8.6008081"><ele>90.0</ele><time>2026-05-03T07:26:46.061Z</time></trkpt><trkpt lat="44.915534" lon="8.6008966"><ele>90.0</ele><time>2026-05-03T07:26:47.06Z</time></trkpt><trkpt lat="44.915467" lon="8.600983"><ele>90.0</ele><time>2026-05-03T07:26:48.06Z</time></trkpt><trkpt lat="44.9154035" lon="8.6010638"><ele>90.0</ele><time>2026-05-03T07:26:49.06Z</time></trkpt><trkpt lat="44.9153399" lon="8.601141"><ele>90.0</ele><time>2026-05-03T07:26:50.061Z</time></trkpt><trkpt lat="44.9152775" lon="8.6012158"><ele>90.0</ele><time>2026-05-03T07:26:51.06Z</time></trkpt><trkpt lat="44.9152176" lon="8.6012862"><ele>90.16666666666667</ele><time>2026-05-03T07:26:52.06Z</time></trkpt><trkpt lat="44.9151559" lon="8.6013543"><ele>90.33333333333333</ele><time>2026-05-03T07:26:53.06Z</time></trkpt><trkpt lat="44.915094" lon="8.6014207"><ele>90.5</ele><time>2026-05-03T07:26:54.06Z</time></trkpt><trkpt lat="44.9150326" lon="8.6014892"><ele>90.66666666666666</ele><time>2026-05-03T07:26:55.06Z</time></trkpt><trkpt lat="44.9149737" lon="8.6015599"><ele>90.83333333333333</ele><time>2026-05-03T07:26:56.06Z</time></trkpt><trkpt lat="44.9149156" lon="8.6016317"><ele>91.0</ele><time>2026-05-03T07:26:57.06Z</time></trkpt><trkpt lat="44.9148538" lon="8.6017039"><ele>89.83333333333333</ele><time>2026-05-03T07:26:58.06Z</time></trkpt><trkpt lat="44.9147879" lon="8.6017721"><ele>88.66666666666666</ele><time>2026-05-03T07:26:59.061Z</time></trkpt><trkpt lat="44.9147211" lon="8.6018417"><ele>87.5</ele><time>2026-05-03T07:27:00.061Z</time></trkpt><trkpt lat="44.9146532" lon="8.6019167"><ele>86.33333333333333</ele><time>2026-05-03T07:27:01.061Z</time></trkpt><trkpt lat="44.9145835" lon="8.6019957"><ele>85.16666666666667</ele><time>2026-05-03T07:27:02.06Z</time></trkpt><trkpt lat="44.914512" lon="8.6020777"><ele>84.0</ele><time>2026-05-03T07:27:03.06Z</time></trkpt><trkpt lat="44.9144393" lon="8.6021619"><ele>83.6</ele><time>2026-05-03T07:27:04.06Z</time></trkpt><trkpt lat="44.9143649" lon="8.6022444"><ele>83.2</ele><time>2026-05-03T07:27:05.061Z</time></trkpt><trkpt lat="44.9142908" lon="8.6023274"><ele>82.8</ele><time>2026-05-03T07:27:06.061Z</time></trkpt><trkpt lat="44.9142177" lon="8.6024114"><ele>82.39999999999999</ele><time>2026-05-03T07:27:07.06Z</time></trkpt><trkpt lat="44.9141453" lon="8.6024959"><ele>82.0</ele><time>2026-05-03T07:27:08.06Z</time></trkpt><trkpt lat="44.9140735" lon="8.6025791"><ele>83.0</ele><time>2026-05-03T07:27:09.06Z</time></trkpt><trkpt lat="44.9140018" lon="8.602661"><ele>84.0</ele><time>2026-05-03T07:27:10.061Z</time></trkpt><trkpt lat="44.913929" lon="8.6027381"><ele>85.0</ele><time>2026-05-03T07:27:11.061Z</time></trkpt><trkpt lat="44.9138572" lon="8.6028126"><ele>86.0</ele><time>2026-05-03T07:27:12.061Z</time></trkpt><trkpt lat="44.9137893" lon="8.6028862"><ele>87.0</ele><time>2026-05-03T07:27:13.061Z</time></trkpt><trkpt lat="44.9137229" lon="8.602961"><ele>88.0</ele><time>2026-05-03T07:27:14.061Z</time></trkpt><trkpt lat="44.9136535" lon="8.6030346"><ele>89.2</ele><time>2026-05-03T07:27:15.062Z</time></trkpt><trkpt lat="44.9135799" lon="8.6031112"><ele>90.4</ele><time>2026-05-03T07:27:16.061Z</time></trkpt><trkpt lat="44.9135058" lon="8.6031885"><ele>91.60000000000001</ele><time>2026-05-03T07:27:17.062Z</time></trkpt><trkpt lat="44.9134335" lon="8.6032658"><ele>92.80000000000001</ele><time>2026-05-03T07:27:18.062Z</time></trkpt><trkpt lat="44.9133594" lon="8.6033488"><ele>94.0</ele><time>2026-05-03T07:27:19.061Z</time></trkpt><trkpt lat="44.9132835" lon="8.6034332"><ele>94.4</ele><time>2026-05-03T07:27:20.061Z</time></trkpt><trkpt lat="44.9132064" lon="8.603517"><ele>94.80000000000001</ele><time>2026-05-03T07:27:21.061Z</time></trkpt><trkpt lat="44.9131274" lon="8.603604"><ele>95.19999999999999</ele><time>2026-05-03T07:27:22.061Z</time></trkpt><trkpt lat="44.9130472" lon="8.6036936"><ele>95.6</ele><time>2026-05-03T07:27:23.062Z</time></trkpt><trkpt lat="44.9129689" lon="8.6037794"><ele>96.0</ele><time>2026-05-03T07:27:24.062Z</time></trkpt><trkpt lat="44.9128968" lon="8.6038652"><ele>96.19999999999999</ele><time>2026-05-03T07:27:25.061Z</time></trkpt><trkpt lat="44.9128298" lon="8.6039514"><ele>96.39999999999999</ele><time>2026-05-03T07:27:26.062Z</time></trkpt><trkpt lat="44.9127599" lon="8.6040364"><ele>96.6</ele><time>2026-05-03T07:27:27.062Z</time></trkpt><trkpt lat="44.9126905" lon="8.604121"><ele>96.8</ele><time>2026-05-03T07:27:28.061Z</time></trkpt><trkpt lat="44.9126244" lon="8.6042052"><ele>97.0</ele><time>2026-05-03T07:27:29.061Z</time></trkpt><trkpt lat="44.9125542" lon="8.6042863"><ele>96.66666666666667</ele><time>2026-05-03T07:27:30.061Z</time></trkpt><trkpt lat="44.9124845" lon="8.604363"><ele>96.33333333333334</ele><time>2026-05-03T07:27:31.061Z</time></trkpt><trkpt lat="44.9124147" lon="8.6044381"><ele>96.0</ele><time>2026-05-03T07:27:32.061Z</time></trkpt><trkpt lat="44.9123424" lon="8.6045127"><ele>95.66666666666667</ele><time>2026-05-03T07:27:33.062Z</time></trkpt><trkpt lat="44.9122685" lon="8.6045845"><ele>95.33333333333334</ele><time>2026-05-03T07:27:34.061Z</time></trkpt><trkpt lat="44.9121928" lon="8.6046453"><ele>95.0</ele><time>2026-05-03T07:27:35.062Z</time></trkpt><trkpt lat="44.9121203" lon="8.6046983"><ele>95.0</ele><time>2026-05-03T07:27:36.062Z</time></trkpt><trkpt lat="44.9120538" lon="8.6047388"><ele>95.0</ele><time>2026-05-03T07:27:37.061Z</time></trkpt><trkpt lat="44.9119966" lon="8.6047828"><ele>95.0</ele><time>2026-05-03T07:27:38.061Z</time></trkpt><trkpt lat="44.911913" lon="8.6048754"><ele>95.0</ele><time>2026-05-03T07:27:40.062Z</time></trkpt><trkpt lat="44.9118288" lon="8.604988"><ele>95.0</ele><time>2026-05-03T07:27:42.061Z</time></trkpt><trkpt lat="44.9117804" lon="8.6050543"><ele>95.0</ele><time>2026-05-03T07:27:43.061Z</time></trkpt><trkpt lat="44.9117216" lon="8.6051223"><ele>94.83333333333334</ele><time>2026-05-03T07:27:44.062Z</time></trkpt><trkpt lat="44.9116621" lon="8.6051883"><ele>94.66666666666667</ele><time>2026-05-03T07:27:45.061Z</time></trkpt><trkpt lat="44.9116" lon="8.6052599"><ele>94.5</ele><time>2026-05-03T07:27:46.061Z</time></trkpt><trkpt lat="44.9115418" lon="8.6053294"><ele>94.33333333333333</ele><time>2026-05-03T07:27:47.061Z</time></trkpt><trkpt lat="44.9114828" lon="8.6054"><ele>94.16666666666666</ele><time>2026-05-03T07:27:48.061Z</time></trkpt><trkpt lat="44.9114181" lon="8.6054822"><ele>94.0</ele><time>2026-05-03T07:27:49.061Z</time></trkpt><trkpt lat="44.9113381" lon="8.6055767"><ele>94.6</ele><time>2026-05-03T07:27:50.061Z</time></trkpt><trkpt lat="44.9112564" lon="8.6056708"><ele>95.2</ele><time>2026-05-03T07:27:51.062Z</time></trkpt><trkpt lat="44.9111733" lon="8.6057588"><ele>95.8</ele><time>2026-05-03T07:27:52.063Z</time></trkpt><trkpt lat="44.9110898" lon="8.6058434"><ele>96.39999999999999</ele><time>2026-05-03T07:27:53.063Z</time></trkpt><trkpt lat="44.9110084" lon="8.6059302"><ele>97.0</ele><time>2026-05-03T07:27:54.063Z</time></trkpt><trkpt lat="44.9109254" lon="8.60602"><ele>96.8</ele><time>2026-05-03T07:27:55.062Z</time></trkpt><trkpt lat="44.9108444" lon="8.6061045"><ele>96.6</ele><time>2026-05-03T07:27:56.063Z</time></trkpt><trkpt lat="44.910764" lon="8.6061909"><ele>96.39999999999999</ele><time>2026-05-03T07:27:57.062Z</time></trkpt><trkpt lat="44.9106876" lon="8.6062769"><ele>96.19999999999999</ele><time>2026-05-03T07:27:58.062Z</time></trkpt><trkpt lat="44.9106177" lon="8.6063583"><ele>96.0</ele><time>2026-05-03T07:27:59.062Z</time></trkpt><trkpt lat="44.9105537" lon="8.6064345"><ele>96.83333333333333</ele><time>2026-05-03T07:28:00.062Z</time></trkpt><trkpt lat="44.9104964" lon="8.6065049"><ele>97.66666666666666</ele><time>2026-05-03T07:28:01.063Z</time></trkpt><trkpt lat="44.9104473" lon="8.6065739"><ele>98.5</ele><time>2026-05-03T07:28:02.062Z</time></trkpt><trkpt lat="44.9104051" lon="8.6066436"><ele>99.33333333333333</ele><time>2026-05-03T07:28:03.062Z</time></trkpt><trkpt lat="44.9103627" lon="8.6067152"><ele>100.16666666666666</ele><time>2026-05-03T07:28:04.062Z</time></trkpt><trkpt lat="44.91029" lon="8.6068146"><ele>101.0</ele><time>2026-05-03T07:28:06.062Z</time></trkpt><trkpt lat="44.9101803" lon="8.6068652"><ele>100.99999999999999</ele><time>2026-05-03T07:28:08.062Z</time></trkpt><trkpt lat="44.9101077" lon="8.6068866"><ele>101.0</ele><time>2026-05-03T07:28:09.062Z</time></trkpt><trkpt lat="44.9100291" lon="8.6068996"><ele>101.0</ele><time>2026-05-03T07:28:10.062Z</time></trkpt><trkpt lat="44.9099471" lon="8.6069126"><ele>101.0</ele><time>2026-05-03T07:28:11.062Z</time></trkpt><trkpt lat="44.9098715" lon="8.6069422"><ele>100.99999999999999</ele><time>2026-05-03T07:28:12.062Z</time></trkpt><trkpt lat="44.9097978" lon="8.6069999"><ele>101.0</ele><time>2026-05-03T07:28:13.062Z</time></trkpt><trkpt lat="44.9097332" lon="8.6070656"><ele>100.49999999999999</ele><time>2026-05-03T07:28:14.063Z</time></trkpt><trkpt lat="44.9096768" lon="8.607134"><ele>100.0</ele><time>2026-05-03T07:28:15.063Z</time></trkpt><trkpt lat="44.9096235" lon="8.6072002"><ele>99.5</ele><time>2026-05-03T07:28:16.062Z</time></trkpt><trkpt lat="44.9095666" lon="8.6072664"><ele>99.0</ele><time>2026-05-03T07:28:17.062Z</time></trkpt><trkpt lat="44.9095081" lon="8.6073303"><ele>98.49999999999999</ele><time>2026-05-03T07:28:18.062Z</time></trkpt><trkpt lat="44.909443" lon="8.6074014"><ele>98.0</ele><time>2026-05-03T07:28:19.063Z</time></trkpt><trkpt lat="44.9093701" lon="8.6074712"><ele>97.99999999999999</ele><time>2026-05-03T07:28:20.062Z</time></trkpt><trkpt lat="44.9093019" lon="8.6075435"><ele>98.0</ele><time>2026-05-03T07:28:21.062Z</time></trkpt><trkpt lat="44.9092391" lon="8.6076162"><ele>98.0</ele><time>2026-05-03T07:28:22.062Z</time></trkpt><trkpt lat="44.9091779" lon="8.6076871"><ele>98.0</ele><time>2026-05-03T07:28:23.062Z</time></trkpt><trkpt lat="44.9091114" lon="8.6077615"><ele>97.99999999999999</ele><time>2026-05-03T07:28:24.062Z</time></trkpt><trkpt lat="44.909044" lon="8.6078353"><ele>98.0</ele><time>2026-05-03T07:28:25.062Z</time></trkpt><trkpt lat="44.9089743" lon="8.6079069"><ele>97.66666666666666</ele><time>2026-05-03T07:28:26.063Z</time></trkpt><trkpt lat="44.9089061" lon="8.6079783"><ele>97.33333333333333</ele><time>2026-05-03T07:28:27.063Z</time></trkpt><trkpt lat="44.9088369" lon="8.6080555"><ele>97.0</ele><time>2026-05-03T07:28:28.062Z</time></trkpt><trkpt lat="44.9087685" lon="8.60813"><ele>96.66666666666666</ele><time>2026-05-03T07:28:29.062Z</time></trkpt><trkpt lat="44.9087071" lon="8.6082029"><ele>96.33333333333333</ele><time>2026-05-03T07:28:30.062Z</time></trkpt><trkpt lat="44.9086534" lon="8.6082679"><ele>96.0</ele><time>2026-05-03T07:28:31.062Z</time></trkpt><trkpt lat="44.9085773" lon="8.6083535"><ele>96.0</ele><time>2026-05-03T07:28:33.062Z</time></trkpt><trkpt lat="44.9085139" lon="8.608411"><ele>96.0</ele><time>2026-05-03T07:28:36.063Z</time></trkpt><trkpt lat="44.9084668" lon="8.6084717"><ele>96.0</ele><time>2026-05-03T07:28:38.064Z</time></trkpt><trkpt lat="44.9083839" lon="8.6085763"><ele>96.0</ele><time>2026-05-03T07:28:40.063Z</time></trkpt><trkpt lat="44.9083325" lon="8.6086353"><ele>96.0</ele><time>2026-05-03T07:28:41.063Z</time></trkpt><trkpt lat="44.908279" lon="8.6087019"><ele>96.0</ele><time>2026-05-03T07:28:42.063Z</time></trkpt><trkpt lat="44.9082218" lon="8.6087712"><ele>96.16666666666667</ele><time>2026-05-03T07:28:43.063Z</time></trkpt><trkpt lat="44.9081716" lon="8.6088374"><ele>96.33333333333334</ele><time>2026-05-03T07:28:44.063Z</time></trkpt><trkpt lat="44.9080792" lon="8.608936"><ele>96.5</ele><time>2026-05-03T07:28:46.063Z</time></trkpt><trkpt lat="44.9080226" lon="8.6089973"><ele>96.66666666666667</ele><time>2026-05-03T07:28:47.064Z</time></trkpt><trkpt lat="44.9079688" lon="8.6090617"><ele>96.83333333333334</ele><time>2026-05-03T07:28:48.063Z</time></trkpt><trkpt lat="44.9079093" lon="8.6091223"><ele>97.0</ele><time>2026-05-03T07:28:49.064Z</time></trkpt><trkpt lat="44.9078548" lon="8.609184"><ele>97.00000000000001</ele><time>2026-05-03T07:28:50.064Z</time></trkpt><trkpt lat="44.9077958" lon="8.6092504"><ele>97.0</ele><time>2026-05-03T07:28:51.063Z</time></trkpt><trkpt lat="44.9077402" lon="8.6093114"><ele>97.0</ele><time>2026-05-03T07:28:52.064Z</time></trkpt><trkpt lat="44.907677" lon="8.6093713"><ele>97.0</ele><time>2026-05-03T07:28:53.063Z</time></trkpt><trkpt lat="44.9076099" lon="8.6094387"><ele>97.00000000000001</ele><time>2026-05-03T07:28:54.064Z</time></trkpt><trkpt lat="44.9075329" lon="8.6094954"><ele>97.0</ele><time>2026-05-03T07:28:55.063Z</time></trkpt><trkpt lat="44.9074705" lon="8.6095675"><ele>96.66666666666667</ele><time>2026-05-03T07:28:56.063Z</time></trkpt><trkpt lat="44.907409" lon="8.6096489"><ele>96.33333333333334</ele><time>2026-05-03T07:28:57.064Z</time></trkpt><trkpt lat="44.9073418" lon="8.6097368"><ele>96.0</ele><time>2026-05-03T07:28:58.063Z</time></trkpt><trkpt lat="44.9072759" lon="8.6098239"><ele>95.66666666666667</ele><time>2026-05-03T07:28:59.063Z</time></trkpt><trkpt lat="44.9072137" lon="8.6099066"><ele>95.33333333333334</ele><time>2026-05-03T07:29:00.064Z</time></trkpt><trkpt lat="44.9071651" lon="8.6099953"><ele>95.0</ele><time>2026-05-03T07:29:01.063Z</time></trkpt><trkpt lat="44.907139" lon="8.6100853"><ele>95.0</ele><time>2026-05-03T07:29:02.063Z</time></trkpt><trkpt lat="44.9071305" lon="8.6101822"><ele>95.0</ele><time>2026-05-03T07:29:03.063Z</time></trkpt><trkpt lat="44.9071305" lon="8.6102904"><ele>95.0</ele><time>2026-05-03T07:29:04.063Z</time></trkpt><trkpt lat="44.9071441" lon="8.6104195"><ele>95.0</ele><time>2026-05-03T07:29:05.063Z</time></trkpt><trkpt lat="44.9071615" lon="8.6105418"><ele>95.0</ele><time>2026-05-03T07:29:06.063Z</time></trkpt><trkpt lat="44.9071787" lon="8.6106596"><ele>95.0</ele><time>2026-05-03T07:29:07.063Z</time></trkpt><trkpt lat="44.9071897" lon="8.6107759"><ele>95.33333333333334</ele><time>2026-05-03T07:29:08.063Z</time></trkpt><trkpt lat="44.9071981" lon="8.610894"><ele>95.66666666666667</ele><time>2026-05-03T07:29:09.063Z</time></trkpt><trkpt lat="44.9072038" lon="8.6110158"><ele>96.0</ele><time>2026-05-03T07:29:10.063Z</time></trkpt><trkpt lat="44.907205" lon="8.6111295"><ele>96.33333333333334</ele><time>2026-05-03T07:29:11.064Z</time></trkpt><trkpt lat="44.9072026" lon="8.6112362"><ele>96.66666666666667</ele><time>2026-05-03T07:29:12.063Z</time></trkpt><trkpt lat="44.9071962" lon="8.6113384"><ele>97.0</ele><time>2026-05-03T07:29:13.063Z</time></trkpt><trkpt lat="44.9071772" lon="8.6114296"><ele>97.50000000000001</ele><time>2026-05-03T07:29:14.063Z</time></trkpt><trkpt lat="44.9071594" lon="8.6115152"><ele>98.0</ele><time>2026-05-03T07:29:15.063Z</time></trkpt><trkpt lat="44.9071204" lon="8.6116542"><ele>98.5</ele><time>2026-05-03T07:29:17.065Z</time></trkpt><trkpt lat="44.9070354" lon="8.6117287"><ele>99.0</ele><time>2026-05-03T07:29:19.065Z</time></trkpt><trkpt lat="44.9069603" lon="8.6117303"><ele>99.50000000000001</ele><time>2026-05-03T07:29:20.065Z</time></trkpt><trkpt lat="44.9068786" lon="8.6117239"><ele>100.0</ele><time>2026-05-03T07:29:21.064Z</time></trkpt><trkpt lat="44.9068" lon="8.6117293"><ele>99.66666666666667</ele><time>2026-05-03T07:29:22.064Z</time></trkpt><trkpt lat="44.9067343" lon="8.6117347"><ele>99.33333333333334</ele><time>2026-05-03T07:29:23.064Z</time></trkpt><trkpt lat="44.9066571" lon="8.6117427"><ele>99.0</ele><time>2026-05-03T07:29:24.064Z</time></trkpt><trkpt lat="44.9065782" lon="8.6117559"><ele>98.66666666666666</ele><time>2026-05-03T07:29:25.064Z</time></trkpt><trkpt lat="44.9064905" lon="8.6117618"><ele>98.33333333333333</ele><time>2026-05-03T07:29:26.064Z</time></trkpt><trkpt lat="44.9064053" lon="8.6117696"><ele>98.0</ele><time>2026-05-03T07:29:27.065Z</time></trkpt><trkpt lat="44.9063223" lon="8.6117811"><ele>98.0</ele><time>2026-05-03T07:29:28.065Z</time></trkpt><trkpt lat="44.9062331" lon="8.6117927"><ele>98.0</ele><time>2026-05-03T07:29:29.065Z</time></trkpt><trkpt lat="44.9061451" lon="8.6118097"><ele>98.0</ele><time>2026-05-03T07:29:30.064Z</time></trkpt><trkpt lat="44.9060529" lon="8.61182"><ele>98.0</ele><time>2026-05-03T07:29:31.065Z</time></trkpt><trkpt lat="44.905955" lon="8.6118266"><ele>98.0</ele><time>2026-05-03T07:29:32.065Z</time></trkpt><trkpt lat="44.9058607" lon="8.6118287"><ele>98.2</ele><time>2026-05-03T07:29:33.064Z</time></trkpt><trkpt lat="44.9057664" lon="8.611825"><ele>98.4</ele><time>2026-05-03T07:29:34.064Z</time></trkpt><trkpt lat="44.9056729" lon="8.6118437"><ele>98.60000000000001</ele><time>2026-05-03T07:29:35.064Z</time></trkpt><trkpt lat="44.9055755" lon="8.6118674"><ele>98.80000000000001</ele><time>2026-05-03T07:29:36.065Z</time></trkpt><trkpt lat="44.9054782" lon="8.61188"><ele>99.0</ele><time>2026-05-03T07:29:37.064Z</time></trkpt><trkpt lat="44.9053853" lon="8.6118973"><ele>99.0</ele><time>2026-05-03T07:29:38.064Z</time></trkpt><trkpt lat="44.9052904" lon="8.6119102"><ele>99.0</ele><time>2026-05-03T07:29:39.064Z</time></trkpt><trkpt lat="44.9052008" lon="8.6119113"><ele>99.0</ele><time>2026-05-03T07:29:40.065Z</time></trkpt><trkpt lat="44.9051111" lon="8.611885"><ele>99.0</ele><time>2026-05-03T07:29:41.064Z</time></trkpt><trkpt lat="44.9050284" lon="8.6118412"><ele>99.0</ele><time>2026-05-03T07:29:42.064Z</time></trkpt><trkpt lat="44.9049507" lon="8.6117779"><ele>98.66666666666667</ele><time>2026-05-03T07:29:43.064Z</time></trkpt><trkpt lat="44.9048801" lon="8.6116961"><ele>98.33333333333334</ele><time>2026-05-03T07:29:44.065Z</time></trkpt><trkpt lat="44.9048203" lon="8.6116036"><ele>98.0</ele><time>2026-05-03T07:29:45.064Z</time></trkpt><trkpt lat="44.9047635" lon="8.6115038"><ele>97.66666666666667</ele><time>2026-05-03T07:29:46.064Z</time></trkpt><trkpt lat="44.9047129" lon="8.6113987"><ele>97.33333333333334</ele><time>2026-05-03T07:29:47.065Z</time></trkpt><trkpt lat="44.9046601" lon="8.611298"><ele>97.0</ele><time>2026-05-03T07:29:48.064Z</time></trkpt><trkpt lat="44.9046057" lon="8.6111983"><ele>96.19999999999999</ele><time>2026-05-03T07:29:49.064Z</time></trkpt><trkpt lat="44.9045487" lon="8.6110954"><ele>95.4</ele><time>2026-05-03T07:29:50.064Z</time></trkpt><trkpt lat="44.9044899" lon="8.6109897"><ele>94.6</ele><time>2026-05-03T07:29:51.064Z</time></trkpt><trkpt lat="44.9044325" lon="8.6108756"><ele>93.80000000000001</ele><time>2026-05-03T07:29:52.064Z</time></trkpt><trkpt lat="44.9043742" lon="8.6107628"><ele>93.0</ele><time>2026-05-03T07:29:53.065Z</time></trkpt><trkpt lat="44.9043195" lon="8.6106452"><ele>93.0</ele><time>2026-05-03T07:29:54.065Z</time></trkpt><trkpt lat="44.9042705" lon="8.6105223"><ele>93.0</ele><time>2026-05-03T07:29:55.066Z</time></trkpt><trkpt lat="44.9042255" lon="8.6104024"><ele>93.0</ele><time>2026-05-03T07:29:56.065Z</time></trkpt><trkpt lat="44.9041814" lon="8.6102905"><ele>93.0</ele><time>2026-05-03T07:29:57.064Z</time></trkpt><trkpt lat="44.9041333" lon="8.6101839"><ele>93.0</ele><time>2026-05-03T07:29:58.064Z</time></trkpt><trkpt lat="44.9040854" lon="8.6100802"><ele>93.80000000000001</ele><time>2026-05-03T07:29:59.065Z</time></trkpt><trkpt lat="44.9040364" lon="8.6099699"><ele>94.6</ele><time>2026-05-03T07:30:00.065Z</time></trkpt><trkpt lat="44.9039884" lon="8.6098579"><ele>95.4</ele><time>2026-05-03T07:30:01.065Z</time></trkpt><trkpt lat="44.9039438" lon="8.6097513"><ele>96.19999999999999</ele><time>2026-05-03T07:30:02.066Z</time></trkpt><trkpt lat="44.9038935" lon="8.6096374"><ele>97.0</ele><time>2026-05-03T07:30:03.065Z</time></trkpt><trkpt lat="44.9038458" lon="8.6095259"><ele>97.00000000000001</ele><time>2026-05-03T07:30:04.066Z</time></trkpt><trkpt lat="44.9037984" lon="8.6094181"><ele>97.0</ele><time>2026-05-03T07:30:05.065Z</time></trkpt><trkpt lat="44.9037537" lon="8.6093116"><ele>97.0</ele><time>2026-05-03T07:30:06.065Z</time></trkpt><trkpt lat="44.9037103" lon="8.6092082"><ele>97.0</ele><time>2026-05-03T07:30:07.065Z</time></trkpt><trkpt lat="44.9036646" lon="8.6090994"><ele>97.00000000000001</ele><time>2026-05-03T07:30:08.065Z</time></trkpt><trkpt lat="44.9036173" lon="8.6089887"><ele>97.0</ele><time>2026-05-03T07:30:09.066Z</time></trkpt><trkpt lat="44.9035701" lon="8.6088822"><ele>97.0</ele><time>2026-05-03T07:30:10.066Z</time></trkpt><trkpt lat="44.9035238" lon="8.6087727"><ele>97.0</ele><time>2026-05-03T07:30:11.065Z</time></trkpt><trkpt lat="44.9034797" lon="8.6086563"><ele>97.0</ele><time>2026-05-03T07:30:12.066Z</time></trkpt><trkpt lat="44.9034376" lon="8.608541"><ele>97.0</ele><time>2026-05-03T07:30:13.065Z</time></trkpt><trkpt lat="44.9034136" lon="8.6084251"><ele>97.0</ele><time>2026-05-03T07:30:14.065Z</time></trkpt><trkpt lat="44.9033992" lon="8.6082915"><ele>97.19999999999999</ele><time>2026-05-03T07:30:15.066Z</time></trkpt><trkpt lat="44.9033942" lon="8.608148"><ele>97.4</ele><time>2026-05-03T07:30:16.066Z</time></trkpt><trkpt lat="44.903398" lon="8.6080104"><ele>97.6</ele><time>2026-05-03T07:30:17.065Z</time></trkpt><trkpt lat="44.9034081" lon="8.6078767"><ele>97.80000000000001</ele><time>2026-05-03T07:30:18.065Z</time></trkpt><trkpt lat="44.903422" lon="8.6077403"><ele>98.0</ele><time>2026-05-03T07:30:19.065Z</time></trkpt><trkpt lat="44.9034499" lon="8.6076319"><ele>97.49999999999999</ele><time>2026-05-03T07:30:20.066Z</time></trkpt><trkpt lat="44.9034786" lon="8.6075243"><ele>97.0</ele><time>2026-05-03T07:30:21.065Z</time></trkpt><trkpt lat="44.903512" lon="8.607415"><ele>96.5</ele><time>2026-05-03T07:30:22.065Z</time></trkpt><trkpt lat="44.9035463" lon="8.6073027"><ele>96.0</ele><time>2026-05-03T07:30:23.066Z</time></trkpt><trkpt lat="44.9035785" lon="8.6071795"><ele>95.5</ele><time>2026-05-03T07:30:24.066Z</time></trkpt><trkpt lat="44.9036088" lon="8.6070534"><ele>95.0</ele><time>2026-05-03T07:30:25.065Z</time></trkpt><trkpt lat="44.9036432" lon="8.6069359"><ele>95.0</ele><time>2026-05-03T07:30:26.065Z</time></trkpt><trkpt lat="44.9036763" lon="8.60681"><ele>95.0</ele><time>2026-05-03T07:30:27.065Z</time></trkpt><trkpt lat="44.903707" lon="8.6066922"><ele>95.0</ele><time>2026-05-03T07:30:28.066Z</time></trkpt><trkpt lat="44.9037347" lon="8.6065783"><ele>95.0</ele><time>2026-05-03T07:30:29.065Z</time></trkpt><trkpt lat="44.9037553" lon="8.6064716"><ele>95.0</ele><time>2026-05-03T07:30:30.066Z</time></trkpt><trkpt lat="44.9037759" lon="8.6063609"><ele>95.0</ele><time>2026-05-03T07:30:31.065Z</time></trkpt><trkpt lat="44.9037962" lon="8.6062567"><ele>95.0</ele><time>2026-05-03T07:30:32.066Z</time></trkpt><trkpt lat="44.9038134" lon="8.6061674"><ele>95.0</ele><time>2026-05-03T07:30:33.066Z</time></trkpt><trkpt lat="44.9038426" lon="8.6060518"><ele>95.0</ele><time>2026-05-03T07:30:35.065Z</time></trkpt><trkpt lat="44.9038635" lon="8.605937"><ele>95.0</ele><time>2026-05-03T07:30:37.065Z</time></trkpt><trkpt lat="44.9039144" lon="8.6057816"><ele>95.0</ele><time>2026-05-03T07:30:39.065Z</time></trkpt><trkpt lat="44.9039373" lon="8.6056902"><ele>95.0</ele><time>2026-05-03T07:30:40.065Z</time></trkpt><trkpt lat="44.9039546" lon="8.6055988"><ele>95.0</ele><time>2026-05-03T07:30:41.066Z</time></trkpt><trkpt lat="44.9039762" lon="8.6055106"><ele>95.0</ele><time>2026-05-03T07:30:42.065Z</time></trkpt><trkpt lat="44.9039975" lon="8.6054156"><ele>95.0</ele><time>2026-05-03T07:30:43.067Z</time></trkpt><trkpt lat="44.9040197" lon="8.6053183"><ele>95.0</ele><time>2026-05-03T07:30:44.066Z</time></trkpt><trkpt lat="44.904044" lon="8.6052173"><ele>95.0</ele><time>2026-05-03T07:30:45.066Z</time></trkpt><trkpt lat="44.9040643" lon="8.6051213"><ele>95.0</ele><time>2026-05-03T07:30:46.067Z</time></trkpt><trkpt lat="44.9040833" lon="8.604953"><ele>95.0</ele><time>2026-05-03T07:30:48.067Z</time></trkpt><trkpt lat="44.9040865" lon="8.6048529"><ele>95.0</ele><time>2026-05-03T07:30:54.067Z</time></trkpt><trkpt lat="44.9040767" lon="8.6047028"><ele>95.0</ele><time>2026-05-03T07:30:57.066Z</time></trkpt><trkpt lat="44.9040441" lon="8.6045418"><ele>95.0</ele><time>2026-05-03T07:30:59.066Z</time></trkpt><trkpt lat="44.9040111" lon="8.6044535"><ele>95.0</ele><time>2026-05-03T07:31:00.066Z</time></trkpt><trkpt lat="44.903972" lon="8.6043822"><ele>95.0</ele><time>2026-05-03T07:31:01.066Z</time></trkpt><trkpt lat="44.9038932" lon="8.6042491"><ele>95.0</ele><time>2026-05-03T07:31:03.067Z</time></trkpt><trkpt lat="44.9038038" lon="8.6041219"><ele>95.0</ele><time>2026-05-03T07:31:05.067Z</time></trkpt><trkpt lat="44.9037047" lon="8.603995"><ele>95.0</ele><time>2026-05-03T07:31:07.066Z</time></trkpt><trkpt lat="44.9036567" lon="8.6039367"><ele>95.0</ele><time>2026-05-03T07:31:08.066Z</time></trkpt><trkpt lat="44.9035879" lon="8.6038298"><ele>95.0</ele><time>2026-05-03T07:31:10.066Z</time></trkpt><trkpt lat="44.903522" lon="8.6037661"><ele>95.0</ele><time>2026-05-03T07:31:12.066Z</time></trkpt><trkpt lat="44.9034435" lon="8.6036708"><ele>95.0</ele><time>2026-05-03T07:31:14.067Z</time></trkpt><trkpt lat="44.9033741" lon="8.6035827"><ele>95.0</ele><time>2026-05-03T07:31:16.066Z</time></trkpt><trkpt lat="44.9032975" lon="8.6035057"><ele>95.0</ele><time>2026-05-03T07:31:18.067Z</time></trkpt><trkpt lat="44.9032078" lon="8.6034527"><ele>95.0</ele><time>2026-05-03T07:31:20.066Z</time></trkpt><trkpt lat="44.9031375" lon="8.6034906"><ele>95.0</ele><time>2026-05-03T07:31:22.066Z</time></trkpt><trkpt lat="44.9030836" lon="8.6036218"><ele>95.0</ele><time>2026-05-03T07:31:24.067Z</time></trkpt><trkpt lat="44.903051" lon="8.6037032"><ele>95.0</ele><time>2026-05-03T07:31:25.067Z</time></trkpt><trkpt lat="44.9030125" lon="8.6037862"><ele>95.0</ele><time>2026-05-03T07:31:26.068Z</time></trkpt><trkpt lat="44.9029602" lon="8.6038662"><ele>95.0</ele><time>2026-05-03T07:31:27.067Z</time></trkpt><trkpt lat="44.9029051" lon="8.6039349"><ele>95.0</ele><time>2026-05-03T07:31:28.068Z</time></trkpt><trkpt lat="44.902853" lon="8.6039915"><ele>95.0</ele><time>2026-05-03T07:31:29.068Z</time></trkpt><trkpt lat="44.902804" lon="8.6040516"><ele>95.0</ele><time>2026-05-03T07:31:30.067Z</time></trkpt><trkpt lat="44.9027498" lon="8.604132"><ele>95.0</ele><time>2026-05-03T07:31:31.068Z</time></trkpt><trkpt lat="44.9027042" lon="8.6042332"><ele>95.0</ele><time>2026-05-03T07:31:32.068Z</time></trkpt><trkpt lat="44.9026556" lon="8.6043041"><ele>95.0</ele><time>2026-05-03T07:31:33.067Z</time></trkpt><trkpt lat="44.9026092" lon="8.6043692"><ele>95.0</ele><time>2026-05-03T07:31:34.067Z</time></trkpt><trkpt lat="44.9025179" lon="8.604493"><ele>95.16666666666667</ele><time>2026-05-03T07:31:36.068Z</time></trkpt><trkpt lat="44.9024724" lon="8.6045655"><ele>95.33333333333334</ele><time>2026-05-03T07:31:37.067Z</time></trkpt><trkpt lat="44.9024302" lon="8.6046455"><ele>95.5</ele><time>2026-05-03T07:31:38.067Z</time></trkpt><trkpt lat="44.9023875" lon="8.6047129"><ele>95.66666666666667</ele><time>2026-05-03T07:31:39.067Z</time></trkpt><trkpt lat="44.9023029" lon="8.6048377"><ele>95.83333333333333</ele><time>2026-05-03T07:31:41.068Z</time></trkpt><trkpt lat="44.9022315" lon="8.6049419"><ele>96.0</ele><time>2026-05-03T07:31:43.067Z</time></trkpt><trkpt lat="44.9021873" lon="8.6050113"><ele>96.0</ele><time>2026-05-03T07:31:45.067Z</time></trkpt><trkpt lat="44.9020934" lon="8.604978"><ele>96.0</ele><time>2026-05-03T07:31:49.067Z</time></trkpt><trkpt lat="44.9019913" lon="8.6048601"><ele>96.0</ele><time>2026-05-03T07:31:51.068Z</time></trkpt><trkpt lat="44.9019389" lon="8.6047998"><ele>96.0</ele><time>2026-05-03T07:31:52.067Z</time></trkpt><trkpt lat="44.9018894" lon="8.6047396"><ele>96.0</ele><time>2026-05-03T07:31:53.067Z</time></trkpt><trkpt lat="44.9018393" lon="8.6046761"><ele>96.0</ele><time>2026-05-03T07:31:54.067Z</time></trkpt><trkpt lat="44.901793" lon="8.6046101"><ele>95.85714285714285</ele><time>2026-05-03T07:31:55.067Z</time></trkpt><trkpt lat="44.9017427" lon="8.6045475"><ele>95.71428571428571</ele><time>2026-05-03T07:31:56.067Z</time></trkpt><trkpt lat="44.9016897" lon="8.6044837"><ele>95.57142857142857</ele><time>2026-05-03T07:31:57.068Z</time></trkpt><trkpt lat="44.9016409" lon="8.604421"><ele>95.42857142857142</ele><time>2026-05-03T07:31:58.067Z</time></trkpt><trkpt lat="44.901585" lon="8.6043574"><ele>95.28571428571429</ele><time>2026-05-03T07:31:59.068Z</time></trkpt><trkpt lat="44.9015198" lon="8.6042865"><ele>95.14285714285714</ele><time>2026-05-03T07:32:00.067Z</time></trkpt><trkpt lat="44.9014603" lon="8.6042157"><ele>95.0</ele><time>2026-05-03T07:32:01.067Z</time></trkpt><trkpt lat="44.9014006" lon="8.6041444"><ele>94.83333333333334</ele><time>2026-05-03T07:32:02.067Z</time></trkpt><trkpt lat="44.901344" lon="8.6040654"><ele>94.66666666666667</ele><time>2026-05-03T07:32:03.067Z</time></trkpt><trkpt lat="44.9013067" lon="8.6039755"><ele>94.5</ele><time>2026-05-03T07:32:04.067Z</time></trkpt><trkpt lat="44.9012518" lon="8.6039043"><ele>94.33333333333333</ele><time>2026-05-03T07:32:05.067Z</time></trkpt><trkpt lat="44.9011975" lon="8.603836"><ele>94.16666666666666</ele><time>2026-05-03T07:32:06.067Z</time></trkpt><trkpt lat="44.9011135" lon="8.6037416"><ele>94.0</ele><time>2026-05-03T07:32:08.067Z</time></trkpt><trkpt lat="44.9010653" lon="8.6036737"><ele>94.0</ele><time>2026-05-03T07:32:10.068Z</time></trkpt><trkpt lat="44.9009982" lon="8.6035823"><ele>94.0</ele><time>2026-05-03T07:32:12.068Z</time></trkpt><trkpt lat="44.9009078" lon="8.603456"><ele>94.0</ele><time>2026-05-03T07:32:14.068Z</time></trkpt><trkpt lat="44.9008545" lon="8.6033988"><ele>94.0</ele><time>2026-05-03T07:32:15.068Z</time></trkpt><trkpt lat="44.9007985" lon="8.6033363"><ele>94.0</ele><time>2026-05-03T07:32:16.068Z</time></trkpt><trkpt lat="44.9007381" lon="8.6032801"><ele>94.0</ele><time>2026-05-03T07:32:17.069Z</time></trkpt><trkpt lat="44.9006781" lon="8.6032078"><ele>94.0</ele><time>2026-05-03T07:32:18.068Z</time></trkpt><trkpt lat="44.9006134" lon="8.6031344"><ele>94.0</ele><time>2026-05-03T07:32:19.068Z</time></trkpt><trkpt lat="44.9005498" lon="8.6030643"><ele>94.0</ele><time>2026-05-03T07:32:20.068Z</time></trkpt><trkpt lat="44.9004917" lon="8.6029953"><ele>94.0</ele><time>2026-05-03T07:32:21.068Z</time></trkpt><trkpt lat="44.9004353" lon="8.6029226"><ele>94.0</ele><time>2026-05-03T07:32:22.068Z</time></trkpt><trkpt lat="44.9003817" lon="8.6028487"><ele>94.0</ele><time>2026-05-03T07:32:23.069Z</time></trkpt><trkpt lat="44.9003283" lon="8.602773"><ele>94.2</ele><time>2026-05-03T07:32:24.069Z</time></trkpt><trkpt lat="44.9002746" lon="8.6027021"><ele>94.4</ele><time>2026-05-03T07:32:25.068Z</time></trkpt><trkpt lat="44.9002254" lon="8.6026316"><ele>94.6</ele><time>2026-05-03T07:32:26.068Z</time></trkpt><trkpt lat="44.9001472" lon="8.6025201"><ele>94.8</ele><time>2026-05-03T07:32:28.068Z</time></trkpt><trkpt lat="44.900079" lon="8.6024163"><ele>95.0</ele><time>2026-05-03T07:32:30.068Z</time></trkpt><trkpt lat="44.8999925" lon="8.6023287"><ele>95.0</ele><time>2026-05-03T07:32:32.068Z</time></trkpt><trkpt lat="44.8999041" lon="8.6022215"><ele>95.0</ele><time>2026-05-03T07:32:34.068Z</time></trkpt><trkpt lat="44.8998102" lon="8.6020919"><ele>95.0</ele><time>2026-05-03T07:32:36.069Z</time></trkpt><trkpt lat="44.8997552" lon="8.6020248"><ele>95.0</ele><time>2026-05-03T07:32:37.069Z</time></trkpt><trkpt lat="44.8996983" lon="8.6019545"><ele>95.0</ele><time>2026-05-03T07:32:38.068Z</time></trkpt><trkpt lat="44.8996435" lon="8.6018853"><ele>95.33333333333334</ele><time>2026-05-03T07:32:39.069Z</time></trkpt><trkpt lat="44.8995855" lon="8.6018149"><ele>95.66666666666667</ele><time>2026-05-03T07:32:40.069Z</time></trkpt><trkpt lat="44.8995303" lon="8.6017389"><ele>96.0</ele><time>2026-05-03T07:32:41.068Z</time></trkpt><trkpt lat="44.8994763" lon="8.6016629"><ele>96.33333333333334</ele><time>2026-05-03T07:32:42.069Z</time></trkpt><trkpt lat="44.8994224" lon="8.6015857"><ele>96.66666666666667</ele><time>2026-05-03T07:32:43.068Z</time></trkpt><trkpt lat="44.8993669" lon="8.6015203"><ele>97.0</ele><time>2026-05-03T07:32:44.068Z</time></trkpt><trkpt lat="44.8993046" lon="8.6014555"><ele>96.83333333333334</ele><time>2026-05-03T07:32:45.068Z</time></trkpt><trkpt lat="44.8992438" lon="8.6013883"><ele>96.66666666666667</ele><time>2026-05-03T07:32:46.068Z</time></trkpt><trkpt lat="44.8991832" lon="8.6013192"><ele>96.5</ele><time>2026-05-03T07:32:47.069Z</time></trkpt><trkpt lat="44.8991227" lon="8.601244"><ele>96.33333333333334</ele><time>2026-05-03T07:32:48.068Z</time></trkpt><trkpt lat="44.89906" lon="8.6011701"><ele>96.16666666666667</ele><time>2026-05-03T07:32:49.068Z</time></trkpt><trkpt lat="44.8989968" lon="8.6010973"><ele>96.0</ele><time>2026-05-03T07:32:50.068Z</time></trkpt><trkpt lat="44.8989328" lon="8.6010213"><ele>96.0</ele><time>2026-05-03T07:32:51.069Z</time></trkpt><trkpt lat="44.8988671" lon="8.6009441"><ele>96.0</ele><time>2026-05-03T07:32:52.069Z</time></trkpt><trkpt lat="44.8988033" lon="8.6008634"><ele>96.0</ele><time>2026-05-03T07:32:53.07Z</time></trkpt><trkpt lat="44.8987374" lon="8.6007798"><ele>96.0</ele><time>2026-05-03T07:32:54.07Z</time></trkpt><trkpt lat="44.8986687" lon="8.6006966"><ele>96.0</ele><time>2026-05-03T07:32:55.07Z</time></trkpt><trkpt lat="44.8986029" lon="8.6006138"><ele>96.0</ele><time>2026-05-03T07:32:56.07Z</time></trkpt><trkpt lat="44.8985385" lon="8.6005287"><ele>96.0</ele><time>2026-05-03T07:32:57.069Z</time></trkpt><trkpt lat="44.8984754" lon="8.6004481"><ele>96.0</ele><time>2026-05-03T07:32:58.069Z</time></trkpt><trkpt lat="44.8984126" lon="8.6003618"><ele>96.0</ele><time>2026-05-03T07:32:59.069Z</time></trkpt><trkpt lat="44.8983463" lon="8.6002773"><ele>96.0</ele><time>2026-05-03T07:33:00.069Z</time></trkpt><trkpt lat="44.8982788" lon="8.6001939"><ele>96.0</ele><time>2026-05-03T07:33:01.069Z</time></trkpt><trkpt lat="44.8982086" lon="8.6001152"><ele>96.0</ele><time>2026-05-03T07:33:02.07Z</time></trkpt><trkpt lat="44.8981407" lon="8.6000309"><ele>95.8</ele><time>2026-05-03T07:33:03.069Z</time></trkpt><trkpt lat="44.898074" lon="8.5999428"><ele>95.6</ele><time>2026-05-03T07:33:04.07Z</time></trkpt><trkpt lat="44.8980029" lon="8.5998538"><ele>95.4</ele><time>2026-05-03T07:33:05.069Z</time></trkpt><trkpt lat="44.8979329" lon="8.5997689"><ele>95.2</ele><time>2026-05-03T07:33:06.069Z</time></trkpt><trkpt lat="44.8978629" lon="8.5996856"><ele>95.0</ele><time>2026-05-03T07:33:07.069Z</time></trkpt><trkpt lat="44.8977925" lon="8.5995964"><ele>95.0</ele><time>2026-05-03T07:33:08.069Z</time></trkpt><trkpt lat="44.8977229" lon="8.5995051"><ele>95.0</ele><time>2026-05-03T07:33:09.069Z</time></trkpt><trkpt lat="44.8976549" lon="8.599407"><ele>95.0</ele><time>2026-05-03T07:33:10.069Z</time></trkpt><trkpt lat="44.8975899" lon="8.5993115"><ele>95.0</ele><time>2026-05-03T07:33:11.07Z</time></trkpt><trkpt lat="44.8975273" lon="8.5992196"><ele>95.0</ele><time>2026-05-03T07:33:12.07Z</time></trkpt><trkpt lat="44.8974665" lon="8.5991374"><ele>95.16666666666667</ele><time>2026-05-03T07:33:13.069Z</time></trkpt><trkpt lat="44.8974045" lon="8.5990623"><ele>95.33333333333334</ele><time>2026-05-03T07:33:14.069Z</time></trkpt><trkpt lat="44.897342" lon="8.5989877"><ele>95.5</ele><time>2026-05-03T07:33:15.069Z</time></trkpt><trkpt lat="44.8972861" lon="8.5989051"><ele>95.66666666666667</ele><time>2026-05-03T07:33:16.069Z</time></trkpt><trkpt lat="44.8972277" lon="8.5988319"><ele>95.83333333333333</ele><time>2026-05-03T07:33:17.069Z</time></trkpt><trkpt lat="44.8971685" lon="8.5987655"><ele>96.0</ele><time>2026-05-03T07:33:18.069Z</time></trkpt><trkpt lat="44.8971086" lon="8.598698"><ele>96.0</ele><time>2026-05-03T07:33:19.069Z</time></trkpt><trkpt lat="44.8970476" lon="8.5986318"><ele>96.0</ele><time>2026-05-03T07:33:20.07Z</time></trkpt><trkpt lat="44.896989" lon="8.5985709"><ele>96.0</ele><time>2026-05-03T07:33:21.069Z</time></trkpt><trkpt lat="44.8969376" lon="8.5985176"><ele>96.0</ele><time>2026-05-03T07:33:22.07Z</time></trkpt><trkpt lat="44.8968549" lon="8.5984108"><ele>96.0</ele><time>2026-05-03T07:33:24.07Z</time></trkpt><trkpt lat="44.8968005" lon="8.5983552"><ele>96.0</ele><time>2026-05-03T07:33:26.069Z</time></trkpt><trkpt lat="44.8967533" lon="8.5982848"><ele>95.83333333333333</ele><time>2026-05-03T07:34:28.071Z</time></trkpt><trkpt lat="44.8966988" lon="8.5982259"><ele>95.66666666666667</ele><time>2026-05-03T07:34:30.071Z</time></trkpt><trkpt lat="44.896621" lon="8.5981999"><ele>95.5</ele><time>2026-05-03T07:34:32.072Z</time></trkpt><trkpt lat="44.8965164" lon="8.5982367"><ele>95.33333333333334</ele><time>2026-05-03T07:34:34.071Z</time></trkpt><trkpt lat="44.8964658" lon="8.5982982"><ele>95.16666666666667</ele><time>2026-05-03T07:34:35.071Z</time></trkpt><trkpt lat="44.8964234" lon="8.598365"><ele>95.0</ele><time>2026-05-03T07:34:36.071Z</time></trkpt><trkpt lat="44.8963836" lon="8.5984433"><ele>95.0</ele><time>2026-05-03T07:34:37.072Z</time></trkpt><trkpt lat="44.8963371" lon="8.5985117"><ele>95.0</ele><time>2026-05-03T07:34:38.071Z</time></trkpt><trkpt lat="44.8962803" lon="8.5985812"><ele>95.0</ele><time>2026-05-03T07:34:39.071Z</time></trkpt><trkpt lat="44.8962231" lon="8.5986534"><ele>95.0</ele><time>2026-05-03T07:34:40.071Z</time></trkpt><trkpt lat="44.8961678" lon="8.5987302"><ele>95.0</ele><time>2026-05-03T07:34:41.071Z</time></trkpt><trkpt lat="44.896113" lon="8.5988039"><ele>95.0</ele><time>2026-05-03T07:34:42.071Z</time></trkpt><trkpt lat="44.896057" lon="8.5988738"><ele>95.0</ele><time>2026-05-03T07:34:43.071Z</time></trkpt><trkpt lat="44.8959971" lon="8.5989475"><ele>95.16666666666667</ele><time>2026-05-03T07:34:44.072Z</time></trkpt><trkpt lat="44.8959422" lon="8.5990247"><ele>95.33333333333334</ele><time>2026-05-03T07:34:45.071Z</time></trkpt><trkpt lat="44.8958815" lon="8.5991042"><ele>95.5</ele><time>2026-05-03T07:34:46.071Z</time></trkpt><trkpt lat="44.8958198" lon="8.5991823"><ele>95.66666666666667</ele><time>2026-05-03T07:34:47.071Z</time></trkpt><trkpt lat="44.8957593" lon="8.5992629"><ele>95.83333333333333</ele><time>2026-05-03T07:34:48.071Z</time></trkpt><trkpt lat="44.8957022" lon="8.5993511"><ele>96.0</ele><time>2026-05-03T07:34:49.072Z</time></trkpt><trkpt lat="44.8956395" lon="8.5994322"><ele>95.83333333333333</ele><time>2026-05-03T07:34:50.072Z</time></trkpt><trkpt lat="44.8955766" lon="8.599517"><ele>95.66666666666667</ele><time>2026-05-03T07:34:51.071Z</time></trkpt><trkpt lat="44.8955118" lon="8.5996005"><ele>95.5</ele><time>2026-05-03T07:34:52.071Z</time></trkpt><trkpt lat="44.8954481" lon="8.5996852"><ele>95.33333333333334</ele><time>2026-05-03T07:34:53.072Z</time></trkpt><trkpt lat="44.8953861" lon="8.5997847"><ele>95.16666666666667</ele><time>2026-05-03T07:34:54.071Z</time></trkpt><trkpt lat="44.8953245" lon="8.5998759"><ele>95.0</ele><time>2026-05-03T07:34:55.071Z</time></trkpt><trkpt lat="44.8952659" lon="8.5999681"><ele>95.0</ele><time>2026-05-03T07:34:56.072Z</time></trkpt><trkpt lat="44.8952033" lon="8.6000531"><ele>95.0</ele><time>2026-05-03T07:34:57.071Z</time></trkpt><trkpt lat="44.8951367" lon="8.60013"><ele>95.0</ele><time>2026-05-03T07:34:58.072Z</time></trkpt><trkpt lat="44.8950672" lon="8.6002084"><ele>95.0</ele><time>2026-05-03T07:34:59.072Z</time></trkpt><trkpt lat="44.8950028" lon="8.600291"><ele>95.0</ele><time>2026-05-03T07:35:00.073Z</time></trkpt><trkpt lat="44.894944" lon="8.6003753"><ele>95.0</ele><time>2026-05-03T07:35:01.072Z</time></trkpt><trkpt lat="44.8948829" lon="8.6004566"><ele>95.5</ele><time>2026-05-03T07:35:02.072Z</time></trkpt><trkpt lat="44.8948153" lon="8.6005366"><ele>96.0</ele><time>2026-05-03T07:35:03.072Z</time></trkpt><trkpt lat="44.8947519" lon="8.6006148"><ele>96.5</ele><time>2026-05-03T07:35:04.073Z</time></trkpt><trkpt lat="44.8946856" lon="8.6007027"><ele>97.0</ele><time>2026-05-03T07:35:05.073Z</time></trkpt><trkpt lat="44.8946132" lon="8.6007885"><ele>97.49999999999999</ele><time>2026-05-03T07:35:06.072Z</time></trkpt><trkpt lat="44.894557" lon="8.6008876"><ele>98.0</ele><time>2026-05-03T07:35:07.072Z</time></trkpt><trkpt lat="44.8944971" lon="8.6009753"><ele>97.99999999999999</ele><time>2026-05-03T07:35:08.073Z</time></trkpt><trkpt lat="44.8944346" lon="8.6010584"><ele>98.0</ele><time>2026-05-03T07:35:09.072Z</time></trkpt><trkpt lat="44.89437" lon="8.6011403"><ele>98.0</ele><time>2026-05-03T07:35:10.072Z</time></trkpt><trkpt lat="44.894303" lon="8.6012214"><ele>98.0</ele><time>2026-05-03T07:35:11.072Z</time></trkpt><trkpt lat="44.894233" lon="8.6013018"><ele>97.99999999999999</ele><time>2026-05-03T07:35:12.072Z</time></trkpt><trkpt lat="44.8941673" lon="8.6013905"><ele>98.0</ele><time>2026-05-03T07:35:13.073Z</time></trkpt><trkpt lat="44.8941037" lon="8.6014751"><ele>97.83333333333333</ele><time>2026-05-03T07:35:14.072Z</time></trkpt><trkpt lat="44.8940439" lon="8.601568"><ele>97.66666666666666</ele><time>2026-05-03T07:35:15.073Z</time></trkpt><trkpt lat="44.8939839" lon="8.6016551"><ele>97.5</ele><time>2026-05-03T07:35:16.072Z</time></trkpt><trkpt lat="44.8939225" lon="8.6017395"><ele>97.33333333333334</ele><time>2026-05-03T07:35:17.072Z</time></trkpt><trkpt lat="44.8938663" lon="8.601828"><ele>97.16666666666667</ele><time>2026-05-03T07:35:18.073Z</time></trkpt><trkpt lat="44.8938004" lon="8.6018922"><ele>97.0</ele><time>2026-05-03T07:35:19.073Z</time></trkpt><trkpt lat="44.8937319" lon="8.6019444"><ele>97.0</ele><time>2026-05-03T07:35:20.072Z</time></trkpt><trkpt lat="44.8936658" lon="8.6019781"><ele>97.0</ele><time>2026-05-03T07:35:21.073Z</time></trkpt><trkpt lat="44.8935805" lon="8.6019941"><ele>97.0</ele><time>2026-05-03T07:35:22.072Z</time></trkpt><trkpt lat="44.8934861" lon="8.6019746"><ele>97.0</ele><time>2026-05-03T07:35:23.073Z</time></trkpt><trkpt lat="44.8933807" lon="8.6019178"><ele>97.0</ele><time>2026-05-03T07:35:24.072Z</time></trkpt><trkpt lat="44.893276" lon="8.601868"><ele>96.83333333333334</ele><time>2026-05-03T07:35:25.072Z</time></trkpt><trkpt lat="44.8931914" lon="8.6018189"><ele>96.66666666666667</ele><time>2026-05-03T07:35:26.073Z</time></trkpt><trkpt lat="44.8931123" lon="8.6017766"><ele>96.5</ele><time>2026-05-03T07:35:27.072Z</time></trkpt><trkpt lat="44.8930416" lon="8.6017425"><ele>96.33333333333334</ele><time>2026-05-03T07:35:28.072Z</time></trkpt><trkpt lat="44.8929742" lon="8.6017122"><ele>96.16666666666667</ele><time>2026-05-03T07:35:29.072Z</time></trkpt><trkpt lat="44.8928752" lon="8.6016796"><ele>96.0</ele><time>2026-05-03T07:35:31.072Z</time></trkpt><trkpt lat="44.8928111" lon="8.6016601"><ele>96.0</ele><time>2026-05-03T07:35:34.073Z</time></trkpt><trkpt lat="44.892716" lon="8.6016487"><ele>96.0</ele><time>2026-05-03T07:36:28.074Z</time></trkpt><trkpt lat="44.8925935" lon="8.6016243"><ele>96.0</ele><time>2026-05-03T07:36:30.074Z</time></trkpt><trkpt lat="44.8925208" lon="8.6016113"><ele>96.0</ele><time>2026-05-03T07:36:31.074Z</time></trkpt><trkpt lat="44.8924532" lon="8.6016105"><ele>96.0</ele><time>2026-05-03T07:36:32.075Z</time></trkpt><trkpt lat="44.8923879" lon="8.6015968"><ele>96.0</ele><time>2026-05-03T07:36:33.075Z</time></trkpt><trkpt lat="44.8923199" lon="8.6015607"><ele>95.66666666666667</ele><time>2026-05-03T07:36:36.075Z</time></trkpt><trkpt lat="44.8922583" lon="8.601519"><ele>95.33333333333333</ele><time>2026-05-03T07:40:36.08Z</time></trkpt><trkpt lat="44.8921682" lon="8.6015162"><ele>95.0</ele><time>2026-05-03T07:40:39.08Z</time></trkpt><trkpt lat="44.8920981" lon="8.6015025"><ele>94.66666666666666</ele><time>2026-05-03T07:40:41.079Z</time></trkpt><trkpt lat="44.8920172" lon="8.6014729"><ele>94.33333333333333</ele><time>2026-05-03T07:40:43.08Z</time></trkpt><trkpt lat="44.8918985" lon="8.6014547"><ele>94.0</ele><time>2026-05-03T07:40:45.081Z</time></trkpt><trkpt lat="44.891834" lon="8.6014381"><ele>94.0</ele><time>2026-05-03T07:40:46.08Z</time></trkpt><trkpt lat="44.8917687" lon="8.6014154"><ele>94.0</ele><time>2026-05-03T07:40:47.08Z</time></trkpt><trkpt lat="44.8917022" lon="8.60138"><ele>94.0</ele><time>2026-05-03T07:40:48.081Z</time></trkpt><trkpt lat="44.8916327" lon="8.6013291"><ele>94.0</ele><time>2026-05-03T07:40:49.08Z</time></trkpt><trkpt lat="44.8915619" lon="8.6012708"><ele>94.0</ele><time>2026-05-03T07:40:50.08Z</time></trkpt><trkpt lat="44.8914927" lon="8.6012122"><ele>94.0</ele><time>2026-05-03T07:40:51.08Z</time></trkpt><trkpt lat="44.8914248" lon="8.6011522"><ele>94.16666666666666</ele><time>2026-05-03T07:40:52.08Z</time></trkpt><trkpt lat="44.8913583" lon="8.6010931"><ele>94.33333333333333</ele><time>2026-05-03T07:40:53.081Z</time></trkpt><trkpt lat="44.8912895" lon="8.6010335"><ele>94.5</ele><time>2026-05-03T07:40:54.08Z</time></trkpt><trkpt lat="44.8912181" lon="8.600974"><ele>94.66666666666667</ele><time>2026-05-03T07:40:55.08Z</time></trkpt><trkpt lat="44.8911431" lon="8.6009141"><ele>94.83333333333334</ele><time>2026-05-03T07:40:56.08Z</time></trkpt><trkpt lat="44.891066" lon="8.6008517"><ele>95.0</ele><time>2026-05-03T07:40:57.081Z</time></trkpt><trkpt lat="44.8909842" lon="8.600785"><ele>94.83333333333334</ele><time>2026-05-03T07:40:58.08Z</time></trkpt><trkpt lat="44.890905" lon="8.6007205"><ele>94.66666666666667</ele><time>2026-05-03T07:40:59.08Z</time></trkpt><trkpt lat="44.8908275" lon="8.6006593"><ele>94.5</ele><time>2026-05-03T07:41:00.08Z</time></trkpt><trkpt lat="44.8907497" lon="8.6005977"><ele>94.33333333333333</ele><time>2026-05-03T07:41:01.08Z</time></trkpt><trkpt lat="44.8906726" lon="8.6005344"><ele>94.16666666666666</ele><time>2026-05-03T07:41:02.08Z</time></trkpt><trkpt lat="44.8905976" lon="8.6004708"><ele>94.0</ele><time>2026-05-03T07:41:03.081Z</time></trkpt><trkpt lat="44.8905203" lon="8.6004088"><ele>94.0</ele><time>2026-05-03T07:41:04.08Z</time></trkpt><trkpt lat="44.8904429" lon="8.6003473"><ele>94.0</ele><time>2026-05-03T07:41:05.08Z</time></trkpt><trkpt lat="44.8903663" lon="8.6002863"><ele>94.0</ele><time>2026-05-03T07:41:06.08Z</time></trkpt><trkpt lat="44.89029" lon="8.6002221"><ele>94.0</ele><time>2026-05-03T07:41:07.08Z</time></trkpt><trkpt lat="44.890215" lon="8.6001567"><ele>94.0</ele><time>2026-05-03T07:41:08.08Z</time></trkpt><trkpt lat="44.8901379" lon="8.6000915"><ele>94.0</ele><time>2026-05-03T07:41:09.08Z</time></trkpt><trkpt lat="44.8900605" lon="8.6000294"><ele>94.0</ele><time>2026-05-03T07:41:10.08Z</time></trkpt><trkpt lat="44.8899823" lon="8.5999655"><ele>94.0</ele><time>2026-05-03T07:41:11.08Z</time></trkpt><trkpt lat="44.8899024" lon="8.5999019"><ele>94.0</ele><time>2026-05-03T07:41:12.081Z</time></trkpt><trkpt lat="44.8898252" lon="8.5998384"><ele>94.0</ele><time>2026-05-03T07:41:13.081Z</time></trkpt><trkpt lat="44.8897441" lon="8.5997724"><ele>94.0</ele><time>2026-05-03T07:41:14.08Z</time></trkpt><trkpt lat="44.8896663" lon="8.5997098"><ele>94.0</ele><time>2026-05-03T07:41:15.081Z</time></trkpt><trkpt lat="44.8895874" lon="8.5996477"><ele>94.0</ele><time>2026-05-03T07:41:16.081Z</time></trkpt><trkpt lat="44.8895073" lon="8.5995866"><ele>94.0</ele><time>2026-05-03T07:41:17.081Z</time></trkpt><trkpt lat="44.889428" lon="8.5995258"><ele>94.0</ele><time>2026-05-03T07:41:18.081Z</time></trkpt><trkpt lat="44.8893499" lon="8.599464"><ele>94.0</ele><time>2026-05-03T07:41:19.08Z</time></trkpt><trkpt lat="44.8892719" lon="8.599398"><ele>94.2</ele><time>2026-05-03T07:41:20.081Z</time></trkpt><trkpt lat="44.8891947" lon="8.5993342"><ele>94.4</ele><time>2026-05-03T07:41:21.082Z</time></trkpt><trkpt lat="44.8891163" lon="8.5992738"><ele>94.6</ele><time>2026-05-03T07:41:22.081Z</time></trkpt><trkpt lat="44.8890377" lon="8.5992097"><ele>94.8</ele><time>2026-05-03T07:41:23.08Z</time></trkpt><trkpt lat="44.888959" lon="8.5991455"><ele>95.0</ele><time>2026-05-03T07:41:24.08Z</time></trkpt><trkpt lat="44.8888781" lon="8.5990823"><ele>95.0</ele><time>2026-05-03T07:41:25.08Z</time></trkpt><trkpt lat="44.8887961" lon="8.5990181"><ele>95.0</ele><time>2026-05-03T07:41:26.081Z</time></trkpt><trkpt lat="44.8887145" lon="8.5989559"><ele>95.0</ele><time>2026-05-03T07:41:27.08Z</time></trkpt><trkpt lat="44.8886335" lon="8.5988938"><ele>95.0</ele><time>2026-05-03T07:41:28.082Z</time></trkpt><trkpt lat="44.8885551" lon="8.5988307"><ele>95.0</ele><time>2026-05-03T07:41:29.081Z</time></trkpt><trkpt lat="44.8884763" lon="8.5987679"><ele>95.0</ele><time>2026-05-03T07:41:30.081Z</time></trkpt><trkpt lat="44.8883993" lon="8.5987034"><ele>95.0</ele><time>2026-05-03T07:41:31.082Z</time></trkpt><trkpt lat="44.8883215" lon="8.5986372"><ele>95.0</ele><time>2026-05-03T07:41:32.081Z</time></trkpt><trkpt lat="44.8882433" lon="8.5985632"><ele>95.0</ele><time>2026-05-03T07:41:33.082Z</time></trkpt><trkpt lat="44.8881614" lon="8.5984972"><ele>95.0</ele><time>2026-05-03T07:41:34.081Z</time></trkpt><trkpt lat="44.8880816" lon="8.5984334"><ele>95.0</ele><time>2026-05-03T07:41:35.081Z</time></trkpt><trkpt lat="44.8880023" lon="8.5983727"><ele>95.0</ele><time>2026-05-03T07:41:36.082Z</time></trkpt><trkpt lat="44.8879221" lon="8.5983116"><ele>95.0</ele><time>2026-05-03T07:41:37.082Z</time></trkpt><trkpt lat="44.8878403" lon="8.5982513"><ele>95.0</ele><time>2026-05-03T07:41:38.081Z</time></trkpt><trkpt lat="44.8877584" lon="8.5981903"><ele>95.0</ele><time>2026-05-03T07:41:39.081Z</time></trkpt><trkpt lat="44.8876776" lon="8.5981257"><ele>95.0</ele><time>2026-05-03T07:41:40.082Z</time></trkpt><trkpt lat="44.8875992" lon="8.5980613"><ele>95.0</ele><time>2026-05-03T07:41:41.082Z</time></trkpt><trkpt lat="44.88752" lon="8.597996"><ele>95.0</ele><time>2026-05-03T07:41:42.082Z</time></trkpt><trkpt lat="44.8874395" lon="8.5979308"><ele>95.0</ele><time>2026-05-03T07:41:43.082Z</time></trkpt><trkpt lat="44.8873584" lon="8.5978679"><ele>95.0</ele><time>2026-05-03T07:41:44.082Z</time></trkpt><trkpt lat="44.8872754" lon="8.5978045"><ele>94.8</ele><time>2026-05-03T07:41:45.081Z</time></trkpt><trkpt lat="44.8871903" lon="8.597741"><ele>94.6</ele><time>2026-05-03T07:41:46.082Z</time></trkpt><trkpt lat="44.8871063" lon="8.5976731"><ele>94.4</ele><time>2026-05-03T07:41:47.081Z</time></trkpt><trkpt lat="44.8870251" lon="8.597604"><ele>94.2</ele><time>2026-05-03T07:41:48.081Z</time></trkpt><trkpt lat="44.886945" lon="8.597537"><ele>94.0</ele><time>2026-05-03T07:41:49.081Z</time></trkpt><trkpt lat="44.8868625" lon="8.5974681"><ele>94.0</ele><time>2026-05-03T07:41:50.081Z</time></trkpt><trkpt lat="44.8867791" lon="8.5974024"><ele>94.0</ele><time>2026-05-03T07:41:51.082Z</time></trkpt><trkpt lat="44.8866955" lon="8.5973375"><ele>94.0</ele><time>2026-05-03T07:41:52.081Z</time></trkpt><trkpt lat="44.8866128" lon="8.5972729"><ele>94.0</ele><time>2026-05-03T07:41:53.081Z</time></trkpt><trkpt lat="44.8865305" lon="8.5972076"><ele>94.0</ele><time>2026-05-03T07:41:54.081Z</time></trkpt><trkpt lat="44.8864486" lon="8.5971425"><ele>94.2</ele><time>2026-05-03T07:41:55.081Z</time></trkpt><trkpt lat="44.8863644" lon="8.5970749"><ele>94.4</ele><time>2026-05-03T07:41:56.082Z</time></trkpt><trkpt lat="44.8862816" lon="8.5970074"><ele>94.6</ele><time>2026-05-03T07:41:57.082Z</time></trkpt><trkpt lat="44.8862" lon="8.5969422"><ele>94.8</ele><time>2026-05-03T07:41:58.082Z</time></trkpt><trkpt lat="44.8861181" lon="8.5968776"><ele>95.0</ele><time>2026-05-03T07:41:59.082Z</time></trkpt><trkpt lat="44.8860359" lon="8.5968122"><ele>95.0</ele><time>2026-05-03T07:42:00.082Z</time></trkpt><trkpt lat="44.8859529" lon="8.5967458"><ele>95.0</ele><time>2026-05-03T07:42:01.081Z</time></trkpt><trkpt lat="44.885868" lon="8.5966788"><ele>95.0</ele><time>2026-05-03T07:42:02.081Z</time></trkpt><trkpt lat="44.8857821" lon="8.596612"><ele>95.0</ele><time>2026-05-03T07:42:03.081Z</time></trkpt><trkpt lat="44.8856964" lon="8.5965497"><ele>95.0</ele><time>2026-05-03T07:42:04.082Z</time></trkpt><trkpt lat="44.8856084" lon="8.5964926"><ele>95.0</ele><time>2026-05-03T07:42:05.081Z</time></trkpt><trkpt lat="44.8855181" lon="8.5964425"><ele>95.0</ele><time>2026-05-03T07:42:06.082Z</time></trkpt><trkpt lat="44.8854272" lon="8.5963961"><ele>95.0</ele><time>2026-05-03T07:42:07.081Z</time></trkpt><trkpt lat="44.885336" lon="8.5963546"><ele>95.0</ele><time>2026-05-03T07:42:08.081Z</time></trkpt><trkpt lat="44.8852428" lon="8.5963195"><ele>95.0</ele><time>2026-05-03T07:42:09.081Z</time></trkpt><trkpt lat="44.8851474" lon="8.5962945"><ele>95.0</ele><time>2026-05-03T07:42:10.082Z</time></trkpt><trkpt lat="44.8850506" lon="8.5962794"><ele>95.0</ele><time>2026-05-03T07:42:11.081Z</time></trkpt><trkpt lat="44.8849537" lon="8.5962691"><ele>95.0</ele><time>2026-05-03T07:42:12.082Z</time></trkpt><trkpt lat="44.8848569" lon="8.5962602"><ele>95.0</ele><time>2026-05-03T07:42:13.083Z</time></trkpt><trkpt lat="44.8847616" lon="8.5962548"><ele>95.0</ele><time>2026-05-03T07:42:14.083Z</time></trkpt><trkpt lat="44.8846648" lon="8.5962512"><ele>95.0</ele><time>2026-05-03T07:42:15.082Z</time></trkpt><trkpt lat="44.8845672" lon="8.5962449"><ele>95.0</ele><time>2026-05-03T07:42:16.082Z</time></trkpt><trkpt lat="44.884469" lon="8.5962377"><ele>95.0</ele><time>2026-05-03T07:42:17.083Z</time></trkpt><trkpt lat="44.8843703" lon="8.5962324"><ele>95.0</ele><time>2026-05-03T07:42:18.082Z</time></trkpt><trkpt lat="44.8842716" lon="8.5962278"><ele>95.0</ele><time>2026-05-03T07:42:19.083Z</time></trkpt><trkpt lat="44.8841742" lon="8.5962222"><ele>94.8</ele><time>2026-05-03T07:42:20.082Z</time></trkpt><trkpt lat="44.8840769" lon="8.5962173"><ele>94.6</ele><time>2026-05-03T07:42:21.083Z</time></trkpt><trkpt lat="44.8839799" lon="8.5962121"><ele>94.4</ele><time>2026-05-03T07:42:22.082Z</time></trkpt><trkpt lat="44.8838824" lon="8.596205"><ele>94.2</ele><time>2026-05-03T07:42:23.083Z</time></trkpt><trkpt lat="44.8837864" lon="8.5961979"><ele>94.0</ele><time>2026-05-03T07:42:24.082Z</time></trkpt><trkpt lat="44.8836906" lon="8.5961915"><ele>94.0</ele><time>2026-05-03T07:42:25.082Z</time></trkpt><trkpt lat="44.8835954" lon="8.5961862"><ele>94.0</ele><time>2026-05-03T07:42:26.082Z</time></trkpt><trkpt lat="44.8835006" lon="8.5961809"><ele>94.0</ele><time>2026-05-03T07:42:27.083Z</time></trkpt><trkpt lat="44.8834088" lon="8.5961746"><ele>94.0</ele><time>2026-05-03T07:42:28.082Z</time></trkpt><trkpt lat="44.8833142" lon="8.5961653"><ele>94.0</ele><time>2026-05-03T07:42:29.082Z</time></trkpt><trkpt lat="44.8832176" lon="8.5961516"><ele>95.4</ele><time>2026-05-03T07:42:30.082Z</time></trkpt><trkpt lat="44.8831203" lon="8.5961347"><ele>96.80000000000001</ele><time>2026-05-03T07:42:31.082Z</time></trkpt><trkpt lat="44.8830224" lon="8.5961104"><ele>98.19999999999999</ele><time>2026-05-03T07:42:32.082Z</time></trkpt><trkpt lat="44.8829282" lon="8.5960733"><ele>99.6</ele><time>2026-05-03T07:42:33.083Z</time></trkpt><trkpt lat="44.8828331" lon="8.5960329"><ele>101.0</ele><time>2026-05-03T07:42:34.083Z</time></trkpt><trkpt lat="44.8827432" lon="8.595976"><ele>101.0</ele><time>2026-05-03T07:42:35.082Z</time></trkpt><trkpt lat="44.8826586" lon="8.5959089"><ele>101.0</ele><time>2026-05-03T07:42:36.083Z</time></trkpt><trkpt lat="44.882576" lon="8.5958297"><ele>101.0</ele><time>2026-05-03T07:42:37.082Z</time></trkpt><trkpt lat="44.8824911" lon="8.5957498"><ele>101.0</ele><time>2026-05-03T07:42:38.083Z</time></trkpt><trkpt lat="44.8824121" lon="8.5956767"><ele>101.0</ele><time>2026-05-03T07:42:39.082Z</time></trkpt><trkpt lat="44.8823297" lon="8.5956069"><ele>100.6</ele><time>2026-05-03T07:42:40.082Z</time></trkpt><trkpt lat="44.882248" lon="8.5955389"><ele>100.19999999999999</ele><time>2026-05-03T07:42:41.083Z</time></trkpt><trkpt lat="44.8821645" lon="8.5954709"><ele>99.80000000000001</ele><time>2026-05-03T07:42:42.083Z</time></trkpt><trkpt lat="44.8820787" lon="8.5954022"><ele>99.4</ele><time>2026-05-03T07:42:43.082Z</time></trkpt><trkpt lat="44.8819931" lon="8.5953345"><ele>99.0</ele><time>2026-05-03T07:42:44.082Z</time></trkpt><trkpt lat="44.8819094" lon="8.5952694"><ele>99.0</ele><time>2026-05-03T07:42:45.083Z</time></trkpt><trkpt lat="44.8818244" lon="8.595201"><ele>99.0</ele><time>2026-05-03T07:42:46.082Z</time></trkpt><trkpt lat="44.8817382" lon="8.5951292"><ele>99.0</ele><time>2026-05-03T07:42:47.083Z</time></trkpt><trkpt lat="44.8816501" lon="8.5950608"><ele>99.0</ele><time>2026-05-03T07:42:48.082Z</time></trkpt><trkpt lat="44.8815613" lon="8.5949988"><ele>99.0</ele><time>2026-05-03T07:42:49.083Z</time></trkpt><trkpt lat="44.8814743" lon="8.5949373"><ele>98.6</ele><time>2026-05-03T07:42:50.082Z</time></trkpt><trkpt lat="44.8813884" lon="8.5948795"><ele>98.2</ele><time>2026-05-03T07:42:51.082Z</time></trkpt><trkpt lat="44.881299" lon="8.5948287"><ele>97.8</ele><time>2026-05-03T07:42:52.083Z</time></trkpt><trkpt lat="44.8812063" lon="8.5947926"><ele>97.39999999999999</ele><time>2026-05-03T07:42:53.082Z</time></trkpt><trkpt lat="44.8811105" lon="8.5947736"><ele>97.0</ele><time>2026-05-03T07:42:54.082Z</time></trkpt><trkpt lat="44.8810121" lon="8.5947683"><ele>96.6</ele><time>2026-05-03T07:42:55.084Z</time></trkpt><trkpt lat="44.8809133" lon="8.5947717"><ele>96.19999999999999</ele><time>2026-05-03T07:42:56.083Z</time></trkpt><trkpt lat="44.8808155" lon="8.5947833"><ele>95.8</ele><time>2026-05-03T07:42:57.083Z</time></trkpt><trkpt lat="44.8807167" lon="8.5947989"><ele>95.4</ele><time>2026-05-03T07:42:58.083Z</time></trkpt><trkpt lat="44.8806241" lon="8.5948238"><ele>95.0</ele><time>2026-05-03T07:42:59.083Z</time></trkpt><trkpt lat="44.8805336" lon="8.5948566"><ele>95.0</ele><time>2026-05-03T07:43:00.084Z</time></trkpt><trkpt lat="44.8804438" lon="8.5948975"><ele>95.0</ele><time>2026-05-03T07:43:01.084Z</time></trkpt><trkpt lat="44.8803537" lon="8.5949443"><ele>95.0</ele><time>2026-05-03T07:43:02.083Z</time></trkpt><trkpt lat="44.8802642" lon="8.5949964"><ele>95.0</ele><time>2026-05-03T07:43:03.084Z</time></trkpt><trkpt lat="44.8801739" lon="8.595052"><ele>95.0</ele><time>2026-05-03T07:43:04.083Z</time></trkpt><trkpt lat="44.8800845" lon="8.5951094"><ele>95.0</ele><time>2026-05-03T07:43:05.083Z</time></trkpt><trkpt lat="44.8799968" lon="8.5951649"><ele>95.0</ele><time>2026-05-03T07:43:06.083Z</time></trkpt><trkpt lat="44.8799074" lon="8.5952194"><ele>95.0</ele><time>2026-05-03T07:43:07.083Z</time></trkpt><trkpt lat="44.8798182" lon="8.5952714"><ele>95.0</ele><time>2026-05-03T07:43:08.083Z</time></trkpt><trkpt lat="44.8797307" lon="8.595323"><ele>95.0</ele><time>2026-05-03T07:43:09.083Z</time></trkpt><trkpt lat="44.8796409" lon="8.5953759"><ele>95.0</ele><time>2026-05-03T07:43:10.083Z</time></trkpt><trkpt lat="44.8795516" lon="8.5954302"><ele>95.0</ele><time>2026-05-03T07:43:11.083Z</time></trkpt><trkpt lat="44.8794557" lon="8.5954812"><ele>95.0</ele><time>2026-05-03T07:43:12.083Z</time></trkpt><trkpt lat="44.8793573" lon="8.5955325"><ele>95.0</ele><time>2026-05-03T07:43:13.083Z</time></trkpt><trkpt lat="44.8792672" lon="8.59558"><ele>95.0</ele><time>2026-05-03T07:43:14.083Z</time></trkpt><trkpt lat="44.8791732" lon="8.5956363"><ele>95.0</ele><time>2026-05-03T07:43:15.083Z</time></trkpt><trkpt lat="44.8790811" lon="8.5956958"><ele>95.0</ele><time>2026-05-03T07:43:16.083Z</time></trkpt><trkpt lat="44.8789925" lon="8.5957496"><ele>95.0</ele><time>2026-05-03T07:43:17.083Z</time></trkpt><trkpt lat="44.8789056" lon="8.5958014"><ele>95.0</ele><time>2026-05-03T07:43:18.083Z</time></trkpt><trkpt lat="44.8788205" lon="8.5958497"><ele>95.0</ele><time>2026-05-03T07:43:19.083Z</time></trkpt><trkpt lat="44.8787352" lon="8.5959027"><ele>95.0</ele><time>2026-05-03T07:43:20.083Z</time></trkpt><trkpt lat="44.8786517" lon="8.5959553"><ele>95.0</ele><time>2026-05-03T07:43:21.084Z</time></trkpt><trkpt lat="44.8785654" lon="8.596011"><ele>95.0</ele><time>2026-05-03T07:43:22.083Z</time></trkpt><trkpt lat="44.8784822" lon="8.5960637"><ele>95.0</ele><time>2026-05-03T07:43:23.083Z</time></trkpt><trkpt lat="44.878399" lon="8.5961148"><ele>95.0</ele><time>2026-05-03T07:43:24.084Z</time></trkpt><trkpt lat="44.8783158" lon="8.5961638"><ele>95.0</ele><time>2026-05-03T07:43:25.083Z</time></trkpt><trkpt lat="44.8782326" lon="8.5962103"><ele>95.0</ele><time>2026-05-03T07:43:26.083Z</time></trkpt><trkpt lat="44.8781488" lon="8.5962563"><ele>95.0</ele><time>2026-05-03T07:43:27.083Z</time></trkpt><trkpt lat="44.8780651" lon="8.5963033"><ele>95.0</ele><time>2026-05-03T07:43:28.083Z</time></trkpt><trkpt lat="44.8779851" lon="8.596355"><ele>95.0</ele><time>2026-05-03T07:43:29.083Z</time></trkpt><trkpt lat="44.8779039" lon="8.5964068"><ele>95.0</ele><time>2026-05-03T07:43:30.083Z</time></trkpt><trkpt lat="44.8778203" lon="8.5964574"><ele>95.0</ele><time>2026-05-03T07:43:31.083Z</time></trkpt><trkpt lat="44.877738" lon="8.5965068"><ele>95.0</ele><time>2026-05-03T07:43:32.084Z</time></trkpt><trkpt lat="44.8776519" lon="8.5965603"><ele>95.0</ele><time>2026-05-03T07:43:33.083Z</time></trkpt><trkpt lat="44.8775668" lon="8.5966132"><ele>95.0</ele><time>2026-05-03T07:43:34.083Z</time></trkpt><trkpt lat="44.8774804" lon="8.5966673"><ele>95.0</ele><time>2026-05-03T07:43:35.083Z</time></trkpt><trkpt lat="44.8773946" lon="8.5967198"><ele>94.8</ele><time>2026-05-03T07:43:36.083Z</time></trkpt><trkpt lat="44.8773102" lon="8.5967712"><ele>94.6</ele><time>2026-05-03T07:43:37.083Z</time></trkpt><trkpt lat="44.877226" lon="8.5968264"><ele>94.4</ele><time>2026-05-03T07:43:38.085Z</time></trkpt><trkpt lat="44.8771414" lon="8.5968819"><ele>94.2</ele><time>2026-05-03T07:43:39.085Z</time></trkpt><trkpt lat="44.8770565" lon="8.5969373"><ele>94.0</ele><time>2026-05-03T07:43:40.084Z</time></trkpt><trkpt lat="44.8769714" lon="8.5969961"><ele>94.0</ele><time>2026-05-03T07:43:41.084Z</time></trkpt><trkpt lat="44.8768861" lon="8.5970602"><ele>94.0</ele><time>2026-05-03T07:43:42.085Z</time></trkpt><trkpt lat="44.8768048" lon="8.5971259"><ele>94.0</ele><time>2026-05-03T07:43:43.085Z</time></trkpt><trkpt lat="44.8767249" lon="8.5971926"><ele>94.0</ele><time>2026-05-03T07:43:44.084Z</time></trkpt><trkpt lat="44.8766441" lon="8.5972611"><ele>94.0</ele><time>2026-05-03T07:43:45.084Z</time></trkpt><trkpt lat="44.8765629" lon="8.5973359"><ele>94.0</ele><time>2026-05-03T07:43:46.084Z</time></trkpt><trkpt lat="44.8764836" lon="8.5974155"><ele>94.0</ele><time>2026-05-03T07:43:47.084Z</time></trkpt><trkpt lat="44.876407" lon="8.5974958"><ele>94.0</ele><time>2026-05-03T07:43:48.085Z</time></trkpt><trkpt lat="44.8763316" lon="8.5975769"><ele>94.0</ele><time>2026-05-03T07:43:49.084Z</time></trkpt><trkpt lat="44.8762568" lon="8.597659"><ele>94.0</ele><time>2026-05-03T07:43:50.085Z</time></trkpt><trkpt lat="44.8761809" lon="8.5977453"><ele>94.0</ele><time>2026-05-03T07:43:51.085Z</time></trkpt><trkpt lat="44.876104" lon="8.5978335"><ele>94.0</ele><time>2026-05-03T07:43:52.085Z</time></trkpt><trkpt lat="44.8760273" lon="8.5979226"><ele>94.0</ele><time>2026-05-03T07:43:53.085Z</time></trkpt><trkpt lat="44.8759523" lon="8.5980121"><ele>94.0</ele><time>2026-05-03T07:43:54.085Z</time></trkpt><trkpt lat="44.8758794" lon="8.5981034"><ele>94.0</ele><time>2026-05-03T07:43:55.084Z</time></trkpt><trkpt lat="44.8758074" lon="8.5981968"><ele>94.2</ele><time>2026-05-03T07:43:56.084Z</time></trkpt><trkpt lat="44.8757376" lon="8.5982944"><ele>94.4</ele><time>2026-05-03T07:43:57.084Z</time></trkpt><trkpt lat="44.8756693" lon="8.5983966"><ele>94.6</ele><time>2026-05-03T07:43:58.084Z</time></trkpt><trkpt lat="44.8756007" lon="8.598504"><ele>94.8</ele><time>2026-05-03T07:43:59.084Z</time></trkpt><trkpt lat="44.8755348" lon="8.5986122"><ele>95.0</ele><time>2026-05-03T07:44:00.084Z</time></trkpt><trkpt lat="44.8754736" lon="8.5987232"><ele>95.2</ele><time>2026-05-03T07:44:01.084Z</time></trkpt><trkpt lat="44.8754152" lon="8.5988367"><ele>95.4</ele><time>2026-05-03T07:44:02.084Z</time></trkpt><trkpt lat="44.8753572" lon="8.5989535"><ele>95.6</ele><time>2026-05-03T07:44:03.085Z</time></trkpt><trkpt lat="44.8753028" lon="8.5990668"><ele>95.8</ele><time>2026-05-03T07:44:04.085Z</time></trkpt><trkpt lat="44.8752501" lon="8.5991808"><ele>96.0</ele><time>2026-05-03T07:44:05.084Z</time></trkpt><trkpt lat="44.8751975" lon="8.5992959"><ele>96.0</ele><time>2026-05-03T07:44:06.085Z</time></trkpt><trkpt lat="44.875145" lon="8.5994118"><ele>96.0</ele><time>2026-05-03T07:44:07.084Z</time></trkpt><trkpt lat="44.8750921" lon="8.5995262"><ele>96.0</ele><time>2026-05-03T07:44:08.085Z</time></trkpt><trkpt lat="44.8750391" lon="8.5996405"><ele>96.0</ele><time>2026-05-03T07:44:09.084Z</time></trkpt><trkpt lat="44.8749867" lon="8.5997529"><ele>96.0</ele><time>2026-05-03T07:44:10.085Z</time></trkpt><trkpt lat="44.8749326" lon="8.5998663"><ele>96.0</ele><time>2026-05-03T07:44:11.084Z</time></trkpt><trkpt lat="44.8748802" lon="8.5999777"><ele>96.0</ele><time>2026-05-03T07:44:12.084Z</time></trkpt><trkpt lat="44.8748278" lon="8.6000884"><ele>96.0</ele><time>2026-05-03T07:44:13.084Z</time></trkpt><trkpt lat="44.8747771" lon="8.6001967"><ele>96.0</ele><time>2026-05-03T07:44:14.084Z</time></trkpt><trkpt lat="44.8747257" lon="8.6003008"><ele>96.0</ele><time>2026-05-03T07:44:15.084Z</time></trkpt><trkpt lat="44.8746758" lon="8.6004013"><ele>95.83333333333333</ele><time>2026-05-03T07:44:16.084Z</time></trkpt><trkpt lat="44.8746261" lon="8.6005023"><ele>95.66666666666667</ele><time>2026-05-03T07:44:17.085Z</time></trkpt><trkpt lat="44.8745825" lon="8.6005922"><ele>95.5</ele><time>2026-05-03T07:44:18.084Z</time></trkpt><trkpt lat="44.8745412" lon="8.6006749"><ele>95.33333333333334</ele><time>2026-05-03T07:44:19.084Z</time></trkpt><trkpt lat="44.8744997" lon="8.6007584"><ele>95.16666666666667</ele><time>2026-05-03T07:44:20.084Z</time></trkpt><trkpt lat="44.8744623" lon="8.6008424"><ele>95.0</ele><time>2026-05-03T07:44:21.085Z</time></trkpt><trkpt lat="44.8744214" lon="8.6009355"><ele>95.0</ele><time>2026-05-03T07:44:22.085Z</time></trkpt><trkpt lat="44.8743771" lon="8.6010362"><ele>95.0</ele><time>2026-05-03T07:44:23.086Z</time></trkpt><trkpt lat="44.8743313" lon="8.6011358"><ele>95.0</ele><time>2026-05-03T07:44:24.085Z</time></trkpt><trkpt lat="44.8742868" lon="8.6012399"><ele>95.0</ele><time>2026-05-03T07:44:25.085Z</time></trkpt><trkpt lat="44.8742382" lon="8.6013494"><ele>95.0</ele><time>2026-05-03T07:44:26.085Z</time></trkpt><trkpt lat="44.8741872" lon="8.6014595"><ele>95.0</ele><time>2026-05-03T07:44:27.085Z</time></trkpt><trkpt lat="44.8741339" lon="8.6015732"><ele>95.0</ele><time>2026-05-03T07:44:28.085Z</time></trkpt><trkpt lat="44.8740808" lon="8.6016895"><ele>95.0</ele><time>2026-05-03T07:44:29.086Z</time></trkpt><trkpt lat="44.8740289" lon="8.601805"><ele>95.0</ele><time>2026-05-03T07:44:30.085Z</time></trkpt><trkpt lat="44.8739764" lon="8.6019221"><ele>95.0</ele><time>2026-05-03T07:44:31.085Z</time></trkpt><trkpt lat="44.873924" lon="8.6020385"><ele>95.0</ele><time>2026-05-03T07:44:32.086Z</time></trkpt><trkpt lat="44.8738714" lon="8.6021556"><ele>95.0</ele><time>2026-05-03T07:44:33.086Z</time></trkpt><trkpt lat="44.8738181" lon="8.6022755"><ele>95.0</ele><time>2026-05-03T07:44:34.086Z</time></trkpt><trkpt lat="44.8737619" lon="8.6023951"><ele>95.0</ele><time>2026-05-03T07:44:35.085Z</time></trkpt><trkpt lat="44.8736994" lon="8.6025145"><ele>95.0</ele><time>2026-05-03T07:44:36.085Z</time></trkpt><trkpt lat="44.8736353" lon="8.602629"><ele>95.0</ele><time>2026-05-03T07:44:37.085Z</time></trkpt><trkpt lat="44.8735692" lon="8.6027393"><ele>95.2</ele><time>2026-05-03T07:44:38.086Z</time></trkpt><trkpt lat="44.8734973" lon="8.6028397"><ele>95.4</ele><time>2026-05-03T07:44:39.086Z</time></trkpt><trkpt lat="44.8734173" lon="8.6029364"><ele>95.6</ele><time>2026-05-03T07:44:40.085Z</time></trkpt><trkpt lat="44.8733385" lon="8.6030264"><ele>95.8</ele><time>2026-05-03T07:44:41.086Z</time></trkpt><trkpt lat="44.8732585" lon="8.6031164"><ele>96.0</ele><time>2026-05-03T07:44:42.085Z</time></trkpt><trkpt lat="44.8731793" lon="8.6032064"><ele>95.6</ele><time>2026-05-03T07:44:43.085Z</time></trkpt><trkpt lat="44.8730984" lon="8.6033004"><ele>95.19999999999999</ele><time>2026-05-03T07:44:44.085Z</time></trkpt><trkpt lat="44.8730176" lon="8.6033933"><ele>94.80000000000001</ele><time>2026-05-03T07:44:45.085Z</time></trkpt><trkpt lat="44.8729361" lon="8.6034838"><ele>94.4</ele><time>2026-05-03T07:44:46.085Z</time></trkpt><trkpt lat="44.8728562" lon="8.6035729"><ele>94.0</ele><time>2026-05-03T07:44:47.085Z</time></trkpt><trkpt lat="44.8727736" lon="8.6036663"><ele>93.6</ele><time>2026-05-03T07:44:48.086Z</time></trkpt><trkpt lat="44.8726939" lon="8.6037585"><ele>93.2</ele><time>2026-05-03T07:44:49.085Z</time></trkpt><trkpt lat="44.8726156" lon="8.60385"><ele>92.8</ele><time>2026-05-03T07:44:50.085Z</time></trkpt><trkpt lat="44.8725379" lon="8.6039411"><ele>92.39999999999999</ele><time>2026-05-03T07:44:51.085Z</time></trkpt><trkpt lat="44.8724586" lon="8.6040336"><ele>92.0</ele><time>2026-05-03T07:44:52.085Z</time></trkpt><trkpt lat="44.8723786" lon="8.6041284"><ele>92.0</ele><time>2026-05-03T07:44:53.085Z</time></trkpt><trkpt lat="44.8722971" lon="8.6042251"><ele>92.0</ele><time>2026-05-03T07:44:54.085Z</time></trkpt><trkpt lat="44.8722185" lon="8.6043178"><ele>92.0</ele><time>2026-05-03T07:44:55.086Z</time></trkpt><trkpt lat="44.8721443" lon="8.6044047"><ele>92.0</ele><time>2026-05-03T07:44:56.085Z</time></trkpt><trkpt lat="44.8720731" lon="8.6044861"><ele>92.0</ele><time>2026-05-03T07:44:57.085Z</time></trkpt><trkpt lat="44.872003" lon="8.6045667"><ele>92.19999999999999</ele><time>2026-05-03T07:44:58.085Z</time></trkpt><trkpt lat="44.8719325" lon="8.6046504"><ele>92.4</ele><time>2026-05-03T07:44:59.086Z</time></trkpt><trkpt lat="44.8718564" lon="8.6047361"><ele>92.6</ele><time>2026-05-03T07:45:00.085Z</time></trkpt><trkpt lat="44.871777" lon="8.6048155"><ele>92.80000000000001</ele><time>2026-05-03T07:45:01.085Z</time></trkpt><trkpt lat="44.871696" lon="8.6048836"><ele>93.0</ele><time>2026-05-03T07:45:02.086Z</time></trkpt><trkpt lat="44.8716085" lon="8.6049469"><ele>93.4</ele><time>2026-05-03T07:45:03.086Z</time></trkpt><trkpt lat="44.8715175" lon="8.6050042"><ele>93.80000000000001</ele><time>2026-05-03T07:45:04.087Z</time></trkpt><trkpt lat="44.8714243" lon="8.6050541"><ele>94.2</ele><time>2026-05-03T07:45:05.086Z</time></trkpt><trkpt lat="44.8713292" lon="8.6050951"><ele>94.6</ele><time>2026-05-03T07:45:06.087Z</time></trkpt><trkpt lat="44.8712302" lon="8.6051277"><ele>95.0</ele><time>2026-05-03T07:45:07.086Z</time></trkpt><trkpt lat="44.8711303" lon="8.6051551"><ele>95.0</ele><time>2026-05-03T07:45:08.087Z</time></trkpt><trkpt lat="44.8710293" lon="8.6051778"><ele>95.0</ele><time>2026-05-03T07:45:09.087Z</time></trkpt><trkpt lat="44.8709303" lon="8.6051949"><ele>95.0</ele><time>2026-05-03T07:45:10.086Z</time></trkpt><trkpt lat="44.8708313" lon="8.6052081"><ele>95.0</ele><time>2026-05-03T07:45:11.086Z</time></trkpt><trkpt lat="44.8707313" lon="8.6052204"><ele>95.0</ele><time>2026-05-03T07:45:12.086Z</time></trkpt><trkpt lat="44.8706332" lon="8.6052331"><ele>94.8</ele><time>2026-05-03T07:45:13.086Z</time></trkpt><trkpt lat="44.8705346" lon="8.6052473"><ele>94.6</ele><time>2026-05-03T07:45:14.086Z</time></trkpt><trkpt lat="44.870438" lon="8.6052633"><ele>94.4</ele><time>2026-05-03T07:45:15.087Z</time></trkpt><trkpt lat="44.8703397" lon="8.6052799"><ele>94.2</ele><time>2026-05-03T07:45:16.086Z</time></trkpt><trkpt lat="44.8702401" lon="8.605297"><ele>94.0</ele><time>2026-05-03T07:45:17.086Z</time></trkpt><trkpt lat="44.8701452" lon="8.6053107"><ele>94.0</ele><time>2026-05-03T07:45:18.087Z</time></trkpt><trkpt lat="44.8700499" lon="8.6053251"><ele>94.0</ele><time>2026-05-03T07:45:19.087Z</time></trkpt><trkpt lat="44.8699539" lon="8.6053398"><ele>94.0</ele><time>2026-05-03T07:45:20.086Z</time></trkpt><trkpt lat="44.8698587" lon="8.6053563"><ele>94.0</ele><time>2026-05-03T07:45:21.086Z</time></trkpt><trkpt lat="44.8697638" lon="8.605374"><ele>94.0</ele><time>2026-05-03T07:45:22.087Z</time></trkpt><trkpt lat="44.8696706" lon="8.6053905"><ele>94.0</ele><time>2026-05-03T07:45:23.086Z</time></trkpt><trkpt lat="44.8694822" lon="8.6054173"><ele>94.0</ele><time>2026-05-03T07:45:25.086Z</time></trkpt><trkpt lat="44.8693885" lon="8.6054313"><ele>94.0</ele><time>2026-05-03T07:45:26.086Z</time></trkpt><trkpt lat="44.8692942" lon="8.6054455"><ele>94.0</ele><time>2026-05-03T07:45:27.086Z</time></trkpt><trkpt lat="44.8691999" lon="8.6054605"><ele>94.2</ele><time>2026-05-03T07:45:28.087Z</time></trkpt><trkpt lat="44.8691047" lon="8.6054781"><ele>94.4</ele><time>2026-05-03T07:45:29.087Z</time></trkpt><trkpt lat="44.8690092" lon="8.6054963"><ele>94.6</ele><time>2026-05-03T07:45:30.086Z</time></trkpt><trkpt lat="44.8689153" lon="8.605513"><ele>94.8</ele><time>2026-05-03T07:45:31.086Z</time></trkpt><trkpt lat="44.8688218" lon="8.6055254"><ele>95.0</ele><time>2026-05-03T07:45:32.086Z</time></trkpt><trkpt lat="44.8687286" lon="8.6055377"><ele>95.0</ele><time>2026-05-03T07:45:33.087Z</time></trkpt><trkpt lat="44.868634" lon="8.6055511"><ele>95.0</ele><time>2026-05-03T07:45:34.086Z</time></trkpt><trkpt lat="44.8685392" lon="8.6055676"><ele>95.0</ele><time>2026-05-03T07:45:35.086Z</time></trkpt><trkpt lat="44.8684448" lon="8.6055864"><ele>95.0</ele><time>2026-05-03T07:45:36.086Z</time></trkpt><trkpt lat="44.8683504" lon="8.6056043"><ele>95.0</ele><time>2026-05-03T07:45:37.087Z</time></trkpt><trkpt lat="44.8682568" lon="8.6056202"><ele>94.8</ele><time>2026-05-03T07:45:38.087Z</time></trkpt><trkpt lat="44.8681627" lon="8.6056344"><ele>94.6</ele><time>2026-05-03T07:45:39.086Z</time></trkpt><trkpt lat="44.8680673" lon="8.6056502"><ele>94.4</ele><time>2026-05-03T07:45:40.087Z</time></trkpt><trkpt lat="44.8679718" lon="8.6056658"><ele>94.2</ele><time>2026-05-03T07:45:41.086Z</time></trkpt><trkpt lat="44.8678753" lon="8.6056813"><ele>94.0</ele><time>2026-05-03T07:45:42.087Z</time></trkpt><trkpt lat="44.867779" lon="8.6056975"><ele>94.0</ele><time>2026-05-03T07:45:43.086Z</time></trkpt><trkpt lat="44.8676835" lon="8.6057137"><ele>94.0</ele><time>2026-05-03T07:45:44.086Z</time></trkpt><trkpt lat="44.8675883" lon="8.6057292"><ele>94.0</ele><time>2026-05-03T07:45:45.087Z</time></trkpt><trkpt lat="44.8674927" lon="8.605744"><ele>94.0</ele><time>2026-05-03T07:45:46.087Z</time></trkpt><trkpt lat="44.8673955" lon="8.6057595"><ele>94.0</ele><time>2026-05-03T07:45:47.088Z</time></trkpt><trkpt lat="44.8672985" lon="8.605775"><ele>94.0</ele><time>2026-05-03T07:45:48.088Z</time></trkpt><trkpt lat="44.867202" lon="8.6057887"><ele>94.0</ele><time>2026-05-03T07:45:49.088Z</time></trkpt><trkpt lat="44.8671061" lon="8.6058024"><ele>94.0</ele><time>2026-05-03T07:45:50.088Z</time></trkpt><trkpt lat="44.8670102" lon="8.6058176"><ele>94.0</ele><time>2026-05-03T07:45:51.087Z</time></trkpt><trkpt lat="44.8669144" lon="8.6058326"><ele>94.0</ele><time>2026-05-03T07:45:52.087Z</time></trkpt><trkpt lat="44.8668199" lon="8.605847"><ele>94.0</ele><time>2026-05-03T07:45:53.088Z</time></trkpt><trkpt lat="44.8667257" lon="8.6058599"><ele>94.0</ele><time>2026-05-03T07:45:54.087Z</time></trkpt><trkpt lat="44.8666324" lon="8.6058764"><ele>94.0</ele><time>2026-05-03T07:45:55.087Z</time></trkpt><trkpt lat="44.8665399" lon="8.6058948"><ele>94.0</ele><time>2026-05-03T07:45:56.087Z</time></trkpt><trkpt lat="44.8664465" lon="8.6059118"><ele>94.0</ele><time>2026-05-03T07:45:57.088Z</time></trkpt><trkpt lat="44.8663525" lon="8.605926"><ele>94.0</ele><time>2026-05-03T07:45:58.087Z</time></trkpt><trkpt lat="44.8662574" lon="8.6059399"><ele>94.0</ele><time>2026-05-03T07:45:59.087Z</time></trkpt><trkpt lat="44.8661607" lon="8.6059579"><ele>94.0</ele><time>2026-05-03T07:46:00.087Z</time></trkpt><trkpt lat="44.8660621" lon="8.6059767"><ele>94.0</ele><time>2026-05-03T07:46:01.087Z</time></trkpt><trkpt lat="44.8659607" lon="8.605994"><ele>94.0</ele><time>2026-05-03T07:46:02.087Z</time></trkpt><trkpt lat="44.8658578" lon="8.6060103"><ele>94.2</ele><time>2026-05-03T07:46:03.087Z</time></trkpt><trkpt lat="44.8657541" lon="8.606026"><ele>94.4</ele><time>2026-05-03T07:46:04.088Z</time></trkpt><trkpt lat="44.8656501" lon="8.6060424"><ele>94.6</ele><time>2026-05-03T07:46:05.087Z</time></trkpt><trkpt lat="44.8655445" lon="8.6060607"><ele>94.8</ele><time>2026-05-03T07:46:06.088Z</time></trkpt><trkpt lat="44.8654379" lon="8.6060776"><ele>95.0</ele><time>2026-05-03T07:46:07.087Z</time></trkpt><trkpt lat="44.8653311" lon="8.6060952"><ele>95.0</ele><time>2026-05-03T07:46:08.087Z</time></trkpt><trkpt lat="44.8652247" lon="8.606114"><ele>95.0</ele><time>2026-05-03T07:46:09.087Z</time></trkpt><trkpt lat="44.8651178" lon="8.6061326"><ele>95.0</ele><time>2026-05-03T07:46:10.087Z</time></trkpt><trkpt lat="44.8650102" lon="8.6061497"><ele>95.0</ele><time>2026-05-03T07:46:11.087Z</time></trkpt><trkpt lat="44.864903" lon="8.6061664"><ele>95.0</ele><time>2026-05-03T07:46:12.088Z</time></trkpt><trkpt lat="44.8647961" lon="8.6061843"><ele>94.8</ele><time>2026-05-03T07:46:13.088Z</time></trkpt><trkpt lat="44.8646893" lon="8.6062045"><ele>94.6</ele><time>2026-05-03T07:46:14.087Z</time></trkpt><trkpt lat="44.8645817" lon="8.6062247"><ele>94.4</ele><time>2026-05-03T07:46:15.088Z</time></trkpt><trkpt lat="44.8644738" lon="8.6062431"><ele>94.2</ele><time>2026-05-03T07:46:16.087Z</time></trkpt><trkpt lat="44.864366" lon="8.6062597"><ele>94.0</ele><time>2026-05-03T07:46:17.087Z</time></trkpt><trkpt lat="44.8642587" lon="8.6062789"><ele>94.0</ele><time>2026-05-03T07:46:18.087Z</time></trkpt><trkpt lat="44.8641497" lon="8.6062989"><ele>94.0</ele><time>2026-05-03T07:46:19.087Z</time></trkpt><trkpt lat="44.8640404" lon="8.6063182"><ele>94.0</ele><time>2026-05-03T07:46:20.088Z</time></trkpt><trkpt lat="44.8639317" lon="8.6063361"><ele>94.0</ele><time>2026-05-03T07:46:21.087Z</time></trkpt><trkpt lat="44.8638236" lon="8.6063558"><ele>94.0</ele><time>2026-05-03T07:46:22.087Z</time></trkpt><trkpt lat="44.8637185" lon="8.6063755"><ele>94.0</ele><time>2026-05-03T07:46:23.087Z</time></trkpt><trkpt lat="44.8636135" lon="8.606392"><ele>94.0</ele><time>2026-05-03T07:46:24.087Z</time></trkpt><trkpt lat="44.8635076" lon="8.6064078"><ele>94.0</ele><time>2026-05-03T07:46:25.088Z</time></trkpt><trkpt lat="44.8633984" lon="8.6064269"><ele>94.0</ele><time>2026-05-03T07:46:26.088Z</time></trkpt><trkpt lat="44.8632892" lon="8.6064494"><ele>94.0</ele><time>2026-05-03T07:46:27.088Z</time></trkpt><trkpt lat="44.8631813" lon="8.6064706"><ele>93.80000000000001</ele><time>2026-05-03T07:46:28.087Z</time></trkpt><trkpt lat="44.8630746" lon="8.6064876"><ele>93.60000000000001</ele><time>2026-05-03T07:46:29.087Z</time></trkpt><trkpt lat="44.8629675" lon="8.6065016"><ele>93.4</ele><time>2026-05-03T07:46:30.089Z</time></trkpt><trkpt lat="44.8628612" lon="8.6065162"><ele>93.2</ele><time>2026-05-03T07:46:31.088Z</time></trkpt><trkpt lat="44.8627548" lon="8.6065318"><ele>93.0</ele><time>2026-05-03T07:46:32.088Z</time></trkpt><trkpt lat="44.8626488" lon="8.6065485"><ele>93.2</ele><time>2026-05-03T07:46:33.088Z</time></trkpt><trkpt lat="44.8625427" lon="8.6065644"><ele>93.4</ele><time>2026-05-03T07:46:34.088Z</time></trkpt><trkpt lat="44.8624365" lon="8.606579"><ele>93.60000000000001</ele><time>2026-05-03T07:46:35.089Z</time></trkpt><trkpt lat="44.8623302" lon="8.6065911"><ele>93.80000000000001</ele><time>2026-05-03T07:46:36.089Z</time></trkpt><trkpt lat="44.862224" lon="8.6066045"><ele>94.0</ele><time>2026-05-03T07:46:37.089Z</time></trkpt><trkpt lat="44.8621175" lon="8.6066206"><ele>94.0</ele><time>2026-05-03T07:46:38.089Z</time></trkpt><trkpt lat="44.8620123" lon="8.6066399"><ele>94.0</ele><time>2026-05-03T07:46:39.088Z</time></trkpt><trkpt lat="44.8619068" lon="8.6066618"><ele>94.0</ele><time>2026-05-03T07:46:40.088Z</time></trkpt><trkpt lat="44.8618015" lon="8.6066884"><ele>94.0</ele><time>2026-05-03T07:46:41.088Z</time></trkpt><trkpt lat="44.861697" lon="8.6067202"><ele>94.0</ele><time>2026-05-03T07:46:42.088Z</time></trkpt><trkpt lat="44.8615927" lon="8.6067585"><ele>94.2</ele><time>2026-05-03T07:46:43.088Z</time></trkpt><trkpt lat="44.8614882" lon="8.6068011"><ele>94.4</ele><time>2026-05-03T07:46:44.088Z</time></trkpt><trkpt lat="44.8613846" lon="8.6068457"><ele>94.6</ele><time>2026-05-03T07:46:45.088Z</time></trkpt><trkpt lat="44.8612829" lon="8.6068936"><ele>94.8</ele><time>2026-05-03T07:46:46.088Z</time></trkpt><trkpt lat="44.861183" lon="8.6069442"><ele>95.0</ele><time>2026-05-03T07:46:47.089Z</time></trkpt><trkpt lat="44.8610822" lon="8.6069952"><ele>95.0</ele><time>2026-05-03T07:46:48.088Z</time></trkpt><trkpt lat="44.8609796" lon="8.6070505"><ele>95.0</ele><time>2026-05-03T07:46:49.088Z</time></trkpt><trkpt lat="44.8608772" lon="8.607108"><ele>95.0</ele><time>2026-05-03T07:46:50.089Z</time></trkpt><trkpt lat="44.8607771" lon="8.6071689"><ele>95.0</ele><time>2026-05-03T07:46:51.089Z</time></trkpt><trkpt lat="44.8606784" lon="8.6072335"><ele>95.0</ele><time>2026-05-03T07:46:52.088Z</time></trkpt><trkpt lat="44.8605802" lon="8.6073007"><ele>95.2</ele><time>2026-05-03T07:46:53.089Z</time></trkpt><trkpt lat="44.8604817" lon="8.6073671"><ele>95.4</ele><time>2026-05-03T07:46:54.089Z</time></trkpt><trkpt lat="44.8603843" lon="8.6074287"><ele>95.6</ele><time>2026-05-03T07:46:55.088Z</time></trkpt><trkpt lat="44.8602858" lon="8.6074866"><ele>95.8</ele><time>2026-05-03T07:46:56.088Z</time></trkpt><trkpt lat="44.8601854" lon="8.6075467"><ele>96.0</ele><time>2026-05-03T07:46:57.088Z</time></trkpt><trkpt lat="44.8600868" lon="8.6076069"><ele>96.0</ele><time>2026-05-03T07:46:58.088Z</time></trkpt><trkpt lat="44.8599893" lon="8.6076644"><ele>96.0</ele><time>2026-05-03T07:46:59.088Z</time></trkpt><trkpt lat="44.8598904" lon="8.6077183"><ele>96.0</ele><time>2026-05-03T07:47:00.089Z</time></trkpt><trkpt lat="44.8597911" lon="8.607774"><ele>96.0</ele><time>2026-05-03T07:47:01.088Z</time></trkpt><trkpt lat="44.859691" lon="8.6078337"><ele>96.0</ele><time>2026-05-03T07:47:02.089Z</time></trkpt><trkpt lat="44.8595923" lon="8.6078946"><ele>95.8</ele><time>2026-05-03T07:47:03.089Z</time></trkpt><trkpt lat="44.8594944" lon="8.6079551"><ele>95.6</ele><time>2026-05-03T07:47:04.088Z</time></trkpt><trkpt lat="44.8593974" lon="8.6080144"><ele>95.4</ele><time>2026-05-03T07:47:05.088Z</time></trkpt><trkpt lat="44.8592997" lon="8.6080718"><ele>95.2</ele><time>2026-05-03T07:47:06.088Z</time></trkpt><trkpt lat="44.8592027" lon="8.6081293"><ele>95.0</ele><time>2026-05-03T07:47:07.088Z</time></trkpt><trkpt lat="44.8591069" lon="8.6081891"><ele>95.4</ele><time>2026-05-03T07:47:08.088Z</time></trkpt><trkpt lat="44.8590126" lon="8.6082537"><ele>95.8</ele><time>2026-05-03T07:47:09.088Z</time></trkpt><trkpt lat="44.8589176" lon="8.6083172"><ele>96.19999999999999</ele><time>2026-05-03T07:47:10.089Z</time></trkpt><trkpt lat="44.8588206" lon="8.6083747"><ele>96.6</ele><time>2026-05-03T07:47:11.088Z</time></trkpt><trkpt lat="44.8587212" lon="8.6084285"><ele>97.0</ele><time>2026-05-03T07:47:12.088Z</time></trkpt><trkpt lat="44.8586234" lon="8.6084867"><ele>97.0</ele><time>2026-05-03T07:47:13.089Z</time></trkpt><trkpt lat="44.8585257" lon="8.6085471"><ele>97.0</ele><time>2026-05-03T07:47:14.089Z</time></trkpt><trkpt lat="44.8584269" lon="8.6086089"><ele>97.0</ele><time>2026-05-03T07:47:15.09Z</time></trkpt><trkpt lat="44.8583284" lon="8.6086689"><ele>97.0</ele><time>2026-05-03T07:47:16.09Z</time></trkpt><trkpt lat="44.8582308" lon="8.6087281"><ele>97.0</ele><time>2026-05-03T07:47:17.089Z</time></trkpt><trkpt lat="44.8581358" lon="8.6087893"><ele>96.8</ele><time>2026-05-03T07:47:18.089Z</time></trkpt><trkpt lat="44.8580414" lon="8.6088498"><ele>96.6</ele><time>2026-05-03T07:47:19.09Z</time></trkpt><trkpt lat="44.8579455" lon="8.608909"><ele>96.39999999999999</ele><time>2026-05-03T07:47:20.089Z</time></trkpt><trkpt lat="44.8578496" lon="8.6089681"><ele>96.19999999999999</ele><time>2026-05-03T07:47:21.09Z</time></trkpt><trkpt lat="44.8577534" lon="8.6090257"><ele>96.0</ele><time>2026-05-03T07:47:22.089Z</time></trkpt><trkpt lat="44.857656" lon="8.6090858"><ele>96.4</ele><time>2026-05-03T07:47:23.09Z</time></trkpt><trkpt lat="44.8575578" lon="8.6091486"><ele>96.8</ele><time>2026-05-03T07:47:24.09Z</time></trkpt><trkpt lat="44.8574584" lon="8.6092104"><ele>97.2</ele><time>2026-05-03T07:47:25.09Z</time></trkpt><trkpt lat="44.8573594" lon="8.6092702"><ele>97.60000000000001</ele><time>2026-05-03T07:47:26.089Z</time></trkpt><trkpt lat="44.8572621" lon="8.6093298"><ele>98.0</ele><time>2026-05-03T07:47:27.09Z</time></trkpt><trkpt lat="44.8571676" lon="8.6093898"><ele>98.0</ele><time>2026-05-03T07:47:28.089Z</time></trkpt><trkpt lat="44.8570756" lon="8.6094469"><ele>98.0</ele><time>2026-05-03T07:47:29.089Z</time></trkpt><trkpt lat="44.8569863" lon="8.6094998"><ele>98.0</ele><time>2026-05-03T07:47:30.09Z</time></trkpt><trkpt lat="44.8569003" lon="8.6095515"><ele>98.0</ele><time>2026-05-03T07:47:31.089Z</time></trkpt><trkpt lat="44.8568184" lon="8.6096019"><ele>98.0</ele><time>2026-05-03T07:47:32.089Z</time></trkpt><trkpt lat="44.8567404" lon="8.6096515"><ele>97.83333333333333</ele><time>2026-05-03T07:47:33.089Z</time></trkpt><trkpt lat="44.8566641" lon="8.6097009"><ele>97.66666666666666</ele><time>2026-05-03T07:47:34.089Z</time></trkpt><trkpt lat="44.8565864" lon="8.6097477"><ele>97.5</ele><time>2026-05-03T07:47:35.09Z</time></trkpt><trkpt lat="44.8565077" lon="8.609794"><ele>97.33333333333334</ele><time>2026-05-03T07:47:36.089Z</time></trkpt><trkpt lat="44.8564285" lon="8.6098414"><ele>97.16666666666667</ele><time>2026-05-03T07:47:37.089Z</time></trkpt><trkpt lat="44.8563491" lon="8.6098907"><ele>97.0</ele><time>2026-05-03T07:47:38.09Z</time></trkpt><trkpt lat="44.8562678" lon="8.6099422"><ele>97.0</ele><time>2026-05-03T07:47:39.09Z</time></trkpt><trkpt lat="44.8561826" lon="8.6099948"><ele>97.0</ele><time>2026-05-03T07:47:40.089Z</time></trkpt><trkpt lat="44.8560945" lon="8.6100461"><ele>97.0</ele><time>2026-05-03T07:47:41.089Z</time></trkpt><trkpt lat="44.8560056" lon="8.6101003"><ele>97.0</ele><time>2026-05-03T07:47:42.089Z</time></trkpt><trkpt lat="44.8559155" lon="8.6101564"><ele>97.0</ele><time>2026-05-03T07:47:43.089Z</time></trkpt><trkpt lat="44.8558247" lon="8.6102133"><ele>97.0</ele><time>2026-05-03T07:47:44.089Z</time></trkpt><trkpt lat="44.8557331" lon="8.610271"><ele>97.0</ele><time>2026-05-03T07:47:45.089Z</time></trkpt><trkpt lat="44.8556424" lon="8.6103282"><ele>97.0</ele><time>2026-05-03T07:47:46.089Z</time></trkpt><trkpt lat="44.8555533" lon="8.610384"><ele>97.0</ele><time>2026-05-03T07:47:47.09Z</time></trkpt><trkpt lat="44.8554651" lon="8.6104372"><ele>97.0</ele><time>2026-05-03T07:47:48.089Z</time></trkpt><trkpt lat="44.8553789" lon="8.6104893"><ele>97.00000000000001</ele><time>2026-05-03T07:47:49.089Z</time></trkpt><trkpt lat="44.8552952" lon="8.6105399"><ele>97.0</ele><time>2026-05-03T07:47:50.089Z</time></trkpt><trkpt lat="44.8552143" lon="8.61059"><ele>97.0</ele><time>2026-05-03T07:47:51.09Z</time></trkpt><trkpt lat="44.8551336" lon="8.6106383"><ele>97.0</ele><time>2026-05-03T07:47:52.09Z</time></trkpt><trkpt lat="44.8550534" lon="8.6106875"><ele>97.00000000000001</ele><time>2026-05-03T07:47:53.09Z</time></trkpt><trkpt lat="44.8549719" lon="8.6107404"><ele>97.0</ele><time>2026-05-03T07:47:54.09Z</time></trkpt><trkpt lat="44.8548895" lon="8.6107978"><ele>96.8</ele><time>2026-05-03T07:47:55.09Z</time></trkpt><trkpt lat="44.8548054" lon="8.6108543"><ele>96.6</ele><time>2026-05-03T07:47:56.09Z</time></trkpt><trkpt lat="44.8547186" lon="8.6109043"><ele>96.39999999999999</ele><time>2026-05-03T07:47:57.09Z</time></trkpt><trkpt lat="44.8546265" lon="8.6109562"><ele>96.19999999999999</ele><time>2026-05-03T07:47:58.09Z</time></trkpt><trkpt lat="44.8545386" lon="8.6110076"><ele>96.0</ele><time>2026-05-03T07:47:59.09Z</time></trkpt><trkpt lat="44.8544533" lon="8.611059"><ele>96.0</ele><time>2026-05-03T07:48:00.09Z</time></trkpt><trkpt lat="44.8543697" lon="8.6111123"><ele>96.0</ele><time>2026-05-03T07:48:01.09Z</time></trkpt><trkpt lat="44.854283" lon="8.6111672"><ele>96.0</ele><time>2026-05-03T07:48:02.09Z</time></trkpt><trkpt lat="44.854197" lon="8.6112217"><ele>96.0</ele><time>2026-05-03T07:48:03.091Z</time></trkpt><trkpt lat="44.8541106" lon="8.6112766"><ele>96.0</ele><time>2026-05-03T07:48:04.091Z</time></trkpt><trkpt lat="44.8540231" lon="8.6113315"><ele>96.0</ele><time>2026-05-03T07:48:05.09Z</time></trkpt><trkpt lat="44.8539353" lon="8.6113861"><ele>96.0</ele><time>2026-05-03T07:48:06.09Z</time></trkpt><trkpt lat="44.8538473" lon="8.6114413"><ele>96.0</ele><time>2026-05-03T07:48:07.091Z</time></trkpt><trkpt lat="44.8537597" lon="8.6114963"><ele>96.0</ele><time>2026-05-03T07:48:08.09Z</time></trkpt><trkpt lat="44.8536731" lon="8.6115513"><ele>96.0</ele><time>2026-05-03T07:48:09.09Z</time></trkpt><trkpt lat="44.8535875" lon="8.6116075"><ele>96.0</ele><time>2026-05-03T07:48:10.09Z</time></trkpt><trkpt lat="44.8535008" lon="8.6116649"><ele>96.0</ele><time>2026-05-03T07:48:11.09Z</time></trkpt><trkpt lat="44.8534117" lon="8.6117206"><ele>96.0</ele><time>2026-05-03T07:48:12.09Z</time></trkpt><trkpt lat="44.8533216" lon="8.6117745"><ele>96.0</ele><time>2026-05-03T07:48:13.091Z</time></trkpt><trkpt lat="44.8532315" lon="8.611827"><ele>96.0</ele><time>2026-05-03T07:48:14.09Z</time></trkpt><trkpt lat="44.8531423" lon="8.6118787"><ele>96.0</ele><time>2026-05-03T07:48:15.09Z</time></trkpt><trkpt lat="44.8530532" lon="8.6119308"><ele>96.0</ele><time>2026-05-03T07:48:16.091Z</time></trkpt><trkpt lat="44.8529647" lon="8.6119836"><ele>96.0</ele><time>2026-05-03T07:48:17.091Z</time></trkpt><trkpt lat="44.8528777" lon="8.6120381"><ele>96.0</ele><time>2026-05-03T07:48:18.091Z</time></trkpt><trkpt lat="44.8527905" lon="8.6120941"><ele>96.0</ele><time>2026-05-03T07:48:19.091Z</time></trkpt><trkpt lat="44.8527025" lon="8.6121507"><ele>96.19999999999999</ele><time>2026-05-03T07:48:20.09Z</time></trkpt><trkpt lat="44.8526148" lon="8.6122098"><ele>96.39999999999999</ele><time>2026-05-03T07:48:21.09Z</time></trkpt><trkpt lat="44.8525286" lon="8.6122703"><ele>96.6</ele><time>2026-05-03T07:48:22.091Z</time></trkpt><trkpt lat="44.8524412" lon="8.6123272"><ele>96.8</ele><time>2026-05-03T07:48:23.09Z</time></trkpt><trkpt lat="44.8523514" lon="8.6123792"><ele>97.0</ele><time>2026-05-03T07:48:24.09Z</time></trkpt><trkpt lat="44.8522607" lon="8.6124301"><ele>97.0</ele><time>2026-05-03T07:48:25.09Z</time></trkpt><trkpt lat="44.8521711" lon="8.6124829"><ele>97.0</ele><time>2026-05-03T07:48:26.09Z</time></trkpt><trkpt lat="44.8520826" lon="8.6125383"><ele>97.0</ele><time>2026-05-03T07:48:27.091Z</time></trkpt><trkpt lat="44.8519932" lon="8.6125929"><ele>97.0</ele><time>2026-05-03T07:48:28.09Z</time></trkpt><trkpt lat="44.8519036" lon="8.6126466"><ele>97.0</ele><time>2026-05-03T07:48:29.091Z</time></trkpt><trkpt lat="44.8518181" lon="8.6126973"><ele>97.0</ele><time>2026-05-03T07:48:30.091Z</time></trkpt><trkpt lat="44.8517399" lon="8.6127454"><ele>97.0</ele><time>2026-05-03T07:48:31.091Z</time></trkpt><trkpt lat="44.8516686" lon="8.612789"><ele>97.0</ele><time>2026-05-03T07:48:32.091Z</time></trkpt><trkpt lat="44.8516027" lon="8.6128288"><ele>97.0</ele><time>2026-05-03T07:48:33.09Z</time></trkpt><trkpt lat="44.8515404" lon="8.6128663"><ele>97.0</ele><time>2026-05-03T07:48:34.091Z</time></trkpt><trkpt lat="44.8514793" lon="8.6129012"><ele>97.0</ele><time>2026-05-03T07:48:35.09Z</time></trkpt><trkpt lat="44.851416" lon="8.6129336"><ele>97.0</ele><time>2026-05-03T07:48:36.09Z</time></trkpt><trkpt lat="44.8513518" lon="8.6129624"><ele>97.19999999999999</ele><time>2026-05-03T07:48:37.091Z</time></trkpt><trkpt lat="44.8512897" lon="8.6129901"><ele>97.4</ele><time>2026-05-03T07:48:38.092Z</time></trkpt><trkpt lat="44.8512206" lon="8.6130024"><ele>97.6</ele><time>2026-05-03T07:48:40.091Z</time></trkpt><trkpt lat="44.8512708" lon="8.6130951"><ele>97.80000000000001</ele><time>2026-05-03T07:49:18.092Z</time></trkpt><trkpt lat="44.8513773" lon="8.6130953"><ele>98.0</ele><time>2026-05-03T07:49:20.092Z</time></trkpt><trkpt lat="44.8514882" lon="8.6130015"><ele>97.99999999999999</ele><time>2026-05-03T07:49:22.093Z</time></trkpt><trkpt lat="44.8515563" lon="8.6129429"><ele>98.0</ele><time>2026-05-03T07:49:23.092Z</time></trkpt><trkpt lat="44.8516304" lon="8.6128906"><ele>98.0</ele><time>2026-05-03T07:49:24.092Z</time></trkpt><trkpt lat="44.8517045" lon="8.6128507"><ele>98.0</ele><time>2026-05-03T07:49:25.093Z</time></trkpt><trkpt lat="44.8517788" lon="8.6128147"><ele>97.99999999999999</ele><time>2026-05-03T07:49:26.092Z</time></trkpt><trkpt lat="44.8518546" lon="8.6127729"><ele>98.0</ele><time>2026-05-03T07:49:27.092Z</time></trkpt><trkpt lat="44.8519321" lon="8.6127228"><ele>97.80000000000001</ele><time>2026-05-03T07:49:28.093Z</time></trkpt><trkpt lat="44.8520116" lon="8.6126698"><ele>97.6</ele><time>2026-05-03T07:49:29.092Z</time></trkpt><trkpt lat="44.8520944" lon="8.6126174"><ele>97.4</ele><time>2026-05-03T07:49:30.093Z</time></trkpt><trkpt lat="44.85218" lon="8.6125662"><ele>97.19999999999999</ele><time>2026-05-03T07:49:31.093Z</time></trkpt><trkpt lat="44.8522667" lon="8.6125131"><ele>97.0</ele><time>2026-05-03T07:49:32.092Z</time></trkpt><trkpt lat="44.8523524" lon="8.6124584"><ele>97.00000000000001</ele><time>2026-05-03T07:49:33.092Z</time></trkpt><trkpt lat="44.8524351" lon="8.6124028"><ele>97.0</ele><time>2026-05-03T07:49:34.092Z</time></trkpt><trkpt lat="44.8525165" lon="8.6123491"><ele>97.0</ele><time>2026-05-03T07:49:35.092Z</time></trkpt><trkpt lat="44.8525966" lon="8.6123011"><ele>97.0</ele><time>2026-05-03T07:49:36.092Z</time></trkpt><trkpt lat="44.8526753" lon="8.6122521"><ele>97.00000000000001</ele><time>2026-05-03T07:49:37.093Z</time></trkpt><trkpt lat="44.8527517" lon="8.6122032"><ele>97.0</ele><time>2026-05-03T07:49:38.092Z</time></trkpt><trkpt lat="44.8528284" lon="8.6121575"><ele>96.83333333333334</ele><time>2026-05-03T07:49:39.092Z</time></trkpt><trkpt lat="44.8529075" lon="8.6121102"><ele>96.66666666666667</ele><time>2026-05-03T07:49:40.092Z</time></trkpt><trkpt lat="44.8529875" lon="8.6120597"><ele>96.5</ele><time>2026-05-03T07:49:41.092Z</time></trkpt><trkpt lat="44.8530632" lon="8.6120122"><ele>96.33333333333334</ele><time>2026-05-03T07:49:42.092Z</time></trkpt><trkpt lat="44.8531402" lon="8.6119642"><ele>96.16666666666667</ele><time>2026-05-03T07:49:43.092Z</time></trkpt><trkpt lat="44.8532182" lon="8.611916"><ele>96.0</ele><time>2026-05-03T07:49:44.093Z</time></trkpt><trkpt lat="44.853299" lon="8.6118658"><ele>96.0</ele><time>2026-05-03T07:49:45.092Z</time></trkpt><trkpt lat="44.8533788" lon="8.611817"><ele>96.0</ele><time>2026-05-03T07:49:46.092Z</time></trkpt><trkpt lat="44.8534567" lon="8.6117685"><ele>96.0</ele><time>2026-05-03T07:49:47.092Z</time></trkpt><trkpt lat="44.8535353" lon="8.6117179"><ele>96.0</ele><time>2026-05-03T07:49:48.093Z</time></trkpt><trkpt lat="44.853616" lon="8.6116646"><ele>96.0</ele><time>2026-05-03T07:49:49.093Z</time></trkpt><trkpt lat="44.8536969" lon="8.6116128"><ele>96.0</ele><time>2026-05-03T07:49:50.092Z</time></trkpt><trkpt lat="44.8537787" lon="8.6115607"><ele>96.0</ele><time>2026-05-03T07:49:51.092Z</time></trkpt><trkpt lat="44.8538604" lon="8.6115087"><ele>96.0</ele><time>2026-05-03T07:49:52.092Z</time></trkpt><trkpt lat="44.8539419" lon="8.6114569"><ele>96.0</ele><time>2026-05-03T07:49:53.093Z</time></trkpt><trkpt lat="44.8540229" lon="8.6114051"><ele>96.0</ele><time>2026-05-03T07:49:54.092Z</time></trkpt><trkpt lat="44.8541037" lon="8.6113557"><ele>96.0</ele><time>2026-05-03T07:49:55.092Z</time></trkpt><trkpt lat="44.8541871" lon="8.6113078"><ele>96.0</ele><time>2026-05-03T07:49:56.092Z</time></trkpt><trkpt lat="44.8542712" lon="8.6112619"><ele>96.0</ele><time>2026-05-03T07:49:57.093Z</time></trkpt><trkpt lat="44.8543544" lon="8.611217"><ele>96.0</ele><time>2026-05-03T07:49:58.093Z</time></trkpt><trkpt lat="44.8544381" lon="8.611167"><ele>96.0</ele><time>2026-05-03T07:49:59.092Z</time></trkpt><trkpt lat="44.8545245" lon="8.611111"><ele>96.0</ele><time>2026-05-03T07:50:00.093Z</time></trkpt><trkpt lat="44.8546095" lon="8.6110543"><ele>96.0</ele><time>2026-05-03T07:50:01.092Z</time></trkpt><trkpt lat="44.854694" lon="8.611"><ele>96.0</ele><time>2026-05-03T07:50:02.092Z</time></trkpt><trkpt lat="44.8547787" lon="8.6109469"><ele>96.0</ele><time>2026-05-03T07:50:03.093Z</time></trkpt><trkpt lat="44.8548635" lon="8.6108932"><ele>96.0</ele><time>2026-05-03T07:50:04.093Z</time></trkpt><trkpt lat="44.8549454" lon="8.6108416"><ele>96.0</ele><time>2026-05-03T07:50:05.093Z</time></trkpt><trkpt lat="44.8550266" lon="8.6107911"><ele>96.0</ele><time>2026-05-03T07:50:06.094Z</time></trkpt><trkpt lat="44.8551092" lon="8.6107385"><ele>96.19999999999999</ele><time>2026-05-03T07:50:07.093Z</time></trkpt><trkpt lat="44.8551936" lon="8.6106859"><ele>96.39999999999999</ele><time>2026-05-03T07:50:08.093Z</time></trkpt><trkpt lat="44.8552815" lon="8.6106351"><ele>96.6</ele><time>2026-05-03T07:50:09.093Z</time></trkpt><trkpt lat="44.85537" lon="8.6105878"><ele>96.8</ele><time>2026-05-03T07:50:10.094Z</time></trkpt><trkpt lat="44.8554569" lon="8.6105391"><ele>97.0</ele><time>2026-05-03T07:50:11.093Z</time></trkpt><trkpt lat="44.8555434" lon="8.6104837"><ele>97.0</ele><time>2026-05-03T07:50:12.094Z</time></trkpt><trkpt lat="44.8556308" lon="8.6104269"><ele>97.0</ele><time>2026-05-03T07:50:13.094Z</time></trkpt><trkpt lat="44.8557168" lon="8.6103739"><ele>97.0</ele><time>2026-05-03T07:50:14.093Z</time></trkpt><trkpt lat="44.8558013" lon="8.6103218"><ele>97.0</ele><time>2026-05-03T07:50:15.094Z</time></trkpt><trkpt lat="44.8558872" lon="8.6102677"><ele>97.0</ele><time>2026-05-03T07:50:16.094Z</time></trkpt><trkpt lat="44.8559691" lon="8.6102168"><ele>97.0</ele><time>2026-05-03T07:50:17.093Z</time></trkpt><trkpt lat="44.856054" lon="8.6101621"><ele>97.0</ele><time>2026-05-03T07:50:18.093Z</time></trkpt><trkpt lat="44.8561408" lon="8.6101076"><ele>97.0</ele><time>2026-05-03T07:50:19.093Z</time></trkpt><trkpt lat="44.8562257" lon="8.6100521"><ele>97.0</ele><time>2026-05-03T07:50:20.093Z</time></trkpt><trkpt lat="44.8563087" lon="8.6099949"><ele>97.0</ele><time>2026-05-03T07:50:21.094Z</time></trkpt><trkpt lat="44.8563906" lon="8.6099372"><ele>97.00000000000001</ele><time>2026-05-03T07:50:22.093Z</time></trkpt><trkpt lat="44.8564729" lon="8.6098815"><ele>97.0</ele><time>2026-05-03T07:50:23.093Z</time></trkpt><trkpt lat="44.856551" lon="8.6098323"><ele>97.0</ele><time>2026-05-03T07:50:24.093Z</time></trkpt><trkpt lat="44.8566219" lon="8.6097876"><ele>97.0</ele><time>2026-05-03T07:50:25.093Z</time></trkpt><trkpt lat="44.8566859" lon="8.6097488"><ele>97.00000000000001</ele><time>2026-05-03T07:50:26.094Z</time></trkpt><trkpt lat="44.8567871" lon="8.609679"><ele>97.0</ele><time>2026-05-03T07:50:28.093Z</time></trkpt><trkpt lat="44.8568235" lon="8.6095994"><ele>97.00000000000001</ele><time>2026-05-03T07:50:30.093Z</time></trkpt><trkpt lat="44.8567972" lon="8.6095186"><ele>97.0</ele><time>2026-05-03T07:50:32.094Z</time></trkpt><trkpt lat="44.8567401" lon="8.6094567"><ele>97.0</ele><time>2026-05-03T07:50:34.093Z</time></trkpt><trkpt lat="44.8566824" lon="8.6093866"><ele>97.0</ele><time>2026-05-03T07:50:36.094Z</time></trkpt><trkpt lat="44.8566075" lon="8.6092911"><ele>97.00000000000001</ele><time>2026-05-03T07:50:38.093Z</time></trkpt><trkpt lat="44.8565225" lon="8.6091899"><ele>97.0</ele><time>2026-05-03T07:50:40.093Z</time></trkpt><trkpt lat="44.8564333" lon="8.6090878"><ele>97.00000000000001</ele><time>2026-05-03T07:50:42.094Z</time></trkpt><trkpt lat="44.8563332" lon="8.6089763"><ele>97.0</ele><time>2026-05-03T07:50:44.094Z</time></trkpt><trkpt lat="44.8562792" lon="8.6089224"><ele>97.0</ele><time>2026-05-03T07:50:45.093Z</time></trkpt><trkpt lat="44.8562238" lon="8.6088678"><ele>97.0</ele><time>2026-05-03T07:50:46.094Z</time></trkpt><trkpt lat="44.8561645" lon="8.6088129"><ele>97.00000000000001</ele><time>2026-05-03T07:50:47.094Z</time></trkpt><trkpt lat="44.8561034" lon="8.6087602"><ele>97.0</ele><time>2026-05-03T07:50:48.094Z</time></trkpt><trkpt lat="44.856038" lon="8.6087109"><ele>97.0</ele><time>2026-05-03T07:50:49.094Z</time></trkpt><trkpt lat="44.8559689" lon="8.6086638"><ele>97.0</ele><time>2026-05-03T07:50:50.094Z</time></trkpt><trkpt lat="44.8558989" lon="8.60862"><ele>97.0</ele><time>2026-05-03T07:50:51.095Z</time></trkpt><trkpt lat="44.8558309" lon="8.6085795"><ele>97.0</ele><time>2026-05-03T07:50:52.094Z</time></trkpt><trkpt lat="44.8557667" lon="8.6085413"><ele>97.0</ele><time>2026-05-03T07:50:53.095Z</time></trkpt><trkpt lat="44.855704" lon="8.6085032"><ele>97.0</ele><time>2026-05-03T07:50:54.094Z</time></trkpt><trkpt lat="44.8556408" lon="8.6084661"><ele>97.0</ele><time>2026-05-03T07:50:55.094Z</time></trkpt><trkpt lat="44.8555771" lon="8.6084292"><ele>96.85714285714285</ele><time>2026-05-03T07:50:56.095Z</time></trkpt><trkpt lat="44.8555186" lon="8.6083883"><ele>96.71428571428572</ele><time>2026-05-03T07:50:57.094Z</time></trkpt><trkpt lat="44.8554634" lon="8.6083344"><ele>96.57142857142857</ele><time>2026-05-03T07:50:58.094Z</time></trkpt><trkpt lat="44.8554126" lon="8.608264"><ele>96.42857142857142</ele><time>2026-05-03T07:50:59.094Z</time></trkpt><trkpt lat="44.855368" lon="8.6081821"><ele>96.28571428571428</ele><time>2026-05-03T07:51:00.095Z</time></trkpt><trkpt lat="44.8553292" lon="8.6080913"><ele>96.14285714285714</ele><time>2026-05-03T07:51:01.094Z</time></trkpt><trkpt lat="44.8553027" lon="8.6079917"><ele>96.0</ele><time>2026-05-03T07:51:02.094Z</time></trkpt><trkpt lat="44.8552912" lon="8.6078905"><ele>96.28571428571428</ele><time>2026-05-03T07:51:03.094Z</time></trkpt><trkpt lat="44.8552867" lon="8.6077829"><ele>96.57142857142857</ele><time>2026-05-03T07:51:04.094Z</time></trkpt><trkpt lat="44.8552877" lon="8.6076773"><ele>96.85714285714286</ele><time>2026-05-03T07:51:05.094Z</time></trkpt><trkpt lat="44.855288" lon="8.6075746"><ele>97.14285714285714</ele><time>2026-05-03T07:51:06.094Z</time></trkpt><trkpt lat="44.8552861" lon="8.6074701"><ele>97.42857142857143</ele><time>2026-05-03T07:51:07.094Z</time></trkpt><trkpt lat="44.8552809" lon="8.6073649"><ele>97.71428571428571</ele><time>2026-05-03T07:51:08.095Z</time></trkpt><trkpt lat="44.8552734" lon="8.6072611"><ele>98.0</ele><time>2026-05-03T07:51:09.094Z</time></trkpt><trkpt lat="44.8552636" lon="8.6071545"><ele>97.99999999999999</ele><time>2026-05-03T07:51:10.094Z</time></trkpt><trkpt lat="44.8552501" lon="8.6070485"><ele>98.0</ele><time>2026-05-03T07:51:11.094Z</time></trkpt><trkpt lat="44.8552319" lon="8.6069428"><ele>98.0</ele><time>2026-05-03T07:51:12.094Z</time></trkpt><trkpt lat="44.8552091" lon="8.6068389"><ele>98.0</ele><time>2026-05-03T07:51:13.094Z</time></trkpt><trkpt lat="44.855183" lon="8.6067368"><ele>97.99999999999999</ele><time>2026-05-03T07:51:14.094Z</time></trkpt><trkpt lat="44.8551539" lon="8.6066378"><ele>98.0</ele><time>2026-05-03T07:51:15.094Z</time></trkpt><trkpt lat="44.8551203" lon="8.6065399"><ele>97.83333333333333</ele><time>2026-05-03T07:51:16.094Z</time></trkpt><trkpt lat="44.8550835" lon="8.6064405"><ele>97.66666666666666</ele><time>2026-05-03T07:51:17.094Z</time></trkpt><trkpt lat="44.8550473" lon="8.606341"><ele>97.5</ele><time>2026-05-03T07:51:18.095Z</time></trkpt><trkpt lat="44.8550134" lon="8.6062402"><ele>97.33333333333334</ele><time>2026-05-03T07:51:19.094Z</time></trkpt><trkpt lat="44.8549834" lon="8.6061356"><ele>97.16666666666667</ele><time>2026-05-03T07:51:20.095Z</time></trkpt><trkpt lat="44.8549572" lon="8.6060392"><ele>97.0</ele><time>2026-05-03T07:51:21.094Z</time></trkpt><trkpt lat="44.8549316" lon="8.6059508"><ele>97.00000000000001</ele><time>2026-05-03T07:51:22.095Z</time></trkpt><trkpt lat="44.8548811" lon="8.6057832"><ele>97.0</ele><time>2026-05-03T07:51:24.094Z</time></trkpt><trkpt lat="44.8548529" lon="8.6056967"><ele>97.0</ele><time>2026-05-03T07:51:25.094Z</time></trkpt><trkpt lat="44.8548193" lon="8.6056113"><ele>97.0</ele><time>2026-05-03T07:51:26.094Z</time></trkpt><trkpt lat="44.8547739" lon="8.6055326"><ele>97.00000000000001</ele><time>2026-05-03T07:51:27.094Z</time></trkpt><trkpt lat="44.8547111" lon="8.6054696"><ele>97.0</ele><time>2026-05-03T07:51:28.094Z</time></trkpt><trkpt lat="44.8546344" lon="8.6054243"><ele>97.0</ele><time>2026-05-03T07:51:29.095Z</time></trkpt><trkpt lat="44.8545553" lon="8.6053916"><ele>97.0</ele><time>2026-05-03T07:51:30.096Z</time></trkpt><trkpt lat="44.8544786" lon="8.6053601"><ele>97.0</ele><time>2026-05-03T07:51:31.096Z</time></trkpt><trkpt lat="44.8544155" lon="8.6053185"><ele>97.0</ele><time>2026-05-03T07:51:32.095Z</time></trkpt><trkpt lat="44.8543671" lon="8.6052538"><ele>97.0</ele><time>2026-05-03T07:51:33.095Z</time></trkpt><trkpt lat="44.8543347" lon="8.605165"><ele>97.0</ele><time>2026-05-03T07:51:34.095Z</time></trkpt><trkpt lat="44.8543254" lon="8.6050675"><ele>97.0</ele><time>2026-05-03T07:51:35.095Z</time></trkpt><trkpt lat="44.8543331" lon="8.6049614"><ele>97.0</ele><time>2026-05-03T07:51:36.095Z</time></trkpt><trkpt lat="44.8543459" lon="8.6048548"><ele>97.0</ele><time>2026-05-03T07:51:37.095Z</time></trkpt><trkpt lat="44.8543505" lon="8.604753"><ele>97.0</ele><time>2026-05-03T07:51:38.096Z</time></trkpt><trkpt lat="44.8543491" lon="8.6046501"><ele>97.0</ele><time>2026-05-03T07:51:39.095Z</time></trkpt><trkpt lat="44.8543436" lon="8.604546"><ele>97.0</ele><time>2026-05-03T07:51:40.095Z</time></trkpt><trkpt lat="44.8543379" lon="8.6044401"><ele>97.0</ele><time>2026-05-03T07:51:41.096Z</time></trkpt><trkpt lat="44.854333" lon="8.6043332"><ele>97.0</ele><time>2026-05-03T07:51:42.095Z</time></trkpt><trkpt lat="44.854328" lon="8.6042268"><ele>97.16666666666667</ele><time>2026-05-03T07:51:43.095Z</time></trkpt><trkpt lat="44.8543208" lon="8.6041204"><ele>97.33333333333334</ele><time>2026-05-03T07:51:44.096Z</time></trkpt><trkpt lat="44.8543126" lon="8.6040141"><ele>97.5</ele><time>2026-05-03T07:51:45.095Z</time></trkpt><trkpt lat="44.8543042" lon="8.60391"><ele>97.66666666666666</ele><time>2026-05-03T07:51:46.095Z</time></trkpt><trkpt lat="44.8542917" lon="8.6038016"><ele>97.83333333333333</ele><time>2026-05-03T07:51:47.095Z</time></trkpt><trkpt lat="44.8542757" lon="8.6036945"><ele>98.0</ele><time>2026-05-03T07:51:48.095Z</time></trkpt><trkpt lat="44.8542565" lon="8.6035899"><ele>97.99999999999999</ele><time>2026-05-03T07:51:49.095Z</time></trkpt><trkpt lat="44.8542363" lon="8.6034854"><ele>98.0</ele><time>2026-05-03T07:51:50.095Z</time></trkpt><trkpt lat="44.854211" lon="8.6033828"><ele>98.0</ele><time>2026-05-03T07:51:51.095Z</time></trkpt><trkpt lat="44.8541796" lon="8.6032777"><ele>98.0</ele><time>2026-05-03T07:51:52.095Z</time></trkpt><trkpt lat="44.8541464" lon="8.6031751"><ele>97.99999999999999</ele><time>2026-05-03T07:51:53.095Z</time></trkpt><trkpt lat="44.8541113" lon="8.6030729"><ele>98.0</ele><time>2026-05-03T07:51:54.096Z</time></trkpt><trkpt lat="44.8540762" lon="8.6029703"><ele>97.99999999999999</ele><time>2026-05-03T07:51:55.096Z</time></trkpt><trkpt lat="44.8540396" lon="8.6028639"><ele>98.0</ele><time>2026-05-03T07:51:56.095Z</time></trkpt><trkpt lat="44.8540046" lon="8.6027577"><ele>98.0</ele><time>2026-05-03T07:51:57.095Z</time></trkpt><trkpt lat="44.8539701" lon="8.6026499"><ele>98.0</ele><time>2026-05-03T07:51:58.095Z</time></trkpt><trkpt lat="44.8539384" lon="8.6025414"><ele>97.99999999999999</ele><time>2026-05-03T07:51:59.095Z</time></trkpt><trkpt lat="44.8539087" lon="8.6024321"><ele>98.0</ele><time>2026-05-03T07:52:00.095Z</time></trkpt><trkpt lat="44.8538829" lon="8.6023179"><ele>97.99999999999999</ele><time>2026-05-03T07:52:01.095Z</time></trkpt><trkpt lat="44.8538631" lon="8.6022048"><ele>98.0</ele><time>2026-05-03T07:52:02.096Z</time></trkpt><trkpt lat="44.8538471" lon="8.6020928"><ele>98.0</ele><time>2026-05-03T07:52:03.095Z</time></trkpt><trkpt lat="44.8538334" lon="8.601977"><ele>98.0</ele><time>2026-05-03T07:52:04.096Z</time></trkpt><trkpt lat="44.8538213" lon="8.6018582"><ele>97.99999999999999</ele><time>2026-05-03T07:52:05.095Z</time></trkpt><trkpt lat="44.8538118" lon="8.6017411"><ele>98.0</ele><time>2026-05-03T07:52:06.095Z</time></trkpt><trkpt lat="44.8538035" lon="8.6016228"><ele>97.99999999999999</ele><time>2026-05-03T07:52:07.095Z</time></trkpt><trkpt lat="44.8537971" lon="8.6015024"><ele>98.0</ele><time>2026-05-03T07:52:08.096Z</time></trkpt><trkpt lat="44.8537921" lon="8.6013862"><ele>98.0</ele><time>2026-05-03T07:52:09.095Z</time></trkpt><trkpt lat="44.8537855" lon="8.6012654"><ele>98.0</ele><time>2026-05-03T07:52:10.095Z</time></trkpt><trkpt lat="44.8537776" lon="8.6011471"><ele>97.99999999999999</ele><time>2026-05-03T07:52:11.096Z</time></trkpt><trkpt lat="44.8537673" lon="8.6010291"><ele>98.0</ele><time>2026-05-03T07:52:12.095Z</time></trkpt><trkpt lat="44.8537576" lon="8.6009104"><ele>97.83333333333333</ele><time>2026-05-03T07:52:13.096Z</time></trkpt><trkpt lat="44.8537476" lon="8.6007897"><ele>97.66666666666666</ele><time>2026-05-03T07:52:14.096Z</time></trkpt><trkpt lat="44.8537359" lon="8.600667"><ele>97.5</ele><time>2026-05-03T07:52:15.096Z</time></trkpt><trkpt lat="44.8537237" lon="8.6005442"><ele>97.33333333333334</ele><time>2026-05-03T07:52:16.096Z</time></trkpt><trkpt lat="44.8537099" lon="8.6004209"><ele>97.16666666666667</ele><time>2026-05-03T07:52:17.096Z</time></trkpt><trkpt lat="44.8536971" lon="8.6002981"><ele>97.0</ele><time>2026-05-03T07:52:18.096Z</time></trkpt><trkpt lat="44.8536837" lon="8.6001737"><ele>96.83333333333334</ele><time>2026-05-03T07:52:19.097Z</time></trkpt><trkpt lat="44.8536702" lon="8.600048"><ele>96.66666666666667</ele><time>2026-05-03T07:52:20.096Z</time></trkpt><trkpt lat="44.8536567" lon="8.599923"><ele>96.5</ele><time>2026-05-03T07:52:21.096Z</time></trkpt><trkpt lat="44.8536444" lon="8.5998007"><ele>96.33333333333334</ele><time>2026-05-03T07:52:22.097Z</time></trkpt><trkpt lat="44.8536328" lon="8.5996765"><ele>96.16666666666667</ele><time>2026-05-03T07:52:23.096Z</time></trkpt><trkpt lat="44.8536218" lon="8.5995532"><ele>96.0</ele><time>2026-05-03T07:52:24.096Z</time></trkpt><trkpt lat="44.8536113" lon="8.5994341"><ele>96.0</ele><time>2026-05-03T07:52:25.096Z</time></trkpt><trkpt lat="44.8536034" lon="8.5993206"><ele>96.0</ele><time>2026-05-03T07:52:26.096Z</time></trkpt><trkpt lat="44.8535988" lon="8.5992076"><ele>96.0</ele><time>2026-05-03T07:52:27.096Z</time></trkpt><trkpt lat="44.8535968" lon="8.5990948"><ele>96.0</ele><time>2026-05-03T07:52:28.096Z</time></trkpt><trkpt lat="44.8535968" lon="8.5989832"><ele>96.0</ele><time>2026-05-03T07:52:29.097Z</time></trkpt><trkpt lat="44.8535964" lon="8.5988725"><ele>96.0</ele><time>2026-05-03T07:52:30.096Z</time></trkpt><trkpt lat="44.8535947" lon="8.5987577"><ele>96.16666666666667</ele><time>2026-05-03T07:52:31.096Z</time></trkpt><trkpt lat="44.8535923" lon="8.5986411"><ele>96.33333333333334</ele><time>2026-05-03T07:52:32.096Z</time></trkpt><trkpt lat="44.8535906" lon="8.5985245"><ele>96.5</ele><time>2026-05-03T07:52:33.097Z</time></trkpt><trkpt lat="44.853589" lon="8.5984056"><ele>96.66666666666667</ele><time>2026-05-03T07:52:34.096Z</time></trkpt><trkpt lat="44.8535844" lon="8.5982882"><ele>96.83333333333334</ele><time>2026-05-03T07:52:35.097Z</time></trkpt><trkpt lat="44.8535714" lon="8.598173"><ele>97.0</ele><time>2026-05-03T07:52:36.096Z</time></trkpt><trkpt lat="44.8535469" lon="8.5980528"><ele>97.0</ele><time>2026-05-03T07:52:37.096Z</time></trkpt><trkpt lat="44.8535097" lon="8.5979353"><ele>97.0</ele><time>2026-05-03T07:52:38.097Z</time></trkpt><trkpt lat="44.8534642" lon="8.5978222"><ele>97.0</ele><time>2026-05-03T07:52:39.096Z</time></trkpt><trkpt lat="44.8534098" lon="8.5977143"><ele>97.0</ele><time>2026-05-03T07:52:40.096Z</time></trkpt><trkpt lat="44.8533503" lon="8.5976141"><ele>97.0</ele><time>2026-05-03T07:52:41.096Z</time></trkpt><trkpt lat="44.8532896" lon="8.5975135"><ele>97.19999999999999</ele><time>2026-05-03T07:52:42.097Z</time></trkpt><trkpt lat="44.8532285" lon="8.5974109"><ele>97.4</ele><time>2026-05-03T07:52:43.096Z</time></trkpt><trkpt lat="44.8531687" lon="8.5973086"><ele>97.6</ele><time>2026-05-03T07:52:44.096Z</time></trkpt><trkpt lat="44.8531096" lon="8.597205"><ele>97.80000000000001</ele><time>2026-05-03T07:52:45.096Z</time></trkpt><trkpt lat="44.8530523" lon="8.5971032"><ele>98.0</ele><time>2026-05-03T07:52:46.097Z</time></trkpt><trkpt lat="44.8529945" lon="8.5970044"><ele>98.0</ele><time>2026-05-03T07:52:47.096Z</time></trkpt><trkpt lat="44.852937" lon="8.5969052"><ele>98.0</ele><time>2026-05-03T07:52:48.096Z</time></trkpt><trkpt lat="44.8528811" lon="8.5968066"><ele>98.0</ele><time>2026-05-03T07:52:49.096Z</time></trkpt><trkpt lat="44.8528263" lon="8.5966984"><ele>98.0</ele><time>2026-05-03T07:52:50.097Z</time></trkpt><trkpt lat="44.852773" lon="8.5965868"><ele>98.0</ele><time>2026-05-03T07:52:51.097Z</time></trkpt><trkpt lat="44.852718" lon="8.5964728"><ele>98.0</ele><time>2026-05-03T07:52:52.096Z</time></trkpt><trkpt lat="44.852666" lon="8.5963608"><ele>98.0</ele><time>2026-05-03T07:52:53.096Z</time></trkpt><trkpt lat="44.852618" lon="8.5962451"><ele>98.0</ele><time>2026-05-03T07:52:54.096Z</time></trkpt><trkpt lat="44.8525718" lon="8.5961315"><ele>98.0</ele><time>2026-05-03T07:52:55.096Z</time></trkpt><trkpt lat="44.8525266" lon="8.596019"><ele>98.0</ele><time>2026-05-03T07:52:56.097Z</time></trkpt><trkpt lat="44.8524897" lon="8.595918"><ele>98.0</ele><time>2026-05-03T07:52:57.097Z</time></trkpt><trkpt lat="44.852456" lon="8.5958216"><ele>98.0</ele><time>2026-05-03T07:52:58.097Z</time></trkpt><trkpt lat="44.8524281" lon="8.5957333"><ele>98.0</ele><time>2026-05-03T07:52:59.097Z</time></trkpt><trkpt lat="44.8524077" lon="8.5956407"><ele>98.0</ele><time>2026-05-03T07:53:00.097Z</time></trkpt><trkpt lat="44.8523918" lon="8.5955356"><ele>98.0</ele><time>2026-05-03T07:53:01.098Z</time></trkpt><trkpt lat="44.8523803" lon="8.5954365"><ele>98.0</ele><time>2026-05-03T07:53:02.097Z</time></trkpt><trkpt lat="44.8523681" lon="8.595339"><ele>98.0</ele><time>2026-05-03T07:53:03.097Z</time></trkpt><trkpt lat="44.8523515" lon="8.595235"><ele>97.99999999999999</ele><time>2026-05-03T07:53:04.098Z</time></trkpt><trkpt lat="44.8523316" lon="8.5951272"><ele>98.0</ele><time>2026-05-03T07:53:05.098Z</time></trkpt><trkpt lat="44.8523021" lon="8.5950182"><ele>98.0</ele><time>2026-05-03T07:53:06.097Z</time></trkpt><trkpt lat="44.8522647" lon="8.5949117"><ele>98.0</ele><time>2026-05-03T07:53:07.097Z</time></trkpt><trkpt lat="44.8522277" lon="8.5948056"><ele>97.99999999999999</ele><time>2026-05-03T07:53:08.097Z</time></trkpt><trkpt lat="44.8521946" lon="8.5947073"><ele>98.0</ele><time>2026-05-03T07:53:09.098Z</time></trkpt><trkpt lat="44.8521646" lon="8.5946108"><ele>97.99999999999999</ele><time>2026-05-03T07:53:10.097Z</time></trkpt><trkpt lat="44.8521359" lon="8.5945055"><ele>98.0</ele><time>2026-05-03T07:53:11.097Z</time></trkpt><trkpt lat="44.852112" lon="8.5944008"><ele>98.0</ele><time>2026-05-03T07:53:12.097Z</time></trkpt><trkpt lat="44.8520919" lon="8.5942943"><ele>98.0</ele><time>2026-05-03T07:53:13.097Z</time></trkpt><trkpt lat="44.8520769" lon="8.5941894"><ele>97.99999999999999</ele><time>2026-05-03T07:53:14.097Z</time></trkpt><trkpt lat="44.852065" lon="8.594083"><ele>98.0</ele><time>2026-05-03T07:53:15.097Z</time></trkpt><trkpt lat="44.8520527" lon="8.593974"><ele>97.99999999999999</ele><time>2026-05-03T07:53:16.097Z</time></trkpt><trkpt lat="44.8520393" lon="8.5938579"><ele>98.0</ele><time>2026-05-03T07:53:17.097Z</time></trkpt><trkpt lat="44.8520355" lon="8.5937383"><ele>98.0</ele><time>2026-05-03T07:53:18.097Z</time></trkpt><trkpt lat="44.8520394" lon="8.5936189"><ele>98.0</ele><time>2026-05-03T07:53:19.098Z</time></trkpt><trkpt lat="44.8520467" lon="8.5934955"><ele>97.99999999999999</ele><time>2026-05-03T07:53:20.097Z</time></trkpt><trkpt lat="44.8520553" lon="8.593367"><ele>98.0</ele><time>2026-05-03T07:53:21.098Z</time></trkpt><trkpt lat="44.8520617" lon="8.5932384"><ele>97.99999999999999</ele><time>2026-05-03T07:53:22.097Z</time></trkpt><trkpt lat="44.8520658" lon="8.5931099"><ele>98.0</ele><time>2026-05-03T07:53:23.098Z</time></trkpt><trkpt lat="44.8520698" lon="8.5929831"><ele>98.0</ele><time>2026-05-03T07:53:24.098Z</time></trkpt><trkpt lat="44.8520744" lon="8.5928616"><ele>98.0</ele><time>2026-05-03T07:53:25.097Z</time></trkpt><trkpt lat="44.8520805" lon="8.5927444"><ele>97.99999999999999</ele><time>2026-05-03T07:53:26.097Z</time></trkpt><trkpt lat="44.8520855" lon="8.592629"><ele>98.0</ele><time>2026-05-03T07:53:27.097Z</time></trkpt><trkpt lat="44.8520859" lon="8.5925184"><ele>97.99999999999999</ele><time>2026-05-03T07:53:28.098Z</time></trkpt><trkpt lat="44.8520813" lon="8.592403"><ele>98.0</ele><time>2026-05-03T07:53:29.097Z</time></trkpt><trkpt lat="44.8520725" lon="8.592284"><ele>98.0</ele><time>2026-05-03T07:53:30.097Z</time></trkpt><trkpt lat="44.8520623" lon="8.5921625"><ele>98.0</ele><time>2026-05-03T07:53:31.097Z</time></trkpt><trkpt lat="44.852052" lon="8.5920404"><ele>97.99999999999999</ele><time>2026-05-03T07:53:32.097Z</time></trkpt><trkpt lat="44.8520512" lon="8.591899"><ele>98.0</ele><time>2026-05-03T07:53:33.097Z</time></trkpt><trkpt lat="44.8520386" lon="8.5917856"><ele>98.0</ele><time>2026-05-03T07:53:34.097Z</time></trkpt><trkpt lat="44.85202" lon="8.59168"><ele>98.0</ele><time>2026-05-03T07:53:35.097Z</time></trkpt><trkpt lat="44.8519978" lon="8.591581"><ele>98.0</ele><time>2026-05-03T07:53:36.098Z</time></trkpt><trkpt lat="44.8519759" lon="8.5914843"><ele>98.0</ele><time>2026-05-03T07:53:37.097Z</time></trkpt><trkpt lat="44.8519581" lon="8.5913876"><ele>98.0</ele><time>2026-05-03T07:53:38.097Z</time></trkpt><trkpt lat="44.8519418" lon="8.5912945"><ele>98.0</ele><time>2026-05-03T07:53:39.097Z</time></trkpt><trkpt lat="44.8519243" lon="8.5912045"><ele>98.0</ele><time>2026-05-03T07:53:40.099Z</time></trkpt><trkpt lat="44.8519074" lon="8.5911174"><ele>98.0</ele><time>2026-05-03T07:53:41.099Z</time></trkpt><trkpt lat="44.8518775" lon="8.5909527"><ele>98.0</ele><time>2026-05-03T07:53:43.099Z</time></trkpt><trkpt lat="44.8518484" lon="8.5907921"><ele>98.0</ele><time>2026-05-03T07:53:45.098Z</time></trkpt><trkpt lat="44.8518121" lon="8.5906232"><ele>98.0</ele><time>2026-05-03T07:53:47.099Z</time></trkpt><trkpt lat="44.8517871" lon="8.5905329"><ele>98.0</ele><time>2026-05-03T07:53:48.099Z</time></trkpt><trkpt lat="44.8517606" lon="8.5904325"><ele>98.49999999999999</ele><time>2026-05-03T07:53:49.098Z</time></trkpt><trkpt lat="44.8517333" lon="8.5903406"><ele>99.0</ele><time>2026-05-03T07:53:50.098Z</time></trkpt><trkpt lat="44.8517092" lon="8.5902415"><ele>99.5</ele><time>2026-05-03T07:53:51.098Z</time></trkpt><trkpt lat="44.851685" lon="8.5901288"><ele>100.0</ele><time>2026-05-03T07:53:52.098Z</time></trkpt><trkpt lat="44.851666" lon="8.5899747"><ele>100.49999999999999</ele><time>2026-05-03T07:53:53.098Z</time></trkpt><trkpt lat="44.8516499" lon="8.589839"><ele>101.0</ele><time>2026-05-03T07:53:54.098Z</time></trkpt><trkpt lat="44.8516209" lon="8.5897121"><ele>100.99999999999999</ele><time>2026-05-03T07:53:55.098Z</time></trkpt><trkpt lat="44.8515944" lon="8.5895931"><ele>101.0</ele><time>2026-05-03T07:53:56.098Z</time></trkpt><trkpt lat="44.8515659" lon="8.589477"><ele>101.0</ele><time>2026-05-03T07:53:57.098Z</time></trkpt><trkpt lat="44.8515352" lon="8.589366"><ele>101.0</ele><time>2026-05-03T07:53:58.098Z</time></trkpt><trkpt lat="44.8515037" lon="8.5892606"><ele>100.99999999999999</ele><time>2026-05-03T07:53:59.099Z</time></trkpt><trkpt lat="44.8514695" lon="8.5891577"><ele>101.0</ele><time>2026-05-03T07:54:00.098Z</time></trkpt><trkpt lat="44.8514304" lon="8.589062"><ele>100.66666666666666</ele><time>2026-05-03T07:54:01.099Z</time></trkpt><trkpt lat="44.8513825" lon="8.5889687"><ele>100.33333333333333</ele><time>2026-05-03T07:54:02.098Z</time></trkpt><trkpt lat="44.8513277" lon="8.5888824"><ele>100.0</ele><time>2026-05-03T07:54:03.098Z</time></trkpt><trkpt lat="44.8512653" lon="8.5888031"><ele>99.66666666666666</ele><time>2026-05-03T07:54:04.099Z</time></trkpt><trkpt lat="44.8511992" lon="8.588724"><ele>99.33333333333333</ele><time>2026-05-03T07:54:05.099Z</time></trkpt><trkpt lat="44.8511338" lon="8.5886464"><ele>99.0</ele><time>2026-05-03T07:54:06.099Z</time></trkpt><trkpt lat="44.851069" lon="8.5885745"><ele>98.83333333333333</ele><time>2026-05-03T07:54:07.098Z</time></trkpt><trkpt lat="44.8510045" lon="8.5885063"><ele>98.66666666666666</ele><time>2026-05-03T07:54:08.098Z</time></trkpt><trkpt lat="44.8509393" lon="8.5884445"><ele>98.5</ele><time>2026-05-03T07:54:09.098Z</time></trkpt><trkpt lat="44.8508745" lon="8.5883932"><ele>98.33333333333333</ele><time>2026-05-03T07:54:10.099Z</time></trkpt><trkpt lat="44.8508148" lon="8.5883467"><ele>98.16666666666666</ele><time>2026-05-03T07:54:11.098Z</time></trkpt><trkpt lat="44.8507102" lon="8.5882586"><ele>98.0</ele><time>2026-05-03T07:54:13.098Z</time></trkpt><trkpt lat="44.8506631" lon="8.5881969"><ele>98.33333333333333</ele><time>2026-05-03T07:54:14.099Z</time></trkpt><trkpt lat="44.8506283" lon="8.5881154"><ele>98.66666666666666</ele><time>2026-05-03T07:54:15.099Z</time></trkpt><trkpt lat="44.8506008" lon="8.5880269"><ele>99.0</ele><time>2026-05-03T07:54:16.098Z</time></trkpt><trkpt lat="44.8505934" lon="8.5879114"><ele>99.33333333333334</ele><time>2026-05-03T07:54:17.098Z</time></trkpt><trkpt lat="44.8505955" lon="8.5877921"><ele>99.66666666666667</ele><time>2026-05-03T07:54:18.098Z</time></trkpt><trkpt lat="44.8506054" lon="8.5876703"><ele>100.0</ele><time>2026-05-03T07:54:19.098Z</time></trkpt><trkpt lat="44.8506112" lon="8.5875574"><ele>100.00000000000001</ele><time>2026-05-03T07:54:20.098Z</time></trkpt><trkpt lat="44.8506145" lon="8.5874446"><ele>100.0</ele><time>2026-05-03T07:54:21.098Z</time></trkpt><trkpt lat="44.8506132" lon="8.5873341"><ele>100.0</ele><time>2026-05-03T07:54:22.098Z</time></trkpt><trkpt lat="44.8505976" lon="8.5872216"><ele>100.0</ele><time>2026-05-03T07:54:23.098Z</time></trkpt><trkpt lat="44.8505713" lon="8.5871096"><ele>100.00000000000001</ele><time>2026-05-03T07:54:24.1Z</time></trkpt><trkpt lat="44.8505271" lon="8.5869992"><ele>100.0</ele><time>2026-05-03T07:54:25.099Z</time></trkpt><trkpt lat="44.8504709" lon="8.5868927"><ele>99.8</ele><time>2026-05-03T07:54:26.099Z</time></trkpt><trkpt lat="44.8504155" lon="8.5867897"><ele>99.6</ele><time>2026-05-03T07:54:27.099Z</time></trkpt><trkpt lat="44.8503614" lon="8.5866858"><ele>99.4</ele><time>2026-05-03T07:54:28.099Z</time></trkpt><trkpt lat="44.8503125" lon="8.5865816"><ele>99.2</ele><time>2026-05-03T07:54:29.099Z</time></trkpt><trkpt lat="44.8502687" lon="8.5864734"><ele>99.0</ele><time>2026-05-03T07:54:30.099Z</time></trkpt><trkpt lat="44.8502269" lon="8.5863568"><ele>99.0</ele><time>2026-05-03T07:54:31.099Z</time></trkpt><trkpt lat="44.850188" lon="8.5862385"><ele>99.0</ele><time>2026-05-03T07:54:32.099Z</time></trkpt><trkpt lat="44.85015" lon="8.5861166"><ele>99.0</ele><time>2026-05-03T07:54:33.099Z</time></trkpt><trkpt lat="44.850113" lon="8.5859955"><ele>99.0</ele><time>2026-05-03T07:54:34.1Z</time></trkpt><trkpt lat="44.8500772" lon="8.5858743"><ele>99.0</ele><time>2026-05-03T07:54:35.099Z</time></trkpt><trkpt lat="44.8500462" lon="8.5857577"><ele>99.16666666666667</ele><time>2026-05-03T07:54:36.099Z</time></trkpt><trkpt lat="44.8500168" lon="8.5856397"><ele>99.33333333333334</ele><time>2026-05-03T07:54:37.099Z</time></trkpt><trkpt lat="44.8499925" lon="8.5855307"><ele>99.5</ele><time>2026-05-03T07:54:38.099Z</time></trkpt><trkpt lat="44.8499715" lon="8.5854173"><ele>99.66666666666667</ele><time>2026-05-03T07:54:39.099Z</time></trkpt><trkpt lat="44.8499509" lon="8.5853122"><ele>99.83333333333334</ele><time>2026-05-03T07:54:40.1Z</time></trkpt><trkpt lat="44.8499326" lon="8.5852007"><ele>100.0</ele><time>2026-05-03T07:54:41.1Z</time></trkpt><trkpt lat="44.849914" lon="8.5850865"><ele>100.0</ele><time>2026-05-03T07:54:42.099Z</time></trkpt><trkpt lat="44.8498993" lon="8.5849735"><ele>100.0</ele><time>2026-05-03T07:54:43.1Z</time></trkpt><trkpt lat="44.8498868" lon="8.5848548"><ele>100.0</ele><time>2026-05-03T07:54:44.1Z</time></trkpt><trkpt lat="44.849876" lon="8.5847272"><ele>100.0</ele><time>2026-05-03T07:54:45.099Z</time></trkpt><trkpt lat="44.8498685" lon="8.5845902"><ele>100.0</ele><time>2026-05-03T07:54:46.099Z</time></trkpt><trkpt lat="44.849861" lon="8.5844561"><ele>100.0</ele><time>2026-05-03T07:54:47.099Z</time></trkpt><trkpt lat="44.8498517" lon="8.5843257"><ele>100.0</ele><time>2026-05-03T07:54:48.099Z</time></trkpt><trkpt lat="44.8498431" lon="8.5841968"><ele>100.0</ele><time>2026-05-03T07:54:49.1Z</time></trkpt><trkpt lat="44.8498371" lon="8.5840662"><ele>100.0</ele><time>2026-05-03T07:54:50.099Z</time></trkpt><trkpt lat="44.8498339" lon="8.5839353"><ele>100.0</ele><time>2026-05-03T07:54:51.1Z</time></trkpt><trkpt lat="44.8498388" lon="8.5838049"><ele>100.4</ele><time>2026-05-03T07:54:52.099Z</time></trkpt><trkpt lat="44.8498542" lon="8.5836731"><ele>100.8</ele><time>2026-05-03T07:54:53.099Z</time></trkpt><trkpt lat="44.8498765" lon="8.5835427"><ele>101.19999999999999</ele><time>2026-05-03T07:54:54.1Z</time></trkpt><trkpt lat="44.8499017" lon="8.583413"><ele>101.6</ele><time>2026-05-03T07:54:55.1Z</time></trkpt><trkpt lat="44.8499283" lon="8.5832838"><ele>102.0</ele><time>2026-05-03T07:54:56.1Z</time></trkpt><trkpt lat="44.8499527" lon="8.5831573"><ele>102.0</ele><time>2026-05-03T07:54:57.099Z</time></trkpt><trkpt lat="44.8499745" lon="8.5830402"><ele>102.0</ele><time>2026-05-03T07:54:58.099Z</time></trkpt><trkpt lat="44.8499937" lon="8.5829287"><ele>102.0</ele><time>2026-05-03T07:54:59.099Z</time></trkpt><trkpt lat="44.8500091" lon="8.5828247"><ele>102.0</ele><time>2026-05-03T07:55:00.1Z</time></trkpt><trkpt lat="44.8500173" lon="8.582716"><ele>102.0</ele><time>2026-05-03T07:55:01.099Z</time></trkpt><trkpt lat="44.8500243" lon="8.5826089"><ele>102.0</ele><time>2026-05-03T07:55:02.099Z</time></trkpt><trkpt lat="44.8500293" lon="8.5824992"><ele>102.0</ele><time>2026-05-03T07:55:03.099Z</time></trkpt><trkpt lat="44.8500338" lon="8.5823935"><ele>102.0</ele><time>2026-05-03T07:55:04.099Z</time></trkpt><trkpt lat="44.8500338" lon="8.5822918"><ele>102.0</ele><time>2026-05-03T07:55:05.1Z</time></trkpt><trkpt lat="44.8500271" lon="8.5821872"><ele>102.0</ele><time>2026-05-03T07:55:06.099Z</time></trkpt><trkpt lat="44.8500149" lon="8.5820765"><ele>102.0</ele><time>2026-05-03T07:55:07.101Z</time></trkpt><trkpt lat="44.8499965" lon="8.5819702"><ele>102.0</ele><time>2026-05-03T07:55:08.101Z</time></trkpt><trkpt lat="44.8499805" lon="8.5818623"><ele>102.0</ele><time>2026-05-03T07:55:09.1Z</time></trkpt><trkpt lat="44.8499671" lon="8.5817552"><ele>102.0</ele><time>2026-05-03T07:55:10.101Z</time></trkpt><trkpt lat="44.8499504" lon="8.5816483"><ele>102.0</ele><time>2026-05-03T07:55:11.1Z</time></trkpt><trkpt lat="44.8499283" lon="8.5815436"><ele>102.0</ele><time>2026-05-03T07:55:12.1Z</time></trkpt><trkpt lat="44.8499035" lon="8.58144"><ele>102.0</ele><time>2026-05-03T07:55:13.101Z</time></trkpt><trkpt lat="44.8498862" lon="8.5813286"><ele>102.0</ele><time>2026-05-03T07:55:14.1Z</time></trkpt><trkpt lat="44.8498641" lon="8.5812219"><ele>102.0</ele><time>2026-05-03T07:55:15.1Z</time></trkpt><trkpt lat="44.8498405" lon="8.5811153"><ele>102.0</ele><time>2026-05-03T07:55:16.101Z</time></trkpt><trkpt lat="44.8498154" lon="8.5810071"><ele>102.0</ele><time>2026-05-03T07:55:17.1Z</time></trkpt><trkpt lat="44.8497827" lon="8.580893"><ele>102.0</ele><time>2026-05-03T07:55:18.1Z</time></trkpt><trkpt lat="44.8497537" lon="8.5807868"><ele>102.0</ele><time>2026-05-03T07:55:19.1Z</time></trkpt><trkpt lat="44.8497238" lon="8.5806841"><ele>102.0</ele><time>2026-05-03T07:55:20.1Z</time></trkpt><trkpt lat="44.8496952" lon="8.5805794"><ele>102.0</ele><time>2026-05-03T07:55:21.101Z</time></trkpt><trkpt lat="44.8496688" lon="8.5804674"><ele>102.0</ele><time>2026-05-03T07:55:22.101Z</time></trkpt><trkpt lat="44.8496428" lon="8.5803693"><ele>102.0</ele><time>2026-05-03T07:55:23.1Z</time></trkpt><trkpt lat="44.8496157" lon="8.580284"><ele>102.0</ele><time>2026-05-03T07:55:24.1Z</time></trkpt><trkpt lat="44.849574" lon="8.5801465"><ele>102.0</ele><time>2026-05-03T07:55:26.1Z</time></trkpt><trkpt lat="44.8495441" lon="8.5800548"><ele>102.0</ele><time>2026-05-03T07:55:28.1Z</time></trkpt><trkpt lat="44.8495306" lon="8.5799475"><ele>102.0</ele><time>2026-05-03T07:55:32.1Z</time></trkpt><trkpt lat="44.8494664" lon="8.5798749"><ele>102.0</ele><time>2026-05-03T07:55:34.1Z</time></trkpt><trkpt lat="44.8494099" lon="8.5798204"><ele>102.0</ele><time>2026-05-03T07:55:35.101Z</time></trkpt><trkpt lat="44.849357" lon="8.5797667"><ele>102.0</ele><time>2026-05-03T07:55:36.1Z</time></trkpt><trkpt lat="44.8493107" lon="8.5797056"><ele>102.0</ele><time>2026-05-03T07:55:37.1Z</time></trkpt><trkpt lat="44.8492287" lon="8.5795697"><ele>102.0</ele><time>2026-05-03T07:55:39.101Z</time></trkpt><trkpt lat="44.8491715" lon="8.5795024"><ele>101.85714285714286</ele><time>2026-05-03T07:55:40.1Z</time></trkpt><trkpt lat="44.849115" lon="8.5794323"><ele>101.71428571428572</ele><time>2026-05-03T07:55:41.1Z</time></trkpt><trkpt lat="44.8490558" lon="8.579362"><ele>101.57142857142857</ele><time>2026-05-03T07:55:42.1Z</time></trkpt><trkpt lat="44.849003" lon="8.5792871"><ele>101.42857142857143</ele><time>2026-05-03T07:55:43.1Z</time></trkpt><trkpt lat="44.8489614" lon="8.5792096"><ele>101.28571428571428</ele><time>2026-05-03T07:55:44.101Z</time></trkpt><trkpt lat="44.8489193" lon="8.5791325"><ele>101.14285714285714</ele><time>2026-05-03T07:55:45.1Z</time></trkpt><trkpt lat="44.8488792" lon="8.5790447"><ele>101.0</ele><time>2026-05-03T07:55:46.1Z</time></trkpt><trkpt lat="44.8488365" lon="8.578953"><ele>100.99999999999999</ele><time>2026-05-03T07:55:47.101Z</time></trkpt><trkpt lat="44.8487894" lon="8.5788629"><ele>101.0</ele><time>2026-05-03T07:55:48.1Z</time></trkpt><trkpt lat="44.8487443" lon="8.5787718"><ele>101.0</ele><time>2026-05-03T07:55:49.1Z</time></trkpt><trkpt lat="44.8487023" lon="8.5786867"><ele>101.0</ele><time>2026-05-03T07:55:50.101Z</time></trkpt><trkpt lat="44.8486594" lon="8.578604"><ele>100.99999999999999</ele><time>2026-05-03T07:55:51.101Z</time></trkpt><trkpt lat="44.848619" lon="8.5785277"><ele>101.0</ele><time>2026-05-03T07:55:52.102Z</time></trkpt><trkpt lat="44.8485473" lon="8.5784085"><ele>100.99999999999999</ele><time>2026-05-03T07:55:54.102Z</time></trkpt><trkpt lat="44.8484781" lon="8.5783202"><ele>101.0</ele><time>2026-05-03T07:55:56.102Z</time></trkpt><trkpt lat="44.8484296" lon="8.5782603"><ele>101.0</ele><time>2026-05-03T07:55:58.101Z</time></trkpt><trkpt lat="44.8484181" lon="8.5781611"><ele>101.0</ele><time>2026-05-03T07:56:00.101Z</time></trkpt><trkpt lat="44.8484765" lon="8.5780645"><ele>100.99999999999999</ele><time>2026-05-03T07:56:02.101Z</time></trkpt><trkpt lat="44.8485649" lon="8.5779614"><ele>101.0</ele><time>2026-05-03T07:56:04.102Z</time></trkpt><trkpt lat="44.8486586" lon="8.5778627"><ele>101.0</ele><time>2026-05-03T07:56:06.101Z</time></trkpt><trkpt lat="44.8487611" lon="8.5777573"><ele>101.0</ele><time>2026-05-03T07:56:08.101Z</time></trkpt><trkpt lat="44.8488169" lon="8.5777068"><ele>101.0</ele><time>2026-05-03T07:56:09.101Z</time></trkpt><trkpt lat="44.848869" lon="8.57765"><ele>101.0</ele><time>2026-05-03T07:56:10.102Z</time></trkpt><trkpt lat="44.8489064" lon="8.5775117"><ele>101.0</ele><time>2026-05-03T07:56:12.101Z</time></trkpt><trkpt lat="44.8488403" lon="8.5773742"><ele>101.0</ele><time>2026-05-03T07:56:14.101Z</time></trkpt><trkpt lat="44.8487899" lon="8.5773119"><ele>101.0</ele><time>2026-05-03T07:56:15.101Z</time></trkpt><trkpt lat="44.8487444" lon="8.5772392"><ele>101.0</ele><time>2026-05-03T07:56:16.101Z</time></trkpt><trkpt lat="44.8486977" lon="8.5771644"><ele>101.0</ele><time>2026-05-03T07:56:17.101Z</time></trkpt><trkpt lat="44.84865" lon="8.5770939"><ele>101.0</ele><time>2026-05-03T07:56:18.102Z</time></trkpt><trkpt lat="44.8485988" lon="8.5770219"><ele>101.0</ele><time>2026-05-03T07:56:19.101Z</time></trkpt><trkpt lat="44.8485485" lon="8.5769483"><ele>101.0</ele><time>2026-05-03T07:56:20.101Z</time></trkpt><trkpt lat="44.8485001" lon="8.5768712"><ele>101.0</ele><time>2026-05-03T07:56:21.101Z</time></trkpt><trkpt lat="44.8484556" lon="8.5767955"><ele>101.0</ele><time>2026-05-03T07:56:22.101Z</time></trkpt><trkpt lat="44.8484093" lon="8.5767188"><ele>101.0</ele><time>2026-05-03T07:56:23.102Z</time></trkpt><trkpt lat="44.8483666" lon="8.5766396"><ele>101.0</ele><time>2026-05-03T07:56:24.101Z</time></trkpt><trkpt lat="44.848325" lon="8.5765587"><ele>101.0</ele><time>2026-05-03T07:56:25.102Z</time></trkpt><trkpt lat="44.84828" lon="8.5764727"><ele>101.0</ele><time>2026-05-03T07:56:26.102Z</time></trkpt><trkpt lat="44.8482395" lon="8.5763834"><ele>101.0</ele><time>2026-05-03T07:56:27.102Z</time></trkpt><trkpt lat="44.8482069" lon="8.5763057"><ele>101.4</ele><time>2026-05-03T07:56:28.101Z</time></trkpt><trkpt lat="44.8481483" lon="8.5761511"><ele>101.8</ele><time>2026-05-03T07:56:30.101Z</time></trkpt><trkpt lat="44.8481139" lon="8.5760736"><ele>102.2</ele><time>2026-05-03T07:56:31.101Z</time></trkpt><trkpt lat="44.8480709" lon="8.575913"><ele>102.60000000000001</ele><time>2026-05-03T07:56:33.102Z</time></trkpt><trkpt lat="44.8480108" lon="8.5758101"><ele>103.0</ele><time>2026-05-03T07:56:35.102Z</time></trkpt><trkpt lat="44.8479725" lon="8.5757287"><ele>103.0</ele><time>2026-05-03T07:56:37.103Z</time></trkpt><trkpt lat="44.8479335" lon="8.5756179"><ele>103.0</ele><time>2026-05-03T07:56:40.102Z</time></trkpt><trkpt lat="44.8478943" lon="8.5755365"><ele>103.0</ele><time>2026-05-03T07:56:52.102Z</time></trkpt><trkpt lat="44.8478937" lon="8.5754224"><ele>103.0</ele><time>2026-05-03T07:57:24.103Z</time></trkpt><trkpt lat="44.8479624" lon="8.5754666"><ele>103.0</ele><time>2026-05-03T07:57:39.103Z</time></trkpt></trkseg></trk></gpx>